<?xml version="1.0" encoding="UTF-8" standalone="no" ?>
<gpx xmlns="http://www.topografix.com/GPX/1/1" xmlns:xsi="http://www.w3.org/2001/XMLSchema-instance" xsi:schemaLocation="http://www.topografix.com/GPX/1/1 http://www.topografix.com/GPX/1/1/gpx.xsd" version="1.1" creator="VisuGPX - https://www.visugpx.com">
  <metadata>
    <name>La plaine des Maures</name>
    <desc><![CDATA[Magnifique balade dans la plaine des maures. Dénivelé faible.
]]></desc>
  </metadata>
  <trk>
    <name><![CDATA[La plaine des Maures_1]]></name>
    <trkseg>
      <trkpt lat="43.31538" lon="6.29609">
        <ele>182</ele>
        <time>2021-05-22T07:21:01Z</time>
      </trkpt>
      <trkpt lat="43.3152" lon="6.2962">
        <ele>182.19999694824</ele>
        <time>2021-05-22T07:21:07Z</time>
      </trkpt>
      <trkpt lat="43.31512" lon="6.29627">
        <ele>183.19999694824</ele>
        <time>2021-05-22T07:21:10Z</time>
      </trkpt>
      <trkpt lat="43.31505" lon="6.29637">
        <ele>183.60000610352</ele>
        <time>2021-05-22T07:21:13Z</time>
      </trkpt>
      <trkpt lat="43.31503" lon="6.29641">
        <ele>183.60000610352</ele>
        <time>2021-05-22T07:21:14Z</time>
      </trkpt>
      <trkpt lat="43.315" lon="6.29657">
        <ele>184</ele>
        <time>2021-05-22T07:21:17Z</time>
      </trkpt>
      <trkpt lat="43.31499" lon="6.29662">
        <ele>184.19999694824</ele>
        <time>2021-05-22T07:21:18Z</time>
      </trkpt>
      <trkpt lat="43.31493" lon="6.29676">
        <ele>184.19999694824</ele>
        <time>2021-05-22T07:21:20Z</time>
      </trkpt>
      <trkpt lat="43.3149" lon="6.29682">
        <ele>184.19999694824</ele>
        <time>2021-05-22T07:21:21Z</time>
      </trkpt>
      <trkpt lat="43.31486" lon="6.29687">
        <ele>184.19999694824</ele>
        <time>2021-05-22T07:21:22Z</time>
      </trkpt>
      <trkpt lat="43.3147" lon="6.29696">
        <ele>184</ele>
        <time>2021-05-22T07:21:25Z</time>
      </trkpt>
      <trkpt lat="43.31458" lon="6.29702">
        <ele>183.60000610352</ele>
        <time>2021-05-22T07:21:28Z</time>
      </trkpt>
      <trkpt lat="43.31455" lon="6.29704">
        <ele>183.60000610352</ele>
        <time>2021-05-22T07:21:29Z</time>
      </trkpt>
      <trkpt lat="43.31452" lon="6.29707">
        <ele>183.60000610352</ele>
        <time>2021-05-22T07:21:30Z</time>
      </trkpt>
      <trkpt lat="43.31445" lon="6.29713">
        <ele>183.60000610352</ele>
        <time>2021-05-22T07:21:32Z</time>
      </trkpt>
      <trkpt lat="43.31441" lon="6.29718">
        <ele>183.60000610352</ele>
        <time>2021-05-22T07:21:33Z</time>
      </trkpt>
      <trkpt lat="43.31439" lon="6.29722">
        <ele>183.60000610352</ele>
        <time>2021-05-22T07:21:34Z</time>
      </trkpt>
      <trkpt lat="43.31434" lon="6.2973">
        <ele>184</ele>
        <time>2021-05-22T07:21:36Z</time>
      </trkpt>
      <trkpt lat="43.31432" lon="6.29733">
        <ele>184</ele>
        <time>2021-05-22T07:21:37Z</time>
      </trkpt>
      <trkpt lat="43.3143" lon="6.29737">
        <ele>184.39999389648</ele>
        <time>2021-05-22T07:21:38Z</time>
      </trkpt>
      <trkpt lat="43.31421" lon="6.29754">
        <ele>185.19999694824</ele>
        <time>2021-05-22T07:21:42Z</time>
      </trkpt>
      <trkpt lat="43.31419" lon="6.29759">
        <ele>185.39999389648</ele>
        <time>2021-05-22T07:21:43Z</time>
      </trkpt>
      <trkpt lat="43.31417" lon="6.29763">
        <ele>185.60000610352</ele>
        <time>2021-05-22T07:21:44Z</time>
      </trkpt>
      <trkpt lat="43.31412" lon="6.2977">
        <ele>185.80000305176</ele>
        <time>2021-05-22T07:21:46Z</time>
      </trkpt>
      <trkpt lat="43.31409" lon="6.29775">
        <ele>186</ele>
        <time>2021-05-22T07:21:47Z</time>
      </trkpt>
      <trkpt lat="43.31406" lon="6.29779">
        <ele>186</ele>
        <time>2021-05-22T07:21:48Z</time>
      </trkpt>
      <trkpt lat="43.31403" lon="6.29783">
        <ele>186</ele>
        <time>2021-05-22T07:21:49Z</time>
      </trkpt>
      <trkpt lat="43.31396" lon="6.2979">
        <ele>186</ele>
        <time>2021-05-22T07:21:51Z</time>
      </trkpt>
      <trkpt lat="43.31387" lon="6.29798">
        <ele>186</ele>
        <time>2021-05-22T07:21:53Z</time>
      </trkpt>
      <trkpt lat="43.31384" lon="6.29802">
        <ele>186</ele>
        <time>2021-05-22T07:21:54Z</time>
      </trkpt>
      <trkpt lat="43.31381" lon="6.29806">
        <ele>186.19999694824</ele>
        <time>2021-05-22T07:21:55Z</time>
      </trkpt>
      <trkpt lat="43.31376" lon="6.2981">
        <ele>186.19999694824</ele>
        <time>2021-05-22T07:21:56Z</time>
      </trkpt>
      <trkpt lat="43.31372" lon="6.29814">
        <ele>186.19999694824</ele>
        <time>2021-05-22T07:21:57Z</time>
      </trkpt>
      <trkpt lat="43.31368" lon="6.29818">
        <ele>186.19999694824</ele>
        <time>2021-05-22T07:21:58Z</time>
      </trkpt>
      <trkpt lat="43.31366" lon="6.29823">
        <ele>186.19999694824</ele>
        <time>2021-05-22T07:21:59Z</time>
      </trkpt>
      <trkpt lat="43.31361" lon="6.29835">
        <ele>186</ele>
        <time>2021-05-22T07:22:01Z</time>
      </trkpt>
      <trkpt lat="43.31357" lon="6.29842">
        <ele>186</ele>
        <time>2021-05-22T07:22:02Z</time>
      </trkpt>
      <trkpt lat="43.31344" lon="6.29862">
        <ele>186</ele>
        <time>2021-05-22T07:22:05Z</time>
      </trkpt>
      <trkpt lat="43.31339" lon="6.29869">
        <ele>186</ele>
        <time>2021-05-22T07:22:06Z</time>
      </trkpt>
      <trkpt lat="43.31331" lon="6.29882">
        <ele>185.80000305176</ele>
        <time>2021-05-22T07:22:08Z</time>
      </trkpt>
      <trkpt lat="43.31327" lon="6.2989">
        <ele>185.60000610352</ele>
        <time>2021-05-22T07:22:09Z</time>
      </trkpt>
      <trkpt lat="43.31325" lon="6.29896">
        <ele>185.39999389648</ele>
        <time>2021-05-22T07:22:10Z</time>
      </trkpt>
      <trkpt lat="43.31319" lon="6.29908">
        <ele>185.19999694824</ele>
        <time>2021-05-22T07:22:12Z</time>
      </trkpt>
      <trkpt lat="43.31313" lon="6.29919">
        <ele>185.19999694824</ele>
        <time>2021-05-22T07:22:14Z</time>
      </trkpt>
      <trkpt lat="43.3131" lon="6.29926">
        <ele>185.19999694824</ele>
        <time>2021-05-22T07:22:15Z</time>
      </trkpt>
      <trkpt lat="43.31306" lon="6.29931">
        <ele>185.19999694824</ele>
        <time>2021-05-22T07:22:16Z</time>
      </trkpt>
      <trkpt lat="43.31303" lon="6.29934">
        <ele>185.19999694824</ele>
        <time>2021-05-22T07:22:17Z</time>
      </trkpt>
      <trkpt lat="43.31299" lon="6.29937">
        <ele>185.19999694824</ele>
        <time>2021-05-22T07:22:18Z</time>
      </trkpt>
      <trkpt lat="43.31294" lon="6.2994">
        <ele>185.19999694824</ele>
        <time>2021-05-22T07:22:19Z</time>
      </trkpt>
      <trkpt lat="43.31276" lon="6.29949">
        <ele>185.60000610352</ele>
        <time>2021-05-22T07:22:23Z</time>
      </trkpt>
      <trkpt lat="43.31268" lon="6.29959">
        <ele>186</ele>
        <time>2021-05-22T07:22:25Z</time>
      </trkpt>
      <trkpt lat="43.31265" lon="6.29964">
        <ele>186</ele>
        <time>2021-05-22T07:22:26Z</time>
      </trkpt>
      <trkpt lat="43.3126" lon="6.2998">
        <ele>186.39999389648</ele>
        <time>2021-05-22T07:22:29Z</time>
      </trkpt>
      <trkpt lat="43.31258" lon="6.29989">
        <ele>186.80000305176</ele>
        <time>2021-05-22T07:22:31Z</time>
      </trkpt>
      <trkpt lat="43.31257" lon="6.29993">
        <ele>186.80000305176</ele>
        <time>2021-05-22T07:22:32Z</time>
      </trkpt>
      <trkpt lat="43.31253" lon="6.30002">
        <ele>187</ele>
        <time>2021-05-22T07:22:34Z</time>
      </trkpt>
      <trkpt lat="43.31247" lon="6.3001">
        <ele>187.39999389648</ele>
        <time>2021-05-22T07:22:37Z</time>
      </trkpt>
      <trkpt lat="43.31244" lon="6.30014">
        <ele>187.60000610352</ele>
        <time>2021-05-22T07:22:38Z</time>
      </trkpt>
      <trkpt lat="43.31239" lon="6.30024">
        <ele>187.80000305176</ele>
        <time>2021-05-22T07:22:40Z</time>
      </trkpt>
      <trkpt lat="43.31235" lon="6.3003">
        <ele>188.19999694824</ele>
        <time>2021-05-22T07:22:42Z</time>
      </trkpt>
      <trkpt lat="43.31229" lon="6.30044">
        <ele>188.60000610352</ele>
        <time>2021-05-22T07:22:45Z</time>
      </trkpt>
      <trkpt lat="43.31227" lon="6.30049">
        <ele>188.80000305176</ele>
        <time>2021-05-22T07:22:46Z</time>
      </trkpt>
      <trkpt lat="43.31226" lon="6.30054">
        <ele>188.80000305176</ele>
        <time>2021-05-22T07:22:47Z</time>
      </trkpt>
      <trkpt lat="43.31222" lon="6.30064">
        <ele>189.39999389648</ele>
        <time>2021-05-22T07:22:49Z</time>
      </trkpt>
      <trkpt lat="43.3122" lon="6.30068">
        <ele>189.39999389648</ele>
        <time>2021-05-22T07:22:50Z</time>
      </trkpt>
      <trkpt lat="43.31214" lon="6.3008">
        <ele>189.60000610352</ele>
        <time>2021-05-22T07:22:52Z</time>
      </trkpt>
      <trkpt lat="43.31211" lon="6.30086">
        <ele>189.60000610352</ele>
        <time>2021-05-22T07:22:53Z</time>
      </trkpt>
      <trkpt lat="43.31207" lon="6.30099">
        <ele>189.60000610352</ele>
        <time>2021-05-22T07:22:55Z</time>
      </trkpt>
      <trkpt lat="43.312" lon="6.30123">
        <ele>189.39999389648</ele>
        <time>2021-05-22T07:22:58Z</time>
      </trkpt>
      <trkpt lat="43.31199" lon="6.30129">
        <ele>189.19999694824</ele>
        <time>2021-05-22T07:22:59Z</time>
      </trkpt>
      <trkpt lat="43.31191" lon="6.30144">
        <ele>189</ele>
        <time>2021-05-22T07:23:01Z</time>
      </trkpt>
      <trkpt lat="43.31186" lon="6.3015">
        <ele>189</ele>
        <time>2021-05-22T07:23:02Z</time>
      </trkpt>
      <trkpt lat="43.3118" lon="6.30159">
        <ele>188.80000305176</ele>
        <time>2021-05-22T07:23:03Z</time>
      </trkpt>
      <trkpt lat="43.31175" lon="6.30166">
        <ele>188.60000610352</ele>
        <time>2021-05-22T07:23:04Z</time>
      </trkpt>
      <trkpt lat="43.31169" lon="6.30172">
        <ele>188.19999694824</ele>
        <time>2021-05-22T07:23:05Z</time>
      </trkpt>
      <trkpt lat="43.31164" lon="6.30178">
        <ele>188</ele>
        <time>2021-05-22T07:23:06Z</time>
      </trkpt>
      <trkpt lat="43.31158" lon="6.30186">
        <ele>188</ele>
        <time>2021-05-22T07:23:07Z</time>
      </trkpt>
      <trkpt lat="43.31155" lon="6.30193">
        <ele>187.80000305176</ele>
        <time>2021-05-22T07:23:08Z</time>
      </trkpt>
      <trkpt lat="43.31149" lon="6.30213">
        <ele>187.60000610352</ele>
        <time>2021-05-22T07:23:10Z</time>
      </trkpt>
      <trkpt lat="43.31148" lon="6.30221">
        <ele>187.39999389648</ele>
        <time>2021-05-22T07:23:11Z</time>
      </trkpt>
      <trkpt lat="43.31147" lon="6.30229">
        <ele>187.39999389648</ele>
        <time>2021-05-22T07:23:12Z</time>
      </trkpt>
      <trkpt lat="43.31144" lon="6.30246">
        <ele>187.19999694824</ele>
        <time>2021-05-22T07:23:14Z</time>
      </trkpt>
      <trkpt lat="43.31137" lon="6.3029">
        <ele>187</ele>
        <time>2021-05-22T07:23:20Z</time>
      </trkpt>
      <trkpt lat="43.31136" lon="6.30296">
        <ele>187</ele>
        <time>2021-05-22T07:23:21Z</time>
      </trkpt>
      <trkpt lat="43.3113" lon="6.3031">
        <ele>186.60000610352</ele>
        <time>2021-05-22T07:23:23Z</time>
      </trkpt>
      <trkpt lat="43.31123" lon="6.30321">
        <ele>186.39999389648</ele>
        <time>2021-05-22T07:23:25Z</time>
      </trkpt>
      <trkpt lat="43.3112" lon="6.30327">
        <ele>186.39999389648</ele>
        <time>2021-05-22T07:23:26Z</time>
      </trkpt>
      <trkpt lat="43.31111" lon="6.30344">
        <ele>186.19999694824</ele>
        <time>2021-05-22T07:23:29Z</time>
      </trkpt>
      <trkpt lat="43.31104" lon="6.30359">
        <ele>186.19999694824</ele>
        <time>2021-05-22T07:23:32Z</time>
      </trkpt>
      <trkpt lat="43.31085" lon="6.304">
        <ele>186.80000305176</ele>
        <time>2021-05-22T07:23:40Z</time>
      </trkpt>
      <trkpt lat="43.31082" lon="6.30405">
        <ele>187</ele>
        <time>2021-05-22T07:23:41Z</time>
      </trkpt>
      <trkpt lat="43.31072" lon="6.30415">
        <ele>187.19999694824</ele>
        <time>2021-05-22T07:23:44Z</time>
      </trkpt>
      <trkpt lat="43.3107" lon="6.30417">
        <ele>187.39999389648</ele>
        <time>2021-05-22T07:23:45Z</time>
      </trkpt>
      <trkpt lat="43.31068" lon="6.30419">
        <ele>187.80000305176</ele>
        <time>2021-05-22T07:23:46Z</time>
      </trkpt>
      <trkpt lat="43.31065" lon="6.30429">
        <ele>188.39999389648</ele>
        <time>2021-05-22T07:23:49Z</time>
      </trkpt>
      <trkpt lat="43.31064" lon="6.30432">
        <ele>188.60000610352</ele>
        <time>2021-05-22T07:23:50Z</time>
      </trkpt>
      <trkpt lat="43.31064" lon="6.30437">
        <ele>188.80000305176</ele>
        <time>2021-05-22T07:23:51Z</time>
      </trkpt>
      <trkpt lat="43.31063" lon="6.30458">
        <ele>189.19999694824</ele>
        <time>2021-05-22T07:23:54Z</time>
      </trkpt>
      <trkpt lat="43.31063" lon="6.30464">
        <ele>189.39999389648</ele>
        <time>2021-05-22T07:23:55Z</time>
      </trkpt>
      <trkpt lat="43.31063" lon="6.30471">
        <ele>189.39999389648</ele>
        <time>2021-05-22T07:23:56Z</time>
      </trkpt>
      <trkpt lat="43.31063" lon="6.30479">
        <ele>189.39999389648</ele>
        <time>2021-05-22T07:23:57Z</time>
      </trkpt>
      <trkpt lat="43.31062" lon="6.30485">
        <ele>189.39999389648</ele>
        <time>2021-05-22T07:23:58Z</time>
      </trkpt>
      <trkpt lat="43.31061" lon="6.30491">
        <ele>189.39999389648</ele>
        <time>2021-05-22T07:23:59Z</time>
      </trkpt>
      <trkpt lat="43.31059" lon="6.30498">
        <ele>189.39999389648</ele>
        <time>2021-05-22T07:24:00Z</time>
      </trkpt>
      <trkpt lat="43.31055" lon="6.30513">
        <ele>189.19999694824</ele>
        <time>2021-05-22T07:24:02Z</time>
      </trkpt>
      <trkpt lat="43.31054" lon="6.3052">
        <ele>189.19999694824</ele>
        <time>2021-05-22T07:24:03Z</time>
      </trkpt>
      <trkpt lat="43.3105" lon="6.30566">
        <ele>189.60000610352</ele>
        <time>2021-05-22T07:24:10Z</time>
      </trkpt>
      <trkpt lat="43.31045" lon="6.30581">
        <ele>190</ele>
        <time>2021-05-22T07:24:13Z</time>
      </trkpt>
      <trkpt lat="43.31042" lon="6.30597">
        <ele>190.80000305176</ele>
        <time>2021-05-22T07:24:17Z</time>
      </trkpt>
      <trkpt lat="43.31042" lon="6.30601">
        <ele>191</ele>
        <time>2021-05-22T07:24:18Z</time>
      </trkpt>
      <trkpt lat="43.31041" lon="6.30606">
        <ele>191.39999389648</ele>
        <time>2021-05-22T07:24:19Z</time>
      </trkpt>
      <trkpt lat="43.31039" lon="6.3061">
        <ele>191.39999389648</ele>
        <time>2021-05-22T07:24:20Z</time>
      </trkpt>
      <trkpt lat="43.31038" lon="6.30615">
        <ele>191.80000305176</ele>
        <time>2021-05-22T07:24:21Z</time>
      </trkpt>
      <trkpt lat="43.31037" lon="6.30621">
        <ele>192</ele>
        <time>2021-05-22T07:24:23Z</time>
      </trkpt>
      <trkpt lat="43.31036" lon="6.30625">
        <ele>192.19999694824</ele>
        <time>2021-05-22T07:24:24Z</time>
      </trkpt>
      <trkpt lat="43.31034" lon="6.30634">
        <ele>192.60000610352</ele>
        <time>2021-05-22T07:24:27Z</time>
      </trkpt>
      <trkpt lat="43.3103" lon="6.30645">
        <ele>193.19999694824</ele>
        <time>2021-05-22T07:24:30Z</time>
      </trkpt>
      <trkpt lat="43.31027" lon="6.30652">
        <ele>193.39999389648</ele>
        <time>2021-05-22T07:24:32Z</time>
      </trkpt>
      <trkpt lat="43.31022" lon="6.30662">
        <ele>193.39999389648</ele>
        <time>2021-05-22T07:24:34Z</time>
      </trkpt>
      <trkpt lat="43.31018" lon="6.30668">
        <ele>193.39999389648</ele>
        <time>2021-05-22T07:24:35Z</time>
      </trkpt>
      <trkpt lat="43.31009" lon="6.30677">
        <ele>193.19999694824</ele>
        <time>2021-05-22T07:24:37Z</time>
      </trkpt>
      <trkpt lat="43.31003" lon="6.3069">
        <ele>193</ele>
        <time>2021-05-22T07:24:39Z</time>
      </trkpt>
      <trkpt lat="43.31006" lon="6.30714">
        <ele>192.80000305176</ele>
        <time>2021-05-22T07:24:42Z</time>
      </trkpt>
      <trkpt lat="43.31006" lon="6.30722">
        <ele>192.60000610352</ele>
        <time>2021-05-22T07:24:43Z</time>
      </trkpt>
      <trkpt lat="43.31007" lon="6.30728">
        <ele>192.39999389648</ele>
        <time>2021-05-22T07:24:44Z</time>
      </trkpt>
      <trkpt lat="43.31009" lon="6.3076">
        <ele>192.60000610352</ele>
        <time>2021-05-22T07:24:49Z</time>
      </trkpt>
      <trkpt lat="43.3101" lon="6.30771">
        <ele>192.80000305176</ele>
        <time>2021-05-22T07:24:52Z</time>
      </trkpt>
      <trkpt lat="43.31011" lon="6.30773">
        <ele>193</ele>
        <time>2021-05-22T07:24:53Z</time>
      </trkpt>
      <trkpt lat="43.31011" lon="6.30776">
        <ele>193.19999694824</ele>
        <time>2021-05-22T07:24:54Z</time>
      </trkpt>
      <trkpt lat="43.31011" lon="6.30778">
        <ele>193.19999694824</ele>
        <time>2021-05-22T07:24:55Z</time>
      </trkpt>
      <trkpt lat="43.3101" lon="6.30784">
        <ele>193.80000305176</ele>
        <time>2021-05-22T07:24:57Z</time>
      </trkpt>
      <trkpt lat="43.3101" lon="6.30786">
        <ele>194.19999694824</ele>
        <time>2021-05-22T07:24:58Z</time>
      </trkpt>
      <trkpt lat="43.31008" lon="6.30788">
        <ele>194.39999389648</ele>
        <time>2021-05-22T07:24:59Z</time>
      </trkpt>
      <trkpt lat="43.31008" lon="6.30793">
        <ele>194.60000610352</ele>
        <time>2021-05-22T07:25:01Z</time>
      </trkpt>
      <trkpt lat="43.31007" lon="6.30797">
        <ele>194.80000305176</ele>
        <time>2021-05-22T07:25:02Z</time>
      </trkpt>
      <trkpt lat="43.31006" lon="6.30799">
        <ele>195.19999694824</ele>
        <time>2021-05-22T07:25:03Z</time>
      </trkpt>
      <trkpt lat="43.31005" lon="6.308">
        <ele>195.39999389648</ele>
        <time>2021-05-22T07:25:04Z</time>
      </trkpt>
      <trkpt lat="43.31003" lon="6.30806">
        <ele>196.39999389648</ele>
        <time>2021-05-22T07:25:07Z</time>
      </trkpt>
      <trkpt lat="43.31002" lon="6.30808">
        <ele>196.39999389648</ele>
        <time>2021-05-22T07:25:08Z</time>
      </trkpt>
      <trkpt lat="43.31002" lon="6.3081">
        <ele>196.60000610352</ele>
        <time>2021-05-22T07:25:09Z</time>
      </trkpt>
      <trkpt lat="43.31001" lon="6.30812">
        <ele>196.80000305176</ele>
        <time>2021-05-22T07:25:10Z</time>
      </trkpt>
      <trkpt lat="43.31001" lon="6.30816">
        <ele>197.19999694824</ele>
        <time>2021-05-22T07:25:12Z</time>
      </trkpt>
      <trkpt lat="43.31" lon="6.30818">
        <ele>197.19999694824</ele>
        <time>2021-05-22T07:25:13Z</time>
      </trkpt>
      <trkpt lat="43.31" lon="6.3082">
        <ele>197.60000610352</ele>
        <time>2021-05-22T07:25:14Z</time>
      </trkpt>
      <trkpt lat="43.30999" lon="6.30822">
        <ele>197.60000610352</ele>
        <time>2021-05-22T07:25:15Z</time>
      </trkpt>
      <trkpt lat="43.30997" lon="6.30829">
        <ele>198.19999694824</ele>
        <time>2021-05-22T07:25:18Z</time>
      </trkpt>
      <trkpt lat="43.30996" lon="6.30831">
        <ele>198.60000610352</ele>
        <time>2021-05-22T07:25:19Z</time>
      </trkpt>
      <trkpt lat="43.30993" lon="6.3084">
        <ele>199.19999694824</ele>
        <time>2021-05-22T07:25:23Z</time>
      </trkpt>
      <trkpt lat="43.30992" lon="6.30844">
        <ele>199.60000610352</ele>
        <time>2021-05-22T07:25:25Z</time>
      </trkpt>
      <trkpt lat="43.30988" lon="6.30852">
        <ele>200.60000610352</ele>
        <time>2021-05-22T07:25:30Z</time>
      </trkpt>
      <trkpt lat="43.30986" lon="6.30853">
        <ele>200.60000610352</ele>
        <time>2021-05-22T07:25:31Z</time>
      </trkpt>
      <trkpt lat="43.30985" lon="6.30856">
        <ele>201</ele>
        <time>2021-05-22T07:25:33Z</time>
      </trkpt>
      <trkpt lat="43.30983" lon="6.30858">
        <ele>201</ele>
        <time>2021-05-22T07:25:34Z</time>
      </trkpt>
      <trkpt lat="43.3098" lon="6.30861">
        <ele>201.39999389648</ele>
        <time>2021-05-22T07:25:36Z</time>
      </trkpt>
      <trkpt lat="43.30977" lon="6.30867">
        <ele>202</ele>
        <time>2021-05-22T07:25:39Z</time>
      </trkpt>
      <trkpt lat="43.30975" lon="6.30872">
        <ele>202.39999389648</ele>
        <time>2021-05-22T07:25:41Z</time>
      </trkpt>
      <trkpt lat="43.30974" lon="6.30874">
        <ele>202.60000610352</ele>
        <time>2021-05-22T07:25:42Z</time>
      </trkpt>
      <trkpt lat="43.30969" lon="6.30878">
        <ele>202.80000305176</ele>
        <time>2021-05-22T07:25:44Z</time>
      </trkpt>
      <trkpt lat="43.30967" lon="6.30885">
        <ele>203.19999694824</ele>
        <time>2021-05-22T07:25:47Z</time>
      </trkpt>
      <trkpt lat="43.30967" lon="6.30888">
        <ele>203.19999694824</ele>
        <time>2021-05-22T07:25:48Z</time>
      </trkpt>
      <trkpt lat="43.30965" lon="6.30889">
        <ele>203.60000610352</ele>
        <time>2021-05-22T07:25:49Z</time>
      </trkpt>
      <trkpt lat="43.30963" lon="6.30892">
        <ele>204</ele>
        <time>2021-05-22T07:25:51Z</time>
      </trkpt>
      <trkpt lat="43.30961" lon="6.30895">
        <ele>204.39999389648</ele>
        <time>2021-05-22T07:25:53Z</time>
      </trkpt>
      <trkpt lat="43.30959" lon="6.30899">
        <ele>204.80000305176</ele>
        <time>2021-05-22T07:25:55Z</time>
      </trkpt>
      <trkpt lat="43.30954" lon="6.30903">
        <ele>205.19999694824</ele>
        <time>2021-05-22T07:25:59Z</time>
      </trkpt>
      <trkpt lat="43.30953" lon="6.30904">
        <ele>205.39999389648</ele>
        <time>2021-05-22T07:26:00Z</time>
      </trkpt>
      <trkpt lat="43.30946" lon="6.30911">
        <ele>206.19999694824</ele>
        <time>2021-05-22T07:26:07Z</time>
      </trkpt>
      <trkpt lat="43.30944" lon="6.30914">
        <ele>206.60000610352</ele>
        <time>2021-05-22T07:26:09Z</time>
      </trkpt>
      <trkpt lat="43.30937" lon="6.30921">
        <ele>207</ele>
        <time>2021-05-22T07:26:13Z</time>
      </trkpt>
      <trkpt lat="43.30935" lon="6.30929">
        <ele>207.60000610352</ele>
        <time>2021-05-22T07:26:17Z</time>
      </trkpt>
      <trkpt lat="43.30933" lon="6.30936">
        <ele>208</ele>
        <time>2021-05-22T07:26:20Z</time>
      </trkpt>
      <trkpt lat="43.30923" lon="6.3096">
        <ele>208.19999694824</ele>
        <time>2021-05-22T07:26:26Z</time>
      </trkpt>
      <trkpt lat="43.30928" lon="6.30978">
        <ele>207.80000305176</ele>
        <time>2021-05-22T07:26:30Z</time>
      </trkpt>
      <trkpt lat="43.30929" lon="6.30982">
        <ele>207.80000305176</ele>
        <time>2021-05-22T07:26:31Z</time>
      </trkpt>
      <trkpt lat="43.30936" lon="6.30991">
        <ele>207.60000610352</ele>
        <time>2021-05-22T07:26:34Z</time>
      </trkpt>
      <trkpt lat="43.30942" lon="6.30995">
        <ele>207.60000610352</ele>
        <time>2021-05-22T07:26:36Z</time>
      </trkpt>
      <trkpt lat="43.30944" lon="6.30998">
        <ele>207.60000610352</ele>
        <time>2021-05-22T07:26:37Z</time>
      </trkpt>
      <trkpt lat="43.30951" lon="6.31017">
        <ele>208.39999389648</ele>
        <time>2021-05-22T07:26:42Z</time>
      </trkpt>
      <trkpt lat="43.30951" lon="6.31035">
        <ele>208.80000305176</ele>
        <time>2021-05-22T07:26:47Z</time>
      </trkpt>
      <trkpt lat="43.30952" lon="6.3104">
        <ele>208.80000305176</ele>
        <time>2021-05-22T07:26:48Z</time>
      </trkpt>
      <trkpt lat="43.30956" lon="6.31055">
        <ele>208.80000305176</ele>
        <time>2021-05-22T07:26:51Z</time>
      </trkpt>
      <trkpt lat="43.3096" lon="6.31073">
        <ele>208.80000305176</ele>
        <time>2021-05-22T07:26:54Z</time>
      </trkpt>
      <trkpt lat="43.3096" lon="6.31081">
        <ele>208.80000305176</ele>
        <time>2021-05-22T07:26:56Z</time>
      </trkpt>
      <trkpt lat="43.30962" lon="6.31091">
        <ele>208.80000305176</ele>
        <time>2021-05-22T07:26:58Z</time>
      </trkpt>
      <trkpt lat="43.30961" lon="6.31097">
        <ele>208.80000305176</ele>
        <time>2021-05-22T07:26:59Z</time>
      </trkpt>
      <trkpt lat="43.30961" lon="6.3111">
        <ele>208.80000305176</ele>
        <time>2021-05-22T07:27:02Z</time>
      </trkpt>
      <trkpt lat="43.30961" lon="6.31122">
        <ele>209</ele>
        <time>2021-05-22T07:27:05Z</time>
      </trkpt>
      <trkpt lat="43.3096" lon="6.31136">
        <ele>209.39999389648</ele>
        <time>2021-05-22T07:27:09Z</time>
      </trkpt>
      <trkpt lat="43.30956" lon="6.3115">
        <ele>209.60000610352</ele>
        <time>2021-05-22T07:27:12Z</time>
      </trkpt>
      <trkpt lat="43.30947" lon="6.3117">
        <ele>209.80000305176</ele>
        <time>2021-05-22T07:27:17Z</time>
      </trkpt>
      <trkpt lat="43.30947" lon="6.31175">
        <ele>209.80000305176</ele>
        <time>2021-05-22T07:27:18Z</time>
      </trkpt>
      <trkpt lat="43.30946" lon="6.31178">
        <ele>209.80000305176</ele>
        <time>2021-05-22T07:27:19Z</time>
      </trkpt>
      <trkpt lat="43.30946" lon="6.31183">
        <ele>209.80000305176</ele>
        <time>2021-05-22T07:27:20Z</time>
      </trkpt>
      <trkpt lat="43.30943" lon="6.31194">
        <ele>210</ele>
        <time>2021-05-22T07:27:22Z</time>
      </trkpt>
      <trkpt lat="43.30941" lon="6.31202">
        <ele>210</ele>
        <time>2021-05-22T07:27:24Z</time>
      </trkpt>
      <trkpt lat="43.3094" lon="6.31207">
        <ele>210.19999694824</ele>
        <time>2021-05-22T07:27:25Z</time>
      </trkpt>
      <trkpt lat="43.3094" lon="6.31213">
        <ele>210.19999694824</ele>
        <time>2021-05-22T07:27:26Z</time>
      </trkpt>
      <trkpt lat="43.30939" lon="6.31237">
        <ele>210.19999694824</ele>
        <time>2021-05-22T07:27:29Z</time>
      </trkpt>
      <trkpt lat="43.30939" lon="6.31247">
        <ele>210.19999694824</ele>
        <time>2021-05-22T07:27:30Z</time>
      </trkpt>
      <trkpt lat="43.30939" lon="6.31255">
        <ele>210</ele>
        <time>2021-05-22T07:27:31Z</time>
      </trkpt>
      <trkpt lat="43.30937" lon="6.3127">
        <ele>209.39999389648</ele>
        <time>2021-05-22T07:27:34Z</time>
      </trkpt>
      <trkpt lat="43.30937" lon="6.31282">
        <ele>209</ele>
        <time>2021-05-22T07:27:36Z</time>
      </trkpt>
      <trkpt lat="43.3094" lon="6.31293">
        <ele>208.60000610352</ele>
        <time>2021-05-22T07:27:38Z</time>
      </trkpt>
      <trkpt lat="43.30944" lon="6.313">
        <ele>207.80000305176</ele>
        <time>2021-05-22T07:27:39Z</time>
      </trkpt>
      <trkpt lat="43.30949" lon="6.31311">
        <ele>207.19999694824</ele>
        <time>2021-05-22T07:27:40Z</time>
      </trkpt>
      <trkpt lat="43.30955" lon="6.31337">
        <ele>206.19999694824</ele>
        <time>2021-05-22T07:27:42Z</time>
      </trkpt>
      <trkpt lat="43.30959" lon="6.3137">
        <ele>205.19999694824</ele>
        <time>2021-05-22T07:27:45Z</time>
      </trkpt>
      <trkpt lat="43.3096" lon="6.3138">
        <ele>204.39999389648</ele>
        <time>2021-05-22T07:27:46Z</time>
      </trkpt>
      <trkpt lat="43.30962" lon="6.31388">
        <ele>203.60000610352</ele>
        <time>2021-05-22T07:27:47Z</time>
      </trkpt>
      <trkpt lat="43.30964" lon="6.31397">
        <ele>203</ele>
        <time>2021-05-22T07:27:48Z</time>
      </trkpt>
      <trkpt lat="43.30966" lon="6.31411">
        <ele>202.39999389648</ele>
        <time>2021-05-22T07:27:49Z</time>
      </trkpt>
      <trkpt lat="43.30968" lon="6.31422">
        <ele>202</ele>
        <time>2021-05-22T07:27:50Z</time>
      </trkpt>
      <trkpt lat="43.30973" lon="6.31438">
        <ele>201.19999694824</ele>
        <time>2021-05-22T07:27:52Z</time>
      </trkpt>
      <trkpt lat="43.30976" lon="6.31446">
        <ele>200</ele>
        <time>2021-05-22T07:27:53Z</time>
      </trkpt>
      <trkpt lat="43.30981" lon="6.31452">
        <ele>197.60000610352</ele>
        <time>2021-05-22T07:27:55Z</time>
      </trkpt>
      <trkpt lat="43.30985" lon="6.31454">
        <ele>196.39999389648</ele>
        <time>2021-05-22T07:27:56Z</time>
      </trkpt>
      <trkpt lat="43.30988" lon="6.31456">
        <ele>195.60000610352</ele>
        <time>2021-05-22T07:27:57Z</time>
      </trkpt>
      <trkpt lat="43.3099" lon="6.3146">
        <ele>194.19999694824</ele>
        <time>2021-05-22T07:27:58Z</time>
      </trkpt>
      <trkpt lat="43.3099" lon="6.31464">
        <ele>193.60000610352</ele>
        <time>2021-05-22T07:27:59Z</time>
      </trkpt>
      <trkpt lat="43.30989" lon="6.31466">
        <ele>192.60000610352</ele>
        <time>2021-05-22T07:28:00Z</time>
      </trkpt>
      <trkpt lat="43.30987" lon="6.31487">
        <ele>192.19999694824</ele>
        <time>2021-05-22T07:28:05Z</time>
      </trkpt>
      <trkpt lat="43.30986" lon="6.31491">
        <ele>192.39999389648</ele>
        <time>2021-05-22T07:28:06Z</time>
      </trkpt>
      <trkpt lat="43.30986" lon="6.31496">
        <ele>192.60000610352</ele>
        <time>2021-05-22T07:28:07Z</time>
      </trkpt>
      <trkpt lat="43.30987" lon="6.31509">
        <ele>193.39999389648</ele>
        <time>2021-05-22T07:28:10Z</time>
      </trkpt>
      <trkpt lat="43.30987" lon="6.31513">
        <ele>193.39999389648</ele>
        <time>2021-05-22T07:28:11Z</time>
      </trkpt>
      <trkpt lat="43.30986" lon="6.31517">
        <ele>193.60000610352</ele>
        <time>2021-05-22T07:28:12Z</time>
      </trkpt>
      <trkpt lat="43.30984" lon="6.31524">
        <ele>194</ele>
        <time>2021-05-22T07:28:14Z</time>
      </trkpt>
      <trkpt lat="43.30984" lon="6.31528">
        <ele>194</ele>
        <time>2021-05-22T07:28:15Z</time>
      </trkpt>
      <trkpt lat="43.30983" lon="6.31532">
        <ele>194.19999694824</ele>
        <time>2021-05-22T07:28:16Z</time>
      </trkpt>
      <trkpt lat="43.30983" lon="6.31538">
        <ele>194.19999694824</ele>
        <time>2021-05-22T07:28:17Z</time>
      </trkpt>
      <trkpt lat="43.30982" lon="6.31552">
        <ele>194.19999694824</ele>
        <time>2021-05-22T07:28:19Z</time>
      </trkpt>
      <trkpt lat="43.30981" lon="6.31557">
        <ele>194.19999694824</ele>
        <time>2021-05-22T07:28:20Z</time>
      </trkpt>
      <trkpt lat="43.3098" lon="6.31565">
        <ele>194.19999694824</ele>
        <time>2021-05-22T07:28:21Z</time>
      </trkpt>
      <trkpt lat="43.30975" lon="6.31582">
        <ele>194.19999694824</ele>
        <time>2021-05-22T07:28:23Z</time>
      </trkpt>
      <trkpt lat="43.30974" lon="6.3159">
        <ele>194.19999694824</ele>
        <time>2021-05-22T07:28:24Z</time>
      </trkpt>
      <trkpt lat="43.30973" lon="6.31597">
        <ele>194</ele>
        <time>2021-05-22T07:28:25Z</time>
      </trkpt>
      <trkpt lat="43.30971" lon="6.31606">
        <ele>193.39999389648</ele>
        <time>2021-05-22T07:28:26Z</time>
      </trkpt>
      <trkpt lat="43.30969" lon="6.31621">
        <ele>193.19999694824</ele>
        <time>2021-05-22T07:28:28Z</time>
      </trkpt>
      <trkpt lat="43.30966" lon="6.31629">
        <ele>193.19999694824</ele>
        <time>2021-05-22T07:28:29Z</time>
      </trkpt>
      <trkpt lat="43.30959" lon="6.31646">
        <ele>192.80000305176</ele>
        <time>2021-05-22T07:28:31Z</time>
      </trkpt>
      <trkpt lat="43.30955" lon="6.31658">
        <ele>192.80000305176</ele>
        <time>2021-05-22T07:28:32Z</time>
      </trkpt>
      <trkpt lat="43.30951" lon="6.31674">
        <ele>192.39999389648</ele>
        <time>2021-05-22T07:28:34Z</time>
      </trkpt>
      <trkpt lat="43.30948" lon="6.31687">
        <ele>192.19999694824</ele>
        <time>2021-05-22T07:28:35Z</time>
      </trkpt>
      <trkpt lat="43.30944" lon="6.31714">
        <ele>192</ele>
        <time>2021-05-22T07:28:38Z</time>
      </trkpt>
      <trkpt lat="43.30947" lon="6.31749">
        <ele>191.80000305176</ele>
        <time>2021-05-22T07:28:41Z</time>
      </trkpt>
      <trkpt lat="43.30951" lon="6.31769">
        <ele>191.19999694824</ele>
        <time>2021-05-22T07:28:43Z</time>
      </trkpt>
      <trkpt lat="43.30954" lon="6.31779">
        <ele>190.80000305176</ele>
        <time>2021-05-22T07:28:44Z</time>
      </trkpt>
      <trkpt lat="43.30966" lon="6.3182">
        <ele>189.39999389648</ele>
        <time>2021-05-22T07:28:48Z</time>
      </trkpt>
      <trkpt lat="43.30969" lon="6.3183">
        <ele>189.19999694824</ele>
        <time>2021-05-22T07:28:49Z</time>
      </trkpt>
      <trkpt lat="43.30977" lon="6.31871">
        <ele>188.19999694824</ele>
        <time>2021-05-22T07:28:53Z</time>
      </trkpt>
      <trkpt lat="43.30979" lon="6.3188">
        <ele>188</ele>
        <time>2021-05-22T07:28:54Z</time>
      </trkpt>
      <trkpt lat="43.30988" lon="6.31917">
        <ele>187</ele>
        <time>2021-05-22T07:28:58Z</time>
      </trkpt>
      <trkpt lat="43.30992" lon="6.31934">
        <ele>187</ele>
        <time>2021-05-22T07:29:00Z</time>
      </trkpt>
      <trkpt lat="43.30997" lon="6.31961">
        <ele>186.80000305176</ele>
        <time>2021-05-22T07:29:03Z</time>
      </trkpt>
      <trkpt lat="43.31" lon="6.3199">
        <ele>186.39999389648</ele>
        <time>2021-05-22T07:29:06Z</time>
      </trkpt>
      <trkpt lat="43.31001" lon="6.32">
        <ele>186.19999694824</ele>
        <time>2021-05-22T07:29:07Z</time>
      </trkpt>
      <trkpt lat="43.31002" lon="6.32012">
        <ele>186.19999694824</ele>
        <time>2021-05-22T07:29:08Z</time>
      </trkpt>
      <trkpt lat="43.31007" lon="6.32051">
        <ele>185.39999389648</ele>
        <time>2021-05-22T07:29:12Z</time>
      </trkpt>
      <trkpt lat="43.31009" lon="6.32073">
        <ele>184.80000305176</ele>
        <time>2021-05-22T07:29:14Z</time>
      </trkpt>
      <trkpt lat="43.31014" lon="6.3211">
        <ele>184.19999694824</ele>
        <time>2021-05-22T07:29:18Z</time>
      </trkpt>
      <trkpt lat="43.31015" lon="6.32119">
        <ele>184</ele>
        <time>2021-05-22T07:29:19Z</time>
      </trkpt>
      <trkpt lat="43.31018" lon="6.32146">
        <ele>184</ele>
        <time>2021-05-22T07:29:22Z</time>
      </trkpt>
      <trkpt lat="43.3102" lon="6.32154">
        <ele>183.80000305176</ele>
        <time>2021-05-22T07:29:23Z</time>
      </trkpt>
      <trkpt lat="43.31021" lon="6.32165">
        <ele>183.60000610352</ele>
        <time>2021-05-22T07:29:24Z</time>
      </trkpt>
      <trkpt lat="43.31023" lon="6.3218">
        <ele>183.19999694824</ele>
        <time>2021-05-22T07:29:26Z</time>
      </trkpt>
      <trkpt lat="43.31025" lon="6.32198">
        <ele>183.39999389648</ele>
        <time>2021-05-22T07:29:28Z</time>
      </trkpt>
      <trkpt lat="43.31027" lon="6.32214">
        <ele>183.19999694824</ele>
        <time>2021-05-22T07:29:30Z</time>
      </trkpt>
      <trkpt lat="43.3103" lon="6.32232">
        <ele>183.19999694824</ele>
        <time>2021-05-22T07:29:32Z</time>
      </trkpt>
      <trkpt lat="43.31032" lon="6.32242">
        <ele>183.39999389648</ele>
        <time>2021-05-22T07:29:33Z</time>
      </trkpt>
      <trkpt lat="43.31036" lon="6.32249">
        <ele>183.39999389648</ele>
        <time>2021-05-22T07:29:34Z</time>
      </trkpt>
      <trkpt lat="43.31045" lon="6.32259">
        <ele>183.60000610352</ele>
        <time>2021-05-22T07:29:36Z</time>
      </trkpt>
      <trkpt lat="43.31054" lon="6.32263">
        <ele>183.80000305176</ele>
        <time>2021-05-22T07:29:38Z</time>
      </trkpt>
      <trkpt lat="43.31059" lon="6.32263">
        <ele>183.80000305176</ele>
        <time>2021-05-22T07:29:39Z</time>
      </trkpt>
      <trkpt lat="43.31075" lon="6.32259">
        <ele>184.19999694824</ele>
        <time>2021-05-22T07:29:42Z</time>
      </trkpt>
      <trkpt lat="43.3108" lon="6.32257">
        <ele>184.19999694824</ele>
        <time>2021-05-22T07:29:43Z</time>
      </trkpt>
      <trkpt lat="43.31086" lon="6.32255">
        <ele>184.19999694824</ele>
        <time>2021-05-22T07:29:44Z</time>
      </trkpt>
      <trkpt lat="43.31097" lon="6.32256">
        <ele>184.60000610352</ele>
        <time>2021-05-22T07:29:46Z</time>
      </trkpt>
      <trkpt lat="43.311" lon="6.32258">
        <ele>184.80000305176</ele>
        <time>2021-05-22T07:29:47Z</time>
      </trkpt>
      <trkpt lat="43.31105" lon="6.32262">
        <ele>185</ele>
        <time>2021-05-22T07:29:48Z</time>
      </trkpt>
      <trkpt lat="43.31108" lon="6.32265">
        <ele>185.19999694824</ele>
        <time>2021-05-22T07:29:49Z</time>
      </trkpt>
      <trkpt lat="43.31111" lon="6.32269">
        <ele>185.39999389648</ele>
        <time>2021-05-22T07:29:50Z</time>
      </trkpt>
      <trkpt lat="43.31113" lon="6.32274">
        <ele>185.39999389648</ele>
        <time>2021-05-22T07:29:51Z</time>
      </trkpt>
      <trkpt lat="43.31121" lon="6.32298">
        <ele>186</ele>
        <time>2021-05-22T07:29:55Z</time>
      </trkpt>
      <trkpt lat="43.31125" lon="6.32313">
        <ele>186.19999694824</ele>
        <time>2021-05-22T07:29:57Z</time>
      </trkpt>
      <trkpt lat="43.31138" lon="6.32356">
        <ele>186.19999694824</ele>
        <time>2021-05-22T07:30:02Z</time>
      </trkpt>
      <trkpt lat="43.31158" lon="6.32419">
        <ele>184.80000305176</ele>
        <time>2021-05-22T07:30:08Z</time>
      </trkpt>
      <trkpt lat="43.31162" lon="6.32432">
        <ele>184.39999389648</ele>
        <time>2021-05-22T07:30:09Z</time>
      </trkpt>
      <trkpt lat="43.31172" lon="6.32464">
        <ele>183.39999389648</ele>
        <time>2021-05-22T07:30:12Z</time>
      </trkpt>
      <trkpt lat="43.31182" lon="6.32496">
        <ele>182.60000610352</ele>
        <time>2021-05-22T07:30:15Z</time>
      </trkpt>
      <trkpt lat="43.31186" lon="6.32509">
        <ele>182.39999389648</ele>
        <time>2021-05-22T07:30:16Z</time>
      </trkpt>
      <trkpt lat="43.31198" lon="6.32551">
        <ele>180.80000305176</ele>
        <time>2021-05-22T07:30:20Z</time>
      </trkpt>
      <trkpt lat="43.31203" lon="6.3257">
        <ele>179.80000305176</ele>
        <time>2021-05-22T07:30:22Z</time>
      </trkpt>
      <trkpt lat="43.31214" lon="6.3261">
        <ele>177.80000305176</ele>
        <time>2021-05-22T07:30:26Z</time>
      </trkpt>
      <trkpt lat="43.31224" lon="6.3264">
        <ele>177</ele>
        <time>2021-05-22T07:30:29Z</time>
      </trkpt>
      <trkpt lat="43.31229" lon="6.32657">
        <ele>176.60000610352</ele>
        <time>2021-05-22T07:30:31Z</time>
      </trkpt>
      <trkpt lat="43.3124" lon="6.32694">
        <ele>176.19999694824</ele>
        <time>2021-05-22T07:30:35Z</time>
      </trkpt>
      <trkpt lat="43.31245" lon="6.3271">
        <ele>176.19999694824</ele>
        <time>2021-05-22T07:30:37Z</time>
      </trkpt>
      <trkpt lat="43.31248" lon="6.3272">
        <ele>176</ele>
        <time>2021-05-22T07:30:38Z</time>
      </trkpt>
      <trkpt lat="43.3125" lon="6.32727">
        <ele>175.80000305176</ele>
        <time>2021-05-22T07:30:39Z</time>
      </trkpt>
      <trkpt lat="43.31253" lon="6.32736">
        <ele>175.39999389648</ele>
        <time>2021-05-22T07:30:40Z</time>
      </trkpt>
      <trkpt lat="43.31255" lon="6.32744">
        <ele>175.39999389648</ele>
        <time>2021-05-22T07:30:41Z</time>
      </trkpt>
      <trkpt lat="43.31258" lon="6.32753">
        <ele>175.19999694824</ele>
        <time>2021-05-22T07:30:42Z</time>
      </trkpt>
      <trkpt lat="43.31261" lon="6.32762">
        <ele>175.19999694824</ele>
        <time>2021-05-22T07:30:43Z</time>
      </trkpt>
      <trkpt lat="43.31264" lon="6.32773">
        <ele>175.19999694824</ele>
        <time>2021-05-22T07:30:44Z</time>
      </trkpt>
      <trkpt lat="43.31273" lon="6.328">
        <ele>174.39999389648</ele>
        <time>2021-05-22T07:30:47Z</time>
      </trkpt>
      <trkpt lat="43.31277" lon="6.32816">
        <ele>174</ele>
        <time>2021-05-22T07:30:49Z</time>
      </trkpt>
      <trkpt lat="43.3128" lon="6.32826">
        <ele>174</ele>
        <time>2021-05-22T07:30:50Z</time>
      </trkpt>
      <trkpt lat="43.31294" lon="6.32874">
        <ele>173.80000305176</ele>
        <time>2021-05-22T07:30:55Z</time>
      </trkpt>
      <trkpt lat="43.31303" lon="6.32901">
        <ele>173.60000610352</ele>
        <time>2021-05-22T07:30:58Z</time>
      </trkpt>
      <trkpt lat="43.31312" lon="6.32928">
        <ele>173.19999694824</ele>
        <time>2021-05-22T07:31:01Z</time>
      </trkpt>
      <trkpt lat="43.31318" lon="6.32946">
        <ele>172.80000305176</ele>
        <time>2021-05-22T07:31:03Z</time>
      </trkpt>
      <trkpt lat="43.31323" lon="6.3296">
        <ele>172.39999389648</ele>
        <time>2021-05-22T07:31:05Z</time>
      </trkpt>
      <trkpt lat="43.31327" lon="6.32968">
        <ele>172.39999389648</ele>
        <time>2021-05-22T07:31:06Z</time>
      </trkpt>
      <trkpt lat="43.31332" lon="6.32975">
        <ele>172.19999694824</ele>
        <time>2021-05-22T07:31:07Z</time>
      </trkpt>
      <trkpt lat="43.31336" lon="6.32981">
        <ele>172.19999694824</ele>
        <time>2021-05-22T07:31:08Z</time>
      </trkpt>
      <trkpt lat="43.31341" lon="6.32987">
        <ele>172</ele>
        <time>2021-05-22T07:31:09Z</time>
      </trkpt>
      <trkpt lat="43.31351" lon="6.33">
        <ele>171.80000305176</ele>
        <time>2021-05-22T07:31:11Z</time>
      </trkpt>
      <trkpt lat="43.31357" lon="6.33008">
        <ele>171.60000610352</ele>
        <time>2021-05-22T07:31:12Z</time>
      </trkpt>
      <trkpt lat="43.31366" lon="6.33019">
        <ele>171.19999694824</ele>
        <time>2021-05-22T07:31:14Z</time>
      </trkpt>
      <trkpt lat="43.31372" lon="6.33025">
        <ele>171</ele>
        <time>2021-05-22T07:31:15Z</time>
      </trkpt>
      <trkpt lat="43.31377" lon="6.33031">
        <ele>170.60000610352</ele>
        <time>2021-05-22T07:31:16Z</time>
      </trkpt>
      <trkpt lat="43.31387" lon="6.33041">
        <ele>170.60000610352</ele>
        <time>2021-05-22T07:31:18Z</time>
      </trkpt>
      <trkpt lat="43.31399" lon="6.33052">
        <ele>170.19999694824</ele>
        <time>2021-05-22T07:31:20Z</time>
      </trkpt>
      <trkpt lat="43.31404" lon="6.33058">
        <ele>170</ele>
        <time>2021-05-22T07:31:21Z</time>
      </trkpt>
      <trkpt lat="43.31408" lon="6.33063">
        <ele>170</ele>
        <time>2021-05-22T07:31:22Z</time>
      </trkpt>
      <trkpt lat="43.31421" lon="6.33081">
        <ele>169.80000305176</ele>
        <time>2021-05-22T07:31:25Z</time>
      </trkpt>
      <trkpt lat="43.31426" lon="6.33087">
        <ele>169.60000610352</ele>
        <time>2021-05-22T07:31:26Z</time>
      </trkpt>
      <trkpt lat="43.3143" lon="6.33091">
        <ele>169.60000610352</ele>
        <time>2021-05-22T07:31:27Z</time>
      </trkpt>
      <trkpt lat="43.31435" lon="6.33097">
        <ele>168.60000610352</ele>
        <time>2021-05-22T07:31:28Z</time>
      </trkpt>
      <trkpt lat="43.3144" lon="6.33103">
        <ele>168.39999389648</ele>
        <time>2021-05-22T07:31:29Z</time>
      </trkpt>
      <trkpt lat="43.31454" lon="6.33119">
        <ele>167.39999389648</ele>
        <time>2021-05-22T07:31:32Z</time>
      </trkpt>
      <trkpt lat="43.31459" lon="6.33125">
        <ele>167.19999694824</ele>
        <time>2021-05-22T07:31:33Z</time>
      </trkpt>
      <trkpt lat="43.31467" lon="6.33139">
        <ele>166.60000610352</ele>
        <time>2021-05-22T07:31:35Z</time>
      </trkpt>
      <trkpt lat="43.31471" lon="6.33144">
        <ele>166</ele>
        <time>2021-05-22T07:31:36Z</time>
      </trkpt>
      <trkpt lat="43.31484" lon="6.3316">
        <ele>165</ele>
        <time>2021-05-22T07:31:39Z</time>
      </trkpt>
      <trkpt lat="43.31495" lon="6.33171">
        <ele>165</ele>
        <time>2021-05-22T07:31:41Z</time>
      </trkpt>
      <trkpt lat="43.31505" lon="6.33181">
        <ele>165</ele>
        <time>2021-05-22T07:31:43Z</time>
      </trkpt>
      <trkpt lat="43.31509" lon="6.33187">
        <ele>165</ele>
        <time>2021-05-22T07:31:44Z</time>
      </trkpt>
      <trkpt lat="43.31526" lon="6.33213">
        <ele>163.80000305176</ele>
        <time>2021-05-22T07:31:48Z</time>
      </trkpt>
      <trkpt lat="43.31535" lon="6.33229">
        <ele>163.39999389648</ele>
        <time>2021-05-22T07:31:50Z</time>
      </trkpt>
      <trkpt lat="43.31542" lon="6.33245">
        <ele>163.19999694824</ele>
        <time>2021-05-22T07:31:52Z</time>
      </trkpt>
      <trkpt lat="43.31556" lon="6.33268">
        <ele>162.60000610352</ele>
        <time>2021-05-22T07:31:55Z</time>
      </trkpt>
      <trkpt lat="43.31561" lon="6.33275">
        <ele>162.60000610352</ele>
        <time>2021-05-22T07:31:56Z</time>
      </trkpt>
      <trkpt lat="43.31587" lon="6.3332">
        <ele>161.19999694824</ele>
        <time>2021-05-22T07:32:02Z</time>
      </trkpt>
      <trkpt lat="43.31594" lon="6.33332">
        <ele>160.60000610352</ele>
        <time>2021-05-22T07:32:04Z</time>
      </trkpt>
      <trkpt lat="43.31599" lon="6.33342">
        <ele>159.80000305176</ele>
        <time>2021-05-22T07:32:06Z</time>
      </trkpt>
      <trkpt lat="43.316" lon="6.33346">
        <ele>159.80000305176</ele>
        <time>2021-05-22T07:32:07Z</time>
      </trkpt>
      <trkpt lat="43.31604" lon="6.33359">
        <ele>159</ele>
        <time>2021-05-22T07:32:12Z</time>
      </trkpt>
      <trkpt lat="43.31605" lon="6.33361">
        <ele>158.80000305176</ele>
        <time>2021-05-22T07:32:13Z</time>
      </trkpt>
      <trkpt lat="43.31606" lon="6.33363">
        <ele>158.80000305176</ele>
        <time>2021-05-22T07:32:14Z</time>
      </trkpt>
      <trkpt lat="43.31612" lon="6.3337">
        <ele>158.60000610352</ele>
        <time>2021-05-22T07:32:17Z</time>
      </trkpt>
      <trkpt lat="43.31613" lon="6.33373">
        <ele>158.39999389648</ele>
        <time>2021-05-22T07:32:18Z</time>
      </trkpt>
      <trkpt lat="43.31617" lon="6.33382">
        <ele>158.19999694824</ele>
        <time>2021-05-22T07:32:20Z</time>
      </trkpt>
      <trkpt lat="43.31625" lon="6.33395">
        <ele>158.19999694824</ele>
        <time>2021-05-22T07:32:22Z</time>
      </trkpt>
      <trkpt lat="43.31633" lon="6.33409">
        <ele>158.39999389648</ele>
        <time>2021-05-22T07:32:24Z</time>
      </trkpt>
      <trkpt lat="43.31647" lon="6.3343">
        <ele>158.60000610352</ele>
        <time>2021-05-22T07:32:27Z</time>
      </trkpt>
      <trkpt lat="43.31665" lon="6.33464">
        <ele>158.39999389648</ele>
        <time>2021-05-22T07:32:31Z</time>
      </trkpt>
      <trkpt lat="43.3167" lon="6.33472">
        <ele>158.19999694824</ele>
        <time>2021-05-22T07:32:32Z</time>
      </trkpt>
      <trkpt lat="43.31683" lon="6.33498">
        <ele>157.60000610352</ele>
        <time>2021-05-22T07:32:35Z</time>
      </trkpt>
      <trkpt lat="43.31699" lon="6.33523">
        <ele>156.60000610352</ele>
        <time>2021-05-22T07:32:38Z</time>
      </trkpt>
      <trkpt lat="43.31704" lon="6.33531">
        <ele>156.19999694824</ele>
        <time>2021-05-22T07:32:39Z</time>
      </trkpt>
      <trkpt lat="43.31725" lon="6.33571">
        <ele>155.39999389648</ele>
        <time>2021-05-22T07:32:44Z</time>
      </trkpt>
      <trkpt lat="43.31738" lon="6.33595">
        <ele>155</ele>
        <time>2021-05-22T07:32:47Z</time>
      </trkpt>
      <trkpt lat="43.31745" lon="6.3361">
        <ele>154.19999694824</ele>
        <time>2021-05-22T07:32:49Z</time>
      </trkpt>
      <trkpt lat="43.31758" lon="6.33633">
        <ele>153</ele>
        <time>2021-05-22T07:32:52Z</time>
      </trkpt>
      <trkpt lat="43.31766" lon="6.33649">
        <ele>153</ele>
        <time>2021-05-22T07:32:54Z</time>
      </trkpt>
      <trkpt lat="43.31791" lon="6.33699">
        <ele>152</ele>
        <time>2021-05-22T07:33:00Z</time>
      </trkpt>
      <trkpt lat="43.31808" lon="6.33731">
        <ele>151</ele>
        <time>2021-05-22T07:33:04Z</time>
      </trkpt>
      <trkpt lat="43.31814" lon="6.3374">
        <ele>150.80000305176</ele>
        <time>2021-05-22T07:33:05Z</time>
      </trkpt>
      <trkpt lat="43.31817" lon="6.33747">
        <ele>150.80000305176</ele>
        <time>2021-05-22T07:33:06Z</time>
      </trkpt>
      <trkpt lat="43.31825" lon="6.33764">
        <ele>149.80000305176</ele>
        <time>2021-05-22T07:33:08Z</time>
      </trkpt>
      <trkpt lat="43.3183" lon="6.33772">
        <ele>149.60000610352</ele>
        <time>2021-05-22T07:33:09Z</time>
      </trkpt>
      <trkpt lat="43.3184" lon="6.33787">
        <ele>149.19999694824</ele>
        <time>2021-05-22T07:33:11Z</time>
      </trkpt>
      <trkpt lat="43.31844" lon="6.33796">
        <ele>148.60000610352</ele>
        <time>2021-05-22T07:33:12Z</time>
      </trkpt>
      <trkpt lat="43.31857" lon="6.33819">
        <ele>147.39999389648</ele>
        <time>2021-05-22T07:33:15Z</time>
      </trkpt>
      <trkpt lat="43.31869" lon="6.3384">
        <ele>146.60000610352</ele>
        <time>2021-05-22T07:33:18Z</time>
      </trkpt>
      <trkpt lat="43.31873" lon="6.33848">
        <ele>146.39999389648</ele>
        <time>2021-05-22T07:33:19Z</time>
      </trkpt>
      <trkpt lat="43.31876" lon="6.33855">
        <ele>146.19999694824</ele>
        <time>2021-05-22T07:33:20Z</time>
      </trkpt>
      <trkpt lat="43.31883" lon="6.33869">
        <ele>145.19999694824</ele>
        <time>2021-05-22T07:33:22Z</time>
      </trkpt>
      <trkpt lat="43.31887" lon="6.33877">
        <ele>144.80000305176</ele>
        <time>2021-05-22T07:33:23Z</time>
      </trkpt>
      <trkpt lat="43.31898" lon="6.33901">
        <ele>144.60000610352</ele>
        <time>2021-05-22T07:33:26Z</time>
      </trkpt>
      <trkpt lat="43.31906" lon="6.3393">
        <ele>144.19999694824</ele>
        <time>2021-05-22T07:33:29Z</time>
      </trkpt>
      <trkpt lat="43.3191" lon="6.33939">
        <ele>144</ele>
        <time>2021-05-22T07:33:30Z</time>
      </trkpt>
      <trkpt lat="43.31913" lon="6.3395">
        <ele>144</ele>
        <time>2021-05-22T07:33:31Z</time>
      </trkpt>
      <trkpt lat="43.31915" lon="6.3396">
        <ele>144</ele>
        <time>2021-05-22T07:33:32Z</time>
      </trkpt>
      <trkpt lat="43.3192" lon="6.33981">
        <ele>143.80000305176</ele>
        <time>2021-05-22T07:33:34Z</time>
      </trkpt>
      <trkpt lat="43.31923" lon="6.33992">
        <ele>143.60000610352</ele>
        <time>2021-05-22T07:33:35Z</time>
      </trkpt>
      <trkpt lat="43.31934" lon="6.34024">
        <ele>143</ele>
        <time>2021-05-22T07:33:38Z</time>
      </trkpt>
      <trkpt lat="43.31938" lon="6.34034">
        <ele>142.60000610352</ele>
        <time>2021-05-22T07:33:39Z</time>
      </trkpt>
      <trkpt lat="43.31962" lon="6.34083">
        <ele>141.80000305176</ele>
        <time>2021-05-22T07:33:44Z</time>
      </trkpt>
      <trkpt lat="43.31967" lon="6.34093">
        <ele>141.60000610352</ele>
        <time>2021-05-22T07:33:45Z</time>
      </trkpt>
      <trkpt lat="43.31987" lon="6.34133">
        <ele>140.60000610352</ele>
        <time>2021-05-22T07:33:49Z</time>
      </trkpt>
      <trkpt lat="43.31992" lon="6.34143">
        <ele>140.39999389648</ele>
        <time>2021-05-22T07:33:50Z</time>
      </trkpt>
      <trkpt lat="43.32007" lon="6.34173">
        <ele>139.39999389648</ele>
        <time>2021-05-22T07:33:53Z</time>
      </trkpt>
      <trkpt lat="43.32021" lon="6.34205">
        <ele>139</ele>
        <time>2021-05-22T07:33:56Z</time>
      </trkpt>
      <trkpt lat="43.32024" lon="6.34216">
        <ele>138.80000305176</ele>
        <time>2021-05-22T07:33:57Z</time>
      </trkpt>
      <trkpt lat="43.32029" lon="6.34251">
        <ele>138.60000610352</ele>
        <time>2021-05-22T07:34:00Z</time>
      </trkpt>
      <trkpt lat="43.3203" lon="6.34263">
        <ele>138.39999389648</ele>
        <time>2021-05-22T07:34:01Z</time>
      </trkpt>
      <trkpt lat="43.32035" lon="6.34312">
        <ele>137.39999389648</ele>
        <time>2021-05-22T07:34:05Z</time>
      </trkpt>
      <trkpt lat="43.32037" lon="6.34324">
        <ele>137.19999694824</ele>
        <time>2021-05-22T07:34:06Z</time>
      </trkpt>
      <trkpt lat="43.32039" lon="6.34347">
        <ele>137</ele>
        <time>2021-05-22T07:34:08Z</time>
      </trkpt>
      <trkpt lat="43.3204" lon="6.34358">
        <ele>137</ele>
        <time>2021-05-22T07:34:09Z</time>
      </trkpt>
      <trkpt lat="43.32046" lon="6.34424">
        <ele>137</ele>
        <time>2021-05-22T07:34:15Z</time>
      </trkpt>
      <trkpt lat="43.32047" lon="6.34434">
        <ele>137.19999694824</ele>
        <time>2021-05-22T07:34:16Z</time>
      </trkpt>
      <trkpt lat="43.3205" lon="6.34463">
        <ele>137.19999694824</ele>
        <time>2021-05-22T07:34:19Z</time>
      </trkpt>
      <trkpt lat="43.32051" lon="6.34472">
        <ele>137.19999694824</ele>
        <time>2021-05-22T07:34:20Z</time>
      </trkpt>
      <trkpt lat="43.32052" lon="6.3448">
        <ele>137.39999389648</ele>
        <time>2021-05-22T07:34:21Z</time>
      </trkpt>
      <trkpt lat="43.32053" lon="6.34522">
        <ele>138.19999694824</ele>
        <time>2021-05-22T07:34:26Z</time>
      </trkpt>
      <trkpt lat="43.32052" lon="6.3453">
        <ele>138.39999389648</ele>
        <time>2021-05-22T07:34:27Z</time>
      </trkpt>
      <trkpt lat="43.32052" lon="6.34538">
        <ele>138.60000610352</ele>
        <time>2021-05-22T07:34:28Z</time>
      </trkpt>
      <trkpt lat="43.32051" lon="6.34554">
        <ele>139</ele>
        <time>2021-05-22T07:34:30Z</time>
      </trkpt>
      <trkpt lat="43.32049" lon="6.34593">
        <ele>139.19999694824</ele>
        <time>2021-05-22T07:34:35Z</time>
      </trkpt>
      <trkpt lat="43.32048" lon="6.34609">
        <ele>139.19999694824</ele>
        <time>2021-05-22T07:34:37Z</time>
      </trkpt>
      <trkpt lat="43.32047" lon="6.34617">
        <ele>139.60000610352</ele>
        <time>2021-05-22T07:34:38Z</time>
      </trkpt>
      <trkpt lat="43.32044" lon="6.34661">
        <ele>140.19999694824</ele>
        <time>2021-05-22T07:34:43Z</time>
      </trkpt>
      <trkpt lat="43.32039" lon="6.34719">
        <ele>140.60000610352</ele>
        <time>2021-05-22T07:34:51Z</time>
      </trkpt>
      <trkpt lat="43.32036" lon="6.34762">
        <ele>141</ele>
        <time>2021-05-22T07:34:57Z</time>
      </trkpt>
      <trkpt lat="43.32035" lon="6.3477">
        <ele>141.19999694824</ele>
        <time>2021-05-22T07:34:58Z</time>
      </trkpt>
      <trkpt lat="43.32034" lon="6.34792">
        <ele>141.60000610352</ele>
        <time>2021-05-22T07:35:01Z</time>
      </trkpt>
      <trkpt lat="43.32033" lon="6.34813">
        <ele>141.60000610352</ele>
        <time>2021-05-22T07:35:04Z</time>
      </trkpt>
      <trkpt lat="43.32032" lon="6.34826">
        <ele>141.60000610352</ele>
        <time>2021-05-22T07:35:06Z</time>
      </trkpt>
      <trkpt lat="43.32028" lon="6.34871">
        <ele>142.80000305176</ele>
        <time>2021-05-22T07:35:13Z</time>
      </trkpt>
      <trkpt lat="43.32028" lon="6.34876">
        <ele>142.80000305176</ele>
        <time>2021-05-22T07:35:14Z</time>
      </trkpt>
      <trkpt lat="43.32021" lon="6.34923">
        <ele>142.80000305176</ele>
        <time>2021-05-22T07:35:21Z</time>
      </trkpt>
      <trkpt lat="43.32015" lon="6.34955">
        <ele>143</ele>
        <time>2021-05-22T07:35:26Z</time>
      </trkpt>
      <trkpt lat="43.32014" lon="6.34961">
        <ele>143</ele>
        <time>2021-05-22T07:35:27Z</time>
      </trkpt>
      <trkpt lat="43.32011" lon="6.34974">
        <ele>143.60000610352</ele>
        <time>2021-05-22T07:35:29Z</time>
      </trkpt>
      <trkpt lat="43.32006" lon="6.34997">
        <ele>143.60000610352</ele>
        <time>2021-05-22T07:35:32Z</time>
      </trkpt>
      <trkpt lat="43.32003" lon="6.35009">
        <ele>143.60000610352</ele>
        <time>2021-05-22T07:35:34Z</time>
      </trkpt>
      <trkpt lat="43.32001" lon="6.35022">
        <ele>143.80000305176</ele>
        <time>2021-05-22T07:35:36Z</time>
      </trkpt>
      <trkpt lat="43.32" lon="6.35028">
        <ele>143.80000305176</ele>
        <time>2021-05-22T07:35:37Z</time>
      </trkpt>
      <trkpt lat="43.31992" lon="6.35069">
        <ele>144.80000305176</ele>
        <time>2021-05-22T07:35:44Z</time>
      </trkpt>
      <trkpt lat="43.31988" lon="6.35081">
        <ele>145.19999694824</ele>
        <time>2021-05-22T07:35:46Z</time>
      </trkpt>
      <trkpt lat="43.31973" lon="6.35126">
        <ele>145.60000610352</ele>
        <time>2021-05-22T07:35:53Z</time>
      </trkpt>
      <trkpt lat="43.31955" lon="6.35169">
        <ele>145.80000305176</ele>
        <time>2021-05-22T07:36:00Z</time>
      </trkpt>
      <trkpt lat="43.31952" lon="6.35175">
        <ele>145.80000305176</ele>
        <time>2021-05-22T07:36:01Z</time>
      </trkpt>
      <trkpt lat="43.31949" lon="6.35182">
        <ele>145.80000305176</ele>
        <time>2021-05-22T07:36:02Z</time>
      </trkpt>
      <trkpt lat="43.31927" lon="6.35225">
        <ele>145.80000305176</ele>
        <time>2021-05-22T07:36:08Z</time>
      </trkpt>
      <trkpt lat="43.31904" lon="6.3527">
        <ele>145</ele>
        <time>2021-05-22T07:36:13Z</time>
      </trkpt>
      <trkpt lat="43.31895" lon="6.3529">
        <ele>144.60000610352</ele>
        <time>2021-05-22T07:36:15Z</time>
      </trkpt>
      <trkpt lat="43.31879" lon="6.35334">
        <ele>144</ele>
        <time>2021-05-22T07:36:20Z</time>
      </trkpt>
      <trkpt lat="43.31875" lon="6.35352">
        <ele>143.80000305176</ele>
        <time>2021-05-22T07:36:22Z</time>
      </trkpt>
      <trkpt lat="43.31864" lon="6.35397">
        <ele>143.80000305176</ele>
        <time>2021-05-22T07:36:27Z</time>
      </trkpt>
      <trkpt lat="43.31863" lon="6.35405">
        <ele>143.80000305176</ele>
        <time>2021-05-22T07:36:28Z</time>
      </trkpt>
      <trkpt lat="43.31861" lon="6.35414">
        <ele>143.80000305176</ele>
        <time>2021-05-22T07:36:29Z</time>
      </trkpt>
      <trkpt lat="43.31859" lon="6.35422">
        <ele>143.80000305176</ele>
        <time>2021-05-22T07:36:30Z</time>
      </trkpt>
      <trkpt lat="43.31855" lon="6.35438">
        <ele>144</ele>
        <time>2021-05-22T07:36:32Z</time>
      </trkpt>
      <trkpt lat="43.31849" lon="6.35469">
        <ele>144.39999389648</ele>
        <time>2021-05-22T07:36:36Z</time>
      </trkpt>
      <trkpt lat="43.31847" lon="6.35477">
        <ele>144.60000610352</ele>
        <time>2021-05-22T07:36:37Z</time>
      </trkpt>
      <trkpt lat="43.31837" lon="6.35529">
        <ele>144.80000305176</ele>
        <time>2021-05-22T07:36:43Z</time>
      </trkpt>
      <trkpt lat="43.31836" lon="6.35536">
        <ele>144.80000305176</ele>
        <time>2021-05-22T07:36:44Z</time>
      </trkpt>
      <trkpt lat="43.31836" lon="6.35581">
        <ele>144.80000305176</ele>
        <time>2021-05-22T07:36:49Z</time>
      </trkpt>
      <trkpt lat="43.31836" lon="6.35598">
        <ele>144.80000305176</ele>
        <time>2021-05-22T07:36:51Z</time>
      </trkpt>
      <trkpt lat="43.31836" lon="6.35606">
        <ele>144.80000305176</ele>
        <time>2021-05-22T07:36:52Z</time>
      </trkpt>
      <trkpt lat="43.31836" lon="6.35623">
        <ele>144.80000305176</ele>
        <time>2021-05-22T07:36:54Z</time>
      </trkpt>
      <trkpt lat="43.31836" lon="6.35639">
        <ele>144.80000305176</ele>
        <time>2021-05-22T07:36:56Z</time>
      </trkpt>
      <trkpt lat="43.31836" lon="6.35647">
        <ele>144.80000305176</ele>
        <time>2021-05-22T07:36:57Z</time>
      </trkpt>
      <trkpt lat="43.31836" lon="6.35655">
        <ele>145</ele>
        <time>2021-05-22T07:36:58Z</time>
      </trkpt>
      <trkpt lat="43.31836" lon="6.3567">
        <ele>145.19999694824</ele>
        <time>2021-05-22T07:37:00Z</time>
      </trkpt>
      <trkpt lat="43.31836" lon="6.35699">
        <ele>145.39999389648</ele>
        <time>2021-05-22T07:37:04Z</time>
      </trkpt>
      <trkpt lat="43.31834" lon="6.35706">
        <ele>145.39999389648</ele>
        <time>2021-05-22T07:37:05Z</time>
      </trkpt>
      <trkpt lat="43.31832" lon="6.35713">
        <ele>145.39999389648</ele>
        <time>2021-05-22T07:37:06Z</time>
      </trkpt>
      <trkpt lat="43.31828" lon="6.35726">
        <ele>145.60000610352</ele>
        <time>2021-05-22T07:37:08Z</time>
      </trkpt>
      <trkpt lat="43.31821" lon="6.35744">
        <ele>145.80000305176</ele>
        <time>2021-05-22T07:37:11Z</time>
      </trkpt>
      <trkpt lat="43.318" lon="6.3579">
        <ele>146.60000610352</ele>
        <time>2021-05-22T07:37:19Z</time>
      </trkpt>
      <trkpt lat="43.31797" lon="6.35796">
        <ele>146.80000305176</ele>
        <time>2021-05-22T07:37:20Z</time>
      </trkpt>
      <trkpt lat="43.31795" lon="6.35802">
        <ele>146.80000305176</ele>
        <time>2021-05-22T07:37:21Z</time>
      </trkpt>
      <trkpt lat="43.31777" lon="6.3584">
        <ele>147</ele>
        <time>2021-05-22T07:37:27Z</time>
      </trkpt>
      <trkpt lat="43.3177" lon="6.35862">
        <ele>147</ele>
        <time>2021-05-22T07:37:30Z</time>
      </trkpt>
      <trkpt lat="43.3177" lon="6.35878">
        <ele>146.80000305176</ele>
        <time>2021-05-22T07:37:32Z</time>
      </trkpt>
      <trkpt lat="43.31772" lon="6.35896">
        <ele>146.80000305176</ele>
        <time>2021-05-22T07:37:34Z</time>
      </trkpt>
      <trkpt lat="43.31774" lon="6.35913">
        <ele>146.39999389648</ele>
        <time>2021-05-22T07:37:36Z</time>
      </trkpt>
      <trkpt lat="43.31786" lon="6.35937">
        <ele>146</ele>
        <time>2021-05-22T07:37:40Z</time>
      </trkpt>
      <trkpt lat="43.31789" lon="6.35943">
        <ele>145.80000305176</ele>
        <time>2021-05-22T07:37:41Z</time>
      </trkpt>
      <trkpt lat="43.31793" lon="6.35949">
        <ele>145.80000305176</ele>
        <time>2021-05-22T07:37:42Z</time>
      </trkpt>
      <trkpt lat="43.31796" lon="6.35954">
        <ele>145.80000305176</ele>
        <time>2021-05-22T07:37:43Z</time>
      </trkpt>
      <trkpt lat="43.318" lon="6.3596">
        <ele>145.80000305176</ele>
        <time>2021-05-22T07:37:44Z</time>
      </trkpt>
      <trkpt lat="43.31812" lon="6.35977">
        <ele>145.80000305176</ele>
        <time>2021-05-22T07:37:47Z</time>
      </trkpt>
      <trkpt lat="43.31826" lon="6.36004">
        <ele>145.80000305176</ele>
        <time>2021-05-22T07:37:51Z</time>
      </trkpt>
      <trkpt lat="43.31829" lon="6.36011">
        <ele>145.80000305176</ele>
        <time>2021-05-22T07:37:52Z</time>
      </trkpt>
      <trkpt lat="43.31837" lon="6.36024">
        <ele>145.80000305176</ele>
        <time>2021-05-22T07:37:54Z</time>
      </trkpt>
      <trkpt lat="43.31842" lon="6.3603">
        <ele>145.80000305176</ele>
        <time>2021-05-22T07:37:55Z</time>
      </trkpt>
      <trkpt lat="43.31847" lon="6.36034">
        <ele>145.80000305176</ele>
        <time>2021-05-22T07:37:56Z</time>
      </trkpt>
      <trkpt lat="43.3187" lon="6.36048">
        <ele>145.80000305176</ele>
        <time>2021-05-22T07:38:00Z</time>
      </trkpt>
      <trkpt lat="43.31882" lon="6.36055">
        <ele>145.80000305176</ele>
        <time>2021-05-22T07:38:02Z</time>
      </trkpt>
      <trkpt lat="43.319" lon="6.3606">
        <ele>145.80000305176</ele>
        <time>2021-05-22T07:38:05Z</time>
      </trkpt>
      <trkpt lat="43.3193" lon="6.36069">
        <ele>145.60000610352</ele>
        <time>2021-05-22T07:38:10Z</time>
      </trkpt>
      <trkpt lat="43.31936" lon="6.3607">
        <ele>145.60000610352</ele>
        <time>2021-05-22T07:38:11Z</time>
      </trkpt>
      <trkpt lat="43.31949" lon="6.36072">
        <ele>145.39999389648</ele>
        <time>2021-05-22T07:38:13Z</time>
      </trkpt>
      <trkpt lat="43.3196" lon="6.36079">
        <ele>145.39999389648</ele>
        <time>2021-05-22T07:38:15Z</time>
      </trkpt>
      <trkpt lat="43.31975" lon="6.36094">
        <ele>145.39999389648</ele>
        <time>2021-05-22T07:38:18Z</time>
      </trkpt>
      <trkpt lat="43.31981" lon="6.36097">
        <ele>145.19999694824</ele>
        <time>2021-05-22T07:38:19Z</time>
      </trkpt>
      <trkpt lat="43.31988" lon="6.361">
        <ele>145.19999694824</ele>
        <time>2021-05-22T07:38:20Z</time>
      </trkpt>
      <trkpt lat="43.31995" lon="6.36101">
        <ele>145.19999694824</ele>
        <time>2021-05-22T07:38:21Z</time>
      </trkpt>
      <trkpt lat="43.32008" lon="6.36104">
        <ele>145.19999694824</ele>
        <time>2021-05-22T07:38:23Z</time>
      </trkpt>
      <trkpt lat="43.32014" lon="6.36108">
        <ele>145</ele>
        <time>2021-05-22T07:38:24Z</time>
      </trkpt>
      <trkpt lat="43.3202" lon="6.36112">
        <ele>145</ele>
        <time>2021-05-22T07:38:25Z</time>
      </trkpt>
      <trkpt lat="43.32036" lon="6.36129">
        <ele>145</ele>
        <time>2021-05-22T07:38:28Z</time>
      </trkpt>
      <trkpt lat="43.32041" lon="6.36133">
        <ele>145</ele>
        <time>2021-05-22T07:38:29Z</time>
      </trkpt>
      <trkpt lat="43.32053" lon="6.36138">
        <ele>145</ele>
        <time>2021-05-22T07:38:31Z</time>
      </trkpt>
      <trkpt lat="43.32059" lon="6.36141">
        <ele>145</ele>
        <time>2021-05-22T07:38:32Z</time>
      </trkpt>
      <trkpt lat="43.32078" lon="6.36151">
        <ele>144.80000305176</ele>
        <time>2021-05-22T07:38:35Z</time>
      </trkpt>
      <trkpt lat="43.32104" lon="6.36167">
        <ele>144.39999389648</ele>
        <time>2021-05-22T07:38:39Z</time>
      </trkpt>
      <trkpt lat="43.32118" lon="6.36175">
        <ele>144.60000610352</ele>
        <time>2021-05-22T07:38:41Z</time>
      </trkpt>
      <trkpt lat="43.32125" lon="6.3618">
        <ele>144.39999389648</ele>
        <time>2021-05-22T07:38:42Z</time>
      </trkpt>
      <trkpt lat="43.32138" lon="6.36193">
        <ele>144.39999389648</ele>
        <time>2021-05-22T07:38:44Z</time>
      </trkpt>
      <trkpt lat="43.32143" lon="6.36198">
        <ele>144.19999694824</ele>
        <time>2021-05-22T07:38:45Z</time>
      </trkpt>
      <trkpt lat="43.3216" lon="6.36218">
        <ele>143.80000305176</ele>
        <time>2021-05-22T07:38:48Z</time>
      </trkpt>
      <trkpt lat="43.32172" lon="6.36231">
        <ele>143.39999389648</ele>
        <time>2021-05-22T07:38:50Z</time>
      </trkpt>
      <trkpt lat="43.32178" lon="6.36237">
        <ele>143.19999694824</ele>
        <time>2021-05-22T07:38:51Z</time>
      </trkpt>
      <trkpt lat="43.32184" lon="6.36242">
        <ele>143</ele>
        <time>2021-05-22T07:38:52Z</time>
      </trkpt>
      <trkpt lat="43.3219" lon="6.3625">
        <ele>142.60000610352</ele>
        <time>2021-05-22T07:38:53Z</time>
      </trkpt>
      <trkpt lat="43.32194" lon="6.36258">
        <ele>142.39999389648</ele>
        <time>2021-05-22T07:38:54Z</time>
      </trkpt>
      <trkpt lat="43.32204" lon="6.36273">
        <ele>142.19999694824</ele>
        <time>2021-05-22T07:38:56Z</time>
      </trkpt>
      <trkpt lat="43.32217" lon="6.36285">
        <ele>142</ele>
        <time>2021-05-22T07:38:58Z</time>
      </trkpt>
      <trkpt lat="43.32229" lon="6.36295">
        <ele>141.80000305176</ele>
        <time>2021-05-22T07:39:00Z</time>
      </trkpt>
      <trkpt lat="43.32239" lon="6.3631">
        <ele>141.60000610352</ele>
        <time>2021-05-22T07:39:02Z</time>
      </trkpt>
      <trkpt lat="43.32245" lon="6.36325">
        <ele>141.39999389648</ele>
        <time>2021-05-22T07:39:04Z</time>
      </trkpt>
      <trkpt lat="43.32253" lon="6.3634">
        <ele>141.19999694824</ele>
        <time>2021-05-22T07:39:06Z</time>
      </trkpt>
      <trkpt lat="43.3227" lon="6.36357">
        <ele>140.60000610352</ele>
        <time>2021-05-22T07:39:09Z</time>
      </trkpt>
      <trkpt lat="43.32282" lon="6.3637">
        <ele>140.60000610352</ele>
        <time>2021-05-22T07:39:11Z</time>
      </trkpt>
      <trkpt lat="43.32314" lon="6.36392">
        <ele>140</ele>
        <time>2021-05-22T07:39:16Z</time>
      </trkpt>
      <trkpt lat="43.32327" lon="6.36398">
        <ele>139.60000610352</ele>
        <time>2021-05-22T07:39:18Z</time>
      </trkpt>
      <trkpt lat="43.3234" lon="6.36404">
        <ele>139.39999389648</ele>
        <time>2021-05-22T07:39:20Z</time>
      </trkpt>
      <trkpt lat="43.32353" lon="6.36413">
        <ele>139.19999694824</ele>
        <time>2021-05-22T07:39:22Z</time>
      </trkpt>
      <trkpt lat="43.32364" lon="6.36428">
        <ele>139</ele>
        <time>2021-05-22T07:39:24Z</time>
      </trkpt>
      <trkpt lat="43.32369" lon="6.36444">
        <ele>138.80000305176</ele>
        <time>2021-05-22T07:39:26Z</time>
      </trkpt>
      <trkpt lat="43.3237" lon="6.36453">
        <ele>138.39999389648</ele>
        <time>2021-05-22T07:39:27Z</time>
      </trkpt>
      <trkpt lat="43.32373" lon="6.3647">
        <ele>137.60000610352</ele>
        <time>2021-05-22T07:39:29Z</time>
      </trkpt>
      <trkpt lat="43.32378" lon="6.36479">
        <ele>137.19999694824</ele>
        <time>2021-05-22T07:39:31Z</time>
      </trkpt>
      <trkpt lat="43.32383" lon="6.36478">
        <ele>136.80000305176</ele>
        <time>2021-05-22T07:39:33Z</time>
      </trkpt>
      <trkpt lat="43.32388" lon="6.3646">
        <ele>136.19999694824</ele>
        <time>2021-05-22T07:39:37Z</time>
      </trkpt>
      <trkpt lat="43.32389" lon="6.36455">
        <ele>136.19999694824</ele>
        <time>2021-05-22T07:39:38Z</time>
      </trkpt>
      <trkpt lat="43.32395" lon="6.36436">
        <ele>136</ele>
        <time>2021-05-22T07:39:42Z</time>
      </trkpt>
      <trkpt lat="43.32399" lon="6.36435">
        <ele>135.80000305176</ele>
        <time>2021-05-22T07:39:43Z</time>
      </trkpt>
      <trkpt lat="43.32403" lon="6.36434">
        <ele>135.80000305176</ele>
        <time>2021-05-22T07:39:44Z</time>
      </trkpt>
      <trkpt lat="43.32418" lon="6.36435">
        <ele>135.60000610352</ele>
        <time>2021-05-22T07:39:47Z</time>
      </trkpt>
      <trkpt lat="43.32453" lon="6.36431">
        <ele>135.19999694824</ele>
        <time>2021-05-22T07:39:54Z</time>
      </trkpt>
      <trkpt lat="43.32488" lon="6.36422">
        <ele>134.80000305176</ele>
        <time>2021-05-22T07:40:01Z</time>
      </trkpt>
      <trkpt lat="43.32494" lon="6.36422">
        <ele>134.80000305176</ele>
        <time>2021-05-22T07:40:02Z</time>
      </trkpt>
      <trkpt lat="43.32499" lon="6.36423">
        <ele>134.80000305176</ele>
        <time>2021-05-22T07:40:03Z</time>
      </trkpt>
      <trkpt lat="43.32518" lon="6.36429">
        <ele>134.19999694824</ele>
        <time>2021-05-22T07:40:07Z</time>
      </trkpt>
      <trkpt lat="43.32524" lon="6.3643">
        <ele>134</ele>
        <time>2021-05-22T07:40:08Z</time>
      </trkpt>
      <trkpt lat="43.32528" lon="6.36431">
        <ele>133.80000305176</ele>
        <time>2021-05-22T07:40:09Z</time>
      </trkpt>
      <trkpt lat="43.32538" lon="6.36436">
        <ele>133.80000305176</ele>
        <time>2021-05-22T07:40:11Z</time>
      </trkpt>
      <trkpt lat="43.32549" lon="6.36438">
        <ele>133.60000610352</ele>
        <time>2021-05-22T07:40:13Z</time>
      </trkpt>
      <trkpt lat="43.32569" lon="6.36445">
        <ele>133.80000305176</ele>
        <time>2021-05-22T07:40:17Z</time>
      </trkpt>
      <trkpt lat="43.32574" lon="6.36447">
        <ele>133.80000305176</ele>
        <time>2021-05-22T07:40:18Z</time>
      </trkpt>
      <trkpt lat="43.32599" lon="6.36455">
        <ele>133.60000610352</ele>
        <time>2021-05-22T07:40:23Z</time>
      </trkpt>
      <trkpt lat="43.32609" lon="6.3646">
        <ele>133.60000610352</ele>
        <time>2021-05-22T07:40:25Z</time>
      </trkpt>
      <trkpt lat="43.32614" lon="6.36463">
        <ele>133.60000610352</ele>
        <time>2021-05-22T07:40:26Z</time>
      </trkpt>
      <trkpt lat="43.32623" lon="6.36469">
        <ele>133.39999389648</ele>
        <time>2021-05-22T07:40:28Z</time>
      </trkpt>
      <trkpt lat="43.32628" lon="6.36472">
        <ele>133.39999389648</ele>
        <time>2021-05-22T07:40:29Z</time>
      </trkpt>
      <trkpt lat="43.32642" lon="6.36481">
        <ele>133.39999389648</ele>
        <time>2021-05-22T07:40:32Z</time>
      </trkpt>
      <trkpt lat="43.32653" lon="6.36486">
        <ele>133.39999389648</ele>
        <time>2021-05-22T07:40:34Z</time>
      </trkpt>
      <trkpt lat="43.32677" lon="6.36497">
        <ele>133</ele>
        <time>2021-05-22T07:40:39Z</time>
      </trkpt>
      <trkpt lat="43.32681" lon="6.36499">
        <ele>132.80000305176</ele>
        <time>2021-05-22T07:40:40Z</time>
      </trkpt>
      <trkpt lat="43.32686" lon="6.36501">
        <ele>132.80000305176</ele>
        <time>2021-05-22T07:40:41Z</time>
      </trkpt>
      <trkpt lat="43.3269" lon="6.36503">
        <ele>132.80000305176</ele>
        <time>2021-05-22T07:40:42Z</time>
      </trkpt>
      <trkpt lat="43.32694" lon="6.36505">
        <ele>132.60000610352</ele>
        <time>2021-05-22T07:40:43Z</time>
      </trkpt>
      <trkpt lat="43.32699" lon="6.36507">
        <ele>132.60000610352</ele>
        <time>2021-05-22T07:40:44Z</time>
      </trkpt>
      <trkpt lat="43.32707" lon="6.3651">
        <ele>132.39999389648</ele>
        <time>2021-05-22T07:40:46Z</time>
      </trkpt>
      <trkpt lat="43.32712" lon="6.36511">
        <ele>132.39999389648</ele>
        <time>2021-05-22T07:40:47Z</time>
      </trkpt>
      <trkpt lat="43.3272" lon="6.36515">
        <ele>132.39999389648</ele>
        <time>2021-05-22T07:40:49Z</time>
      </trkpt>
      <trkpt lat="43.32728" lon="6.36519">
        <ele>132.39999389648</ele>
        <time>2021-05-22T07:40:51Z</time>
      </trkpt>
      <trkpt lat="43.32733" lon="6.36521">
        <ele>132.39999389648</ele>
        <time>2021-05-22T07:40:52Z</time>
      </trkpt>
      <trkpt lat="43.32741" lon="6.36523">
        <ele>132.19999694824</ele>
        <time>2021-05-22T07:40:54Z</time>
      </trkpt>
      <trkpt lat="43.32764" lon="6.36531">
        <ele>132.39999389648</ele>
        <time>2021-05-22T07:41:00Z</time>
      </trkpt>
      <trkpt lat="43.32767" lon="6.36533">
        <ele>132.39999389648</ele>
        <time>2021-05-22T07:41:01Z</time>
      </trkpt>
      <trkpt lat="43.32787" lon="6.36542">
        <ele>133</ele>
        <time>2021-05-22T07:41:06Z</time>
      </trkpt>
      <trkpt lat="43.32792" lon="6.36545">
        <ele>133.19999694824</ele>
        <time>2021-05-22T07:41:07Z</time>
      </trkpt>
      <trkpt lat="43.32799" lon="6.36552">
        <ele>133.39999389648</ele>
        <time>2021-05-22T07:41:09Z</time>
      </trkpt>
      <trkpt lat="43.32805" lon="6.36561">
        <ele>133.39999389648</ele>
        <time>2021-05-22T07:41:11Z</time>
      </trkpt>
      <trkpt lat="43.32812" lon="6.3657">
        <ele>133.39999389648</ele>
        <time>2021-05-22T07:41:13Z</time>
      </trkpt>
      <trkpt lat="43.32816" lon="6.36573">
        <ele>133.39999389648</ele>
        <time>2021-05-22T07:41:14Z</time>
      </trkpt>
      <trkpt lat="43.32819" lon="6.36576">
        <ele>133.60000610352</ele>
        <time>2021-05-22T07:41:15Z</time>
      </trkpt>
      <trkpt lat="43.32823" lon="6.36579">
        <ele>133.60000610352</ele>
        <time>2021-05-22T07:41:16Z</time>
      </trkpt>
      <trkpt lat="43.32828" lon="6.36583">
        <ele>133.60000610352</ele>
        <time>2021-05-22T07:41:17Z</time>
      </trkpt>
      <trkpt lat="43.32835" lon="6.36594">
        <ele>133.39999389648</ele>
        <time>2021-05-22T07:41:20Z</time>
      </trkpt>
      <trkpt lat="43.32846" lon="6.36605">
        <ele>133.19999694824</ele>
        <time>2021-05-22T07:41:23Z</time>
      </trkpt>
      <trkpt lat="43.32852" lon="6.36608">
        <ele>133.19999694824</ele>
        <time>2021-05-22T07:41:25Z</time>
      </trkpt>
      <trkpt lat="43.32857" lon="6.36608">
        <ele>133.19999694824</ele>
        <time>2021-05-22T07:41:26Z</time>
      </trkpt>
      <trkpt lat="43.32866" lon="6.36606">
        <ele>133</ele>
        <time>2021-05-22T07:41:28Z</time>
      </trkpt>
      <trkpt lat="43.32869" lon="6.36604">
        <ele>133</ele>
        <time>2021-05-22T07:41:29Z</time>
      </trkpt>
      <trkpt lat="43.32896" lon="6.36594">
        <ele>132.39999389648</ele>
        <time>2021-05-22T07:41:36Z</time>
      </trkpt>
      <trkpt lat="43.32909" lon="6.36593">
        <ele>132</ele>
        <time>2021-05-22T07:41:40Z</time>
      </trkpt>
      <trkpt lat="43.32916" lon="6.36594">
        <ele>131.80000305176</ele>
        <time>2021-05-22T07:41:42Z</time>
      </trkpt>
      <trkpt lat="43.32919" lon="6.36595">
        <ele>131.60000610352</ele>
        <time>2021-05-22T07:41:43Z</time>
      </trkpt>
      <trkpt lat="43.32929" lon="6.36597">
        <ele>131.39999389648</ele>
        <time>2021-05-22T07:41:45Z</time>
      </trkpt>
      <trkpt lat="43.32939" lon="6.36602">
        <ele>131.39999389648</ele>
        <time>2021-05-22T07:41:47Z</time>
      </trkpt>
      <trkpt lat="43.32945" lon="6.36604">
        <ele>131.39999389648</ele>
        <time>2021-05-22T07:41:48Z</time>
      </trkpt>
      <trkpt lat="43.3295" lon="6.36605">
        <ele>131.39999389648</ele>
        <time>2021-05-22T07:41:49Z</time>
      </trkpt>
      <trkpt lat="43.3296" lon="6.36604">
        <ele>131.39999389648</ele>
        <time>2021-05-22T07:41:51Z</time>
      </trkpt>
      <trkpt lat="43.32966" lon="6.36604">
        <ele>131.39999389648</ele>
        <time>2021-05-22T07:41:52Z</time>
      </trkpt>
      <trkpt lat="43.32972" lon="6.36604">
        <ele>131.39999389648</ele>
        <time>2021-05-22T07:41:53Z</time>
      </trkpt>
      <trkpt lat="43.32988" lon="6.36607">
        <ele>131</ele>
        <time>2021-05-22T07:41:56Z</time>
      </trkpt>
      <trkpt lat="43.32994" lon="6.36606">
        <ele>131</ele>
        <time>2021-05-22T07:41:57Z</time>
      </trkpt>
      <trkpt lat="43.33009" lon="6.36604">
        <ele>130.60000610352</ele>
        <time>2021-05-22T07:42:00Z</time>
      </trkpt>
      <trkpt lat="43.33017" lon="6.36601">
        <ele>130.39999389648</ele>
        <time>2021-05-22T07:42:02Z</time>
      </trkpt>
      <trkpt lat="43.33024" lon="6.36598">
        <ele>130.39999389648</ele>
        <time>2021-05-22T07:42:04Z</time>
      </trkpt>
      <trkpt lat="43.33029" lon="6.36597">
        <ele>130.39999389648</ele>
        <time>2021-05-22T07:42:05Z</time>
      </trkpt>
      <trkpt lat="43.33034" lon="6.36597">
        <ele>130.39999389648</ele>
        <time>2021-05-22T07:42:06Z</time>
      </trkpt>
      <trkpt lat="43.33051" lon="6.36601">
        <ele>130</ele>
        <time>2021-05-22T07:42:09Z</time>
      </trkpt>
      <trkpt lat="43.33062" lon="6.36604">
        <ele>129.60000610352</ele>
        <time>2021-05-22T07:42:11Z</time>
      </trkpt>
      <trkpt lat="43.33066" lon="6.36606">
        <ele>129.60000610352</ele>
        <time>2021-05-22T07:42:12Z</time>
      </trkpt>
      <trkpt lat="43.33075" lon="6.3661">
        <ele>129.39999389648</ele>
        <time>2021-05-22T07:42:14Z</time>
      </trkpt>
      <trkpt lat="43.33079" lon="6.36612">
        <ele>129.39999389648</ele>
        <time>2021-05-22T07:42:15Z</time>
      </trkpt>
      <trkpt lat="43.331" lon="6.36617">
        <ele>129.19999694824</ele>
        <time>2021-05-22T07:42:20Z</time>
      </trkpt>
      <trkpt lat="43.33105" lon="6.36617">
        <ele>129.19999694824</ele>
        <time>2021-05-22T07:42:21Z</time>
      </trkpt>
      <trkpt lat="43.33122" lon="6.3662">
        <ele>129.19999694824</ele>
        <time>2021-05-22T07:42:25Z</time>
      </trkpt>
      <trkpt lat="43.33128" lon="6.36622">
        <ele>128.80000305176</ele>
        <time>2021-05-22T07:42:26Z</time>
      </trkpt>
      <trkpt lat="43.3315" lon="6.36623">
        <ele>128</ele>
        <time>2021-05-22T07:42:30Z</time>
      </trkpt>
      <trkpt lat="43.33156" lon="6.36624">
        <ele>127.59999847412</ele>
        <time>2021-05-22T07:42:31Z</time>
      </trkpt>
      <trkpt lat="43.33185" lon="6.36627">
        <ele>126.80000305176</ele>
        <time>2021-05-22T07:42:36Z</time>
      </trkpt>
      <trkpt lat="43.33193" lon="6.36629">
        <ele>126.80000305176</ele>
        <time>2021-05-22T07:42:37Z</time>
      </trkpt>
      <trkpt lat="43.33198" lon="6.3663">
        <ele>126.40000152588</ele>
        <time>2021-05-22T07:42:38Z</time>
      </trkpt>
      <trkpt lat="43.33211" lon="6.36636">
        <ele>125.59999847412</ele>
        <time>2021-05-22T07:42:40Z</time>
      </trkpt>
      <trkpt lat="43.33223" lon="6.36641">
        <ele>125.19999694824</ele>
        <time>2021-05-22T07:42:42Z</time>
      </trkpt>
      <trkpt lat="43.33243" lon="6.36654">
        <ele>125</ele>
        <time>2021-05-22T07:42:45Z</time>
      </trkpt>
      <trkpt lat="43.33254" lon="6.36661">
        <ele>124.80000305176</ele>
        <time>2021-05-22T07:42:47Z</time>
      </trkpt>
      <trkpt lat="43.33272" lon="6.36674">
        <ele>124.80000305176</ele>
        <time>2021-05-22T07:42:50Z</time>
      </trkpt>
      <trkpt lat="43.3328" lon="6.36681">
        <ele>124.59999847412</ele>
        <time>2021-05-22T07:42:52Z</time>
      </trkpt>
      <trkpt lat="43.33286" lon="6.36685">
        <ele>124.59999847412</ele>
        <time>2021-05-22T07:42:53Z</time>
      </trkpt>
      <trkpt lat="43.33295" lon="6.36692">
        <ele>124.59999847412</ele>
        <time>2021-05-22T07:42:55Z</time>
      </trkpt>
      <trkpt lat="43.33299" lon="6.36695">
        <ele>124.59999847412</ele>
        <time>2021-05-22T07:42:56Z</time>
      </trkpt>
      <trkpt lat="43.33303" lon="6.36697">
        <ele>124.59999847412</ele>
        <time>2021-05-22T07:42:57Z</time>
      </trkpt>
      <trkpt lat="43.33312" lon="6.36699">
        <ele>124.80000305176</ele>
        <time>2021-05-22T07:42:59Z</time>
      </trkpt>
      <trkpt lat="43.33318" lon="6.36701">
        <ele>124.80000305176</ele>
        <time>2021-05-22T07:43:00Z</time>
      </trkpt>
      <trkpt lat="43.33328" lon="6.36704">
        <ele>124.80000305176</ele>
        <time>2021-05-22T07:43:02Z</time>
      </trkpt>
      <trkpt lat="43.33346" lon="6.36706">
        <ele>124.80000305176</ele>
        <time>2021-05-22T07:43:05Z</time>
      </trkpt>
      <trkpt lat="43.33367" lon="6.36712">
        <ele>124.80000305176</ele>
        <time>2021-05-22T07:43:09Z</time>
      </trkpt>
      <trkpt lat="43.33382" lon="6.36714">
        <ele>124.80000305176</ele>
        <time>2021-05-22T07:43:12Z</time>
      </trkpt>
      <trkpt lat="43.33418" lon="6.36718">
        <ele>124.59999847412</ele>
        <time>2021-05-22T07:43:18Z</time>
      </trkpt>
      <trkpt lat="43.33433" lon="6.3672">
        <ele>124.19999694824</ele>
        <time>2021-05-22T07:43:20Z</time>
      </trkpt>
      <trkpt lat="43.33439" lon="6.3672">
        <ele>123.80000305176</ele>
        <time>2021-05-22T07:43:21Z</time>
      </trkpt>
      <trkpt lat="43.3345" lon="6.3672">
        <ele>123</ele>
        <time>2021-05-22T07:43:23Z</time>
      </trkpt>
      <trkpt lat="43.33471" lon="6.36722">
        <ele>122.59999847412</ele>
        <time>2021-05-22T07:43:27Z</time>
      </trkpt>
      <trkpt lat="43.33477" lon="6.36721">
        <ele>122.59999847412</ele>
        <time>2021-05-22T07:43:28Z</time>
      </trkpt>
      <trkpt lat="43.33488" lon="6.36718">
        <ele>122.59999847412</ele>
        <time>2021-05-22T07:43:30Z</time>
      </trkpt>
      <trkpt lat="43.33499" lon="6.36714">
        <ele>122.40000152588</ele>
        <time>2021-05-22T07:43:32Z</time>
      </trkpt>
      <trkpt lat="43.33528" lon="6.36709">
        <ele>122</ele>
        <time>2021-05-22T07:43:37Z</time>
      </trkpt>
      <trkpt lat="43.3354" lon="6.36711">
        <ele>122</ele>
        <time>2021-05-22T07:43:39Z</time>
      </trkpt>
      <trkpt lat="43.33554" lon="6.36716">
        <ele>121.59999847412</ele>
        <time>2021-05-22T07:43:41Z</time>
      </trkpt>
      <trkpt lat="43.33564" lon="6.36725">
        <ele>121.40000152588</ele>
        <time>2021-05-22T07:43:43Z</time>
      </trkpt>
      <trkpt lat="43.33576" lon="6.3674">
        <ele>120.80000305176</ele>
        <time>2021-05-22T07:43:45Z</time>
      </trkpt>
      <trkpt lat="43.33599" lon="6.3677">
        <ele>119.40000152588</ele>
        <time>2021-05-22T07:43:50Z</time>
      </trkpt>
      <trkpt lat="43.33607" lon="6.36781">
        <ele>118.80000305176</ele>
        <time>2021-05-22T07:43:52Z</time>
      </trkpt>
      <trkpt lat="43.33615" lon="6.36789">
        <ele>118.40000152588</ele>
        <time>2021-05-22T07:43:54Z</time>
      </trkpt>
      <trkpt lat="43.3362" lon="6.36793">
        <ele>118.40000152588</ele>
        <time>2021-05-22T07:43:55Z</time>
      </trkpt>
      <trkpt lat="43.3363" lon="6.36802">
        <ele>118.19999694824</ele>
        <time>2021-05-22T07:43:57Z</time>
      </trkpt>
      <trkpt lat="43.33659" lon="6.36831">
        <ele>118</ele>
        <time>2021-05-22T07:44:04Z</time>
      </trkpt>
      <trkpt lat="43.33669" lon="6.36849">
        <ele>118.19999694824</ele>
        <time>2021-05-22T07:44:07Z</time>
      </trkpt>
      <trkpt lat="43.33674" lon="6.36861">
        <ele>118.40000152588</ele>
        <time>2021-05-22T07:44:09Z</time>
      </trkpt>
      <trkpt lat="43.33681" lon="6.36872">
        <ele>118.40000152588</ele>
        <time>2021-05-22T07:44:11Z</time>
      </trkpt>
      <trkpt lat="43.33689" lon="6.36878">
        <ele>118</ele>
        <time>2021-05-22T07:44:13Z</time>
      </trkpt>
      <trkpt lat="43.33701" lon="6.36883">
        <ele>116.80000305176</ele>
        <time>2021-05-22T07:44:17Z</time>
      </trkpt>
      <trkpt lat="43.33711" lon="6.36888">
        <ele>115.19999694824</ele>
        <time>2021-05-22T07:44:21Z</time>
      </trkpt>
      <trkpt lat="43.33715" lon="6.36891">
        <ele>114.40000152588</ele>
        <time>2021-05-22T07:44:23Z</time>
      </trkpt>
      <trkpt lat="43.33718" lon="6.36893">
        <ele>114</ele>
        <time>2021-05-22T07:44:24Z</time>
      </trkpt>
      <trkpt lat="43.33726" lon="6.36902">
        <ele>112.59999847412</ele>
        <time>2021-05-22T07:44:28Z</time>
      </trkpt>
      <trkpt lat="43.33733" lon="6.36911">
        <ele>111.40000152588</ele>
        <time>2021-05-22T07:44:31Z</time>
      </trkpt>
      <trkpt lat="43.3374" lon="6.36919">
        <ele>110.59999847412</ele>
        <time>2021-05-22T07:44:33Z</time>
      </trkpt>
      <trkpt lat="43.33743" lon="6.36922">
        <ele>110.40000152588</ele>
        <time>2021-05-22T07:44:34Z</time>
      </trkpt>
      <trkpt lat="43.33758" lon="6.36938">
        <ele>109.19999694824</ele>
        <time>2021-05-22T07:44:38Z</time>
      </trkpt>
      <trkpt lat="43.33762" lon="6.36943">
        <ele>109</ele>
        <time>2021-05-22T07:44:39Z</time>
      </trkpt>
      <trkpt lat="43.3377" lon="6.36952">
        <ele>108.59999847412</ele>
        <time>2021-05-22T07:44:41Z</time>
      </trkpt>
      <trkpt lat="43.33774" lon="6.36958">
        <ele>108.19999694824</ele>
        <time>2021-05-22T07:44:42Z</time>
      </trkpt>
      <trkpt lat="43.33779" lon="6.36964">
        <ele>107.80000305176</ele>
        <time>2021-05-22T07:44:43Z</time>
      </trkpt>
      <trkpt lat="43.33789" lon="6.36975">
        <ele>107</ele>
        <time>2021-05-22T07:44:45Z</time>
      </trkpt>
      <trkpt lat="43.33798" lon="6.36985">
        <ele>106.40000152588</ele>
        <time>2021-05-22T07:44:47Z</time>
      </trkpt>
      <trkpt lat="43.33801" lon="6.36992">
        <ele>105.80000305176</ele>
        <time>2021-05-22T07:44:48Z</time>
      </trkpt>
      <trkpt lat="43.33813" lon="6.37019">
        <ele>104.80000305176</ele>
        <time>2021-05-22T07:44:52Z</time>
      </trkpt>
      <trkpt lat="43.33816" lon="6.37026">
        <ele>104.40000152588</ele>
        <time>2021-05-22T07:44:53Z</time>
      </trkpt>
      <trkpt lat="43.33819" lon="6.3704">
        <ele>104</ele>
        <time>2021-05-22T07:44:55Z</time>
      </trkpt>
      <trkpt lat="43.33819" lon="6.37047">
        <ele>103.80000305176</ele>
        <time>2021-05-22T07:44:56Z</time>
      </trkpt>
      <trkpt lat="43.3382" lon="6.37053">
        <ele>103.19999694824</ele>
        <time>2021-05-22T07:44:57Z</time>
      </trkpt>
      <trkpt lat="43.33822" lon="6.37058">
        <ele>102.59999847412</ele>
        <time>2021-05-22T07:44:58Z</time>
      </trkpt>
      <trkpt lat="43.33823" lon="6.37063">
        <ele>102.40000152588</ele>
        <time>2021-05-22T07:44:59Z</time>
      </trkpt>
      <trkpt lat="43.33824" lon="6.37079">
        <ele>101.59999847412</ele>
        <time>2021-05-22T07:45:02Z</time>
      </trkpt>
      <trkpt lat="43.33824" lon="6.3709">
        <ele>100.80000305176</ele>
        <time>2021-05-22T07:45:04Z</time>
      </trkpt>
      <trkpt lat="43.33825" lon="6.371">
        <ele>100.19999694824</ele>
        <time>2021-05-22T07:45:06Z</time>
      </trkpt>
      <trkpt lat="43.33827" lon="6.37116">
        <ele>99.400001525879</ele>
        <time>2021-05-22T07:45:09Z</time>
      </trkpt>
      <trkpt lat="43.33825" lon="6.37126">
        <ele>98.800003051758</ele>
        <time>2021-05-22T07:45:11Z</time>
      </trkpt>
      <trkpt lat="43.3382" lon="6.37144">
        <ele>97.800003051758</ele>
        <time>2021-05-22T07:45:15Z</time>
      </trkpt>
      <trkpt lat="43.33815" lon="6.37155">
        <ele>97.400001525879</ele>
        <time>2021-05-22T07:45:20Z</time>
      </trkpt>
      <trkpt lat="43.33814" lon="6.37159">
        <ele>97</ele>
        <time>2021-05-22T07:45:23Z</time>
      </trkpt>
      <trkpt lat="43.33814" lon="6.37159">
        <ele>96.800003051758</ele>
        <time>2021-05-22T07:45:24Z</time>
      </trkpt>
      <trkpt lat="43.33814" lon="6.37159">
        <ele>96.199996948242</ele>
        <time>2021-05-22T07:45:32Z</time>
      </trkpt>
      <trkpt lat="43.33814" lon="6.37159">
        <ele>95.800003051758</ele>
        <time>2021-05-22T07:46:19Z</time>
      </trkpt>
      <trkpt lat="43.33814" lon="6.37159">
        <ele>95.800003051758</ele>
        <time>2021-05-22T07:46:23Z</time>
      </trkpt>
      <trkpt lat="43.33812" lon="6.37164">
        <ele>95.800003051758</ele>
        <time>2021-05-22T07:46:27Z</time>
      </trkpt>
      <trkpt lat="43.33811" lon="6.37169">
        <ele>95</ele>
        <time>2021-05-22T07:46:31Z</time>
      </trkpt>
      <trkpt lat="43.3381" lon="6.37171">
        <ele>94.800003051758</ele>
        <time>2021-05-22T07:46:33Z</time>
      </trkpt>
      <trkpt lat="43.3381" lon="6.37171">
        <ele>94.599998474121</ele>
        <time>2021-05-22T07:46:34Z</time>
      </trkpt>
      <trkpt lat="43.3381" lon="6.37176">
        <ele>94.199996948242</ele>
        <time>2021-05-22T07:46:41Z</time>
      </trkpt>
      <trkpt lat="43.33811" lon="6.3718">
        <ele>94</ele>
        <time>2021-05-22T07:46:45Z</time>
      </trkpt>
      <trkpt lat="43.33811" lon="6.37182">
        <ele>94</ele>
        <time>2021-05-22T07:46:47Z</time>
      </trkpt>
      <trkpt lat="43.33811" lon="6.37183">
        <ele>94</ele>
        <time>2021-05-22T07:46:48Z</time>
      </trkpt>
      <trkpt lat="43.3381" lon="6.37184">
        <ele>93.800003051758</ele>
        <time>2021-05-22T07:46:50Z</time>
      </trkpt>
      <trkpt lat="43.33809" lon="6.37184">
        <ele>94</ele>
        <time>2021-05-22T07:46:51Z</time>
      </trkpt>
      <trkpt lat="43.33809" lon="6.37184">
        <ele>93.599998474121</ele>
        <time>2021-05-22T07:46:53Z</time>
      </trkpt>
      <trkpt lat="43.33809" lon="6.37184">
        <ele>93.599998474121</ele>
        <time>2021-05-22T07:46:54Z</time>
      </trkpt>
      <trkpt lat="43.33812" lon="6.37187">
        <ele>93.599998474121</ele>
        <time>2021-05-22T07:47:01Z</time>
      </trkpt>
      <trkpt lat="43.33812" lon="6.37187">
        <ele>93.400001525879</ele>
        <time>2021-05-22T07:47:06Z</time>
      </trkpt>
      <trkpt lat="43.33812" lon="6.37192">
        <ele>93.400001525879</ele>
        <time>2021-05-22T07:47:16Z</time>
      </trkpt>
      <trkpt lat="43.33813" lon="6.37195">
        <ele>93.400001525879</ele>
        <time>2021-05-22T07:47:18Z</time>
      </trkpt>
      <trkpt lat="43.33817" lon="6.372">
        <ele>93.599998474121</ele>
        <time>2021-05-22T07:47:23Z</time>
      </trkpt>
      <trkpt lat="43.3382" lon="6.37202">
        <ele>93.800003051758</ele>
        <time>2021-05-22T07:47:26Z</time>
      </trkpt>
      <trkpt lat="43.33821" lon="6.37203">
        <ele>94</ele>
        <time>2021-05-22T07:47:30Z</time>
      </trkpt>
      <trkpt lat="43.33821" lon="6.37205">
        <ele>94</ele>
        <time>2021-05-22T07:47:34Z</time>
      </trkpt>
      <trkpt lat="43.33822" lon="6.37205">
        <ele>94</ele>
        <time>2021-05-22T07:47:39Z</time>
      </trkpt>
      <trkpt lat="43.33823" lon="6.37206">
        <ele>94</ele>
        <time>2021-05-22T07:47:44Z</time>
      </trkpt>
      <trkpt lat="43.33826" lon="6.3721">
        <ele>94</ele>
        <time>2021-05-22T07:47:46Z</time>
      </trkpt>
      <trkpt lat="43.33835" lon="6.37219">
        <ele>94</ele>
        <time>2021-05-22T07:47:51Z</time>
      </trkpt>
      <trkpt lat="43.33836" lon="6.37221">
        <ele>94</ele>
        <time>2021-05-22T07:47:52Z</time>
      </trkpt>
      <trkpt lat="43.33837" lon="6.37226">
        <ele>94</ele>
        <time>2021-05-22T07:47:54Z</time>
      </trkpt>
      <trkpt lat="43.33833" lon="6.37235">
        <ele>94</ele>
        <time>2021-05-22T07:47:57Z</time>
      </trkpt>
      <trkpt lat="43.33832" lon="6.37241">
        <ele>94.199996948242</ele>
        <time>2021-05-22T07:47:59Z</time>
      </trkpt>
      <trkpt lat="43.33832" lon="6.37243">
        <ele>94.400001525879</ele>
        <time>2021-05-22T07:48:00Z</time>
      </trkpt>
      <trkpt lat="43.33832" lon="6.37244">
        <ele>94.400001525879</ele>
        <time>2021-05-22T07:48:01Z</time>
      </trkpt>
      <trkpt lat="43.33834" lon="6.37245">
        <ele>94.400001525879</ele>
        <time>2021-05-22T07:48:02Z</time>
      </trkpt>
      <trkpt lat="43.33835" lon="6.37245">
        <ele>94.599998474121</ele>
        <time>2021-05-22T07:48:03Z</time>
      </trkpt>
      <trkpt lat="43.33838" lon="6.37245">
        <ele>94.599998474121</ele>
        <time>2021-05-22T07:48:04Z</time>
      </trkpt>
      <trkpt lat="43.33843" lon="6.37244">
        <ele>94.599998474121</ele>
        <time>2021-05-22T07:48:06Z</time>
      </trkpt>
      <trkpt lat="43.33846" lon="6.37244">
        <ele>94.599998474121</ele>
        <time>2021-05-22T07:48:07Z</time>
      </trkpt>
      <trkpt lat="43.33848" lon="6.37244">
        <ele>94.599998474121</ele>
        <time>2021-05-22T07:48:08Z</time>
      </trkpt>
      <trkpt lat="43.33865" lon="6.37241">
        <ele>94.599998474121</ele>
        <time>2021-05-22T07:48:14Z</time>
      </trkpt>
      <trkpt lat="43.33867" lon="6.37241">
        <ele>94.599998474121</ele>
        <time>2021-05-22T07:48:15Z</time>
      </trkpt>
      <trkpt lat="43.3389" lon="6.37239">
        <ele>94.400001525879</ele>
        <time>2021-05-22T07:48:20Z</time>
      </trkpt>
      <trkpt lat="43.33898" lon="6.37237">
        <ele>94.400001525879</ele>
        <time>2021-05-22T07:48:22Z</time>
      </trkpt>
      <trkpt lat="43.33903" lon="6.37236">
        <ele>94.400001525879</ele>
        <time>2021-05-22T07:48:23Z</time>
      </trkpt>
      <trkpt lat="43.3391" lon="6.37232">
        <ele>94.400001525879</ele>
        <time>2021-05-22T07:48:25Z</time>
      </trkpt>
      <trkpt lat="43.33914" lon="6.3723">
        <ele>94.400001525879</ele>
        <time>2021-05-22T07:48:26Z</time>
      </trkpt>
      <trkpt lat="43.33918" lon="6.37229">
        <ele>94.199996948242</ele>
        <time>2021-05-22T07:48:27Z</time>
      </trkpt>
      <trkpt lat="43.3394" lon="6.37225">
        <ele>93.800003051758</ele>
        <time>2021-05-22T07:48:32Z</time>
      </trkpt>
      <trkpt lat="43.33949" lon="6.37223">
        <ele>93.800003051758</ele>
        <time>2021-05-22T07:48:34Z</time>
      </trkpt>
      <trkpt lat="43.33953" lon="6.37223">
        <ele>93.800003051758</ele>
        <time>2021-05-22T07:48:35Z</time>
      </trkpt>
      <trkpt lat="43.33957" lon="6.37223">
        <ele>93.800003051758</ele>
        <time>2021-05-22T07:48:36Z</time>
      </trkpt>
      <trkpt lat="43.3397" lon="6.37222">
        <ele>93.599998474121</ele>
        <time>2021-05-22T07:48:40Z</time>
      </trkpt>
      <trkpt lat="43.33979" lon="6.37223">
        <ele>93.599998474121</ele>
        <time>2021-05-22T07:48:43Z</time>
      </trkpt>
      <trkpt lat="43.33986" lon="6.37224">
        <ele>93.400001525879</ele>
        <time>2021-05-22T07:48:45Z</time>
      </trkpt>
      <trkpt lat="43.34004" lon="6.37229">
        <ele>93.199996948242</ele>
        <time>2021-05-22T07:48:49Z</time>
      </trkpt>
      <trkpt lat="43.34009" lon="6.3723">
        <ele>93.199996948242</ele>
        <time>2021-05-22T07:48:50Z</time>
      </trkpt>
      <trkpt lat="43.34028" lon="6.37235">
        <ele>93.199996948242</ele>
        <time>2021-05-22T07:48:54Z</time>
      </trkpt>
      <trkpt lat="43.34036" lon="6.3724">
        <ele>93</ele>
        <time>2021-05-22T07:48:56Z</time>
      </trkpt>
      <trkpt lat="43.34058" lon="6.37259">
        <ele>93</ele>
        <time>2021-05-22T07:49:02Z</time>
      </trkpt>
      <trkpt lat="43.34066" lon="6.37265">
        <ele>92.400001525879</ele>
        <time>2021-05-22T07:49:05Z</time>
      </trkpt>
      <trkpt lat="43.34079" lon="6.37266">
        <ele>91.599998474121</ele>
        <time>2021-05-22T07:49:10Z</time>
      </trkpt>
      <trkpt lat="43.34093" lon="6.37268">
        <ele>91.599998474121</ele>
        <time>2021-05-22T07:49:15Z</time>
      </trkpt>
      <trkpt lat="43.34096" lon="6.37268">
        <ele>91.400001525879</ele>
        <time>2021-05-22T07:49:17Z</time>
      </trkpt>
      <trkpt lat="43.341" lon="6.3727">
        <ele>91</ele>
        <time>2021-05-22T07:49:20Z</time>
      </trkpt>
      <trkpt lat="43.34111" lon="6.37273">
        <ele>90.800003051758</ele>
        <time>2021-05-22T07:49:25Z</time>
      </trkpt>
      <trkpt lat="43.34113" lon="6.37273">
        <ele>90.800003051758</ele>
        <time>2021-05-22T07:49:26Z</time>
      </trkpt>
      <trkpt lat="43.34115" lon="6.37272">
        <ele>90.599998474121</ele>
        <time>2021-05-22T07:49:27Z</time>
      </trkpt>
      <trkpt lat="43.34122" lon="6.37268">
        <ele>90.599998474121</ele>
        <time>2021-05-22T07:49:30Z</time>
      </trkpt>
      <trkpt lat="43.34126" lon="6.37265">
        <ele>90.599998474121</ele>
        <time>2021-05-22T07:49:32Z</time>
      </trkpt>
      <trkpt lat="43.34146" lon="6.37259">
        <ele>90.599998474121</ele>
        <time>2021-05-22T07:49:38Z</time>
      </trkpt>
      <trkpt lat="43.34164" lon="6.37265">
        <ele>90.400001525879</ele>
        <time>2021-05-22T07:49:44Z</time>
      </trkpt>
      <trkpt lat="43.34177" lon="6.37271">
        <ele>90.400001525879</ele>
        <time>2021-05-22T07:49:48Z</time>
      </trkpt>
      <trkpt lat="43.34184" lon="6.37274">
        <ele>90.400001525879</ele>
        <time>2021-05-22T07:49:50Z</time>
      </trkpt>
      <trkpt lat="43.34187" lon="6.37275">
        <ele>90.199996948242</ele>
        <time>2021-05-22T07:49:51Z</time>
      </trkpt>
      <trkpt lat="43.34205" lon="6.37281">
        <ele>90</ele>
        <time>2021-05-22T07:49:57Z</time>
      </trkpt>
      <trkpt lat="43.34221" lon="6.37285">
        <ele>90</ele>
        <time>2021-05-22T07:50:04Z</time>
      </trkpt>
      <trkpt lat="43.34223" lon="6.37287">
        <ele>90</ele>
        <time>2021-05-22T07:50:05Z</time>
      </trkpt>
      <trkpt lat="43.34228" lon="6.37288">
        <ele>89.599998474121</ele>
        <time>2021-05-22T07:50:07Z</time>
      </trkpt>
      <trkpt lat="43.34234" lon="6.3729">
        <ele>89.599998474121</ele>
        <time>2021-05-22T07:50:09Z</time>
      </trkpt>
      <trkpt lat="43.34239" lon="6.37291">
        <ele>89.599998474121</ele>
        <time>2021-05-22T07:50:11Z</time>
      </trkpt>
      <trkpt lat="43.34243" lon="6.37291">
        <ele>89.400001525879</ele>
        <time>2021-05-22T07:50:13Z</time>
      </trkpt>
      <trkpt lat="43.34248" lon="6.37292">
        <ele>89</ele>
        <time>2021-05-22T07:50:15Z</time>
      </trkpt>
      <trkpt lat="43.34253" lon="6.37294">
        <ele>89.199996948242</ele>
        <time>2021-05-22T07:50:18Z</time>
      </trkpt>
      <trkpt lat="43.34255" lon="6.37295">
        <ele>89.199996948242</ele>
        <time>2021-05-22T07:50:19Z</time>
      </trkpt>
      <trkpt lat="43.3426" lon="6.37297">
        <ele>89.199996948242</ele>
        <time>2021-05-22T07:50:21Z</time>
      </trkpt>
      <trkpt lat="43.34262" lon="6.37298">
        <ele>89.199996948242</ele>
        <time>2021-05-22T07:50:22Z</time>
      </trkpt>
      <trkpt lat="43.34275" lon="6.37301">
        <ele>89</ele>
        <time>2021-05-22T07:50:27Z</time>
      </trkpt>
      <trkpt lat="43.34281" lon="6.37303">
        <ele>88.599998474121</ele>
        <time>2021-05-22T07:50:29Z</time>
      </trkpt>
      <trkpt lat="43.34288" lon="6.37305">
        <ele>88.599998474121</ele>
        <time>2021-05-22T07:50:32Z</time>
      </trkpt>
      <trkpt lat="43.34295" lon="6.37306">
        <ele>88.400001525879</ele>
        <time>2021-05-22T07:50:35Z</time>
      </trkpt>
      <trkpt lat="43.34297" lon="6.37307">
        <ele>88.599998474121</ele>
        <time>2021-05-22T07:50:36Z</time>
      </trkpt>
      <trkpt lat="43.34309" lon="6.37313">
        <ele>88.599998474121</ele>
        <time>2021-05-22T07:50:42Z</time>
      </trkpt>
      <trkpt lat="43.34319" lon="6.37313">
        <ele>88.599998474121</ele>
        <time>2021-05-22T07:50:47Z</time>
      </trkpt>
      <trkpt lat="43.34331" lon="6.37318">
        <ele>88</ele>
        <time>2021-05-22T07:50:53Z</time>
      </trkpt>
      <trkpt lat="43.34333" lon="6.37319">
        <ele>88</ele>
        <time>2021-05-22T07:50:54Z</time>
      </trkpt>
      <trkpt lat="43.34336" lon="6.3732">
        <ele>88</ele>
        <time>2021-05-22T07:50:56Z</time>
      </trkpt>
      <trkpt lat="43.34341" lon="6.37321">
        <ele>88</ele>
        <time>2021-05-22T07:50:59Z</time>
      </trkpt>
      <trkpt lat="43.34344" lon="6.37321">
        <ele>88</ele>
        <time>2021-05-22T07:51:01Z</time>
      </trkpt>
      <trkpt lat="43.34353" lon="6.37321">
        <ele>88</ele>
        <time>2021-05-22T07:51:05Z</time>
      </trkpt>
      <trkpt lat="43.34356" lon="6.37321">
        <ele>88</ele>
        <time>2021-05-22T07:51:06Z</time>
      </trkpt>
      <trkpt lat="43.34357" lon="6.37321">
        <ele>88</ele>
        <time>2021-05-22T07:51:08Z</time>
      </trkpt>
      <trkpt lat="43.34357" lon="6.37328">
        <ele>87.800003051758</ele>
        <time>2021-05-22T07:51:12Z</time>
      </trkpt>
      <trkpt lat="43.34357" lon="6.3733">
        <ele>87.800003051758</ele>
        <time>2021-05-22T07:51:13Z</time>
      </trkpt>
      <trkpt lat="43.34361" lon="6.37333">
        <ele>87.599998474121</ele>
        <time>2021-05-22T07:51:16Z</time>
      </trkpt>
      <trkpt lat="43.34373" lon="6.3734">
        <ele>87.800003051758</ele>
        <time>2021-05-22T07:51:23Z</time>
      </trkpt>
      <trkpt lat="43.34375" lon="6.37343">
        <ele>87.599998474121</ele>
        <time>2021-05-22T07:51:28Z</time>
      </trkpt>
      <trkpt lat="43.34376" lon="6.37343">
        <ele>87.400001525879</ele>
        <time>2021-05-22T07:51:37Z</time>
      </trkpt>
      <trkpt lat="43.34376" lon="6.37343">
        <ele>87.400001525879</ele>
        <time>2021-05-22T07:51:42Z</time>
      </trkpt>
      <trkpt lat="43.34376" lon="6.37343">
        <ele>87.599998474121</ele>
        <time>2021-05-22T07:51:47Z</time>
      </trkpt>
      <trkpt lat="43.34376" lon="6.37343">
        <ele>87.599998474121</ele>
        <time>2021-05-22T07:51:50Z</time>
      </trkpt>
      <trkpt lat="43.34381" lon="6.37341">
        <ele>87.599998474121</ele>
        <time>2021-05-22T07:51:54Z</time>
      </trkpt>
      <trkpt lat="43.34384" lon="6.37343">
        <ele>87.400001525879</ele>
        <time>2021-05-22T07:51:56Z</time>
      </trkpt>
      <trkpt lat="43.34386" lon="6.37344">
        <ele>87.400001525879</ele>
        <time>2021-05-22T07:51:57Z</time>
      </trkpt>
      <trkpt lat="43.34389" lon="6.37347">
        <ele>87.400001525879</ele>
        <time>2021-05-22T07:51:59Z</time>
      </trkpt>
      <trkpt lat="43.34394" lon="6.37358">
        <ele>87.199996948242</ele>
        <time>2021-05-22T07:52:03Z</time>
      </trkpt>
      <trkpt lat="43.34396" lon="6.37362">
        <ele>87.400001525879</ele>
        <time>2021-05-22T07:52:04Z</time>
      </trkpt>
      <trkpt lat="43.34397" lon="6.37382">
        <ele>87.400001525879</ele>
        <time>2021-05-22T07:52:09Z</time>
      </trkpt>
      <trkpt lat="43.34403" lon="6.37413">
        <ele>88</ele>
        <time>2021-05-22T07:52:17Z</time>
      </trkpt>
      <trkpt lat="43.34417" lon="6.37424">
        <ele>88.400001525879</ele>
        <time>2021-05-22T07:52:22Z</time>
      </trkpt>
      <trkpt lat="43.34439" lon="6.37436">
        <ele>88.599998474121</ele>
        <time>2021-05-22T07:52:28Z</time>
      </trkpt>
      <trkpt lat="43.34467" lon="6.37451">
        <ele>88.800003051758</ele>
        <time>2021-05-22T07:52:36Z</time>
      </trkpt>
      <trkpt lat="43.34491" lon="6.37463">
        <ele>88.800003051758</ele>
        <time>2021-05-22T07:52:43Z</time>
      </trkpt>
      <trkpt lat="43.34502" lon="6.37467">
        <ele>89</ele>
        <time>2021-05-22T07:52:46Z</time>
      </trkpt>
      <trkpt lat="43.3452" lon="6.37472">
        <ele>89.199996948242</ele>
        <time>2021-05-22T07:52:51Z</time>
      </trkpt>
      <trkpt lat="43.34543" lon="6.37483">
        <ele>89.400001525879</ele>
        <time>2021-05-22T07:52:58Z</time>
      </trkpt>
      <trkpt lat="43.34547" lon="6.37484">
        <ele>89.400001525879</ele>
        <time>2021-05-22T07:52:59Z</time>
      </trkpt>
      <trkpt lat="43.3455" lon="6.37486">
        <ele>89.400001525879</ele>
        <time>2021-05-22T07:53:00Z</time>
      </trkpt>
      <trkpt lat="43.34553" lon="6.37487">
        <ele>89.400001525879</ele>
        <time>2021-05-22T07:53:01Z</time>
      </trkpt>
      <trkpt lat="43.34557" lon="6.37489">
        <ele>89.400001525879</ele>
        <time>2021-05-22T07:53:02Z</time>
      </trkpt>
      <trkpt lat="43.34563" lon="6.37493">
        <ele>89.400001525879</ele>
        <time>2021-05-22T07:53:04Z</time>
      </trkpt>
      <trkpt lat="43.34567" lon="6.37496">
        <ele>89.400001525879</ele>
        <time>2021-05-22T07:53:05Z</time>
      </trkpt>
      <trkpt lat="43.3457" lon="6.37498">
        <ele>89.400001525879</ele>
        <time>2021-05-22T07:53:06Z</time>
      </trkpt>
      <trkpt lat="43.34604" lon="6.37518">
        <ele>89.199996948242</ele>
        <time>2021-05-22T07:53:15Z</time>
      </trkpt>
      <trkpt lat="43.34633" lon="6.37537">
        <ele>89.199996948242</ele>
        <time>2021-05-22T07:53:23Z</time>
      </trkpt>
      <trkpt lat="43.34636" lon="6.37537">
        <ele>89.199996948242</ele>
        <time>2021-05-22T07:53:24Z</time>
      </trkpt>
      <trkpt lat="43.34644" lon="6.37533">
        <ele>89.199996948242</ele>
        <time>2021-05-22T07:53:26Z</time>
      </trkpt>
      <trkpt lat="43.34656" lon="6.37528">
        <ele>89.199996948242</ele>
        <time>2021-05-22T07:53:29Z</time>
      </trkpt>
      <trkpt lat="43.34659" lon="6.37529">
        <ele>89</ele>
        <time>2021-05-22T07:53:30Z</time>
      </trkpt>
      <trkpt lat="43.34663" lon="6.37531">
        <ele>89</ele>
        <time>2021-05-22T07:53:31Z</time>
      </trkpt>
      <trkpt lat="43.34666" lon="6.37533">
        <ele>88.800003051758</ele>
        <time>2021-05-22T07:53:32Z</time>
      </trkpt>
      <trkpt lat="43.34674" lon="6.37537">
        <ele>88.800003051758</ele>
        <time>2021-05-22T07:53:34Z</time>
      </trkpt>
      <trkpt lat="43.34678" lon="6.37539">
        <ele>88.800003051758</ele>
        <time>2021-05-22T07:53:35Z</time>
      </trkpt>
      <trkpt lat="43.34682" lon="6.37542">
        <ele>88.800003051758</ele>
        <time>2021-05-22T07:53:36Z</time>
      </trkpt>
      <trkpt lat="43.34686" lon="6.37545">
        <ele>88.599998474121</ele>
        <time>2021-05-22T07:53:37Z</time>
      </trkpt>
      <trkpt lat="43.34698" lon="6.37554">
        <ele>88.400001525879</ele>
        <time>2021-05-22T07:53:40Z</time>
      </trkpt>
      <trkpt lat="43.34702" lon="6.37556">
        <ele>88.400001525879</ele>
        <time>2021-05-22T07:53:41Z</time>
      </trkpt>
      <trkpt lat="43.34713" lon="6.37564">
        <ele>88.400001525879</ele>
        <time>2021-05-22T07:53:44Z</time>
      </trkpt>
      <trkpt lat="43.34717" lon="6.37567">
        <ele>88.400001525879</ele>
        <time>2021-05-22T07:53:45Z</time>
      </trkpt>
      <trkpt lat="43.34738" lon="6.3758">
        <ele>88.400001525879</ele>
        <time>2021-05-22T07:53:50Z</time>
      </trkpt>
      <trkpt lat="43.34741" lon="6.37583">
        <ele>88.400001525879</ele>
        <time>2021-05-22T07:53:51Z</time>
      </trkpt>
      <trkpt lat="43.34764" lon="6.37598">
        <ele>88</ele>
        <time>2021-05-22T07:53:58Z</time>
      </trkpt>
      <trkpt lat="43.34779" lon="6.37607">
        <ele>87.400001525879</ele>
        <time>2021-05-22T07:54:03Z</time>
      </trkpt>
      <trkpt lat="43.34782" lon="6.3761">
        <ele>87.199996948242</ele>
        <time>2021-05-22T07:54:04Z</time>
      </trkpt>
      <trkpt lat="43.34804" lon="6.37626">
        <ele>87.199996948242</ele>
        <time>2021-05-22T07:54:10Z</time>
      </trkpt>
      <trkpt lat="43.34817" lon="6.37635">
        <ele>87.199996948242</ele>
        <time>2021-05-22T07:54:13Z</time>
      </trkpt>
      <trkpt lat="43.34821" lon="6.37639">
        <ele>87.199996948242</ele>
        <time>2021-05-22T07:54:14Z</time>
      </trkpt>
      <trkpt lat="43.34832" lon="6.37651">
        <ele>87</ele>
        <time>2021-05-22T07:54:17Z</time>
      </trkpt>
      <trkpt lat="43.34845" lon="6.37663">
        <ele>86.800003051758</ele>
        <time>2021-05-22T07:54:20Z</time>
      </trkpt>
      <trkpt lat="43.34862" lon="6.37678">
        <ele>86.599998474121</ele>
        <time>2021-05-22T07:54:24Z</time>
      </trkpt>
      <trkpt lat="43.34893" lon="6.37704">
        <ele>86.199996948242</ele>
        <time>2021-05-22T07:54:31Z</time>
      </trkpt>
      <trkpt lat="43.34928" lon="6.37726">
        <ele>85.800003051758</ele>
        <time>2021-05-22T07:54:38Z</time>
      </trkpt>
      <trkpt lat="43.34956" lon="6.37736">
        <ele>85.800003051758</ele>
        <time>2021-05-22T07:54:43Z</time>
      </trkpt>
      <trkpt lat="43.34961" lon="6.37736">
        <ele>85.800003051758</ele>
        <time>2021-05-22T07:54:44Z</time>
      </trkpt>
      <trkpt lat="43.34999" lon="6.37736">
        <ele>86.400001525879</ele>
        <time>2021-05-22T07:54:51Z</time>
      </trkpt>
      <trkpt lat="43.35005" lon="6.37735">
        <ele>86.599998474121</ele>
        <time>2021-05-22T07:54:52Z</time>
      </trkpt>
      <trkpt lat="43.35034" lon="6.37722">
        <ele>86.800003051758</ele>
        <time>2021-05-22T07:54:57Z</time>
      </trkpt>
      <trkpt lat="43.35046" lon="6.37715">
        <ele>86.800003051758</ele>
        <time>2021-05-22T07:54:59Z</time>
      </trkpt>
      <trkpt lat="43.3506" lon="6.3771">
        <ele>85.800003051758</ele>
        <time>2021-05-22T07:55:01Z</time>
      </trkpt>
      <trkpt lat="43.35072" lon="6.37706">
        <ele>85.199996948242</ele>
        <time>2021-05-22T07:55:03Z</time>
      </trkpt>
      <trkpt lat="43.35085" lon="6.377">
        <ele>84.400001525879</ele>
        <time>2021-05-22T07:55:05Z</time>
      </trkpt>
      <trkpt lat="43.35098" lon="6.37693">
        <ele>83.800003051758</ele>
        <time>2021-05-22T07:55:07Z</time>
      </trkpt>
      <trkpt lat="43.3511" lon="6.37686">
        <ele>83.400001525879</ele>
        <time>2021-05-22T07:55:09Z</time>
      </trkpt>
      <trkpt lat="43.35121" lon="6.3768">
        <ele>83.199996948242</ele>
        <time>2021-05-22T07:55:11Z</time>
      </trkpt>
      <trkpt lat="43.35127" lon="6.37677">
        <ele>83.199996948242</ele>
        <time>2021-05-22T07:55:12Z</time>
      </trkpt>
      <trkpt lat="43.35143" lon="6.37668">
        <ele>83</ele>
        <time>2021-05-22T07:55:15Z</time>
      </trkpt>
      <trkpt lat="43.35164" lon="6.37658">
        <ele>83.199996948242</ele>
        <time>2021-05-22T07:55:19Z</time>
      </trkpt>
      <trkpt lat="43.35174" lon="6.37653">
        <ele>83.199996948242</ele>
        <time>2021-05-22T07:55:21Z</time>
      </trkpt>
      <trkpt lat="43.3519" lon="6.37649">
        <ele>83.199996948242</ele>
        <time>2021-05-22T07:55:24Z</time>
      </trkpt>
      <trkpt lat="43.35196" lon="6.37648">
        <ele>83.199996948242</ele>
        <time>2021-05-22T07:55:25Z</time>
      </trkpt>
      <trkpt lat="43.3523" lon="6.37648">
        <ele>83.199996948242</ele>
        <time>2021-05-22T07:55:31Z</time>
      </trkpt>
      <trkpt lat="43.35264" lon="6.37656">
        <ele>82.800003051758</ele>
        <time>2021-05-22T07:55:37Z</time>
      </trkpt>
      <trkpt lat="43.35276" lon="6.37662">
        <ele>82.800003051758</ele>
        <time>2021-05-22T07:55:39Z</time>
      </trkpt>
      <trkpt lat="43.3529" lon="6.37674">
        <ele>82.599998474121</ele>
        <time>2021-05-22T07:55:42Z</time>
      </trkpt>
      <trkpt lat="43.35297" lon="6.37683">
        <ele>82.599998474121</ele>
        <time>2021-05-22T07:55:44Z</time>
      </trkpt>
      <trkpt lat="43.35303" lon="6.37698">
        <ele>82.599998474121</ele>
        <time>2021-05-22T07:55:47Z</time>
      </trkpt>
      <trkpt lat="43.35306" lon="6.3771">
        <ele>82.800003051758</ele>
        <time>2021-05-22T07:55:49Z</time>
      </trkpt>
      <trkpt lat="43.35309" lon="6.37748">
        <ele>83.199996948242</ele>
        <time>2021-05-22T07:55:55Z</time>
      </trkpt>
      <trkpt lat="43.35312" lon="6.37771">
        <ele>83.400001525879</ele>
        <time>2021-05-22T07:55:59Z</time>
      </trkpt>
      <trkpt lat="43.35312" lon="6.37784">
        <ele>83.400001525879</ele>
        <time>2021-05-22T07:56:01Z</time>
      </trkpt>
      <trkpt lat="43.35313" lon="6.3779">
        <ele>83.599998474121</ele>
        <time>2021-05-22T07:56:02Z</time>
      </trkpt>
      <trkpt lat="43.35315" lon="6.37802">
        <ele>83.800003051758</ele>
        <time>2021-05-22T07:56:04Z</time>
      </trkpt>
      <trkpt lat="43.35316" lon="6.37816">
        <ele>84</ele>
        <time>2021-05-22T07:56:06Z</time>
      </trkpt>
      <trkpt lat="43.35317" lon="6.37823">
        <ele>84</ele>
        <time>2021-05-22T07:56:07Z</time>
      </trkpt>
      <trkpt lat="43.35319" lon="6.37837">
        <ele>84</ele>
        <time>2021-05-22T07:56:09Z</time>
      </trkpt>
      <trkpt lat="43.35321" lon="6.37851">
        <ele>84.199996948242</ele>
        <time>2021-05-22T07:56:11Z</time>
      </trkpt>
      <trkpt lat="43.35328" lon="6.37878">
        <ele>84.199996948242</ele>
        <time>2021-05-22T07:56:15Z</time>
      </trkpt>
      <trkpt lat="43.35332" lon="6.37892">
        <ele>84.199996948242</ele>
        <time>2021-05-22T07:56:17Z</time>
      </trkpt>
      <trkpt lat="43.35338" lon="6.37921">
        <ele>83.800003051758</ele>
        <time>2021-05-22T07:56:21Z</time>
      </trkpt>
      <trkpt lat="43.3534" lon="6.37927">
        <ele>83.599998474121</ele>
        <time>2021-05-22T07:56:22Z</time>
      </trkpt>
      <trkpt lat="43.3535" lon="6.37953">
        <ele>82.400001525879</ele>
        <time>2021-05-22T07:56:26Z</time>
      </trkpt>
      <trkpt lat="43.35352" lon="6.37959">
        <ele>82.199996948242</ele>
        <time>2021-05-22T07:56:27Z</time>
      </trkpt>
      <trkpt lat="43.35354" lon="6.37966">
        <ele>82.199996948242</ele>
        <time>2021-05-22T07:56:28Z</time>
      </trkpt>
      <trkpt lat="43.35357" lon="6.37987">
        <ele>82</ele>
        <time>2021-05-22T07:56:31Z</time>
      </trkpt>
      <trkpt lat="43.35357" lon="6.38001">
        <ele>81.800003051758</ele>
        <time>2021-05-22T07:56:33Z</time>
      </trkpt>
      <trkpt lat="43.35357" lon="6.3801">
        <ele>81.599998474121</ele>
        <time>2021-05-22T07:56:34Z</time>
      </trkpt>
      <trkpt lat="43.3536" lon="6.38043">
        <ele>81.199996948242</ele>
        <time>2021-05-22T07:56:38Z</time>
      </trkpt>
      <trkpt lat="43.35361" lon="6.38051">
        <ele>80.800003051758</ele>
        <time>2021-05-22T07:56:39Z</time>
      </trkpt>
      <trkpt lat="43.35368" lon="6.38105">
        <ele>80</ele>
        <time>2021-05-22T07:56:46Z</time>
      </trkpt>
      <trkpt lat="43.3537" lon="6.38121">
        <ele>79.800003051758</ele>
        <time>2021-05-22T07:56:48Z</time>
      </trkpt>
      <trkpt lat="43.35372" lon="6.38137">
        <ele>79.599998474121</ele>
        <time>2021-05-22T07:56:50Z</time>
      </trkpt>
      <trkpt lat="43.35374" lon="6.38153">
        <ele>79.400001525879</ele>
        <time>2021-05-22T07:56:52Z</time>
      </trkpt>
      <trkpt lat="43.35376" lon="6.38175">
        <ele>79.400001525879</ele>
        <time>2021-05-22T07:56:55Z</time>
      </trkpt>
      <trkpt lat="43.35377" lon="6.38181">
        <ele>79.400001525879</ele>
        <time>2021-05-22T07:56:56Z</time>
      </trkpt>
      <trkpt lat="43.35378" lon="6.38192">
        <ele>79.199996948242</ele>
        <time>2021-05-22T07:56:58Z</time>
      </trkpt>
      <trkpt lat="43.35374" lon="6.38209">
        <ele>79.599998474121</ele>
        <time>2021-05-22T07:57:02Z</time>
      </trkpt>
      <trkpt lat="43.3536" lon="6.38216">
        <ele>80.199996948242</ele>
        <time>2021-05-22T07:57:06Z</time>
      </trkpt>
      <trkpt lat="43.35352" lon="6.38218">
        <ele>80.400001525879</ele>
        <time>2021-05-22T07:57:08Z</time>
      </trkpt>
      <trkpt lat="43.35339" lon="6.3822">
        <ele>80.800003051758</ele>
        <time>2021-05-22T07:57:11Z</time>
      </trkpt>
      <trkpt lat="43.35323" lon="6.38229">
        <ele>80.400001525879</ele>
        <time>2021-05-22T07:57:15Z</time>
      </trkpt>
      <trkpt lat="43.35321" lon="6.38233">
        <ele>80.199996948242</ele>
        <time>2021-05-22T07:57:16Z</time>
      </trkpt>
      <trkpt lat="43.3532" lon="6.38243">
        <ele>79.199996948242</ele>
        <time>2021-05-22T07:57:18Z</time>
      </trkpt>
      <trkpt lat="43.3532" lon="6.38249">
        <ele>79</ele>
        <time>2021-05-22T07:57:19Z</time>
      </trkpt>
      <trkpt lat="43.35322" lon="6.38253">
        <ele>78.599998474121</ele>
        <time>2021-05-22T07:57:20Z</time>
      </trkpt>
      <trkpt lat="43.35329" lon="6.38262">
        <ele>78.599998474121</ele>
        <time>2021-05-22T07:57:22Z</time>
      </trkpt>
      <trkpt lat="43.35333" lon="6.38265">
        <ele>78.400001525879</ele>
        <time>2021-05-22T07:57:23Z</time>
      </trkpt>
      <trkpt lat="43.35351" lon="6.38277">
        <ele>78</ele>
        <time>2021-05-22T07:57:27Z</time>
      </trkpt>
      <trkpt lat="43.35359" lon="6.38284">
        <ele>78</ele>
        <time>2021-05-22T07:57:29Z</time>
      </trkpt>
      <trkpt lat="43.35364" lon="6.38292">
        <ele>78</ele>
        <time>2021-05-22T07:57:31Z</time>
      </trkpt>
      <trkpt lat="43.35367" lon="6.38297">
        <ele>78</ele>
        <time>2021-05-22T07:57:32Z</time>
      </trkpt>
      <trkpt lat="43.3537" lon="6.38302">
        <ele>78</ele>
        <time>2021-05-22T07:57:33Z</time>
      </trkpt>
      <trkpt lat="43.35372" lon="6.38307">
        <ele>78</ele>
        <time>2021-05-22T07:57:34Z</time>
      </trkpt>
      <trkpt lat="43.35381" lon="6.38328">
        <ele>78.199996948242</ele>
        <time>2021-05-22T07:57:38Z</time>
      </trkpt>
      <trkpt lat="43.35385" lon="6.38337">
        <ele>78.400001525879</ele>
        <time>2021-05-22T07:57:40Z</time>
      </trkpt>
      <trkpt lat="43.35389" lon="6.38341">
        <ele>78.599998474121</ele>
        <time>2021-05-22T07:57:41Z</time>
      </trkpt>
      <trkpt lat="43.35406" lon="6.38355">
        <ele>78.599998474121</ele>
        <time>2021-05-22T07:57:45Z</time>
      </trkpt>
      <trkpt lat="43.3541" lon="6.38359">
        <ele>78.599998474121</ele>
        <time>2021-05-22T07:57:46Z</time>
      </trkpt>
      <trkpt lat="43.35438" lon="6.38381">
        <ele>78</ele>
        <time>2021-05-22T07:57:53Z</time>
      </trkpt>
      <trkpt lat="43.35441" lon="6.38379">
        <ele>77</ele>
        <time>2021-05-22T07:57:56Z</time>
      </trkpt>
      <trkpt lat="43.35442" lon="6.38379">
        <ele>77</ele>
        <time>2021-05-22T07:57:57Z</time>
      </trkpt>
      <trkpt lat="43.35441" lon="6.38385">
        <ele>77</ele>
        <time>2021-05-22T07:59:50Z</time>
      </trkpt>
      <trkpt lat="43.35444" lon="6.38391">
        <ele>77</ele>
        <time>2021-05-22T07:59:52Z</time>
      </trkpt>
      <trkpt lat="43.35453" lon="6.38402">
        <ele>77</ele>
        <time>2021-05-22T07:59:55Z</time>
      </trkpt>
      <trkpt lat="43.35459" lon="6.38411">
        <ele>77</ele>
        <time>2021-05-22T07:59:57Z</time>
      </trkpt>
      <trkpt lat="43.35465" lon="6.38421">
        <ele>76.800003051758</ele>
        <time>2021-05-22T07:59:59Z</time>
      </trkpt>
      <trkpt lat="43.35469" lon="6.38427">
        <ele>76.800003051758</ele>
        <time>2021-05-22T08:00:00Z</time>
      </trkpt>
      <trkpt lat="43.35476" lon="6.38438">
        <ele>76.599998474121</ele>
        <time>2021-05-22T08:00:02Z</time>
      </trkpt>
      <trkpt lat="43.35483" lon="6.38449">
        <ele>76.599998474121</ele>
        <time>2021-05-22T08:00:04Z</time>
      </trkpt>
      <trkpt lat="43.35497" lon="6.38471">
        <ele>76.199996948242</ele>
        <time>2021-05-22T08:00:08Z</time>
      </trkpt>
      <trkpt lat="43.35511" lon="6.38494">
        <ele>76.199996948242</ele>
        <time>2021-05-22T08:00:12Z</time>
      </trkpt>
      <trkpt lat="43.35518" lon="6.38505">
        <ele>76.199996948242</ele>
        <time>2021-05-22T08:00:14Z</time>
      </trkpt>
      <trkpt lat="43.35521" lon="6.3851">
        <ele>76.199996948242</ele>
        <time>2021-05-22T08:00:15Z</time>
      </trkpt>
      <trkpt lat="43.3554" lon="6.38546">
        <ele>76</ele>
        <time>2021-05-22T08:00:21Z</time>
      </trkpt>
      <trkpt lat="43.35541" lon="6.38552">
        <ele>75.800003051758</ele>
        <time>2021-05-22T08:00:22Z</time>
      </trkpt>
      <trkpt lat="43.35546" lon="6.38569">
        <ele>75.599998474121</ele>
        <time>2021-05-22T08:00:25Z</time>
      </trkpt>
      <trkpt lat="43.35548" lon="6.38587">
        <ele>75.599998474121</ele>
        <time>2021-05-22T08:00:28Z</time>
      </trkpt>
      <trkpt lat="43.35551" lon="6.38599">
        <ele>75.599998474121</ele>
        <time>2021-05-22T08:00:30Z</time>
      </trkpt>
      <trkpt lat="43.35557" lon="6.38639">
        <ele>75.599998474121</ele>
        <time>2021-05-22T08:00:36Z</time>
      </trkpt>
      <trkpt lat="43.35557" lon="6.38646">
        <ele>75.400001525879</ele>
        <time>2021-05-22T08:00:37Z</time>
      </trkpt>
      <trkpt lat="43.35558" lon="6.38652">
        <ele>75.199996948242</ele>
        <time>2021-05-22T08:00:38Z</time>
      </trkpt>
      <trkpt lat="43.35561" lon="6.3867">
        <ele>74.800003051758</ele>
        <time>2021-05-22T08:00:41Z</time>
      </trkpt>
      <trkpt lat="43.35563" lon="6.38682">
        <ele>75</ele>
        <time>2021-05-22T08:00:43Z</time>
      </trkpt>
      <trkpt lat="43.35572" lon="6.38725">
        <ele>74.800003051758</ele>
        <time>2021-05-22T08:00:50Z</time>
      </trkpt>
      <trkpt lat="43.35577" lon="6.38735">
        <ele>75</ele>
        <time>2021-05-22T08:00:52Z</time>
      </trkpt>
      <trkpt lat="43.35587" lon="6.3875">
        <ele>75</ele>
        <time>2021-05-22T08:00:55Z</time>
      </trkpt>
      <trkpt lat="43.35599" lon="6.38767">
        <ele>74.800003051758</ele>
        <time>2021-05-22T08:00:59Z</time>
      </trkpt>
      <trkpt lat="43.35599" lon="6.3877">
        <ele>74.800003051758</ele>
        <time>2021-05-22T08:01:00Z</time>
      </trkpt>
      <trkpt lat="43.35601" lon="6.38778">
        <ele>74.599998474121</ele>
        <time>2021-05-22T08:01:02Z</time>
      </trkpt>
      <trkpt lat="43.35601" lon="6.38792">
        <ele>74.599998474121</ele>
        <time>2021-05-22T08:01:05Z</time>
      </trkpt>
      <trkpt lat="43.356" lon="6.38796">
        <ele>74.599998474121</ele>
        <time>2021-05-22T08:01:06Z</time>
      </trkpt>
      <trkpt lat="43.356" lon="6.38817">
        <ele>75</ele>
        <time>2021-05-22T08:01:11Z</time>
      </trkpt>
      <trkpt lat="43.35598" lon="6.38831">
        <ele>75.800003051758</ele>
        <time>2021-05-22T08:01:15Z</time>
      </trkpt>
      <trkpt lat="43.35595" lon="6.3884">
        <ele>76</ele>
        <time>2021-05-22T08:01:17Z</time>
      </trkpt>
      <trkpt lat="43.35595" lon="6.38859">
        <ele>76.400001525879</ele>
        <time>2021-05-22T08:01:22Z</time>
      </trkpt>
      <trkpt lat="43.35595" lon="6.38862">
        <ele>76.599998474121</ele>
        <time>2021-05-22T08:01:23Z</time>
      </trkpt>
      <trkpt lat="43.35596" lon="6.38865">
        <ele>77.199996948242</ele>
        <time>2021-05-22T08:01:24Z</time>
      </trkpt>
      <trkpt lat="43.35596" lon="6.38867">
        <ele>77.400001525879</ele>
        <time>2021-05-22T08:01:25Z</time>
      </trkpt>
      <trkpt lat="43.35598" lon="6.38874">
        <ele>78</ele>
        <time>2021-05-22T08:01:28Z</time>
      </trkpt>
      <trkpt lat="43.35598" lon="6.3888">
        <ele>78.199996948242</ele>
        <time>2021-05-22T08:01:30Z</time>
      </trkpt>
      <trkpt lat="43.35599" lon="6.38891">
        <ele>78.400001525879</ele>
        <time>2021-05-22T08:01:34Z</time>
      </trkpt>
      <trkpt lat="43.356" lon="6.38898">
        <ele>78.599998474121</ele>
        <time>2021-05-22T08:01:36Z</time>
      </trkpt>
      <trkpt lat="43.35599" lon="6.38911">
        <ele>79</ele>
        <time>2021-05-22T08:01:40Z</time>
      </trkpt>
      <trkpt lat="43.35605" lon="6.38929">
        <ele>79.599998474121</ele>
        <time>2021-05-22T08:01:47Z</time>
      </trkpt>
      <trkpt lat="43.35608" lon="6.38945">
        <ele>80.400001525879</ele>
        <time>2021-05-22T08:01:53Z</time>
      </trkpt>
      <trkpt lat="43.3561" lon="6.3895">
        <ele>81.199996948242</ele>
        <time>2021-05-22T08:01:55Z</time>
      </trkpt>
      <trkpt lat="43.35611" lon="6.38956">
        <ele>81.599998474121</ele>
        <time>2021-05-22T08:01:57Z</time>
      </trkpt>
      <trkpt lat="43.35614" lon="6.38977">
        <ele>81.800003051758</ele>
        <time>2021-05-22T08:02:03Z</time>
      </trkpt>
      <trkpt lat="43.35615" lon="6.39006">
        <ele>82.400001525879</ele>
        <time>2021-05-22T08:02:12Z</time>
      </trkpt>
      <trkpt lat="43.35614" lon="6.39022">
        <ele>82.599998474121</ele>
        <time>2021-05-22T08:02:16Z</time>
      </trkpt>
      <trkpt lat="43.35615" lon="6.39035">
        <ele>83</ele>
        <time>2021-05-22T08:02:19Z</time>
      </trkpt>
      <trkpt lat="43.35613" lon="6.39058">
        <ele>83</ele>
        <time>2021-05-22T08:02:25Z</time>
      </trkpt>
      <trkpt lat="43.35613" lon="6.39082">
        <ele>82.800003051758</ele>
        <time>2021-05-22T08:02:30Z</time>
      </trkpt>
      <trkpt lat="43.35614" lon="6.39088">
        <ele>82.800003051758</ele>
        <time>2021-05-22T08:02:31Z</time>
      </trkpt>
      <trkpt lat="43.35618" lon="6.39101">
        <ele>82.199996948242</ele>
        <time>2021-05-22T08:02:34Z</time>
      </trkpt>
      <trkpt lat="43.35625" lon="6.39122">
        <ele>82</ele>
        <time>2021-05-22T08:02:39Z</time>
      </trkpt>
      <trkpt lat="43.35624" lon="6.3914">
        <ele>82</ele>
        <time>2021-05-22T08:02:42Z</time>
      </trkpt>
      <trkpt lat="43.35627" lon="6.3915">
        <ele>81.800003051758</ele>
        <time>2021-05-22T08:02:44Z</time>
      </trkpt>
      <trkpt lat="43.3563" lon="6.39164">
        <ele>81.599998474121</ele>
        <time>2021-05-22T08:02:47Z</time>
      </trkpt>
      <trkpt lat="43.35633" lon="6.39173">
        <ele>81.400001525879</ele>
        <time>2021-05-22T08:02:49Z</time>
      </trkpt>
      <trkpt lat="43.35637" lon="6.39199">
        <ele>81</ele>
        <time>2021-05-22T08:02:54Z</time>
      </trkpt>
      <trkpt lat="43.35638" lon="6.3921">
        <ele>81</ele>
        <time>2021-05-22T08:02:56Z</time>
      </trkpt>
      <trkpt lat="43.35638" lon="6.39217">
        <ele>80.400001525879</ele>
        <time>2021-05-22T08:02:58Z</time>
      </trkpt>
      <trkpt lat="43.35636" lon="6.39223">
        <ele>80</ele>
        <time>2021-05-22T08:03:00Z</time>
      </trkpt>
      <trkpt lat="43.35637" lon="6.39232">
        <ele>79.400001525879</ele>
        <time>2021-05-22T08:03:02Z</time>
      </trkpt>
      <trkpt lat="43.35637" lon="6.39237">
        <ele>79.199996948242</ele>
        <time>2021-05-22T08:03:03Z</time>
      </trkpt>
      <trkpt lat="43.35637" lon="6.39249">
        <ele>78.800003051758</ele>
        <time>2021-05-22T08:03:05Z</time>
      </trkpt>
      <trkpt lat="43.35638" lon="6.39261">
        <ele>78.199996948242</ele>
        <time>2021-05-22T08:03:07Z</time>
      </trkpt>
      <trkpt lat="43.35638" lon="6.39272">
        <ele>77.599998474121</ele>
        <time>2021-05-22T08:03:09Z</time>
      </trkpt>
      <trkpt lat="43.3564" lon="6.39287">
        <ele>77.199996948242</ele>
        <time>2021-05-22T08:03:12Z</time>
      </trkpt>
      <trkpt lat="43.35644" lon="6.39296">
        <ele>77.199996948242</ele>
        <time>2021-05-22T08:03:14Z</time>
      </trkpt>
      <trkpt lat="43.3565" lon="6.39301">
        <ele>77</ele>
        <time>2021-05-22T08:03:16Z</time>
      </trkpt>
      <trkpt lat="43.3566" lon="6.39311">
        <ele>76.800003051758</ele>
        <time>2021-05-22T08:03:19Z</time>
      </trkpt>
      <trkpt lat="43.35663" lon="6.39316">
        <ele>76.599998474121</ele>
        <time>2021-05-22T08:03:20Z</time>
      </trkpt>
      <trkpt lat="43.35667" lon="6.3932">
        <ele>76.400001525879</ele>
        <time>2021-05-22T08:03:21Z</time>
      </trkpt>
      <trkpt lat="43.3567" lon="6.39325">
        <ele>76.400001525879</ele>
        <time>2021-05-22T08:03:22Z</time>
      </trkpt>
      <trkpt lat="43.35673" lon="6.39329">
        <ele>76.400001525879</ele>
        <time>2021-05-22T08:03:23Z</time>
      </trkpt>
      <trkpt lat="43.35677" lon="6.39333">
        <ele>76.199996948242</ele>
        <time>2021-05-22T08:03:24Z</time>
      </trkpt>
      <trkpt lat="43.3568" lon="6.39337">
        <ele>76</ele>
        <time>2021-05-22T08:03:25Z</time>
      </trkpt>
      <trkpt lat="43.35683" lon="6.39341">
        <ele>75.800003051758</ele>
        <time>2021-05-22T08:03:26Z</time>
      </trkpt>
      <trkpt lat="43.35685" lon="6.39346">
        <ele>75.199996948242</ele>
        <time>2021-05-22T08:03:27Z</time>
      </trkpt>
      <trkpt lat="43.35688" lon="6.3935">
        <ele>75</ele>
        <time>2021-05-22T08:03:28Z</time>
      </trkpt>
      <trkpt lat="43.35692" lon="6.39353">
        <ele>74.800003051758</ele>
        <time>2021-05-22T08:03:29Z</time>
      </trkpt>
      <trkpt lat="43.35698" lon="6.3936">
        <ele>74.400001525879</ele>
        <time>2021-05-22T08:03:31Z</time>
      </trkpt>
      <trkpt lat="43.35711" lon="6.39369">
        <ele>73.800003051758</ele>
        <time>2021-05-22T08:03:34Z</time>
      </trkpt>
      <trkpt lat="43.35715" lon="6.39371">
        <ele>73.800003051758</ele>
        <time>2021-05-22T08:03:35Z</time>
      </trkpt>
      <trkpt lat="43.35719" lon="6.39374">
        <ele>73.599998474121</ele>
        <time>2021-05-22T08:03:36Z</time>
      </trkpt>
      <trkpt lat="43.35737" lon="6.39386">
        <ele>72.800003051758</ele>
        <time>2021-05-22T08:03:41Z</time>
      </trkpt>
      <trkpt lat="43.35743" lon="6.39392">
        <ele>72.400001525879</ele>
        <time>2021-05-22T08:03:43Z</time>
      </trkpt>
      <trkpt lat="43.35746" lon="6.39395">
        <ele>72.199996948242</ele>
        <time>2021-05-22T08:03:44Z</time>
      </trkpt>
      <trkpt lat="43.35755" lon="6.39407">
        <ele>72</ele>
        <time>2021-05-22T08:03:47Z</time>
      </trkpt>
      <trkpt lat="43.35761" lon="6.39414">
        <ele>71.800003051758</ele>
        <time>2021-05-22T08:03:49Z</time>
      </trkpt>
      <trkpt lat="43.35765" lon="6.39423">
        <ele>71.800003051758</ele>
        <time>2021-05-22T08:03:51Z</time>
      </trkpt>
      <trkpt lat="43.35767" lon="6.3943">
        <ele>71.800003051758</ele>
        <time>2021-05-22T08:03:53Z</time>
      </trkpt>
      <trkpt lat="43.35771" lon="6.39442">
        <ele>71.800003051758</ele>
        <time>2021-05-22T08:03:56Z</time>
      </trkpt>
      <trkpt lat="43.35777" lon="6.39457">
        <ele>72</ele>
        <time>2021-05-22T08:04:01Z</time>
      </trkpt>
      <trkpt lat="43.35783" lon="6.39484">
        <ele>72</ele>
        <time>2021-05-22T08:04:07Z</time>
      </trkpt>
      <trkpt lat="43.35788" lon="6.395">
        <ele>72</ele>
        <time>2021-05-22T08:04:10Z</time>
      </trkpt>
      <trkpt lat="43.35791" lon="6.39511">
        <ele>72</ele>
        <time>2021-05-22T08:04:12Z</time>
      </trkpt>
      <trkpt lat="43.35793" lon="6.39516">
        <ele>71.800003051758</ele>
        <time>2021-05-22T08:04:13Z</time>
      </trkpt>
      <trkpt lat="43.35804" lon="6.39554">
        <ele>71.199996948242</ele>
        <time>2021-05-22T08:04:20Z</time>
      </trkpt>
      <trkpt lat="43.35806" lon="6.39559">
        <ele>71.199996948242</ele>
        <time>2021-05-22T08:04:21Z</time>
      </trkpt>
      <trkpt lat="43.35817" lon="6.39606">
        <ele>71.400001525879</ele>
        <time>2021-05-22T08:04:29Z</time>
      </trkpt>
      <trkpt lat="43.35819" lon="6.39612">
        <ele>71.599998474121</ele>
        <time>2021-05-22T08:04:30Z</time>
      </trkpt>
      <trkpt lat="43.35822" lon="6.39622">
        <ele>71.599998474121</ele>
        <time>2021-05-22T08:04:32Z</time>
      </trkpt>
      <trkpt lat="43.35826" lon="6.39632">
        <ele>71.800003051758</ele>
        <time>2021-05-22T08:04:34Z</time>
      </trkpt>
      <trkpt lat="43.3583" lon="6.39647">
        <ele>72</ele>
        <time>2021-05-22T08:04:38Z</time>
      </trkpt>
      <trkpt lat="43.35832" lon="6.39651">
        <ele>72</ele>
        <time>2021-05-22T08:04:39Z</time>
      </trkpt>
      <trkpt lat="43.35836" lon="6.39673">
        <ele>72.199996948242</ele>
        <time>2021-05-22T08:04:44Z</time>
      </trkpt>
      <trkpt lat="43.35837" lon="6.39677">
        <ele>72.400001525879</ele>
        <time>2021-05-22T08:04:45Z</time>
      </trkpt>
      <trkpt lat="43.3584" lon="6.39689">
        <ele>72.599998474121</ele>
        <time>2021-05-22T08:04:48Z</time>
      </trkpt>
      <trkpt lat="43.35842" lon="6.39702">
        <ele>73</ele>
        <time>2021-05-22T08:04:51Z</time>
      </trkpt>
      <trkpt lat="43.35843" lon="6.39706">
        <ele>73.199996948242</ele>
        <time>2021-05-22T08:04:52Z</time>
      </trkpt>
      <trkpt lat="43.35845" lon="6.39711">
        <ele>73.199996948242</ele>
        <time>2021-05-22T08:04:53Z</time>
      </trkpt>
      <trkpt lat="43.35846" lon="6.39715">
        <ele>73.400001525879</ele>
        <time>2021-05-22T08:04:54Z</time>
      </trkpt>
      <trkpt lat="43.35852" lon="6.39744">
        <ele>73.800003051758</ele>
        <time>2021-05-22T08:05:00Z</time>
      </trkpt>
      <trkpt lat="43.35856" lon="6.39764">
        <ele>74</ele>
        <time>2021-05-22T08:05:04Z</time>
      </trkpt>
      <trkpt lat="43.35858" lon="6.39778">
        <ele>74</ele>
        <time>2021-05-22T08:05:07Z</time>
      </trkpt>
      <trkpt lat="43.35859" lon="6.39783">
        <ele>74</ele>
        <time>2021-05-22T08:05:08Z</time>
      </trkpt>
      <trkpt lat="43.3586" lon="6.39788">
        <ele>74.199996948242</ele>
        <time>2021-05-22T08:05:09Z</time>
      </trkpt>
      <trkpt lat="43.35861" lon="6.39793">
        <ele>74.400001525879</ele>
        <time>2021-05-22T08:05:10Z</time>
      </trkpt>
      <trkpt lat="43.35862" lon="6.39798">
        <ele>74.400001525879</ele>
        <time>2021-05-22T08:05:11Z</time>
      </trkpt>
      <trkpt lat="43.35863" lon="6.39803">
        <ele>74.599998474121</ele>
        <time>2021-05-22T08:05:12Z</time>
      </trkpt>
      <trkpt lat="43.35866" lon="6.3982">
        <ele>75.199996948242</ele>
        <time>2021-05-22T08:05:16Z</time>
      </trkpt>
      <trkpt lat="43.35871" lon="6.39842">
        <ele>75.599998474121</ele>
        <time>2021-05-22T08:05:21Z</time>
      </trkpt>
      <trkpt lat="43.35873" lon="6.3985">
        <ele>75.599998474121</ele>
        <time>2021-05-22T08:05:23Z</time>
      </trkpt>
      <trkpt lat="43.35877" lon="6.39867">
        <ele>76.400001525879</ele>
        <time>2021-05-22T08:05:27Z</time>
      </trkpt>
      <trkpt lat="43.35879" lon="6.3988">
        <ele>76.800003051758</ele>
        <time>2021-05-22T08:05:30Z</time>
      </trkpt>
      <trkpt lat="43.35882" lon="6.39895">
        <ele>77.400001525879</ele>
        <time>2021-05-22T08:05:33Z</time>
      </trkpt>
      <trkpt lat="43.35883" lon="6.39911">
        <ele>77.800003051758</ele>
        <time>2021-05-22T08:05:37Z</time>
      </trkpt>
      <trkpt lat="43.35885" lon="6.3993">
        <ele>78.599998474121</ele>
        <time>2021-05-22T08:05:42Z</time>
      </trkpt>
      <trkpt lat="43.35884" lon="6.39934">
        <ele>78.800003051758</ele>
        <time>2021-05-22T08:05:43Z</time>
      </trkpt>
      <trkpt lat="43.35887" lon="6.39955">
        <ele>79.199996948242</ele>
        <time>2021-05-22T08:05:49Z</time>
      </trkpt>
      <trkpt lat="43.35888" lon="6.39962">
        <ele>79.599998474121</ele>
        <time>2021-05-22T08:05:51Z</time>
      </trkpt>
      <trkpt lat="43.35888" lon="6.39976">
        <ele>80</ele>
        <time>2021-05-22T08:05:55Z</time>
      </trkpt>
      <trkpt lat="43.35889" lon="6.3998">
        <ele>80.199996948242</ele>
        <time>2021-05-22T08:05:56Z</time>
      </trkpt>
      <trkpt lat="43.3589" lon="6.3999">
        <ele>80.800003051758</ele>
        <time>2021-05-22T08:05:59Z</time>
      </trkpt>
      <trkpt lat="43.35888" lon="6.40001">
        <ele>81.199996948242</ele>
        <time>2021-05-22T08:06:02Z</time>
      </trkpt>
      <trkpt lat="43.35888" lon="6.40005">
        <ele>81.400001525879</ele>
        <time>2021-05-22T08:06:03Z</time>
      </trkpt>
      <trkpt lat="43.35886" lon="6.40024">
        <ele>81.800003051758</ele>
        <time>2021-05-22T08:06:08Z</time>
      </trkpt>
      <trkpt lat="43.35884" lon="6.40039">
        <ele>82.199996948242</ele>
        <time>2021-05-22T08:06:12Z</time>
      </trkpt>
      <trkpt lat="43.35884" lon="6.40043">
        <ele>82.400001525879</ele>
        <time>2021-05-22T08:06:13Z</time>
      </trkpt>
      <trkpt lat="43.35882" lon="6.40055">
        <ele>82.800003051758</ele>
        <time>2021-05-22T08:06:16Z</time>
      </trkpt>
      <trkpt lat="43.35879" lon="6.40071">
        <ele>83.199996948242</ele>
        <time>2021-05-22T08:06:20Z</time>
      </trkpt>
      <trkpt lat="43.35878" lon="6.40079">
        <ele>83.400001525879</ele>
        <time>2021-05-22T08:06:22Z</time>
      </trkpt>
      <trkpt lat="43.35872" lon="6.40105">
        <ele>83.800003051758</ele>
        <time>2021-05-22T08:06:28Z</time>
      </trkpt>
      <trkpt lat="43.35867" lon="6.4013">
        <ele>84.400001525879</ele>
        <time>2021-05-22T08:06:34Z</time>
      </trkpt>
      <trkpt lat="43.35863" lon="6.40143">
        <ele>85</ele>
        <time>2021-05-22T08:06:37Z</time>
      </trkpt>
      <trkpt lat="43.35859" lon="6.4016">
        <ele>85.800003051758</ele>
        <time>2021-05-22T08:06:41Z</time>
      </trkpt>
      <trkpt lat="43.35858" lon="6.40165">
        <ele>85.800003051758</ele>
        <time>2021-05-22T08:06:42Z</time>
      </trkpt>
      <trkpt lat="43.35854" lon="6.40178">
        <ele>86.199996948242</ele>
        <time>2021-05-22T08:06:45Z</time>
      </trkpt>
      <trkpt lat="43.35853" lon="6.40183">
        <ele>86.199996948242</ele>
        <time>2021-05-22T08:06:46Z</time>
      </trkpt>
      <trkpt lat="43.35851" lon="6.40188">
        <ele>86.400001525879</ele>
        <time>2021-05-22T08:06:47Z</time>
      </trkpt>
      <trkpt lat="43.3585" lon="6.40192">
        <ele>86.400001525879</ele>
        <time>2021-05-22T08:06:48Z</time>
      </trkpt>
      <trkpt lat="43.35842" lon="6.4022">
        <ele>87</ele>
        <time>2021-05-22T08:06:54Z</time>
      </trkpt>
      <trkpt lat="43.35836" lon="6.40226">
        <ele>87</ele>
        <time>2021-05-22T08:06:57Z</time>
      </trkpt>
      <trkpt lat="43.35826" lon="6.40225">
        <ele>87.599998474121</ele>
        <time>2021-05-22T08:07:38Z</time>
      </trkpt>
      <trkpt lat="43.35824" lon="6.40223">
        <ele>87.599998474121</ele>
        <time>2021-05-22T08:07:39Z</time>
      </trkpt>
      <trkpt lat="43.35812" lon="6.40217">
        <ele>88.199996948242</ele>
        <time>2021-05-22T08:07:44Z</time>
      </trkpt>
      <trkpt lat="43.35805" lon="6.40212">
        <ele>88.599998474121</ele>
        <time>2021-05-22T08:07:47Z</time>
      </trkpt>
      <trkpt lat="43.35801" lon="6.40209">
        <ele>89</ele>
        <time>2021-05-22T08:07:49Z</time>
      </trkpt>
      <trkpt lat="43.35788" lon="6.40199">
        <ele>89.400001525879</ele>
        <time>2021-05-22T08:07:56Z</time>
      </trkpt>
      <trkpt lat="43.35786" lon="6.40198">
        <ele>89.400001525879</ele>
        <time>2021-05-22T08:07:57Z</time>
      </trkpt>
      <trkpt lat="43.35783" lon="6.40199">
        <ele>89.400001525879</ele>
        <time>2021-05-22T08:07:59Z</time>
      </trkpt>
      <trkpt lat="43.35782" lon="6.40201">
        <ele>89.400001525879</ele>
        <time>2021-05-22T08:08:00Z</time>
      </trkpt>
      <trkpt lat="43.35779" lon="6.40204">
        <ele>89.599998474121</ele>
        <time>2021-05-22T08:08:02Z</time>
      </trkpt>
      <trkpt lat="43.35777" lon="6.40205">
        <ele>89.599998474121</ele>
        <time>2021-05-22T08:08:03Z</time>
      </trkpt>
      <trkpt lat="43.35776" lon="6.40207">
        <ele>89.599998474121</ele>
        <time>2021-05-22T08:08:04Z</time>
      </trkpt>
      <trkpt lat="43.35772" lon="6.40213">
        <ele>89.800003051758</ele>
        <time>2021-05-22T08:08:06Z</time>
      </trkpt>
      <trkpt lat="43.35769" lon="6.4022">
        <ele>90</ele>
        <time>2021-05-22T08:08:08Z</time>
      </trkpt>
      <trkpt lat="43.35768" lon="6.40233">
        <ele>90.199996948242</ele>
        <time>2021-05-22T08:08:11Z</time>
      </trkpt>
      <trkpt lat="43.35768" lon="6.40243">
        <ele>90.199996948242</ele>
        <time>2021-05-22T08:08:13Z</time>
      </trkpt>
      <trkpt lat="43.35766" lon="6.40257">
        <ele>90.400001525879</ele>
        <time>2021-05-22T08:08:16Z</time>
      </trkpt>
      <trkpt lat="43.35765" lon="6.40258">
        <ele>90.400001525879</ele>
        <time>2021-05-22T08:08:17Z</time>
      </trkpt>
      <trkpt lat="43.35762" lon="6.40258">
        <ele>90.199996948242</ele>
        <time>2021-05-22T08:08:19Z</time>
      </trkpt>
      <trkpt lat="43.35756" lon="6.40259">
        <ele>90.199996948242</ele>
        <time>2021-05-22T08:08:21Z</time>
      </trkpt>
      <trkpt lat="43.3575" lon="6.40266">
        <ele>90.199996948242</ele>
        <time>2021-05-22T08:08:23Z</time>
      </trkpt>
      <trkpt lat="43.35742" lon="6.40273">
        <ele>90.199996948242</ele>
        <time>2021-05-22T08:08:25Z</time>
      </trkpt>
      <trkpt lat="43.35735" lon="6.40279">
        <ele>90.199996948242</ele>
        <time>2021-05-22T08:08:27Z</time>
      </trkpt>
      <trkpt lat="43.35714" lon="6.40295">
        <ele>90</ele>
        <time>2021-05-22T08:08:33Z</time>
      </trkpt>
      <trkpt lat="43.35708" lon="6.403">
        <ele>90</ele>
        <time>2021-05-22T08:08:35Z</time>
      </trkpt>
      <trkpt lat="43.357" lon="6.40307">
        <ele>90</ele>
        <time>2021-05-22T08:08:38Z</time>
      </trkpt>
      <trkpt lat="43.35697" lon="6.4031">
        <ele>90.199996948242</ele>
        <time>2021-05-22T08:08:39Z</time>
      </trkpt>
      <trkpt lat="43.35681" lon="6.40326">
        <ele>90.599998474121</ele>
        <time>2021-05-22T08:08:44Z</time>
      </trkpt>
      <trkpt lat="43.35674" lon="6.40329">
        <ele>90.800003051758</ele>
        <time>2021-05-22T08:08:46Z</time>
      </trkpt>
      <trkpt lat="43.35661" lon="6.40339">
        <ele>90.800003051758</ele>
        <time>2021-05-22T08:08:50Z</time>
      </trkpt>
      <trkpt lat="43.35641" lon="6.40357">
        <ele>91.400001525879</ele>
        <time>2021-05-22T08:08:56Z</time>
      </trkpt>
      <trkpt lat="43.35637" lon="6.4036">
        <ele>91.400001525879</ele>
        <time>2021-05-22T08:08:57Z</time>
      </trkpt>
      <trkpt lat="43.35626" lon="6.40368">
        <ele>91.599998474121</ele>
        <time>2021-05-22T08:09:00Z</time>
      </trkpt>
      <trkpt lat="43.35622" lon="6.40372">
        <ele>91.800003051758</ele>
        <time>2021-05-22T08:09:01Z</time>
      </trkpt>
      <trkpt lat="43.35616" lon="6.40381">
        <ele>91.800003051758</ele>
        <time>2021-05-22T08:09:03Z</time>
      </trkpt>
      <trkpt lat="43.35612" lon="6.40386">
        <ele>91.800003051758</ele>
        <time>2021-05-22T08:09:04Z</time>
      </trkpt>
      <trkpt lat="43.35603" lon="6.40391">
        <ele>91.800003051758</ele>
        <time>2021-05-22T08:09:06Z</time>
      </trkpt>
      <trkpt lat="43.35598" lon="6.40393">
        <ele>91.800003051758</ele>
        <time>2021-05-22T08:09:07Z</time>
      </trkpt>
      <trkpt lat="43.35589" lon="6.40397">
        <ele>91.800003051758</ele>
        <time>2021-05-22T08:09:09Z</time>
      </trkpt>
      <trkpt lat="43.35585" lon="6.40399">
        <ele>91.800003051758</ele>
        <time>2021-05-22T08:09:10Z</time>
      </trkpt>
      <trkpt lat="43.35581" lon="6.40402">
        <ele>91.800003051758</ele>
        <time>2021-05-22T08:09:11Z</time>
      </trkpt>
      <trkpt lat="43.35576" lon="6.40403">
        <ele>92</ele>
        <time>2021-05-22T08:09:12Z</time>
      </trkpt>
      <trkpt lat="43.35558" lon="6.40411">
        <ele>92.199996948242</ele>
        <time>2021-05-22T08:09:16Z</time>
      </trkpt>
      <trkpt lat="43.35549" lon="6.40413">
        <ele>92.400001525879</ele>
        <time>2021-05-22T08:09:18Z</time>
      </trkpt>
      <trkpt lat="43.35544" lon="6.40414">
        <ele>92.400001525879</ele>
        <time>2021-05-22T08:09:19Z</time>
      </trkpt>
      <trkpt lat="43.35518" lon="6.40421">
        <ele>92.400001525879</ele>
        <time>2021-05-22T08:09:24Z</time>
      </trkpt>
      <trkpt lat="43.35497" lon="6.40426">
        <ele>93.199996948242</ele>
        <time>2021-05-22T08:09:28Z</time>
      </trkpt>
      <trkpt lat="43.35486" lon="6.40428">
        <ele>93.199996948242</ele>
        <time>2021-05-22T08:09:30Z</time>
      </trkpt>
      <trkpt lat="43.35465" lon="6.40431">
        <ele>93.599998474121</ele>
        <time>2021-05-22T08:09:34Z</time>
      </trkpt>
      <trkpt lat="43.35454" lon="6.40435">
        <ele>93.599998474121</ele>
        <time>2021-05-22T08:09:36Z</time>
      </trkpt>
      <trkpt lat="43.35448" lon="6.40436">
        <ele>93.199996948242</ele>
        <time>2021-05-22T08:09:37Z</time>
      </trkpt>
      <trkpt lat="43.35432" lon="6.4044">
        <ele>93.599998474121</ele>
        <time>2021-05-22T08:09:40Z</time>
      </trkpt>
      <trkpt lat="43.35422" lon="6.40443">
        <ele>93.599998474121</ele>
        <time>2021-05-22T08:09:42Z</time>
      </trkpt>
      <trkpt lat="43.35401" lon="6.40446">
        <ele>93.199996948242</ele>
        <time>2021-05-22T08:09:46Z</time>
      </trkpt>
      <trkpt lat="43.35385" lon="6.40448">
        <ele>93.199996948242</ele>
        <time>2021-05-22T08:09:49Z</time>
      </trkpt>
      <trkpt lat="43.3538" lon="6.40449">
        <ele>93.199996948242</ele>
        <time>2021-05-22T08:09:50Z</time>
      </trkpt>
      <trkpt lat="43.35365" lon="6.40457">
        <ele>93.400001525879</ele>
        <time>2021-05-22T08:09:53Z</time>
      </trkpt>
      <trkpt lat="43.3536" lon="6.40459">
        <ele>93.400001525879</ele>
        <time>2021-05-22T08:09:54Z</time>
      </trkpt>
      <trkpt lat="43.35339" lon="6.40464">
        <ele>93.599998474121</ele>
        <time>2021-05-22T08:09:58Z</time>
      </trkpt>
      <trkpt lat="43.35303" lon="6.4047">
        <ele>94.199996948242</ele>
        <time>2021-05-22T08:10:05Z</time>
      </trkpt>
      <trkpt lat="43.35298" lon="6.40471">
        <ele>94.199996948242</ele>
        <time>2021-05-22T08:10:06Z</time>
      </trkpt>
      <trkpt lat="43.35288" lon="6.40473">
        <ele>94.599998474121</ele>
        <time>2021-05-22T08:10:08Z</time>
      </trkpt>
      <trkpt lat="43.35274" lon="6.40476">
        <ele>94.599998474121</ele>
        <time>2021-05-22T08:10:11Z</time>
      </trkpt>
      <trkpt lat="43.3527" lon="6.40477">
        <ele>94.599998474121</ele>
        <time>2021-05-22T08:10:12Z</time>
      </trkpt>
      <trkpt lat="43.35265" lon="6.40478">
        <ele>94.599998474121</ele>
        <time>2021-05-22T08:10:13Z</time>
      </trkpt>
      <trkpt lat="43.35234" lon="6.40483">
        <ele>94.599998474121</ele>
        <time>2021-05-22T08:10:20Z</time>
      </trkpt>
      <trkpt lat="43.35202" lon="6.40486">
        <ele>95.199996948242</ele>
        <time>2021-05-22T08:10:27Z</time>
      </trkpt>
      <trkpt lat="43.35197" lon="6.40486">
        <ele>95.400001525879</ele>
        <time>2021-05-22T08:10:28Z</time>
      </trkpt>
      <trkpt lat="43.35183" lon="6.40491">
        <ele>95.599998474121</ele>
        <time>2021-05-22T08:10:31Z</time>
      </trkpt>
      <trkpt lat="43.35148" lon="6.40499">
        <ele>95.599998474121</ele>
        <time>2021-05-22T08:10:38Z</time>
      </trkpt>
      <trkpt lat="43.35122" lon="6.40499">
        <ele>95.800003051758</ele>
        <time>2021-05-22T08:10:43Z</time>
      </trkpt>
      <trkpt lat="43.35117" lon="6.405">
        <ele>95.800003051758</ele>
        <time>2021-05-22T08:10:44Z</time>
      </trkpt>
      <trkpt lat="43.35112" lon="6.405">
        <ele>95.800003051758</ele>
        <time>2021-05-22T08:10:45Z</time>
      </trkpt>
      <trkpt lat="43.35087" lon="6.40498">
        <ele>95.800003051758</ele>
        <time>2021-05-22T08:10:50Z</time>
      </trkpt>
      <trkpt lat="43.35082" lon="6.40498">
        <ele>95.800003051758</ele>
        <time>2021-05-22T08:10:51Z</time>
      </trkpt>
      <trkpt lat="43.35067" lon="6.40499">
        <ele>96.199996948242</ele>
        <time>2021-05-22T08:10:54Z</time>
      </trkpt>
      <trkpt lat="43.35062" lon="6.40499">
        <ele>96</ele>
        <time>2021-05-22T08:10:55Z</time>
      </trkpt>
      <trkpt lat="43.35053" lon="6.40499">
        <ele>95.800003051758</ele>
        <time>2021-05-22T08:10:57Z</time>
      </trkpt>
      <trkpt lat="43.35042" lon="6.40501">
        <ele>96</ele>
        <time>2021-05-22T08:10:59Z</time>
      </trkpt>
      <trkpt lat="43.35022" lon="6.40502">
        <ele>96</ele>
        <time>2021-05-22T08:11:03Z</time>
      </trkpt>
      <trkpt lat="43.35013" lon="6.40501">
        <ele>96</ele>
        <time>2021-05-22T08:11:05Z</time>
      </trkpt>
      <trkpt lat="43.35003" lon="6.405">
        <ele>96</ele>
        <time>2021-05-22T08:11:07Z</time>
      </trkpt>
      <trkpt lat="43.34994" lon="6.40503">
        <ele>96</ele>
        <time>2021-05-22T08:11:09Z</time>
      </trkpt>
      <trkpt lat="43.3499" lon="6.40505">
        <ele>96</ele>
        <time>2021-05-22T08:11:10Z</time>
      </trkpt>
      <trkpt lat="43.34985" lon="6.40506">
        <ele>96</ele>
        <time>2021-05-22T08:11:11Z</time>
      </trkpt>
      <trkpt lat="43.34976" lon="6.40506">
        <ele>96</ele>
        <time>2021-05-22T08:11:13Z</time>
      </trkpt>
      <trkpt lat="43.34971" lon="6.40507">
        <ele>96.199996948242</ele>
        <time>2021-05-22T08:11:14Z</time>
      </trkpt>
      <trkpt lat="43.34962" lon="6.40509">
        <ele>96.400001525879</ele>
        <time>2021-05-22T08:11:16Z</time>
      </trkpt>
      <trkpt lat="43.34953" lon="6.40512">
        <ele>96.400001525879</ele>
        <time>2021-05-22T08:11:18Z</time>
      </trkpt>
      <trkpt lat="43.34949" lon="6.40512">
        <ele>96.400001525879</ele>
        <time>2021-05-22T08:11:19Z</time>
      </trkpt>
      <trkpt lat="43.34921" lon="6.40513">
        <ele>96.599998474121</ele>
        <time>2021-05-22T08:11:25Z</time>
      </trkpt>
      <trkpt lat="43.34913" lon="6.40516">
        <ele>97</ele>
        <time>2021-05-22T08:11:27Z</time>
      </trkpt>
      <trkpt lat="43.34905" lon="6.40519">
        <ele>97.199996948242</ele>
        <time>2021-05-22T08:11:29Z</time>
      </trkpt>
      <trkpt lat="43.34899" lon="6.40525">
        <ele>97.199996948242</ele>
        <time>2021-05-22T08:11:31Z</time>
      </trkpt>
      <trkpt lat="43.34891" lon="6.40539">
        <ele>97.199996948242</ele>
        <time>2021-05-22T08:11:34Z</time>
      </trkpt>
      <trkpt lat="43.34889" lon="6.40545">
        <ele>97.199996948242</ele>
        <time>2021-05-22T08:11:35Z</time>
      </trkpt>
      <trkpt lat="43.34886" lon="6.40551">
        <ele>97.199996948242</ele>
        <time>2021-05-22T08:11:36Z</time>
      </trkpt>
      <trkpt lat="43.34874" lon="6.40564">
        <ele>97.199996948242</ele>
        <time>2021-05-22T08:11:39Z</time>
      </trkpt>
      <trkpt lat="43.34861" lon="6.40575">
        <ele>97.800003051758</ele>
        <time>2021-05-22T08:11:42Z</time>
      </trkpt>
      <trkpt lat="43.34846" lon="6.40591">
        <ele>97.599998474121</ele>
        <time>2021-05-22T08:11:46Z</time>
      </trkpt>
      <trkpt lat="43.34842" lon="6.40595">
        <ele>97.599998474121</ele>
        <time>2021-05-22T08:11:47Z</time>
      </trkpt>
      <trkpt lat="43.34838" lon="6.40599">
        <ele>97.599998474121</ele>
        <time>2021-05-22T08:11:48Z</time>
      </trkpt>
      <trkpt lat="43.34834" lon="6.40604">
        <ele>98</ele>
        <time>2021-05-22T08:11:49Z</time>
      </trkpt>
      <trkpt lat="43.34826" lon="6.40614">
        <ele>98</ele>
        <time>2021-05-22T08:11:51Z</time>
      </trkpt>
      <trkpt lat="43.34823" lon="6.40619">
        <ele>98</ele>
        <time>2021-05-22T08:11:52Z</time>
      </trkpt>
      <trkpt lat="43.3482" lon="6.40625">
        <ele>98.199996948242</ele>
        <time>2021-05-22T08:11:53Z</time>
      </trkpt>
      <trkpt lat="43.34807" lon="6.40638">
        <ele>98.199996948242</ele>
        <time>2021-05-22T08:11:56Z</time>
      </trkpt>
      <trkpt lat="43.34779" lon="6.40661">
        <ele>98.199996948242</ele>
        <time>2021-05-22T08:12:02Z</time>
      </trkpt>
      <trkpt lat="43.34774" lon="6.40665">
        <ele>98</ele>
        <time>2021-05-22T08:12:03Z</time>
      </trkpt>
      <trkpt lat="43.34757" lon="6.40681">
        <ele>98.199996948242</ele>
        <time>2021-05-22T08:12:07Z</time>
      </trkpt>
      <trkpt lat="43.34755" lon="6.40686">
        <ele>98.199996948242</ele>
        <time>2021-05-22T08:12:08Z</time>
      </trkpt>
      <trkpt lat="43.34753" lon="6.40692">
        <ele>98.400001525879</ele>
        <time>2021-05-22T08:12:09Z</time>
      </trkpt>
      <trkpt lat="43.34752" lon="6.40706">
        <ele>98.400001525879</ele>
        <time>2021-05-22T08:12:11Z</time>
      </trkpt>
      <trkpt lat="43.34752" lon="6.40712">
        <ele>98.599998474121</ele>
        <time>2021-05-22T08:12:12Z</time>
      </trkpt>
      <trkpt lat="43.34752" lon="6.40719">
        <ele>98.599998474121</ele>
        <time>2021-05-22T08:12:13Z</time>
      </trkpt>
      <trkpt lat="43.34751" lon="6.40726">
        <ele>99</ele>
        <time>2021-05-22T08:12:14Z</time>
      </trkpt>
      <trkpt lat="43.34748" lon="6.40754">
        <ele>99</ele>
        <time>2021-05-22T08:12:18Z</time>
      </trkpt>
      <trkpt lat="43.34745" lon="6.40781">
        <ele>99.199996948242</ele>
        <time>2021-05-22T08:12:22Z</time>
      </trkpt>
      <trkpt lat="43.34744" lon="6.40795">
        <ele>99.199996948242</ele>
        <time>2021-05-22T08:12:24Z</time>
      </trkpt>
      <trkpt lat="43.34743" lon="6.40802">
        <ele>99.199996948242</ele>
        <time>2021-05-22T08:12:25Z</time>
      </trkpt>
      <trkpt lat="43.34742" lon="6.40816">
        <ele>99.400001525879</ele>
        <time>2021-05-22T08:12:27Z</time>
      </trkpt>
      <trkpt lat="43.34742" lon="6.40822">
        <ele>99.400001525879</ele>
        <time>2021-05-22T08:12:28Z</time>
      </trkpt>
      <trkpt lat="43.3474" lon="6.40839">
        <ele>99.199996948242</ele>
        <time>2021-05-22T08:12:31Z</time>
      </trkpt>
      <trkpt lat="43.3474" lon="6.40844">
        <ele>99</ele>
        <time>2021-05-22T08:12:33Z</time>
      </trkpt>
      <trkpt lat="43.34739" lon="6.40847">
        <ele>99</ele>
        <time>2021-05-22T08:12:34Z</time>
      </trkpt>
      <trkpt lat="43.34736" lon="6.40859">
        <ele>99</ele>
        <time>2021-05-22T08:12:37Z</time>
      </trkpt>
      <trkpt lat="43.34735" lon="6.40864">
        <ele>99</ele>
        <time>2021-05-22T08:12:38Z</time>
      </trkpt>
      <trkpt lat="43.34727" lon="6.40879">
        <ele>98.599998474121</ele>
        <time>2021-05-22T08:12:42Z</time>
      </trkpt>
      <trkpt lat="43.34726" lon="6.40882">
        <ele>98.400001525879</ele>
        <time>2021-05-22T08:12:43Z</time>
      </trkpt>
      <trkpt lat="43.34725" lon="6.40887">
        <ele>98.199996948242</ele>
        <time>2021-05-22T08:12:45Z</time>
      </trkpt>
      <trkpt lat="43.34725" lon="6.40889">
        <ele>98.199996948242</ele>
        <time>2021-05-22T08:12:46Z</time>
      </trkpt>
      <trkpt lat="43.34727" lon="6.40897">
        <ele>98</ele>
        <time>2021-05-22T08:12:49Z</time>
      </trkpt>
      <trkpt lat="43.34728" lon="6.40906">
        <ele>97.800003051758</ele>
        <time>2021-05-22T08:12:51Z</time>
      </trkpt>
      <trkpt lat="43.34728" lon="6.40911">
        <ele>97.800003051758</ele>
        <time>2021-05-22T08:12:52Z</time>
      </trkpt>
      <trkpt lat="43.34725" lon="6.40937">
        <ele>97.800003051758</ele>
        <time>2021-05-22T08:12:58Z</time>
      </trkpt>
      <trkpt lat="43.3472" lon="6.40954">
        <ele>97.599998474121</ele>
        <time>2021-05-22T08:13:03Z</time>
      </trkpt>
      <trkpt lat="43.34716" lon="6.40958">
        <ele>97.400001525879</ele>
        <time>2021-05-22T08:13:07Z</time>
      </trkpt>
      <trkpt lat="43.34715" lon="6.40953">
        <ele>97.400001525879</ele>
        <time>2021-05-22T08:18:36Z</time>
      </trkpt>
      <trkpt lat="43.34716" lon="6.40951">
        <ele>97.400001525879</ele>
        <time>2021-05-22T08:18:37Z</time>
      </trkpt>
      <trkpt lat="43.34717" lon="6.40948">
        <ele>97.400001525879</ele>
        <time>2021-05-22T08:18:38Z</time>
      </trkpt>
      <trkpt lat="43.34722" lon="6.40938">
        <ele>97.400001525879</ele>
        <time>2021-05-22T08:18:41Z</time>
      </trkpt>
      <trkpt lat="43.34728" lon="6.40926">
        <ele>97.599998474121</ele>
        <time>2021-05-22T08:18:44Z</time>
      </trkpt>
      <trkpt lat="43.34729" lon="6.40922">
        <ele>97.599998474121</ele>
        <time>2021-05-22T08:18:45Z</time>
      </trkpt>
      <trkpt lat="43.34731" lon="6.40894">
        <ele>98</ele>
        <time>2021-05-22T08:18:51Z</time>
      </trkpt>
      <trkpt lat="43.34735" lon="6.40868">
        <ele>98.199996948242</ele>
        <time>2021-05-22T08:18:57Z</time>
      </trkpt>
      <trkpt lat="43.34735" lon="6.40866">
        <ele>98.400001525879</ele>
        <time>2021-05-22T08:18:58Z</time>
      </trkpt>
      <trkpt lat="43.34735" lon="6.4086">
        <ele>98.400001525879</ele>
        <time>2021-05-22T08:19:00Z</time>
      </trkpt>
      <trkpt lat="43.34735" lon="6.40859">
        <ele>98.199996948242</ele>
        <time>2021-05-22T08:19:03Z</time>
      </trkpt>
      <trkpt lat="43.34735" lon="6.40858">
        <ele>98.199996948242</ele>
        <time>2021-05-22T08:19:11Z</time>
      </trkpt>
      <trkpt lat="43.34735" lon="6.40857">
        <ele>98.199996948242</ele>
        <time>2021-05-22T08:19:12Z</time>
      </trkpt>
      <trkpt lat="43.34737" lon="6.40848">
        <ele>98.199996948242</ele>
        <time>2021-05-22T08:19:15Z</time>
      </trkpt>
      <trkpt lat="43.34737" lon="6.40846">
        <ele>98.199996948242</ele>
        <time>2021-05-22T08:19:16Z</time>
      </trkpt>
      <trkpt lat="43.34735" lon="6.4084">
        <ele>98.199996948242</ele>
        <time>2021-05-22T08:19:19Z</time>
      </trkpt>
      <trkpt lat="43.34734" lon="6.40836">
        <ele>98.599998474121</ele>
        <time>2021-05-22T08:19:21Z</time>
      </trkpt>
      <trkpt lat="43.34734" lon="6.40834">
        <ele>98.599998474121</ele>
        <time>2021-05-22T08:19:22Z</time>
      </trkpt>
      <trkpt lat="43.34732" lon="6.40831">
        <ele>98.800003051758</ele>
        <time>2021-05-22T08:19:24Z</time>
      </trkpt>
      <trkpt lat="43.34732" lon="6.40829">
        <ele>98.800003051758</ele>
        <time>2021-05-22T08:19:25Z</time>
      </trkpt>
      <trkpt lat="43.34737" lon="6.40822">
        <ele>99</ele>
        <time>2021-05-22T08:19:28Z</time>
      </trkpt>
      <trkpt lat="43.34742" lon="6.40807">
        <ele>99.400001525879</ele>
        <time>2021-05-22T08:19:33Z</time>
      </trkpt>
      <trkpt lat="43.34743" lon="6.40803">
        <ele>99.400001525879</ele>
        <time>2021-05-22T08:19:34Z</time>
      </trkpt>
      <trkpt lat="43.34745" lon="6.40777">
        <ele>99.400001525879</ele>
        <time>2021-05-22T08:19:39Z</time>
      </trkpt>
      <trkpt lat="43.34747" lon="6.40752">
        <ele>99.400001525879</ele>
        <time>2021-05-22T08:19:44Z</time>
      </trkpt>
      <trkpt lat="43.34748" lon="6.40747">
        <ele>99.599998474121</ele>
        <time>2021-05-22T08:19:45Z</time>
      </trkpt>
      <trkpt lat="43.34752" lon="6.4072">
        <ele>99.599998474121</ele>
        <time>2021-05-22T08:19:50Z</time>
      </trkpt>
      <trkpt lat="43.34753" lon="6.40699">
        <ele>99.599998474121</ele>
        <time>2021-05-22T08:19:54Z</time>
      </trkpt>
      <trkpt lat="43.34754" lon="6.40694">
        <ele>99.400001525879</ele>
        <time>2021-05-22T08:19:55Z</time>
      </trkpt>
      <trkpt lat="43.34754" lon="6.40689">
        <ele>99.199996948242</ele>
        <time>2021-05-22T08:19:56Z</time>
      </trkpt>
      <trkpt lat="43.34756" lon="6.40685">
        <ele>99.199996948242</ele>
        <time>2021-05-22T08:19:57Z</time>
      </trkpt>
      <trkpt lat="43.3476" lon="6.40677">
        <ele>99.199996948242</ele>
        <time>2021-05-22T08:19:59Z</time>
      </trkpt>
      <trkpt lat="43.34763" lon="6.40674">
        <ele>99.199996948242</ele>
        <time>2021-05-22T08:20:00Z</time>
      </trkpt>
      <trkpt lat="43.34767" lon="6.40671">
        <ele>99.199996948242</ele>
        <time>2021-05-22T08:20:01Z</time>
      </trkpt>
      <trkpt lat="43.3477" lon="6.40668">
        <ele>99</ele>
        <time>2021-05-22T08:20:02Z</time>
      </trkpt>
      <trkpt lat="43.34774" lon="6.40665">
        <ele>98.800003051758</ele>
        <time>2021-05-22T08:20:03Z</time>
      </trkpt>
      <trkpt lat="43.34781" lon="6.40659">
        <ele>98.800003051758</ele>
        <time>2021-05-22T08:20:05Z</time>
      </trkpt>
      <trkpt lat="43.34788" lon="6.40654">
        <ele>98.599998474121</ele>
        <time>2021-05-22T08:20:07Z</time>
      </trkpt>
      <trkpt lat="43.34795" lon="6.40647">
        <ele>98.800003051758</ele>
        <time>2021-05-22T08:20:09Z</time>
      </trkpt>
      <trkpt lat="43.34799" lon="6.40644">
        <ele>98.800003051758</ele>
        <time>2021-05-22T08:20:10Z</time>
      </trkpt>
      <trkpt lat="43.34803" lon="6.40641">
        <ele>98.599998474121</ele>
        <time>2021-05-22T08:20:11Z</time>
      </trkpt>
      <trkpt lat="43.34807" lon="6.40637">
        <ele>98.599998474121</ele>
        <time>2021-05-22T08:20:12Z</time>
      </trkpt>
      <trkpt lat="43.34811" lon="6.40634">
        <ele>98.599998474121</ele>
        <time>2021-05-22T08:20:13Z</time>
      </trkpt>
      <trkpt lat="43.34819" lon="6.40626">
        <ele>99</ele>
        <time>2021-05-22T08:20:15Z</time>
      </trkpt>
      <trkpt lat="43.34826" lon="6.40619">
        <ele>98.800003051758</ele>
        <time>2021-05-22T08:20:17Z</time>
      </trkpt>
      <trkpt lat="43.34838" lon="6.40604">
        <ele>98.599998474121</ele>
        <time>2021-05-22T08:20:21Z</time>
      </trkpt>
      <trkpt lat="43.34841" lon="6.40601">
        <ele>98.599998474121</ele>
        <time>2021-05-22T08:20:22Z</time>
      </trkpt>
      <trkpt lat="43.34848" lon="6.40595">
        <ele>98.400001525879</ele>
        <time>2021-05-22T08:20:24Z</time>
      </trkpt>
      <trkpt lat="43.34851" lon="6.40591">
        <ele>98.199996948242</ele>
        <time>2021-05-22T08:20:25Z</time>
      </trkpt>
      <trkpt lat="43.34856" lon="6.40583">
        <ele>98.400001525879</ele>
        <time>2021-05-22T08:20:27Z</time>
      </trkpt>
      <trkpt lat="43.34864" lon="6.40574">
        <ele>98.400001525879</ele>
        <time>2021-05-22T08:20:29Z</time>
      </trkpt>
      <trkpt lat="43.34872" lon="6.40567">
        <ele>98.400001525879</ele>
        <time>2021-05-22T08:20:31Z</time>
      </trkpt>
      <trkpt lat="43.34876" lon="6.40564">
        <ele>98.599998474121</ele>
        <time>2021-05-22T08:20:32Z</time>
      </trkpt>
      <trkpt lat="43.3488" lon="6.4056">
        <ele>98.400001525879</ele>
        <time>2021-05-22T08:20:33Z</time>
      </trkpt>
      <trkpt lat="43.34887" lon="6.40552">
        <ele>98.599998474121</ele>
        <time>2021-05-22T08:20:35Z</time>
      </trkpt>
      <trkpt lat="43.3489" lon="6.40548">
        <ele>98.599998474121</ele>
        <time>2021-05-22T08:20:36Z</time>
      </trkpt>
      <trkpt lat="43.34893" lon="6.40544">
        <ele>98.400001525879</ele>
        <time>2021-05-22T08:20:37Z</time>
      </trkpt>
      <trkpt lat="43.34894" lon="6.40539">
        <ele>98.400001525879</ele>
        <time>2021-05-22T08:20:38Z</time>
      </trkpt>
      <trkpt lat="43.34894" lon="6.40534">
        <ele>98.199996948242</ele>
        <time>2021-05-22T08:20:39Z</time>
      </trkpt>
      <trkpt lat="43.34894" lon="6.40529">
        <ele>98.199996948242</ele>
        <time>2021-05-22T08:20:40Z</time>
      </trkpt>
      <trkpt lat="43.34894" lon="6.40525">
        <ele>98.400001525879</ele>
        <time>2021-05-22T08:20:41Z</time>
      </trkpt>
      <trkpt lat="43.34893" lon="6.4052">
        <ele>98.400001525879</ele>
        <time>2021-05-22T08:20:42Z</time>
      </trkpt>
      <trkpt lat="43.34891" lon="6.40516">
        <ele>98.400001525879</ele>
        <time>2021-05-22T08:20:43Z</time>
      </trkpt>
      <trkpt lat="43.34881" lon="6.40513">
        <ele>98.400001525879</ele>
        <time>2021-05-22T08:20:46Z</time>
      </trkpt>
      <trkpt lat="43.34877" lon="6.40513">
        <ele>98.400001525879</ele>
        <time>2021-05-22T08:20:47Z</time>
      </trkpt>
      <trkpt lat="43.34864" lon="6.40514">
        <ele>98.400001525879</ele>
        <time>2021-05-22T08:20:50Z</time>
      </trkpt>
      <trkpt lat="43.3486" lon="6.40514">
        <ele>98.400001525879</ele>
        <time>2021-05-22T08:20:51Z</time>
      </trkpt>
      <trkpt lat="43.34852" lon="6.40514">
        <ele>98.400001525879</ele>
        <time>2021-05-22T08:20:53Z</time>
      </trkpt>
      <trkpt lat="43.34848" lon="6.40513">
        <ele>98.400001525879</ele>
        <time>2021-05-22T08:20:54Z</time>
      </trkpt>
      <trkpt lat="43.34839" lon="6.40514">
        <ele>98.599998474121</ele>
        <time>2021-05-22T08:20:56Z</time>
      </trkpt>
      <trkpt lat="43.34835" lon="6.40514">
        <ele>98.599998474121</ele>
        <time>2021-05-22T08:20:57Z</time>
      </trkpt>
      <trkpt lat="43.34819" lon="6.40517">
        <ele>99</ele>
        <time>2021-05-22T08:21:01Z</time>
      </trkpt>
      <trkpt lat="43.34815" lon="6.40519">
        <ele>99</ele>
        <time>2021-05-22T08:21:02Z</time>
      </trkpt>
      <trkpt lat="43.34808" lon="6.40519">
        <ele>99</ele>
        <time>2021-05-22T08:21:04Z</time>
      </trkpt>
      <trkpt lat="43.34807" lon="6.4052">
        <ele>99</ele>
        <time>2021-05-22T08:21:05Z</time>
      </trkpt>
      <trkpt lat="43.34474" lon="6.40542">
        <ele>102.40000152588</ele>
        <time>2021-05-22T08:22:56Z</time>
      </trkpt>
      <trkpt lat="43.34471" lon="6.40542">
        <ele>102.40000152588</ele>
        <time>2021-05-22T08:22:57Z</time>
      </trkpt>
      <trkpt lat="43.34448" lon="6.40544">
        <ele>103</ele>
        <time>2021-05-22T08:23:03Z</time>
      </trkpt>
      <trkpt lat="43.34431" lon="6.40553">
        <ele>103.40000152588</ele>
        <time>2021-05-22T08:23:08Z</time>
      </trkpt>
      <trkpt lat="43.34427" lon="6.40553">
        <ele>103.59999847412</ele>
        <time>2021-05-22T08:23:09Z</time>
      </trkpt>
      <trkpt lat="43.34407" lon="6.40556">
        <ele>103.80000305176</ele>
        <time>2021-05-22T08:23:14Z</time>
      </trkpt>
      <trkpt lat="43.34399" lon="6.40556">
        <ele>103.80000305176</ele>
        <time>2021-05-22T08:23:16Z</time>
      </trkpt>
      <trkpt lat="43.34366" lon="6.40559">
        <ele>104.19999694824</ele>
        <time>2021-05-22T08:23:24Z</time>
      </trkpt>
      <trkpt lat="43.34333" lon="6.40566">
        <ele>104.40000152588</ele>
        <time>2021-05-22T08:23:32Z</time>
      </trkpt>
      <trkpt lat="43.34324" lon="6.40567">
        <ele>104.40000152588</ele>
        <time>2021-05-22T08:23:34Z</time>
      </trkpt>
      <trkpt lat="43.34311" lon="6.40569">
        <ele>104.59999847412</ele>
        <time>2021-05-22T08:23:37Z</time>
      </trkpt>
      <trkpt lat="43.34281" lon="6.4057">
        <ele>104.59999847412</ele>
        <time>2021-05-22T08:23:44Z</time>
      </trkpt>
      <trkpt lat="43.34247" lon="6.40568">
        <ele>104.80000305176</ele>
        <time>2021-05-22T08:23:52Z</time>
      </trkpt>
      <trkpt lat="43.34242" lon="6.40568">
        <ele>104.80000305176</ele>
        <time>2021-05-22T08:23:53Z</time>
      </trkpt>
      <trkpt lat="43.34234" lon="6.40566">
        <ele>105</ele>
        <time>2021-05-22T08:23:55Z</time>
      </trkpt>
      <trkpt lat="43.34225" lon="6.40566">
        <ele>105</ele>
        <time>2021-05-22T08:23:57Z</time>
      </trkpt>
      <trkpt lat="43.34204" lon="6.40565">
        <ele>105.19999694824</ele>
        <time>2021-05-22T08:24:02Z</time>
      </trkpt>
      <trkpt lat="43.34196" lon="6.40565">
        <ele>105.40000152588</ele>
        <time>2021-05-22T08:24:04Z</time>
      </trkpt>
      <trkpt lat="43.34187" lon="6.40561">
        <ele>105.59999847412</ele>
        <time>2021-05-22T08:24:06Z</time>
      </trkpt>
      <trkpt lat="43.34175" lon="6.40556">
        <ele>105.80000305176</ele>
        <time>2021-05-22T08:24:09Z</time>
      </trkpt>
      <trkpt lat="43.34172" lon="6.40555">
        <ele>105.80000305176</ele>
        <time>2021-05-22T08:24:10Z</time>
      </trkpt>
      <trkpt lat="43.34151" lon="6.4055">
        <ele>105.80000305176</ele>
        <time>2021-05-22T08:24:15Z</time>
      </trkpt>
      <trkpt lat="43.34122" lon="6.4054">
        <ele>106</ele>
        <time>2021-05-22T08:24:22Z</time>
      </trkpt>
      <trkpt lat="43.34118" lon="6.4054">
        <ele>106</ele>
        <time>2021-05-22T08:24:23Z</time>
      </trkpt>
      <trkpt lat="43.3411" lon="6.40541">
        <ele>106</ele>
        <time>2021-05-22T08:24:25Z</time>
      </trkpt>
      <trkpt lat="43.34102" lon="6.40543">
        <ele>106.19999694824</ele>
        <time>2021-05-22T08:24:27Z</time>
      </trkpt>
      <trkpt lat="43.34081" lon="6.4054">
        <ele>106.59999847412</ele>
        <time>2021-05-22T08:24:32Z</time>
      </trkpt>
      <trkpt lat="43.34063" lon="6.40531">
        <ele>107.19999694824</ele>
        <time>2021-05-22T08:24:37Z</time>
      </trkpt>
      <trkpt lat="43.3404" lon="6.40524">
        <ele>107.59999847412</ele>
        <time>2021-05-22T08:24:43Z</time>
      </trkpt>
      <trkpt lat="43.34022" lon="6.40529">
        <ele>107.40000152588</ele>
        <time>2021-05-22T08:24:48Z</time>
      </trkpt>
      <trkpt lat="43.34006" lon="6.40533">
        <ele>107.59999847412</ele>
        <time>2021-05-22T08:24:53Z</time>
      </trkpt>
      <trkpt lat="43.33996" lon="6.40535">
        <ele>107.80000305176</ele>
        <time>2021-05-22T08:24:56Z</time>
      </trkpt>
      <trkpt lat="43.33983" lon="6.4054">
        <ele>108.19999694824</ele>
        <time>2021-05-22T08:25:01Z</time>
      </trkpt>
      <trkpt lat="43.33969" lon="6.4054">
        <ele>108.59999847412</ele>
        <time>2021-05-22T08:25:06Z</time>
      </trkpt>
      <trkpt lat="43.33963" lon="6.40539">
        <ele>109</ele>
        <time>2021-05-22T08:25:08Z</time>
      </trkpt>
      <trkpt lat="43.33939" lon="6.40533">
        <ele>109.59999847412</ele>
        <time>2021-05-22T08:25:15Z</time>
      </trkpt>
      <trkpt lat="43.33935" lon="6.40532">
        <ele>109.59999847412</ele>
        <time>2021-05-22T08:25:16Z</time>
      </trkpt>
      <trkpt lat="43.33928" lon="6.40532">
        <ele>109.80000305176</ele>
        <time>2021-05-22T08:25:18Z</time>
      </trkpt>
      <trkpt lat="43.3391" lon="6.40531">
        <ele>110.19999694824</ele>
        <time>2021-05-22T08:25:23Z</time>
      </trkpt>
      <trkpt lat="43.33886" lon="6.40525">
        <ele>111</ele>
        <time>2021-05-22T08:25:30Z</time>
      </trkpt>
      <trkpt lat="43.33882" lon="6.40525">
        <ele>111</ele>
        <time>2021-05-22T08:25:31Z</time>
      </trkpt>
      <trkpt lat="43.33863" lon="6.40524">
        <ele>111.40000152588</ele>
        <time>2021-05-22T08:25:36Z</time>
      </trkpt>
      <trkpt lat="43.33859" lon="6.40525">
        <ele>111.59999847412</ele>
        <time>2021-05-22T08:25:37Z</time>
      </trkpt>
      <trkpt lat="43.33837" lon="6.40525">
        <ele>112</ele>
        <time>2021-05-22T08:25:43Z</time>
      </trkpt>
      <trkpt lat="43.33833" lon="6.40524">
        <ele>112.19999694824</ele>
        <time>2021-05-22T08:25:44Z</time>
      </trkpt>
      <trkpt lat="43.33793" lon="6.40508">
        <ele>113</ele>
        <time>2021-05-22T08:25:55Z</time>
      </trkpt>
      <trkpt lat="43.33786" lon="6.40505">
        <ele>113.19999694824</ele>
        <time>2021-05-22T08:25:57Z</time>
      </trkpt>
      <trkpt lat="43.33768" lon="6.40498">
        <ele>113.59999847412</ele>
        <time>2021-05-22T08:26:02Z</time>
      </trkpt>
      <trkpt lat="43.33741" lon="6.40499">
        <ele>114</ele>
        <time>2021-05-22T08:26:09Z</time>
      </trkpt>
      <trkpt lat="43.33731" lon="6.40502">
        <ele>114.19999694824</ele>
        <time>2021-05-22T08:26:12Z</time>
      </trkpt>
      <trkpt lat="43.33719" lon="6.40503">
        <ele>114.59999847412</ele>
        <time>2021-05-22T08:26:15Z</time>
      </trkpt>
      <trkpt lat="43.33711" lon="6.40501">
        <ele>114.80000305176</ele>
        <time>2021-05-22T08:26:17Z</time>
      </trkpt>
      <trkpt lat="43.33707" lon="6.40501">
        <ele>114.80000305176</ele>
        <time>2021-05-22T08:26:18Z</time>
      </trkpt>
      <trkpt lat="43.33699" lon="6.40503">
        <ele>114.80000305176</ele>
        <time>2021-05-22T08:26:20Z</time>
      </trkpt>
      <trkpt lat="43.33683" lon="6.40505">
        <ele>114.80000305176</ele>
        <time>2021-05-22T08:26:24Z</time>
      </trkpt>
      <trkpt lat="43.33679" lon="6.40507">
        <ele>114.80000305176</ele>
        <time>2021-05-22T08:26:25Z</time>
      </trkpt>
      <trkpt lat="43.33664" lon="6.40515">
        <ele>114.80000305176</ele>
        <time>2021-05-22T08:26:29Z</time>
      </trkpt>
      <trkpt lat="43.33656" lon="6.40518">
        <ele>115</ele>
        <time>2021-05-22T08:26:31Z</time>
      </trkpt>
      <trkpt lat="43.33648" lon="6.40521">
        <ele>115</ele>
        <time>2021-05-22T08:26:33Z</time>
      </trkpt>
      <trkpt lat="43.33644" lon="6.40522">
        <ele>115.19999694824</ele>
        <time>2021-05-22T08:26:34Z</time>
      </trkpt>
      <trkpt lat="43.33624" lon="6.40525">
        <ele>115.59999847412</ele>
        <time>2021-05-22T08:26:39Z</time>
      </trkpt>
      <trkpt lat="43.3362" lon="6.40525">
        <ele>115.59999847412</ele>
        <time>2021-05-22T08:26:40Z</time>
      </trkpt>
      <trkpt lat="43.33617" lon="6.40526">
        <ele>115.59999847412</ele>
        <time>2021-05-22T08:26:41Z</time>
      </trkpt>
      <trkpt lat="43.33598" lon="6.40529">
        <ele>115.80000305176</ele>
        <time>2021-05-22T08:26:47Z</time>
      </trkpt>
      <trkpt lat="43.33588" lon="6.40534">
        <ele>116</ele>
        <time>2021-05-22T08:26:50Z</time>
      </trkpt>
      <trkpt lat="43.33583" lon="6.40538">
        <ele>116</ele>
        <time>2021-05-22T08:26:52Z</time>
      </trkpt>
      <trkpt lat="43.33577" lon="6.40542">
        <ele>116</ele>
        <time>2021-05-22T08:26:54Z</time>
      </trkpt>
      <trkpt lat="43.33565" lon="6.40547">
        <ele>116.19999694824</ele>
        <time>2021-05-22T08:26:58Z</time>
      </trkpt>
      <trkpt lat="43.33556" lon="6.40553">
        <ele>116.40000152588</ele>
        <time>2021-05-22T08:27:01Z</time>
      </trkpt>
      <trkpt lat="43.33539" lon="6.4056">
        <ele>116.80000305176</ele>
        <time>2021-05-22T08:27:06Z</time>
      </trkpt>
      <trkpt lat="43.33537" lon="6.40563">
        <ele>116.80000305176</ele>
        <time>2021-05-22T08:27:07Z</time>
      </trkpt>
      <trkpt lat="43.33533" lon="6.40569">
        <ele>116.80000305176</ele>
        <time>2021-05-22T08:27:09Z</time>
      </trkpt>
      <trkpt lat="43.33529" lon="6.40571">
        <ele>116.80000305176</ele>
        <time>2021-05-22T08:27:10Z</time>
      </trkpt>
      <trkpt lat="43.33516" lon="6.40579">
        <ele>116.59999847412</ele>
        <time>2021-05-22T08:27:15Z</time>
      </trkpt>
      <trkpt lat="43.3351" lon="6.40583">
        <ele>116.59999847412</ele>
        <time>2021-05-22T08:27:18Z</time>
      </trkpt>
      <trkpt lat="43.33508" lon="6.40582">
        <ele>116.59999847412</ele>
        <time>2021-05-22T08:27:19Z</time>
      </trkpt>
      <trkpt lat="43.33481" lon="6.40562">
        <ele>116.80000305176</ele>
        <time>2021-05-22T08:27:29Z</time>
      </trkpt>
      <trkpt lat="43.33448" lon="6.40555">
        <ele>117.19999694824</ele>
        <time>2021-05-22T08:27:39Z</time>
      </trkpt>
      <trkpt lat="43.33434" lon="6.40554">
        <ele>117.40000152588</ele>
        <time>2021-05-22T08:27:43Z</time>
      </trkpt>
      <trkpt lat="43.33424" lon="6.40556">
        <ele>117.80000305176</ele>
        <time>2021-05-22T08:27:46Z</time>
      </trkpt>
      <trkpt lat="43.33407" lon="6.40553">
        <ele>118</ele>
        <time>2021-05-22T08:27:51Z</time>
      </trkpt>
      <trkpt lat="43.33389" lon="6.40548">
        <ele>118.40000152588</ele>
        <time>2021-05-22T08:27:57Z</time>
      </trkpt>
      <trkpt lat="43.3338" lon="6.40548">
        <ele>118.40000152588</ele>
        <time>2021-05-22T08:28:00Z</time>
      </trkpt>
      <trkpt lat="43.33365" lon="6.40544">
        <ele>119</ele>
        <time>2021-05-22T08:28:05Z</time>
      </trkpt>
      <trkpt lat="43.33356" lon="6.40541">
        <ele>119.40000152588</ele>
        <time>2021-05-22T08:28:08Z</time>
      </trkpt>
      <trkpt lat="43.33353" lon="6.4054">
        <ele>119.40000152588</ele>
        <time>2021-05-22T08:28:09Z</time>
      </trkpt>
      <trkpt lat="43.3335" lon="6.40539">
        <ele>119.40000152588</ele>
        <time>2021-05-22T08:28:10Z</time>
      </trkpt>
      <trkpt lat="43.33344" lon="6.40537">
        <ele>119.59999847412</ele>
        <time>2021-05-22T08:28:12Z</time>
      </trkpt>
      <trkpt lat="43.33333" lon="6.40533">
        <ele>120</ele>
        <time>2021-05-22T08:28:16Z</time>
      </trkpt>
      <trkpt lat="43.33326" lon="6.40531">
        <ele>120.59999847412</ele>
        <time>2021-05-22T08:28:19Z</time>
      </trkpt>
      <trkpt lat="43.33323" lon="6.4053">
        <ele>120.59999847412</ele>
        <time>2021-05-22T08:28:20Z</time>
      </trkpt>
      <trkpt lat="43.33297" lon="6.40522">
        <ele>121.19999694824</ele>
        <time>2021-05-22T08:28:29Z</time>
      </trkpt>
      <trkpt lat="43.33275" lon="6.40516">
        <ele>121.59999847412</ele>
        <time>2021-05-22T08:28:36Z</time>
      </trkpt>
      <trkpt lat="43.33269" lon="6.40515">
        <ele>121.59999847412</ele>
        <time>2021-05-22T08:28:38Z</time>
      </trkpt>
      <trkpt lat="43.33257" lon="6.40511">
        <ele>122.19999694824</ele>
        <time>2021-05-22T08:28:42Z</time>
      </trkpt>
      <trkpt lat="43.33239" lon="6.40503">
        <ele>122.40000152588</ele>
        <time>2021-05-22T08:28:48Z</time>
      </trkpt>
      <trkpt lat="43.33214" lon="6.4049">
        <ele>122.80000305176</ele>
        <time>2021-05-22T08:28:56Z</time>
      </trkpt>
      <trkpt lat="43.33211" lon="6.40488">
        <ele>123</ele>
        <time>2021-05-22T08:28:57Z</time>
      </trkpt>
      <trkpt lat="43.33207" lon="6.40485">
        <ele>123.40000152588</ele>
        <time>2021-05-22T08:28:59Z</time>
      </trkpt>
      <trkpt lat="43.33202" lon="6.40484">
        <ele>124</ele>
        <time>2021-05-22T08:29:01Z</time>
      </trkpt>
      <trkpt lat="43.33199" lon="6.40484">
        <ele>124.19999694824</ele>
        <time>2021-05-22T08:29:02Z</time>
      </trkpt>
      <trkpt lat="43.33178" lon="6.40484">
        <ele>124.80000305176</ele>
        <time>2021-05-22T08:29:09Z</time>
      </trkpt>
      <trkpt lat="43.33167" lon="6.40482">
        <ele>125.19999694824</ele>
        <time>2021-05-22T08:29:13Z</time>
      </trkpt>
      <trkpt lat="43.33158" lon="6.40481">
        <ele>125.40000152588</ele>
        <time>2021-05-22T08:29:16Z</time>
      </trkpt>
      <trkpt lat="43.33132" lon="6.40482">
        <ele>126.19999694824</ele>
        <time>2021-05-22T08:29:24Z</time>
      </trkpt>
      <trkpt lat="43.33129" lon="6.40482">
        <ele>126.19999694824</ele>
        <time>2021-05-22T08:29:25Z</time>
      </trkpt>
      <trkpt lat="43.33107" lon="6.40483">
        <ele>126.40000152588</ele>
        <time>2021-05-22T08:29:32Z</time>
      </trkpt>
      <trkpt lat="43.33087" lon="6.40486">
        <ele>126.59999847412</ele>
        <time>2021-05-22T08:29:38Z</time>
      </trkpt>
      <trkpt lat="43.33074" lon="6.40486">
        <ele>126.80000305176</ele>
        <time>2021-05-22T08:29:42Z</time>
      </trkpt>
      <trkpt lat="43.3306" lon="6.40484">
        <ele>127</ele>
        <time>2021-05-22T08:29:46Z</time>
      </trkpt>
      <trkpt lat="43.33047" lon="6.40482">
        <ele>127.40000152588</ele>
        <time>2021-05-22T08:29:50Z</time>
      </trkpt>
      <trkpt lat="43.33037" lon="6.40481">
        <ele>127.59999847412</ele>
        <time>2021-05-22T08:29:53Z</time>
      </trkpt>
      <trkpt lat="43.33013" lon="6.4048">
        <ele>128</ele>
        <time>2021-05-22T08:30:01Z</time>
      </trkpt>
      <trkpt lat="43.33003" lon="6.40479">
        <ele>128.39999389648</ele>
        <time>2021-05-22T08:30:04Z</time>
      </trkpt>
      <trkpt lat="43.3299" lon="6.40478">
        <ele>128.80000305176</ele>
        <time>2021-05-22T08:30:08Z</time>
      </trkpt>
      <trkpt lat="43.32975" lon="6.40485">
        <ele>129.19999694824</ele>
        <time>2021-05-22T08:30:13Z</time>
      </trkpt>
      <trkpt lat="43.32965" lon="6.40486">
        <ele>129.39999389648</ele>
        <time>2021-05-22T08:30:16Z</time>
      </trkpt>
      <trkpt lat="43.32954" lon="6.40486">
        <ele>129.80000305176</ele>
        <time>2021-05-22T08:30:19Z</time>
      </trkpt>
      <trkpt lat="43.32924" lon="6.40483">
        <ele>130.39999389648</ele>
        <time>2021-05-22T08:30:28Z</time>
      </trkpt>
      <trkpt lat="43.32922" lon="6.40481">
        <ele>130.39999389648</ele>
        <time>2021-05-22T08:30:29Z</time>
      </trkpt>
      <trkpt lat="43.32917" lon="6.40473">
        <ele>130.80000305176</ele>
        <time>2021-05-22T08:30:31Z</time>
      </trkpt>
      <trkpt lat="43.32908" lon="6.40465">
        <ele>130.80000305176</ele>
        <time>2021-05-22T08:30:34Z</time>
      </trkpt>
      <trkpt lat="43.32904" lon="6.40465">
        <ele>131</ele>
        <time>2021-05-22T08:30:35Z</time>
      </trkpt>
      <trkpt lat="43.32876" lon="6.40467">
        <ele>131</ele>
        <time>2021-05-22T08:30:42Z</time>
      </trkpt>
      <trkpt lat="43.32866" lon="6.40466">
        <ele>131.19999694824</ele>
        <time>2021-05-22T08:30:44Z</time>
      </trkpt>
      <trkpt lat="43.32857" lon="6.40467">
        <ele>131</ele>
        <time>2021-05-22T08:30:46Z</time>
      </trkpt>
      <trkpt lat="43.32844" lon="6.40463">
        <ele>131</ele>
        <time>2021-05-22T08:30:49Z</time>
      </trkpt>
      <trkpt lat="43.32839" lon="6.40461">
        <ele>131</ele>
        <time>2021-05-22T08:30:50Z</time>
      </trkpt>
      <trkpt lat="43.32823" lon="6.40451">
        <ele>131</ele>
        <time>2021-05-22T08:30:54Z</time>
      </trkpt>
      <trkpt lat="43.32819" lon="6.40448">
        <ele>131</ele>
        <time>2021-05-22T08:30:55Z</time>
      </trkpt>
      <trkpt lat="43.32796" lon="6.40428">
        <ele>131.19999694824</ele>
        <time>2021-05-22T08:31:01Z</time>
      </trkpt>
      <trkpt lat="43.32784" lon="6.40421">
        <ele>131.19999694824</ele>
        <time>2021-05-22T08:31:04Z</time>
      </trkpt>
      <trkpt lat="43.32769" lon="6.40409">
        <ele>131.19999694824</ele>
        <time>2021-05-22T08:31:08Z</time>
      </trkpt>
      <trkpt lat="43.32762" lon="6.40401">
        <ele>131.19999694824</ele>
        <time>2021-05-22T08:31:10Z</time>
      </trkpt>
      <trkpt lat="43.32755" lon="6.40395">
        <ele>131.19999694824</ele>
        <time>2021-05-22T08:31:12Z</time>
      </trkpt>
      <trkpt lat="43.32739" lon="6.40381">
        <ele>131.19999694824</ele>
        <time>2021-05-22T08:31:16Z</time>
      </trkpt>
      <trkpt lat="43.32731" lon="6.40377">
        <ele>131.19999694824</ele>
        <time>2021-05-22T08:31:18Z</time>
      </trkpt>
      <trkpt lat="43.32727" lon="6.40374">
        <ele>131</ele>
        <time>2021-05-22T08:31:19Z</time>
      </trkpt>
      <trkpt lat="43.32723" lon="6.40371">
        <ele>131</ele>
        <time>2021-05-22T08:31:20Z</time>
      </trkpt>
      <trkpt lat="43.32715" lon="6.40365">
        <ele>130.80000305176</ele>
        <time>2021-05-22T08:31:22Z</time>
      </trkpt>
      <trkpt lat="43.32708" lon="6.40357">
        <ele>130.80000305176</ele>
        <time>2021-05-22T08:31:24Z</time>
      </trkpt>
      <trkpt lat="43.32704" lon="6.40354">
        <ele>130.80000305176</ele>
        <time>2021-05-22T08:31:25Z</time>
      </trkpt>
      <trkpt lat="43.32697" lon="6.4035">
        <ele>130.80000305176</ele>
        <time>2021-05-22T08:31:27Z</time>
      </trkpt>
      <trkpt lat="43.32693" lon="6.40347">
        <ele>130.80000305176</ele>
        <time>2021-05-22T08:31:28Z</time>
      </trkpt>
      <trkpt lat="43.3268" lon="6.40339">
        <ele>131</ele>
        <time>2021-05-22T08:31:32Z</time>
      </trkpt>
      <trkpt lat="43.32673" lon="6.40339">
        <ele>131</ele>
        <time>2021-05-22T08:31:35Z</time>
      </trkpt>
      <trkpt lat="43.32671" lon="6.40349">
        <ele>130.80000305176</ele>
        <time>2021-05-22T08:31:37Z</time>
      </trkpt>
      <trkpt lat="43.32671" lon="6.40355">
        <ele>130.80000305176</ele>
        <time>2021-05-22T08:31:38Z</time>
      </trkpt>
      <trkpt lat="43.3267" lon="6.40383">
        <ele>130.80000305176</ele>
        <time>2021-05-22T08:31:42Z</time>
      </trkpt>
      <trkpt lat="43.3267" lon="6.40391">
        <ele>130.80000305176</ele>
        <time>2021-05-22T08:31:43Z</time>
      </trkpt>
      <trkpt lat="43.32669" lon="6.40438">
        <ele>131</ele>
        <time>2021-05-22T08:31:49Z</time>
      </trkpt>
      <trkpt lat="43.32668" lon="6.40503">
        <ele>130.80000305176</ele>
        <time>2021-05-22T08:31:57Z</time>
      </trkpt>
      <trkpt lat="43.3267" lon="6.40536">
        <ele>130.60000610352</ele>
        <time>2021-05-22T08:32:01Z</time>
      </trkpt>
      <trkpt lat="43.32673" lon="6.40561">
        <ele>130.60000610352</ele>
        <time>2021-05-22T08:32:04Z</time>
      </trkpt>
      <trkpt lat="43.32686" lon="6.40609">
        <ele>130.60000610352</ele>
        <time>2021-05-22T08:32:10Z</time>
      </trkpt>
      <trkpt lat="43.32693" lon="6.40624">
        <ele>130.60000610352</ele>
        <time>2021-05-22T08:32:12Z</time>
      </trkpt>
      <trkpt lat="43.3272" lon="6.40685">
        <ele>130.19999694824</ele>
        <time>2021-05-22T08:32:20Z</time>
      </trkpt>
      <trkpt lat="43.3274" lon="6.40728">
        <ele>130.19999694824</ele>
        <time>2021-05-22T08:32:26Z</time>
      </trkpt>
      <trkpt lat="43.32752" lon="6.40756">
        <ele>130.19999694824</ele>
        <time>2021-05-22T08:32:30Z</time>
      </trkpt>
      <trkpt lat="43.32758" lon="6.4077">
        <ele>130.19999694824</ele>
        <time>2021-05-22T08:32:32Z</time>
      </trkpt>
      <trkpt lat="43.32761" lon="6.40776">
        <ele>130.19999694824</ele>
        <time>2021-05-22T08:32:33Z</time>
      </trkpt>
      <trkpt lat="43.32769" lon="6.408">
        <ele>130.19999694824</ele>
        <time>2021-05-22T08:32:36Z</time>
      </trkpt>
      <trkpt lat="43.32774" lon="6.40823">
        <ele>130.19999694824</ele>
        <time>2021-05-22T08:32:39Z</time>
      </trkpt>
      <trkpt lat="43.32779" lon="6.40853">
        <ele>130.39999389648</ele>
        <time>2021-05-22T08:32:43Z</time>
      </trkpt>
      <trkpt lat="43.32784" lon="6.40883">
        <ele>130.60000610352</ele>
        <time>2021-05-22T08:32:47Z</time>
      </trkpt>
      <trkpt lat="43.3279" lon="6.40917">
        <ele>131</ele>
        <time>2021-05-22T08:32:52Z</time>
      </trkpt>
      <trkpt lat="43.32793" lon="6.4093">
        <ele>131.19999694824</ele>
        <time>2021-05-22T08:32:54Z</time>
      </trkpt>
      <trkpt lat="43.32795" lon="6.40937">
        <ele>131.39999389648</ele>
        <time>2021-05-22T08:32:55Z</time>
      </trkpt>
      <trkpt lat="43.32804" lon="6.40994">
        <ele>132</ele>
        <time>2021-05-22T08:33:03Z</time>
      </trkpt>
      <trkpt lat="43.32815" lon="6.41056">
        <ele>132</ele>
        <time>2021-05-22T08:33:11Z</time>
      </trkpt>
      <trkpt lat="43.32828" lon="6.41124">
        <ele>131.39999389648</ele>
        <time>2021-05-22T08:33:19Z</time>
      </trkpt>
      <trkpt lat="43.32835" lon="6.41142">
        <ele>131.19999694824</ele>
        <time>2021-05-22T08:33:21Z</time>
      </trkpt>
      <trkpt lat="43.32844" lon="6.41159">
        <ele>131.19999694824</ele>
        <time>2021-05-22T08:33:23Z</time>
      </trkpt>
      <trkpt lat="43.32855" lon="6.41174">
        <ele>130.80000305176</ele>
        <time>2021-05-22T08:33:25Z</time>
      </trkpt>
      <trkpt lat="43.32868" lon="6.41188">
        <ele>130.60000610352</ele>
        <time>2021-05-22T08:33:27Z</time>
      </trkpt>
      <trkpt lat="43.32875" lon="6.41195">
        <ele>130.19999694824</ele>
        <time>2021-05-22T08:33:28Z</time>
      </trkpt>
      <trkpt lat="43.32903" lon="6.41226">
        <ele>129.19999694824</ele>
        <time>2021-05-22T08:33:32Z</time>
      </trkpt>
      <trkpt lat="43.32911" lon="6.41234">
        <ele>129</ele>
        <time>2021-05-22T08:33:33Z</time>
      </trkpt>
      <trkpt lat="43.3294" lon="6.41265">
        <ele>128</ele>
        <time>2021-05-22T08:33:37Z</time>
      </trkpt>
      <trkpt lat="43.3298" lon="6.41305">
        <ele>126.80000305176</ele>
        <time>2021-05-22T08:33:42Z</time>
      </trkpt>
      <trkpt lat="43.33018" lon="6.41346">
        <ele>125.80000305176</ele>
        <time>2021-05-22T08:33:47Z</time>
      </trkpt>
      <trkpt lat="43.33041" lon="6.41368">
        <ele>125.40000152588</ele>
        <time>2021-05-22T08:33:50Z</time>
      </trkpt>
      <trkpt lat="43.33076" lon="6.41406">
        <ele>124.59999847412</ele>
        <time>2021-05-22T08:33:55Z</time>
      </trkpt>
      <trkpt lat="43.33083" lon="6.41414">
        <ele>124.40000152588</ele>
        <time>2021-05-22T08:33:56Z</time>
      </trkpt>
      <trkpt lat="43.33111" lon="6.41443">
        <ele>123.80000305176</ele>
        <time>2021-05-22T08:34:00Z</time>
      </trkpt>
      <trkpt lat="43.33118" lon="6.41451">
        <ele>123.59999847412</ele>
        <time>2021-05-22T08:34:01Z</time>
      </trkpt>
      <trkpt lat="43.33131" lon="6.41465">
        <ele>123.19999694824</ele>
        <time>2021-05-22T08:34:03Z</time>
      </trkpt>
      <trkpt lat="43.33152" lon="6.41487">
        <ele>122.59999847412</ele>
        <time>2021-05-22T08:34:06Z</time>
      </trkpt>
      <trkpt lat="43.33179" lon="6.41515">
        <ele>122</ele>
        <time>2021-05-22T08:34:10Z</time>
      </trkpt>
      <trkpt lat="43.33191" lon="6.41532">
        <ele>121.59999847412</ele>
        <time>2021-05-22T08:34:12Z</time>
      </trkpt>
      <trkpt lat="43.33196" lon="6.41542">
        <ele>121.59999847412</ele>
        <time>2021-05-22T08:34:13Z</time>
      </trkpt>
      <trkpt lat="43.332" lon="6.41553">
        <ele>121.40000152588</ele>
        <time>2021-05-22T08:34:14Z</time>
      </trkpt>
      <trkpt lat="43.33201" lon="6.41577">
        <ele>120.80000305176</ele>
        <time>2021-05-22T08:34:16Z</time>
      </trkpt>
      <trkpt lat="43.33201" lon="6.41589">
        <ele>120.59999847412</ele>
        <time>2021-05-22T08:34:17Z</time>
      </trkpt>
      <trkpt lat="43.33199" lon="6.41601">
        <ele>120.40000152588</ele>
        <time>2021-05-22T08:34:18Z</time>
      </trkpt>
      <trkpt lat="43.33192" lon="6.4164">
        <ele>119</ele>
        <time>2021-05-22T08:34:21Z</time>
      </trkpt>
      <trkpt lat="43.3319" lon="6.41653">
        <ele>118.80000305176</ele>
        <time>2021-05-22T08:34:22Z</time>
      </trkpt>
      <trkpt lat="43.33185" lon="6.41693">
        <ele>117.40000152588</ele>
        <time>2021-05-22T08:34:25Z</time>
      </trkpt>
      <trkpt lat="43.3318" lon="6.41748">
        <ele>116.40000152588</ele>
        <time>2021-05-22T08:34:29Z</time>
      </trkpt>
      <trkpt lat="43.33181" lon="6.41791">
        <ele>115</ele>
        <time>2021-05-22T08:34:32Z</time>
      </trkpt>
      <trkpt lat="43.33183" lon="6.4182">
        <ele>114.19999694824</ele>
        <time>2021-05-22T08:34:34Z</time>
      </trkpt>
      <trkpt lat="43.33184" lon="6.41834">
        <ele>113.80000305176</ele>
        <time>2021-05-22T08:34:35Z</time>
      </trkpt>
      <trkpt lat="43.33186" lon="6.41861">
        <ele>113</ele>
        <time>2021-05-22T08:34:37Z</time>
      </trkpt>
      <trkpt lat="43.33188" lon="6.41888">
        <ele>112.59999847412</ele>
        <time>2021-05-22T08:34:39Z</time>
      </trkpt>
      <trkpt lat="43.33193" lon="6.41942">
        <ele>112</ele>
        <time>2021-05-22T08:34:43Z</time>
      </trkpt>
      <trkpt lat="43.33196" lon="6.41955">
        <ele>112</ele>
        <time>2021-05-22T08:34:44Z</time>
      </trkpt>
      <trkpt lat="43.33206" lon="6.41991">
        <ele>111.80000305176</ele>
        <time>2021-05-22T08:34:47Z</time>
      </trkpt>
      <trkpt lat="43.33216" lon="6.42025">
        <ele>111.59999847412</ele>
        <time>2021-05-22T08:34:50Z</time>
      </trkpt>
      <trkpt lat="43.33234" lon="6.42081">
        <ele>111.19999694824</ele>
        <time>2021-05-22T08:34:55Z</time>
      </trkpt>
      <trkpt lat="43.33257" lon="6.42157">
        <ele>111</ele>
        <time>2021-05-22T08:35:02Z</time>
      </trkpt>
      <trkpt lat="43.3326" lon="6.42168">
        <ele>111</ele>
        <time>2021-05-22T08:35:03Z</time>
      </trkpt>
      <trkpt lat="43.3327" lon="6.42199">
        <ele>111</ele>
        <time>2021-05-22T08:35:06Z</time>
      </trkpt>
      <trkpt lat="43.33284" lon="6.42238">
        <ele>111</ele>
        <time>2021-05-22T08:35:10Z</time>
      </trkpt>
      <trkpt lat="43.33288" lon="6.42248">
        <ele>111</ele>
        <time>2021-05-22T08:35:11Z</time>
      </trkpt>
      <trkpt lat="43.33304" lon="6.42273">
        <ele>110.59999847412</ele>
        <time>2021-05-22T08:35:14Z</time>
      </trkpt>
      <trkpt lat="43.3334" lon="6.42312">
        <ele>109.80000305176</ele>
        <time>2021-05-22T08:35:19Z</time>
      </trkpt>
      <trkpt lat="43.33348" lon="6.4232">
        <ele>109.40000152588</ele>
        <time>2021-05-22T08:35:20Z</time>
      </trkpt>
      <trkpt lat="43.33386" lon="6.42362">
        <ele>108.19999694824</ele>
        <time>2021-05-22T08:35:25Z</time>
      </trkpt>
      <trkpt lat="43.33409" lon="6.42386">
        <ele>107</ele>
        <time>2021-05-22T08:35:28Z</time>
      </trkpt>
      <trkpt lat="43.33453" lon="6.42437">
        <ele>105.40000152588</ele>
        <time>2021-05-22T08:35:34Z</time>
      </trkpt>
      <trkpt lat="43.33475" lon="6.42466">
        <ele>104</ele>
        <time>2021-05-22T08:35:37Z</time>
      </trkpt>
      <trkpt lat="43.3348" lon="6.42478">
        <ele>103.80000305176</ele>
        <time>2021-05-22T08:35:38Z</time>
      </trkpt>
      <trkpt lat="43.33485" lon="6.4249">
        <ele>103.40000152588</ele>
        <time>2021-05-22T08:35:39Z</time>
      </trkpt>
      <trkpt lat="43.33492" lon="6.42516">
        <ele>102.19999694824</ele>
        <time>2021-05-22T08:35:41Z</time>
      </trkpt>
      <trkpt lat="43.33495" lon="6.42528">
        <ele>102</ele>
        <time>2021-05-22T08:35:42Z</time>
      </trkpt>
      <trkpt lat="43.33499" lon="6.42553">
        <ele>101.19999694824</ele>
        <time>2021-05-22T08:35:44Z</time>
      </trkpt>
      <trkpt lat="43.33506" lon="6.42587">
        <ele>101</ele>
        <time>2021-05-22T08:35:47Z</time>
      </trkpt>
      <trkpt lat="43.33513" lon="6.42625">
        <ele>101</ele>
        <time>2021-05-22T08:35:51Z</time>
      </trkpt>
      <trkpt lat="43.33517" lon="6.42647">
        <ele>101.19999694824</ele>
        <time>2021-05-22T08:35:54Z</time>
      </trkpt>
      <trkpt lat="43.33518" lon="6.42659">
        <ele>101.59999847412</ele>
        <time>2021-05-22T08:35:56Z</time>
      </trkpt>
      <trkpt lat="43.33518" lon="6.42666">
        <ele>102.59999847412</ele>
        <time>2021-05-22T08:36:00Z</time>
      </trkpt>
      <trkpt lat="43.33519" lon="6.42674">
        <ele>102.80000305176</ele>
        <time>2021-05-22T08:36:08Z</time>
      </trkpt>
      <trkpt lat="43.33521" lon="6.42677">
        <ele>103</ele>
        <time>2021-05-22T08:36:09Z</time>
      </trkpt>
      <trkpt lat="43.33527" lon="6.42679">
        <ele>102.80000305176</ele>
        <time>2021-05-22T08:36:11Z</time>
      </trkpt>
      <trkpt lat="43.33552" lon="6.42684">
        <ele>103</ele>
        <time>2021-05-22T08:36:16Z</time>
      </trkpt>
      <trkpt lat="43.33597" lon="6.42693">
        <ele>103</ele>
        <time>2021-05-22T08:36:23Z</time>
      </trkpt>
      <trkpt lat="43.33657" lon="6.42705">
        <ele>102.59999847412</ele>
        <time>2021-05-22T08:36:31Z</time>
      </trkpt>
      <trkpt lat="43.33665" lon="6.42706">
        <ele>102.40000152588</ele>
        <time>2021-05-22T08:36:32Z</time>
      </trkpt>
      <trkpt lat="43.33697" lon="6.42712">
        <ele>102.19999694824</ele>
        <time>2021-05-22T08:36:36Z</time>
      </trkpt>
      <trkpt lat="43.33706" lon="6.42714">
        <ele>102</ele>
        <time>2021-05-22T08:36:37Z</time>
      </trkpt>
      <trkpt lat="43.33714" lon="6.42715">
        <ele>101.80000305176</ele>
        <time>2021-05-22T08:36:38Z</time>
      </trkpt>
      <trkpt lat="43.33723" lon="6.42717">
        <ele>101.80000305176</ele>
        <time>2021-05-22T08:36:39Z</time>
      </trkpt>
      <trkpt lat="43.33731" lon="6.42719">
        <ele>101.59999847412</ele>
        <time>2021-05-22T08:36:40Z</time>
      </trkpt>
      <trkpt lat="43.3374" lon="6.4272">
        <ele>101.80000305176</ele>
        <time>2021-05-22T08:36:41Z</time>
      </trkpt>
      <trkpt lat="43.33748" lon="6.42722">
        <ele>101.80000305176</ele>
        <time>2021-05-22T08:36:42Z</time>
      </trkpt>
      <trkpt lat="43.33765" lon="6.42726">
        <ele>101.40000152588</ele>
        <time>2021-05-22T08:36:44Z</time>
      </trkpt>
      <trkpt lat="43.33774" lon="6.42728">
        <ele>101.40000152588</ele>
        <time>2021-05-22T08:36:45Z</time>
      </trkpt>
      <trkpt lat="43.33792" lon="6.42732">
        <ele>101</ele>
        <time>2021-05-22T08:36:47Z</time>
      </trkpt>
      <trkpt lat="43.33819" lon="6.42737">
        <ele>100.19999694824</ele>
        <time>2021-05-22T08:36:50Z</time>
      </trkpt>
      <trkpt lat="43.33855" lon="6.42745">
        <ele>99.400001525879</ele>
        <time>2021-05-22T08:36:54Z</time>
      </trkpt>
      <trkpt lat="43.33865" lon="6.42746">
        <ele>99.199996948242</ele>
        <time>2021-05-22T08:36:55Z</time>
      </trkpt>
      <trkpt lat="43.33874" lon="6.42748">
        <ele>99</ele>
        <time>2021-05-22T08:36:56Z</time>
      </trkpt>
      <trkpt lat="43.33893" lon="6.42752">
        <ele>98.400001525879</ele>
        <time>2021-05-22T08:36:58Z</time>
      </trkpt>
      <trkpt lat="43.33902" lon="6.42754">
        <ele>98</ele>
        <time>2021-05-22T08:36:59Z</time>
      </trkpt>
      <trkpt lat="43.33941" lon="6.42762">
        <ele>97.199996948242</ele>
        <time>2021-05-22T08:37:03Z</time>
      </trkpt>
      <trkpt lat="43.33951" lon="6.42764">
        <ele>96.800003051758</ele>
        <time>2021-05-22T08:37:04Z</time>
      </trkpt>
      <trkpt lat="43.34007" lon="6.42775">
        <ele>96</ele>
        <time>2021-05-22T08:37:10Z</time>
      </trkpt>
      <trkpt lat="43.34025" lon="6.42779">
        <ele>95.800003051758</ele>
        <time>2021-05-22T08:37:12Z</time>
      </trkpt>
      <trkpt lat="43.34033" lon="6.42781">
        <ele>95.599998474121</ele>
        <time>2021-05-22T08:37:13Z</time>
      </trkpt>
      <trkpt lat="43.34078" lon="6.4279">
        <ele>94.599998474121</ele>
        <time>2021-05-22T08:37:18Z</time>
      </trkpt>
      <trkpt lat="43.34122" lon="6.42799">
        <ele>93.800003051758</ele>
        <time>2021-05-22T08:37:23Z</time>
      </trkpt>
      <trkpt lat="43.3414" lon="6.42802">
        <ele>93.400001525879</ele>
        <time>2021-05-22T08:37:25Z</time>
      </trkpt>
      <trkpt lat="43.34183" lon="6.42817">
        <ele>92.599998474121</ele>
        <time>2021-05-22T08:37:30Z</time>
      </trkpt>
      <trkpt lat="43.34191" lon="6.42822">
        <ele>92.400001525879</ele>
        <time>2021-05-22T08:37:31Z</time>
      </trkpt>
      <trkpt lat="43.34206" lon="6.42833">
        <ele>92.199996948242</ele>
        <time>2021-05-22T08:37:33Z</time>
      </trkpt>
      <trkpt lat="43.34212" lon="6.4284">
        <ele>92</ele>
        <time>2021-05-22T08:37:34Z</time>
      </trkpt>
      <trkpt lat="43.34216" lon="6.42849">
        <ele>91.800003051758</ele>
        <time>2021-05-22T08:37:35Z</time>
      </trkpt>
      <trkpt lat="43.34222" lon="6.42866">
        <ele>91.400001525879</ele>
        <time>2021-05-22T08:37:37Z</time>
      </trkpt>
      <trkpt lat="43.34226" lon="6.42874">
        <ele>91.199996948242</ele>
        <time>2021-05-22T08:37:38Z</time>
      </trkpt>
      <trkpt lat="43.34232" lon="6.4288">
        <ele>91</ele>
        <time>2021-05-22T08:37:39Z</time>
      </trkpt>
      <trkpt lat="43.34239" lon="6.42885">
        <ele>90.800003051758</ele>
        <time>2021-05-22T08:37:40Z</time>
      </trkpt>
      <trkpt lat="43.34245" lon="6.4289">
        <ele>90.599998474121</ele>
        <time>2021-05-22T08:37:41Z</time>
      </trkpt>
      <trkpt lat="43.3426" lon="6.42895">
        <ele>90.199996948242</ele>
        <time>2021-05-22T08:37:43Z</time>
      </trkpt>
      <trkpt lat="43.34266" lon="6.42897">
        <ele>89.800003051758</ele>
        <time>2021-05-22T08:37:44Z</time>
      </trkpt>
      <trkpt lat="43.34283" lon="6.4291">
        <ele>89.400001525879</ele>
        <time>2021-05-22T08:37:46Z</time>
      </trkpt>
      <trkpt lat="43.34287" lon="6.42917">
        <ele>89.199996948242</ele>
        <time>2021-05-22T08:37:47Z</time>
      </trkpt>
      <trkpt lat="43.34291" lon="6.42924">
        <ele>89.199996948242</ele>
        <time>2021-05-22T08:37:48Z</time>
      </trkpt>
      <trkpt lat="43.34294" lon="6.42931">
        <ele>89.199996948242</ele>
        <time>2021-05-22T08:37:49Z</time>
      </trkpt>
      <trkpt lat="43.343" lon="6.42945">
        <ele>89</ele>
        <time>2021-05-22T08:37:51Z</time>
      </trkpt>
      <trkpt lat="43.34303" lon="6.4295">
        <ele>89</ele>
        <time>2021-05-22T08:37:52Z</time>
      </trkpt>
      <trkpt lat="43.34314" lon="6.42972">
        <ele>89</ele>
        <time>2021-05-22T08:37:56Z</time>
      </trkpt>
      <trkpt lat="43.34325" lon="6.42991">
        <ele>89</ele>
        <time>2021-05-22T08:37:59Z</time>
      </trkpt>
      <trkpt lat="43.3434" lon="6.43016">
        <ele>89.400001525879</ele>
        <time>2021-05-22T08:38:03Z</time>
      </trkpt>
      <trkpt lat="43.34346" lon="6.43029">
        <ele>89.400001525879</ele>
        <time>2021-05-22T08:38:05Z</time>
      </trkpt>
      <trkpt lat="43.3435" lon="6.43035">
        <ele>89.400001525879</ele>
        <time>2021-05-22T08:38:06Z</time>
      </trkpt>
      <trkpt lat="43.34365" lon="6.43059">
        <ele>89.400001525879</ele>
        <time>2021-05-22T08:38:10Z</time>
      </trkpt>
      <trkpt lat="43.34368" lon="6.43064">
        <ele>89.199996948242</ele>
        <time>2021-05-22T08:38:11Z</time>
      </trkpt>
      <trkpt lat="43.34374" lon="6.43074">
        <ele>89.199996948242</ele>
        <time>2021-05-22T08:38:13Z</time>
      </trkpt>
      <trkpt lat="43.34376" lon="6.43079">
        <ele>89.199996948242</ele>
        <time>2021-05-22T08:38:14Z</time>
      </trkpt>
      <trkpt lat="43.34387" lon="6.43103">
        <ele>89.400001525879</ele>
        <time>2021-05-22T08:38:19Z</time>
      </trkpt>
      <trkpt lat="43.34395" lon="6.4312">
        <ele>90.199996948242</ele>
        <time>2021-05-22T08:38:23Z</time>
      </trkpt>
      <trkpt lat="43.34397" lon="6.43128">
        <ele>90.800003051758</ele>
        <time>2021-05-22T08:38:25Z</time>
      </trkpt>
      <trkpt lat="43.34402" lon="6.43146">
        <ele>91.199996948242</ele>
        <time>2021-05-22T08:38:29Z</time>
      </trkpt>
      <trkpt lat="43.34403" lon="6.43159">
        <ele>91.599998474121</ele>
        <time>2021-05-22T08:38:32Z</time>
      </trkpt>
      <trkpt lat="43.34403" lon="6.43182">
        <ele>92.400001525879</ele>
        <time>2021-05-22T08:38:37Z</time>
      </trkpt>
      <trkpt lat="43.34404" lon="6.43187">
        <ele>92.599998474121</ele>
        <time>2021-05-22T08:38:38Z</time>
      </trkpt>
      <trkpt lat="43.34409" lon="6.43214">
        <ele>93</ele>
        <time>2021-05-22T08:38:44Z</time>
      </trkpt>
      <trkpt lat="43.34413" lon="6.4325">
        <ele>93.400001525879</ele>
        <time>2021-05-22T08:38:51Z</time>
      </trkpt>
      <trkpt lat="43.34413" lon="6.43254">
        <ele>93.400001525879</ele>
        <time>2021-05-22T08:38:52Z</time>
      </trkpt>
      <trkpt lat="43.3442" lon="6.43292">
        <ele>94</ele>
        <time>2021-05-22T08:39:00Z</time>
      </trkpt>
      <trkpt lat="43.34425" lon="6.43321">
        <ele>94.400001525879</ele>
        <time>2021-05-22T08:39:06Z</time>
      </trkpt>
      <trkpt lat="43.34427" lon="6.43335">
        <ele>94.599998474121</ele>
        <time>2021-05-22T08:39:09Z</time>
      </trkpt>
      <trkpt lat="43.34428" lon="6.43354">
        <ele>95</ele>
        <time>2021-05-22T08:39:13Z</time>
      </trkpt>
      <trkpt lat="43.3443" lon="6.43369">
        <ele>95.199996948242</ele>
        <time>2021-05-22T08:39:16Z</time>
      </trkpt>
      <trkpt lat="43.34431" lon="6.43379">
        <ele>95.400001525879</ele>
        <time>2021-05-22T08:39:18Z</time>
      </trkpt>
      <trkpt lat="43.34431" lon="6.43385">
        <ele>95.400001525879</ele>
        <time>2021-05-22T08:39:19Z</time>
      </trkpt>
      <trkpt lat="43.34431" lon="6.43409">
        <ele>95.800003051758</ele>
        <time>2021-05-22T08:39:24Z</time>
      </trkpt>
      <trkpt lat="43.34433" lon="6.43437">
        <ele>96.400001525879</ele>
        <time>2021-05-22T08:39:30Z</time>
      </trkpt>
      <trkpt lat="43.34433" lon="6.43442">
        <ele>96.400001525879</ele>
        <time>2021-05-22T08:39:31Z</time>
      </trkpt>
      <trkpt lat="43.34433" lon="6.43464">
        <ele>96.800003051758</ele>
        <time>2021-05-22T08:39:36Z</time>
      </trkpt>
      <trkpt lat="43.34433" lon="6.43483">
        <ele>97.599998474121</ele>
        <time>2021-05-22T08:39:40Z</time>
      </trkpt>
      <trkpt lat="43.34433" lon="6.43493">
        <ele>98</ele>
        <time>2021-05-22T08:39:42Z</time>
      </trkpt>
      <trkpt lat="43.3443" lon="6.43511">
        <ele>98.800003051758</ele>
        <time>2021-05-22T08:39:46Z</time>
      </trkpt>
      <trkpt lat="43.34429" lon="6.4352">
        <ele>99</ele>
        <time>2021-05-22T08:39:48Z</time>
      </trkpt>
      <trkpt lat="43.34421" lon="6.43546">
        <ele>99.599998474121</ele>
        <time>2021-05-22T08:39:54Z</time>
      </trkpt>
      <trkpt lat="43.34418" lon="6.4355">
        <ele>99.800003051758</ele>
        <time>2021-05-22T08:39:55Z</time>
      </trkpt>
      <trkpt lat="43.34402" lon="6.43577">
        <ele>100.40000152588</ele>
        <time>2021-05-22T08:40:02Z</time>
      </trkpt>
      <trkpt lat="43.344" lon="6.43581">
        <ele>100.40000152588</ele>
        <time>2021-05-22T08:40:03Z</time>
      </trkpt>
      <trkpt lat="43.34397" lon="6.43586">
        <ele>100.40000152588</ele>
        <time>2021-05-22T08:40:04Z</time>
      </trkpt>
      <trkpt lat="43.34393" lon="6.43595">
        <ele>100.59999847412</ele>
        <time>2021-05-22T08:40:06Z</time>
      </trkpt>
      <trkpt lat="43.34389" lon="6.43604">
        <ele>100.40000152588</ele>
        <time>2021-05-22T08:40:08Z</time>
      </trkpt>
      <trkpt lat="43.34387" lon="6.43609">
        <ele>100.40000152588</ele>
        <time>2021-05-22T08:40:09Z</time>
      </trkpt>
      <trkpt lat="43.34384" lon="6.43619">
        <ele>100.40000152588</ele>
        <time>2021-05-22T08:40:11Z</time>
      </trkpt>
      <trkpt lat="43.34378" lon="6.43641">
        <ele>100.40000152588</ele>
        <time>2021-05-22T08:40:15Z</time>
      </trkpt>
      <trkpt lat="43.34377" lon="6.43647">
        <ele>100.40000152588</ele>
        <time>2021-05-22T08:40:16Z</time>
      </trkpt>
      <trkpt lat="43.34376" lon="6.43653">
        <ele>100.40000152588</ele>
        <time>2021-05-22T08:40:17Z</time>
      </trkpt>
      <trkpt lat="43.34375" lon="6.43658">
        <ele>100.59999847412</ele>
        <time>2021-05-22T08:40:18Z</time>
      </trkpt>
      <trkpt lat="43.34373" lon="6.4367">
        <ele>101</ele>
        <time>2021-05-22T08:40:20Z</time>
      </trkpt>
      <trkpt lat="43.34368" lon="6.43685">
        <ele>100.80000305176</ele>
        <time>2021-05-22T08:40:23Z</time>
      </trkpt>
      <trkpt lat="43.34355" lon="6.43721">
        <ele>101.59999847412</ele>
        <time>2021-05-22T08:40:31Z</time>
      </trkpt>
      <trkpt lat="43.34353" lon="6.43732">
        <ele>101.59999847412</ele>
        <time>2021-05-22T08:40:33Z</time>
      </trkpt>
      <trkpt lat="43.34353" lon="6.43738">
        <ele>101.59999847412</ele>
        <time>2021-05-22T08:40:34Z</time>
      </trkpt>
      <trkpt lat="43.34354" lon="6.43744">
        <ele>101.59999847412</ele>
        <time>2021-05-22T08:40:35Z</time>
      </trkpt>
      <trkpt lat="43.34355" lon="6.43763">
        <ele>101.40000152588</ele>
        <time>2021-05-22T08:40:38Z</time>
      </trkpt>
      <trkpt lat="43.34357" lon="6.43774">
        <ele>101.19999694824</ele>
        <time>2021-05-22T08:40:40Z</time>
      </trkpt>
      <trkpt lat="43.3436" lon="6.4378">
        <ele>101</ele>
        <time>2021-05-22T08:40:41Z</time>
      </trkpt>
      <trkpt lat="43.34373" lon="6.43799">
        <ele>100.59999847412</ele>
        <time>2021-05-22T08:40:45Z</time>
      </trkpt>
      <trkpt lat="43.34375" lon="6.43807">
        <ele>100.40000152588</ele>
        <time>2021-05-22T08:40:46Z</time>
      </trkpt>
      <trkpt lat="43.34381" lon="6.4384">
        <ele>100.19999694824</ele>
        <time>2021-05-22T08:40:50Z</time>
      </trkpt>
      <trkpt lat="43.34384" lon="6.43847">
        <ele>99.800003051758</ele>
        <time>2021-05-22T08:40:51Z</time>
      </trkpt>
      <trkpt lat="43.34388" lon="6.43853">
        <ele>99.800003051758</ele>
        <time>2021-05-22T08:40:52Z</time>
      </trkpt>
      <trkpt lat="43.34396" lon="6.43863">
        <ele>99</ele>
        <time>2021-05-22T08:40:54Z</time>
      </trkpt>
      <trkpt lat="43.34398" lon="6.43868">
        <ele>98.800003051758</ele>
        <time>2021-05-22T08:40:55Z</time>
      </trkpt>
      <trkpt lat="43.344" lon="6.43875">
        <ele>98.800003051758</ele>
        <time>2021-05-22T08:40:56Z</time>
      </trkpt>
      <trkpt lat="43.34406" lon="6.43893">
        <ele>98.599998474121</ele>
        <time>2021-05-22T08:40:59Z</time>
      </trkpt>
      <trkpt lat="43.34418" lon="6.43925">
        <ele>98</ele>
        <time>2021-05-22T08:41:04Z</time>
      </trkpt>
      <trkpt lat="43.34421" lon="6.43938">
        <ele>98</ele>
        <time>2021-05-22T08:41:05Z</time>
      </trkpt>
      <trkpt lat="43.34425" lon="6.43957">
        <ele>97.599998474121</ele>
        <time>2021-05-22T08:41:07Z</time>
      </trkpt>
      <trkpt lat="43.34431" lon="6.43974">
        <ele>96</ele>
        <time>2021-05-22T08:41:09Z</time>
      </trkpt>
      <trkpt lat="43.3444" lon="6.43976">
        <ele>94.400001525879</ele>
        <time>2021-05-22T08:41:11Z</time>
      </trkpt>
      <trkpt lat="43.34449" lon="6.43969">
        <ele>92.800003051758</ele>
        <time>2021-05-22T08:41:13Z</time>
      </trkpt>
      <trkpt lat="43.34452" lon="6.43964">
        <ele>92</ele>
        <time>2021-05-22T08:41:14Z</time>
      </trkpt>
      <trkpt lat="43.34457" lon="6.43956">
        <ele>91.599998474121</ele>
        <time>2021-05-22T08:41:16Z</time>
      </trkpt>
      <trkpt lat="43.34469" lon="6.43948">
        <ele>91</ele>
        <time>2021-05-22T08:41:20Z</time>
      </trkpt>
      <trkpt lat="43.34481" lon="6.43951">
        <ele>91</ele>
        <time>2021-05-22T08:41:24Z</time>
      </trkpt>
      <trkpt lat="43.34494" lon="6.43968">
        <ele>92.199996948242</ele>
        <time>2021-05-22T08:41:31Z</time>
      </trkpt>
      <trkpt lat="43.34496" lon="6.43971">
        <ele>92.599998474121</ele>
        <time>2021-05-22T08:41:32Z</time>
      </trkpt>
      <trkpt lat="43.34501" lon="6.43982">
        <ele>93.599998474121</ele>
        <time>2021-05-22T08:41:36Z</time>
      </trkpt>
      <trkpt lat="43.34503" lon="6.43987">
        <ele>94.199996948242</ele>
        <time>2021-05-22T08:41:38Z</time>
      </trkpt>
      <trkpt lat="43.34506" lon="6.43994">
        <ele>95</ele>
        <time>2021-05-22T08:41:41Z</time>
      </trkpt>
      <trkpt lat="43.3451" lon="6.44002">
        <ele>95.800003051758</ele>
        <time>2021-05-22T08:41:44Z</time>
      </trkpt>
      <trkpt lat="43.34512" lon="6.44005">
        <ele>96.199996948242</ele>
        <time>2021-05-22T08:41:45Z</time>
      </trkpt>
      <trkpt lat="43.34519" lon="6.44025">
        <ele>97</ele>
        <time>2021-05-22T08:41:50Z</time>
      </trkpt>
      <trkpt lat="43.3452" lon="6.44034">
        <ele>97.199996948242</ele>
        <time>2021-05-22T08:41:52Z</time>
      </trkpt>
      <trkpt lat="43.34521" lon="6.44044">
        <ele>97.199996948242</ele>
        <time>2021-05-22T08:41:54Z</time>
      </trkpt>
      <trkpt lat="43.34522" lon="6.44049">
        <ele>97.199996948242</ele>
        <time>2021-05-22T08:41:55Z</time>
      </trkpt>
      <trkpt lat="43.34523" lon="6.44059">
        <ele>97</ele>
        <time>2021-05-22T08:41:57Z</time>
      </trkpt>
      <trkpt lat="43.34525" lon="6.44075">
        <ele>97.199996948242</ele>
        <time>2021-05-22T08:42:00Z</time>
      </trkpt>
      <trkpt lat="43.34527" lon="6.44086">
        <ele>97.400001525879</ele>
        <time>2021-05-22T08:42:02Z</time>
      </trkpt>
      <trkpt lat="43.3453" lon="6.44103">
        <ele>97.400001525879</ele>
        <time>2021-05-22T08:42:05Z</time>
      </trkpt>
      <trkpt lat="43.34534" lon="6.44114">
        <ele>97.800003051758</ele>
        <time>2021-05-22T08:42:07Z</time>
      </trkpt>
      <trkpt lat="43.34536" lon="6.44119">
        <ele>97.800003051758</ele>
        <time>2021-05-22T08:42:08Z</time>
      </trkpt>
      <trkpt lat="43.3454" lon="6.44126">
        <ele>98</ele>
        <time>2021-05-22T08:42:10Z</time>
      </trkpt>
      <trkpt lat="43.34547" lon="6.44134">
        <ele>98</ele>
        <time>2021-05-22T08:42:13Z</time>
      </trkpt>
      <trkpt lat="43.34548" lon="6.44138">
        <ele>98</ele>
        <time>2021-05-22T08:42:14Z</time>
      </trkpt>
      <trkpt lat="43.34551" lon="6.44143">
        <ele>98.199996948242</ele>
        <time>2021-05-22T08:42:16Z</time>
      </trkpt>
      <trkpt lat="43.34553" lon="6.44147">
        <ele>98.400001525879</ele>
        <time>2021-05-22T08:42:17Z</time>
      </trkpt>
      <trkpt lat="43.34562" lon="6.44165">
        <ele>99.400001525879</ele>
        <time>2021-05-22T08:42:23Z</time>
      </trkpt>
      <trkpt lat="43.34563" lon="6.44168">
        <ele>99.800003051758</ele>
        <time>2021-05-22T08:42:24Z</time>
      </trkpt>
      <trkpt lat="43.34567" lon="6.44183">
        <ele>100.40000152588</ele>
        <time>2021-05-22T08:42:28Z</time>
      </trkpt>
      <trkpt lat="43.34569" lon="6.44191">
        <ele>100.80000305176</ele>
        <time>2021-05-22T08:42:30Z</time>
      </trkpt>
      <trkpt lat="43.34569" lon="6.44195">
        <ele>101.19999694824</ele>
        <time>2021-05-22T08:42:31Z</time>
      </trkpt>
      <trkpt lat="43.34566" lon="6.44214">
        <ele>101.40000152588</ele>
        <time>2021-05-22T08:42:35Z</time>
      </trkpt>
      <trkpt lat="43.34566" lon="6.44218">
        <ele>101.59999847412</ele>
        <time>2021-05-22T08:42:36Z</time>
      </trkpt>
      <trkpt lat="43.34567" lon="6.44233">
        <ele>101.80000305176</ele>
        <time>2021-05-22T08:42:39Z</time>
      </trkpt>
      <trkpt lat="43.34569" lon="6.44252">
        <ele>102.19999694824</ele>
        <time>2021-05-22T08:42:43Z</time>
      </trkpt>
      <trkpt lat="43.34586" lon="6.44288">
        <ele>102.40000152588</ele>
        <time>2021-05-22T08:42:51Z</time>
      </trkpt>
      <trkpt lat="43.34605" lon="6.44304">
        <ele>102.40000152588</ele>
        <time>2021-05-22T08:42:57Z</time>
      </trkpt>
      <trkpt lat="43.34609" lon="6.44306">
        <ele>102.40000152588</ele>
        <time>2021-05-22T08:42:58Z</time>
      </trkpt>
      <trkpt lat="43.34624" lon="6.44312">
        <ele>102.59999847412</ele>
        <time>2021-05-22T08:43:02Z</time>
      </trkpt>
      <trkpt lat="43.34628" lon="6.44314">
        <ele>102.59999847412</ele>
        <time>2021-05-22T08:43:03Z</time>
      </trkpt>
      <trkpt lat="43.34636" lon="6.44318">
        <ele>102.80000305176</ele>
        <time>2021-05-22T08:43:05Z</time>
      </trkpt>
      <trkpt lat="43.34649" lon="6.44322">
        <ele>103</ele>
        <time>2021-05-22T08:43:08Z</time>
      </trkpt>
      <trkpt lat="43.34667" lon="6.44326">
        <ele>103</ele>
        <time>2021-05-22T08:43:12Z</time>
      </trkpt>
      <trkpt lat="43.34681" lon="6.44327">
        <ele>103</ele>
        <time>2021-05-22T08:43:15Z</time>
      </trkpt>
      <trkpt lat="43.34699" lon="6.44335">
        <ele>103.40000152588</ele>
        <time>2021-05-22T08:43:20Z</time>
      </trkpt>
      <trkpt lat="43.34704" lon="6.44339">
        <ele>103.59999847412</ele>
        <time>2021-05-22T08:43:22Z</time>
      </trkpt>
      <trkpt lat="43.34713" lon="6.44346">
        <ele>104.59999847412</ele>
        <time>2021-05-22T08:43:26Z</time>
      </trkpt>
      <trkpt lat="43.34727" lon="6.44351">
        <ele>105.40000152588</ele>
        <time>2021-05-22T08:43:31Z</time>
      </trkpt>
      <trkpt lat="43.34733" lon="6.44355">
        <ele>105.59999847412</ele>
        <time>2021-05-22T08:43:33Z</time>
      </trkpt>
      <trkpt lat="43.34735" lon="6.44356">
        <ele>105.80000305176</ele>
        <time>2021-05-22T08:43:34Z</time>
      </trkpt>
      <trkpt lat="43.34741" lon="6.44359">
        <ele>106</ele>
        <time>2021-05-22T08:43:36Z</time>
      </trkpt>
      <trkpt lat="43.34755" lon="6.44367">
        <ele>106.40000152588</ele>
        <time>2021-05-22T08:43:41Z</time>
      </trkpt>
      <trkpt lat="43.34766" lon="6.44374">
        <ele>106.59999847412</ele>
        <time>2021-05-22T08:43:44Z</time>
      </trkpt>
      <trkpt lat="43.34773" lon="6.44375">
        <ele>106.59999847412</ele>
        <time>2021-05-22T08:43:46Z</time>
      </trkpt>
      <trkpt lat="43.34799" lon="6.44379">
        <ele>107</ele>
        <time>2021-05-22T08:43:53Z</time>
      </trkpt>
      <trkpt lat="43.34813" lon="6.44383">
        <ele>107.19999694824</ele>
        <time>2021-05-22T08:43:57Z</time>
      </trkpt>
      <trkpt lat="43.34819" lon="6.44386">
        <ele>107.19999694824</ele>
        <time>2021-05-22T08:43:59Z</time>
      </trkpt>
      <trkpt lat="43.34824" lon="6.4439">
        <ele>107.40000152588</ele>
        <time>2021-05-22T08:44:01Z</time>
      </trkpt>
      <trkpt lat="43.34829" lon="6.44395">
        <ele>107.59999847412</ele>
        <time>2021-05-22T08:44:03Z</time>
      </trkpt>
      <trkpt lat="43.34833" lon="6.44398">
        <ele>107.80000305176</ele>
        <time>2021-05-22T08:44:04Z</time>
      </trkpt>
      <trkpt lat="43.34844" lon="6.44402">
        <ele>107.80000305176</ele>
        <time>2021-05-22T08:44:07Z</time>
      </trkpt>
      <trkpt lat="43.34868" lon="6.44415">
        <ele>108</ele>
        <time>2021-05-22T08:44:15Z</time>
      </trkpt>
      <trkpt lat="43.34872" lon="6.44416">
        <ele>108</ele>
        <time>2021-05-22T08:44:17Z</time>
      </trkpt>
      <trkpt lat="43.34892" lon="6.44418">
        <ele>108.19999694824</ele>
        <time>2021-05-22T08:44:24Z</time>
      </trkpt>
      <trkpt lat="43.34916" lon="6.44417">
        <ele>108.80000305176</ele>
        <time>2021-05-22T08:44:32Z</time>
      </trkpt>
      <trkpt lat="43.34936" lon="6.44419">
        <ele>109</ele>
        <time>2021-05-22T08:44:38Z</time>
      </trkpt>
      <trkpt lat="43.3495" lon="6.44423">
        <ele>109.40000152588</ele>
        <time>2021-05-22T08:44:42Z</time>
      </trkpt>
      <trkpt lat="43.3496" lon="6.4443">
        <ele>109.59999847412</ele>
        <time>2021-05-22T08:44:45Z</time>
      </trkpt>
      <trkpt lat="43.34966" lon="6.44438">
        <ele>109.59999847412</ele>
        <time>2021-05-22T08:44:47Z</time>
      </trkpt>
      <trkpt lat="43.34971" lon="6.44446">
        <ele>109.80000305176</ele>
        <time>2021-05-22T08:44:49Z</time>
      </trkpt>
      <trkpt lat="43.34977" lon="6.44456">
        <ele>109.59999847412</ele>
        <time>2021-05-22T08:44:51Z</time>
      </trkpt>
      <trkpt lat="43.34984" lon="6.44466">
        <ele>109.40000152588</ele>
        <time>2021-05-22T08:44:53Z</time>
      </trkpt>
      <trkpt lat="43.34988" lon="6.44472">
        <ele>109.40000152588</ele>
        <time>2021-05-22T08:44:54Z</time>
      </trkpt>
      <trkpt lat="43.34996" lon="6.4449">
        <ele>109.19999694824</ele>
        <time>2021-05-22T08:44:57Z</time>
      </trkpt>
      <trkpt lat="43.35002" lon="6.44503">
        <ele>109</ele>
        <time>2021-05-22T08:44:59Z</time>
      </trkpt>
      <trkpt lat="43.35005" lon="6.44508">
        <ele>109</ele>
        <time>2021-05-22T08:45:00Z</time>
      </trkpt>
      <trkpt lat="43.35012" lon="6.44517">
        <ele>108.59999847412</ele>
        <time>2021-05-22T08:45:02Z</time>
      </trkpt>
      <trkpt lat="43.35018" lon="6.44526">
        <ele>108.40000152588</ele>
        <time>2021-05-22T08:45:04Z</time>
      </trkpt>
      <trkpt lat="43.35032" lon="6.44544">
        <ele>108.59999847412</ele>
        <time>2021-05-22T08:45:09Z</time>
      </trkpt>
      <trkpt lat="43.35048" lon="6.44558">
        <ele>108.80000305176</ele>
        <time>2021-05-22T08:45:15Z</time>
      </trkpt>
      <trkpt lat="43.35051" lon="6.4456">
        <ele>109</ele>
        <time>2021-05-22T08:45:16Z</time>
      </trkpt>
      <trkpt lat="43.35062" lon="6.44569">
        <ele>109.80000305176</ele>
        <time>2021-05-22T08:45:20Z</time>
      </trkpt>
      <trkpt lat="43.35071" lon="6.44576">
        <ele>110.19999694824</ele>
        <time>2021-05-22T08:45:23Z</time>
      </trkpt>
      <trkpt lat="43.35074" lon="6.44579">
        <ele>110.40000152588</ele>
        <time>2021-05-22T08:45:24Z</time>
      </trkpt>
      <trkpt lat="43.35088" lon="6.44602">
        <ele>110.59999847412</ele>
        <time>2021-05-22T08:45:29Z</time>
      </trkpt>
      <trkpt lat="43.35091" lon="6.44606">
        <ele>110.59999847412</ele>
        <time>2021-05-22T08:45:30Z</time>
      </trkpt>
      <trkpt lat="43.35105" lon="6.44626">
        <ele>110.59999847412</ele>
        <time>2021-05-22T08:45:34Z</time>
      </trkpt>
      <trkpt lat="43.35119" lon="6.44644">
        <ele>110.40000152588</ele>
        <time>2021-05-22T08:45:38Z</time>
      </trkpt>
      <trkpt lat="43.35138" lon="6.4467">
        <ele>109.80000305176</ele>
        <time>2021-05-22T08:45:43Z</time>
      </trkpt>
      <trkpt lat="43.35146" lon="6.44681">
        <ele>109.59999847412</ele>
        <time>2021-05-22T08:45:45Z</time>
      </trkpt>
      <trkpt lat="43.35156" lon="6.44687">
        <ele>109.40000152588</ele>
        <time>2021-05-22T08:45:47Z</time>
      </trkpt>
      <trkpt lat="43.35161" lon="6.44688">
        <ele>109.40000152588</ele>
        <time>2021-05-22T08:45:48Z</time>
      </trkpt>
      <trkpt lat="43.35183" lon="6.44686">
        <ele>109.40000152588</ele>
        <time>2021-05-22T08:45:52Z</time>
      </trkpt>
      <trkpt lat="43.35199" lon="6.44685">
        <ele>109.19999694824</ele>
        <time>2021-05-22T08:45:55Z</time>
      </trkpt>
      <trkpt lat="43.35205" lon="6.44686">
        <ele>109.19999694824</ele>
        <time>2021-05-22T08:45:56Z</time>
      </trkpt>
      <trkpt lat="43.35211" lon="6.44688">
        <ele>109.19999694824</ele>
        <time>2021-05-22T08:45:57Z</time>
      </trkpt>
      <trkpt lat="43.35217" lon="6.44692">
        <ele>109.19999694824</ele>
        <time>2021-05-22T08:45:58Z</time>
      </trkpt>
      <trkpt lat="43.35223" lon="6.44696">
        <ele>109.19999694824</ele>
        <time>2021-05-22T08:45:59Z</time>
      </trkpt>
      <trkpt lat="43.35228" lon="6.44702">
        <ele>109.19999694824</ele>
        <time>2021-05-22T08:46:00Z</time>
      </trkpt>
      <trkpt lat="43.35242" lon="6.44719">
        <ele>108.80000305176</ele>
        <time>2021-05-22T08:46:03Z</time>
      </trkpt>
      <trkpt lat="43.35247" lon="6.44723">
        <ele>108.59999847412</ele>
        <time>2021-05-22T08:46:04Z</time>
      </trkpt>
      <trkpt lat="43.35253" lon="6.44727">
        <ele>108.40000152588</ele>
        <time>2021-05-22T08:46:05Z</time>
      </trkpt>
      <trkpt lat="43.35258" lon="6.44729">
        <ele>108.19999694824</ele>
        <time>2021-05-22T08:46:06Z</time>
      </trkpt>
      <trkpt lat="43.35267" lon="6.44732">
        <ele>108.19999694824</ele>
        <time>2021-05-22T08:46:08Z</time>
      </trkpt>
      <trkpt lat="43.35271" lon="6.44733">
        <ele>108.19999694824</ele>
        <time>2021-05-22T08:46:09Z</time>
      </trkpt>
      <trkpt lat="43.35283" lon="6.44735">
        <ele>108</ele>
        <time>2021-05-22T08:46:12Z</time>
      </trkpt>
      <trkpt lat="43.35286" lon="6.44734">
        <ele>108.19999694824</ele>
        <time>2021-05-22T08:46:13Z</time>
      </trkpt>
      <trkpt lat="43.35288" lon="6.44734">
        <ele>108.19999694824</ele>
        <time>2021-05-22T08:46:14Z</time>
      </trkpt>
      <trkpt lat="43.35305" lon="6.44735">
        <ele>108.40000152588</ele>
        <time>2021-05-22T08:46:20Z</time>
      </trkpt>
      <trkpt lat="43.35329" lon="6.4474">
        <ele>108.40000152588</ele>
        <time>2021-05-22T08:46:25Z</time>
      </trkpt>
      <trkpt lat="43.35346" lon="6.44743">
        <ele>107.59999847412</ele>
        <time>2021-05-22T08:46:28Z</time>
      </trkpt>
      <trkpt lat="43.35359" lon="6.44746">
        <ele>107.19999694824</ele>
        <time>2021-05-22T08:46:30Z</time>
      </trkpt>
      <trkpt lat="43.35378" lon="6.44751">
        <ele>106.59999847412</ele>
        <time>2021-05-22T08:46:33Z</time>
      </trkpt>
      <trkpt lat="43.35399" lon="6.44758">
        <ele>106</ele>
        <time>2021-05-22T08:46:36Z</time>
      </trkpt>
      <trkpt lat="43.35415" lon="6.44762">
        <ele>105.40000152588</ele>
        <time>2021-05-22T08:46:38Z</time>
      </trkpt>
      <trkpt lat="43.35445" lon="6.44769">
        <ele>104.59999847412</ele>
        <time>2021-05-22T08:46:42Z</time>
      </trkpt>
      <trkpt lat="43.35467" lon="6.44774">
        <ele>104</ele>
        <time>2021-05-22T08:46:45Z</time>
      </trkpt>
      <trkpt lat="43.35482" lon="6.44779">
        <ele>103.80000305176</ele>
        <time>2021-05-22T08:46:47Z</time>
      </trkpt>
      <trkpt lat="43.35496" lon="6.44787">
        <ele>103.80000305176</ele>
        <time>2021-05-22T08:46:49Z</time>
      </trkpt>
      <trkpt lat="43.35517" lon="6.44804">
        <ele>103.19999694824</ele>
        <time>2021-05-22T08:46:52Z</time>
      </trkpt>
      <trkpt lat="43.35523" lon="6.44811">
        <ele>103</ele>
        <time>2021-05-22T08:46:53Z</time>
      </trkpt>
      <trkpt lat="43.35529" lon="6.44817">
        <ele>102.59999847412</ele>
        <time>2021-05-22T08:46:54Z</time>
      </trkpt>
      <trkpt lat="43.35551" lon="6.44846">
        <ele>101.80000305176</ele>
        <time>2021-05-22T08:46:58Z</time>
      </trkpt>
      <trkpt lat="43.35567" lon="6.44866">
        <ele>101.59999847412</ele>
        <time>2021-05-22T08:47:01Z</time>
      </trkpt>
      <trkpt lat="43.35577" lon="6.44878">
        <ele>101.40000152588</ele>
        <time>2021-05-22T08:47:03Z</time>
      </trkpt>
      <trkpt lat="43.35582" lon="6.44884">
        <ele>101.40000152588</ele>
        <time>2021-05-22T08:47:04Z</time>
      </trkpt>
      <trkpt lat="43.35586" lon="6.4489">
        <ele>101.19999694824</ele>
        <time>2021-05-22T08:47:05Z</time>
      </trkpt>
      <trkpt lat="43.35591" lon="6.44896">
        <ele>101.19999694824</ele>
        <time>2021-05-22T08:47:06Z</time>
      </trkpt>
      <trkpt lat="43.35596" lon="6.44901">
        <ele>101.19999694824</ele>
        <time>2021-05-22T08:47:07Z</time>
      </trkpt>
      <trkpt lat="43.356" lon="6.44907">
        <ele>101</ele>
        <time>2021-05-22T08:47:08Z</time>
      </trkpt>
      <trkpt lat="43.3561" lon="6.44919">
        <ele>101</ele>
        <time>2021-05-22T08:47:10Z</time>
      </trkpt>
      <trkpt lat="43.35629" lon="6.44941">
        <ele>100.59999847412</ele>
        <time>2021-05-22T08:47:14Z</time>
      </trkpt>
      <trkpt lat="43.35643" lon="6.44958">
        <ele>100.19999694824</ele>
        <time>2021-05-22T08:47:17Z</time>
      </trkpt>
      <trkpt lat="43.35647" lon="6.44964">
        <ele>100.19999694824</ele>
        <time>2021-05-22T08:47:18Z</time>
      </trkpt>
      <trkpt lat="43.35684" lon="6.45009">
        <ele>99.800003051758</ele>
        <time>2021-05-22T08:47:27Z</time>
      </trkpt>
      <trkpt lat="43.35712" lon="6.45042">
        <ele>100</ele>
        <time>2021-05-22T08:47:34Z</time>
      </trkpt>
      <trkpt lat="43.35722" lon="6.45055">
        <ele>99.800003051758</ele>
        <time>2021-05-22T08:47:37Z</time>
      </trkpt>
      <trkpt lat="43.35731" lon="6.45069">
        <ele>100</ele>
        <time>2021-05-22T08:47:40Z</time>
      </trkpt>
      <trkpt lat="43.35734" lon="6.45073">
        <ele>100.19999694824</ele>
        <time>2021-05-22T08:47:41Z</time>
      </trkpt>
      <trkpt lat="43.35752" lon="6.45098">
        <ele>101</ele>
        <time>2021-05-22T08:47:47Z</time>
      </trkpt>
      <trkpt lat="43.35756" lon="6.45105">
        <ele>101.19999694824</ele>
        <time>2021-05-22T08:47:49Z</time>
      </trkpt>
      <trkpt lat="43.35759" lon="6.4511">
        <ele>101.40000152588</ele>
        <time>2021-05-22T08:47:50Z</time>
      </trkpt>
      <trkpt lat="43.35765" lon="6.45118">
        <ele>101.80000305176</ele>
        <time>2021-05-22T08:47:52Z</time>
      </trkpt>
      <trkpt lat="43.35771" lon="6.45125">
        <ele>102.19999694824</ele>
        <time>2021-05-22T08:47:54Z</time>
      </trkpt>
      <trkpt lat="43.35774" lon="6.45128">
        <ele>102.19999694824</ele>
        <time>2021-05-22T08:47:55Z</time>
      </trkpt>
      <trkpt lat="43.35788" lon="6.45142">
        <ele>103</ele>
        <time>2021-05-22T08:48:00Z</time>
      </trkpt>
      <trkpt lat="43.35791" lon="6.45144">
        <ele>103</ele>
        <time>2021-05-22T08:48:01Z</time>
      </trkpt>
      <trkpt lat="43.35795" lon="6.45149">
        <ele>103.19999694824</ele>
        <time>2021-05-22T08:48:03Z</time>
      </trkpt>
      <trkpt lat="43.35797" lon="6.45153">
        <ele>103.40000152588</ele>
        <time>2021-05-22T08:48:04Z</time>
      </trkpt>
      <trkpt lat="43.35797" lon="6.45157">
        <ele>103.59999847412</ele>
        <time>2021-05-22T08:48:05Z</time>
      </trkpt>
      <trkpt lat="43.35796" lon="6.45161">
        <ele>103.59999847412</ele>
        <time>2021-05-22T08:48:06Z</time>
      </trkpt>
      <trkpt lat="43.35794" lon="6.45174">
        <ele>104</ele>
        <time>2021-05-22T08:48:08Z</time>
      </trkpt>
      <trkpt lat="43.35792" lon="6.45179">
        <ele>104</ele>
        <time>2021-05-22T08:48:09Z</time>
      </trkpt>
      <trkpt lat="43.35783" lon="6.45226">
        <ele>104.19999694824</ele>
        <time>2021-05-22T08:48:15Z</time>
      </trkpt>
      <trkpt lat="43.3577" lon="6.45294">
        <ele>103</ele>
        <time>2021-05-22T08:48:23Z</time>
      </trkpt>
      <trkpt lat="43.35769" lon="6.45303">
        <ele>102.59999847412</ele>
        <time>2021-05-22T08:48:24Z</time>
      </trkpt>
      <trkpt lat="43.35764" lon="6.4532">
        <ele>102.59999847412</ele>
        <time>2021-05-22T08:48:26Z</time>
      </trkpt>
      <trkpt lat="43.35757" lon="6.45341">
        <ele>102.19999694824</ele>
        <time>2021-05-22T08:48:29Z</time>
      </trkpt>
      <trkpt lat="43.35753" lon="6.45348">
        <ele>102</ele>
        <time>2021-05-22T08:48:30Z</time>
      </trkpt>
      <trkpt lat="43.35742" lon="6.45366">
        <ele>101.80000305176</ele>
        <time>2021-05-22T08:48:33Z</time>
      </trkpt>
      <trkpt lat="43.35734" lon="6.4538">
        <ele>101.80000305176</ele>
        <time>2021-05-22T08:48:35Z</time>
      </trkpt>
      <trkpt lat="43.35711" lon="6.45422">
        <ele>102</ele>
        <time>2021-05-22T08:48:42Z</time>
      </trkpt>
      <trkpt lat="43.35699" lon="6.45447">
        <ele>102</ele>
        <time>2021-05-22T08:48:46Z</time>
      </trkpt>
      <trkpt lat="43.35697" lon="6.45453">
        <ele>102</ele>
        <time>2021-05-22T08:48:47Z</time>
      </trkpt>
      <trkpt lat="43.35693" lon="6.45468">
        <ele>102.19999694824</ele>
        <time>2021-05-22T08:48:49Z</time>
      </trkpt>
      <trkpt lat="43.3569" lon="6.45482">
        <ele>102.40000152588</ele>
        <time>2021-05-22T08:48:51Z</time>
      </trkpt>
      <trkpt lat="43.35689" lon="6.45495">
        <ele>102.40000152588</ele>
        <time>2021-05-22T08:48:53Z</time>
      </trkpt>
      <trkpt lat="43.35689" lon="6.45508">
        <ele>103</ele>
        <time>2021-05-22T08:48:55Z</time>
      </trkpt>
      <trkpt lat="43.35689" lon="6.45514">
        <ele>103.19999694824</ele>
        <time>2021-05-22T08:48:56Z</time>
      </trkpt>
      <trkpt lat="43.35687" lon="6.45562">
        <ele>103.80000305176</ele>
        <time>2021-05-22T08:49:03Z</time>
      </trkpt>
      <trkpt lat="43.35685" lon="6.45576">
        <ele>103.80000305176</ele>
        <time>2021-05-22T08:49:05Z</time>
      </trkpt>
      <trkpt lat="43.35681" lon="6.45589">
        <ele>103.80000305176</ele>
        <time>2021-05-22T08:49:07Z</time>
      </trkpt>
      <trkpt lat="43.35678" lon="6.45595">
        <ele>103.80000305176</ele>
        <time>2021-05-22T08:49:08Z</time>
      </trkpt>
      <trkpt lat="43.35656" lon="6.45628">
        <ele>103.59999847412</ele>
        <time>2021-05-22T08:49:14Z</time>
      </trkpt>
      <trkpt lat="43.35648" lon="6.4564">
        <ele>103.59999847412</ele>
        <time>2021-05-22T08:49:16Z</time>
      </trkpt>
      <trkpt lat="43.35645" lon="6.45656">
        <ele>103.59999847412</ele>
        <time>2021-05-22T08:49:18Z</time>
      </trkpt>
      <trkpt lat="43.35645" lon="6.45665">
        <ele>103.40000152588</ele>
        <time>2021-05-22T08:49:19Z</time>
      </trkpt>
      <trkpt lat="43.35645" lon="6.45683">
        <ele>103.19999694824</ele>
        <time>2021-05-22T08:49:21Z</time>
      </trkpt>
      <trkpt lat="43.35641" lon="6.45697">
        <ele>103</ele>
        <time>2021-05-22T08:49:23Z</time>
      </trkpt>
      <trkpt lat="43.35638" lon="6.45704">
        <ele>103</ele>
        <time>2021-05-22T08:49:24Z</time>
      </trkpt>
      <trkpt lat="43.35637" lon="6.45711">
        <ele>102.80000305176</ele>
        <time>2021-05-22T08:49:25Z</time>
      </trkpt>
      <trkpt lat="43.35637" lon="6.45725">
        <ele>102.59999847412</ele>
        <time>2021-05-22T08:49:28Z</time>
      </trkpt>
      <trkpt lat="43.35641" lon="6.45738">
        <ele>103.19999694824</ele>
        <time>2021-05-22T08:49:33Z</time>
      </trkpt>
      <trkpt lat="43.35647" lon="6.45746">
        <ele>104</ele>
        <time>2021-05-22T08:49:38Z</time>
      </trkpt>
      <trkpt lat="43.35651" lon="6.4575">
        <ele>104.59999847412</ele>
        <time>2021-05-22T08:49:41Z</time>
      </trkpt>
      <trkpt lat="43.35656" lon="6.45753">
        <ele>105.40000152588</ele>
        <time>2021-05-22T08:49:44Z</time>
      </trkpt>
      <trkpt lat="43.35657" lon="6.45754">
        <ele>105.40000152588</ele>
        <time>2021-05-22T08:49:45Z</time>
      </trkpt>
      <trkpt lat="43.3566" lon="6.45757">
        <ele>106.40000152588</ele>
        <time>2021-05-22T08:49:48Z</time>
      </trkpt>
      <trkpt lat="43.35661" lon="6.45758">
        <ele>106.40000152588</ele>
        <time>2021-05-22T08:49:49Z</time>
      </trkpt>
      <trkpt lat="43.35662" lon="6.45759">
        <ele>106.59999847412</ele>
        <time>2021-05-22T08:49:50Z</time>
      </trkpt>
      <trkpt lat="43.35664" lon="6.45759">
        <ele>106.80000305176</ele>
        <time>2021-05-22T08:49:51Z</time>
      </trkpt>
      <trkpt lat="43.35665" lon="6.4576">
        <ele>107</ele>
        <time>2021-05-22T08:49:52Z</time>
      </trkpt>
      <trkpt lat="43.35667" lon="6.45762">
        <ele>107.19999694824</ele>
        <time>2021-05-22T08:49:54Z</time>
      </trkpt>
      <trkpt lat="43.35668" lon="6.45763">
        <ele>107.40000152588</ele>
        <time>2021-05-22T08:49:55Z</time>
      </trkpt>
      <trkpt lat="43.35669" lon="6.45764">
        <ele>107.59999847412</ele>
        <time>2021-05-22T08:49:56Z</time>
      </trkpt>
      <trkpt lat="43.35674" lon="6.45765">
        <ele>108.19999694824</ele>
        <time>2021-05-22T08:49:59Z</time>
      </trkpt>
      <trkpt lat="43.35675" lon="6.45766">
        <ele>108.40000152588</ele>
        <time>2021-05-22T08:50:00Z</time>
      </trkpt>
      <trkpt lat="43.35677" lon="6.45767">
        <ele>108.80000305176</ele>
        <time>2021-05-22T08:50:02Z</time>
      </trkpt>
      <trkpt lat="43.35679" lon="6.45767">
        <ele>109</ele>
        <time>2021-05-22T08:50:04Z</time>
      </trkpt>
      <trkpt lat="43.3568" lon="6.45768">
        <ele>109</ele>
        <time>2021-05-22T08:50:05Z</time>
      </trkpt>
      <trkpt lat="43.35684" lon="6.45768">
        <ele>109.59999847412</ele>
        <time>2021-05-22T08:50:07Z</time>
      </trkpt>
      <trkpt lat="43.35688" lon="6.45768">
        <ele>110</ele>
        <time>2021-05-22T08:50:10Z</time>
      </trkpt>
      <trkpt lat="43.35693" lon="6.45769">
        <ele>110.40000152588</ele>
        <time>2021-05-22T08:50:13Z</time>
      </trkpt>
      <trkpt lat="43.35694" lon="6.45769">
        <ele>110.59999847412</ele>
        <time>2021-05-22T08:50:14Z</time>
      </trkpt>
      <trkpt lat="43.35702" lon="6.45772">
        <ele>111.19999694824</ele>
        <time>2021-05-22T08:50:18Z</time>
      </trkpt>
      <trkpt lat="43.35706" lon="6.45772">
        <ele>111.59999847412</ele>
        <time>2021-05-22T08:50:20Z</time>
      </trkpt>
      <trkpt lat="43.35712" lon="6.45772">
        <ele>111.59999847412</ele>
        <time>2021-05-22T08:50:22Z</time>
      </trkpt>
      <trkpt lat="43.35718" lon="6.45773">
        <ele>111.59999847412</ele>
        <time>2021-05-22T08:50:24Z</time>
      </trkpt>
      <trkpt lat="43.35729" lon="6.45774">
        <ele>111.80000305176</ele>
        <time>2021-05-22T08:50:27Z</time>
      </trkpt>
      <trkpt lat="43.35741" lon="6.4578">
        <ele>111.80000305176</ele>
        <time>2021-05-22T08:50:30Z</time>
      </trkpt>
      <trkpt lat="43.35751" lon="6.45786">
        <ele>111.59999847412</ele>
        <time>2021-05-22T08:50:32Z</time>
      </trkpt>
      <trkpt lat="43.3576" lon="6.4579">
        <ele>111.40000152588</ele>
        <time>2021-05-22T08:50:34Z</time>
      </trkpt>
      <trkpt lat="43.35767" lon="6.45791">
        <ele>111.19999694824</ele>
        <time>2021-05-22T08:50:35Z</time>
      </trkpt>
      <trkpt lat="43.35779" lon="6.45788">
        <ele>110.59999847412</ele>
        <time>2021-05-22T08:50:37Z</time>
      </trkpt>
      <trkpt lat="43.35784" lon="6.45788">
        <ele>110.40000152588</ele>
        <time>2021-05-22T08:50:38Z</time>
      </trkpt>
      <trkpt lat="43.35789" lon="6.4579">
        <ele>110.19999694824</ele>
        <time>2021-05-22T08:50:39Z</time>
      </trkpt>
      <trkpt lat="43.35793" lon="6.45794">
        <ele>110</ele>
        <time>2021-05-22T08:50:40Z</time>
      </trkpt>
      <trkpt lat="43.35798" lon="6.45806">
        <ele>109.80000305176</ele>
        <time>2021-05-22T08:50:42Z</time>
      </trkpt>
      <trkpt lat="43.35801" lon="6.45819">
        <ele>109.40000152588</ele>
        <time>2021-05-22T08:50:44Z</time>
      </trkpt>
      <trkpt lat="43.35803" lon="6.45827">
        <ele>108.80000305176</ele>
        <time>2021-05-22T08:50:46Z</time>
      </trkpt>
      <trkpt lat="43.35805" lon="6.45833">
        <ele>108.19999694824</ele>
        <time>2021-05-22T08:50:48Z</time>
      </trkpt>
      <trkpt lat="43.35807" lon="6.45835">
        <ele>108</ele>
        <time>2021-05-22T08:50:49Z</time>
      </trkpt>
      <trkpt lat="43.35812" lon="6.45838">
        <ele>107.19999694824</ele>
        <time>2021-05-22T08:50:51Z</time>
      </trkpt>
      <trkpt lat="43.35823" lon="6.45846">
        <ele>106.80000305176</ele>
        <time>2021-05-22T08:50:56Z</time>
      </trkpt>
      <trkpt lat="43.3583" lon="6.45858">
        <ele>107.59999847412</ele>
        <time>2021-05-22T08:51:02Z</time>
      </trkpt>
      <trkpt lat="43.35835" lon="6.45868">
        <ele>108.40000152588</ele>
        <time>2021-05-22T08:51:07Z</time>
      </trkpt>
      <trkpt lat="43.35838" lon="6.45873">
        <ele>108.80000305176</ele>
        <time>2021-05-22T08:51:10Z</time>
      </trkpt>
      <trkpt lat="43.35842" lon="6.45881">
        <ele>109.40000152588</ele>
        <time>2021-05-22T08:51:14Z</time>
      </trkpt>
      <trkpt lat="43.35844" lon="6.45886">
        <ele>110</ele>
        <time>2021-05-22T08:51:17Z</time>
      </trkpt>
      <trkpt lat="43.35845" lon="6.45888">
        <ele>110.40000152588</ele>
        <time>2021-05-22T08:51:18Z</time>
      </trkpt>
      <trkpt lat="43.35851" lon="6.45893">
        <ele>111.40000152588</ele>
        <time>2021-05-22T08:51:23Z</time>
      </trkpt>
      <trkpt lat="43.35853" lon="6.45893">
        <ele>111.40000152588</ele>
        <time>2021-05-22T08:51:24Z</time>
      </trkpt>
      <trkpt lat="43.3587" lon="6.45891">
        <ele>112.19999694824</ele>
        <time>2021-05-22T08:51:30Z</time>
      </trkpt>
      <trkpt lat="43.35877" lon="6.45887">
        <ele>112.19999694824</ele>
        <time>2021-05-22T08:51:32Z</time>
      </trkpt>
      <trkpt lat="43.35889" lon="6.45875">
        <ele>112.19999694824</ele>
        <time>2021-05-22T08:51:35Z</time>
      </trkpt>
      <trkpt lat="43.35898" lon="6.45867">
        <ele>112</ele>
        <time>2021-05-22T08:51:37Z</time>
      </trkpt>
      <trkpt lat="43.35906" lon="6.45862">
        <ele>111.59999847412</ele>
        <time>2021-05-22T08:51:39Z</time>
      </trkpt>
      <trkpt lat="43.35911" lon="6.4586">
        <ele>111.59999847412</ele>
        <time>2021-05-22T08:51:40Z</time>
      </trkpt>
      <trkpt lat="43.35916" lon="6.45859">
        <ele>111.40000152588</ele>
        <time>2021-05-22T08:51:41Z</time>
      </trkpt>
      <trkpt lat="43.35927" lon="6.45859">
        <ele>111.19999694824</ele>
        <time>2021-05-22T08:51:43Z</time>
      </trkpt>
      <trkpt lat="43.35932" lon="6.45861">
        <ele>111</ele>
        <time>2021-05-22T08:51:44Z</time>
      </trkpt>
      <trkpt lat="43.35936" lon="6.45865">
        <ele>110.59999847412</ele>
        <time>2021-05-22T08:51:45Z</time>
      </trkpt>
      <trkpt lat="43.3594" lon="6.45869">
        <ele>110.40000152588</ele>
        <time>2021-05-22T08:51:46Z</time>
      </trkpt>
      <trkpt lat="43.35945" lon="6.45875">
        <ele>110.19999694824</ele>
        <time>2021-05-22T08:51:47Z</time>
      </trkpt>
      <trkpt lat="43.35949" lon="6.45881">
        <ele>110</ele>
        <time>2021-05-22T08:51:48Z</time>
      </trkpt>
      <trkpt lat="43.3595" lon="6.45888">
        <ele>110</ele>
        <time>2021-05-22T08:51:49Z</time>
      </trkpt>
      <trkpt lat="43.3595" lon="6.459">
        <ele>109.59999847412</ele>
        <time>2021-05-22T08:51:51Z</time>
      </trkpt>
      <trkpt lat="43.35949" lon="6.45908">
        <ele>109.19999694824</ele>
        <time>2021-05-22T08:51:52Z</time>
      </trkpt>
      <trkpt lat="43.35944" lon="6.4592">
        <ele>108.19999694824</ele>
        <time>2021-05-22T08:51:55Z</time>
      </trkpt>
      <trkpt lat="43.35941" lon="6.45933">
        <ele>106.80000305176</ele>
        <time>2021-05-22T08:51:59Z</time>
      </trkpt>
      <trkpt lat="43.35942" lon="6.45942">
        <ele>105.80000305176</ele>
        <time>2021-05-22T08:52:03Z</time>
      </trkpt>
      <trkpt lat="43.35943" lon="6.45946">
        <ele>105.40000152588</ele>
        <time>2021-05-22T08:52:05Z</time>
      </trkpt>
      <trkpt lat="43.35949" lon="6.45951">
        <ele>105.40000152588</ele>
        <time>2021-05-22T08:52:10Z</time>
      </trkpt>
      <trkpt lat="43.35964" lon="6.45958">
        <ele>106.80000305176</ele>
        <time>2021-05-22T08:52:17Z</time>
      </trkpt>
      <trkpt lat="43.35966" lon="6.45959">
        <ele>106.80000305176</ele>
        <time>2021-05-22T08:52:18Z</time>
      </trkpt>
      <trkpt lat="43.35973" lon="6.45959">
        <ele>107</ele>
        <time>2021-05-22T08:52:20Z</time>
      </trkpt>
      <trkpt lat="43.35976" lon="6.45957">
        <ele>107</ele>
        <time>2021-05-22T08:52:21Z</time>
      </trkpt>
      <trkpt lat="43.35984" lon="6.45951">
        <ele>107</ele>
        <time>2021-05-22T08:52:24Z</time>
      </trkpt>
      <trkpt lat="43.35991" lon="6.45948">
        <ele>106.80000305176</ele>
        <time>2021-05-22T08:52:27Z</time>
      </trkpt>
      <trkpt lat="43.36015" lon="6.45942">
        <ele>106.59999847412</ele>
        <time>2021-05-22T08:52:34Z</time>
      </trkpt>
      <trkpt lat="43.36022" lon="6.4594">
        <ele>106.59999847412</ele>
        <time>2021-05-22T08:52:36Z</time>
      </trkpt>
      <trkpt lat="43.3604" lon="6.45932">
        <ele>106.40000152588</ele>
        <time>2021-05-22T08:52:40Z</time>
      </trkpt>
      <trkpt lat="43.36061" lon="6.4593">
        <ele>106.59999847412</ele>
        <time>2021-05-22T08:52:46Z</time>
      </trkpt>
      <trkpt lat="43.36082" lon="6.45935">
        <ele>108</ele>
        <time>2021-05-22T08:52:52Z</time>
      </trkpt>
      <trkpt lat="43.36086" lon="6.45935">
        <ele>108.19999694824</ele>
        <time>2021-05-22T08:52:53Z</time>
      </trkpt>
      <trkpt lat="43.36092" lon="6.45934">
        <ele>108.19999694824</ele>
        <time>2021-05-22T08:52:55Z</time>
      </trkpt>
      <trkpt lat="43.36111" lon="6.45937">
        <ele>108.80000305176</ele>
        <time>2021-05-22T08:53:00Z</time>
      </trkpt>
      <trkpt lat="43.36114" lon="6.45939">
        <ele>109</ele>
        <time>2021-05-22T08:53:01Z</time>
      </trkpt>
      <trkpt lat="43.36118" lon="6.4594">
        <ele>109.19999694824</ele>
        <time>2021-05-22T08:53:02Z</time>
      </trkpt>
      <trkpt lat="43.36122" lon="6.45942">
        <ele>109.19999694824</ele>
        <time>2021-05-22T08:53:03Z</time>
      </trkpt>
      <trkpt lat="43.36126" lon="6.45945">
        <ele>109.19999694824</ele>
        <time>2021-05-22T08:53:04Z</time>
      </trkpt>
      <trkpt lat="43.36131" lon="6.45947">
        <ele>109.19999694824</ele>
        <time>2021-05-22T08:53:05Z</time>
      </trkpt>
      <trkpt lat="43.36136" lon="6.45949">
        <ele>109.19999694824</ele>
        <time>2021-05-22T08:53:06Z</time>
      </trkpt>
      <trkpt lat="43.36156" lon="6.45955">
        <ele>109</ele>
        <time>2021-05-22T08:53:11Z</time>
      </trkpt>
      <trkpt lat="43.36177" lon="6.45956">
        <ele>108.80000305176</ele>
        <time>2021-05-22T08:53:17Z</time>
      </trkpt>
      <trkpt lat="43.36188" lon="6.45965">
        <ele>109.40000152588</ele>
        <time>2021-05-22T08:53:23Z</time>
      </trkpt>
      <trkpt lat="43.36191" lon="6.45968">
        <ele>110.19999694824</ele>
        <time>2021-05-22T08:53:25Z</time>
      </trkpt>
      <trkpt lat="43.36193" lon="6.4597">
        <ele>110.59999847412</ele>
        <time>2021-05-22T08:53:27Z</time>
      </trkpt>
      <trkpt lat="43.36195" lon="6.45973">
        <ele>110.80000305176</ele>
        <time>2021-05-22T08:53:29Z</time>
      </trkpt>
      <trkpt lat="43.362" lon="6.45977">
        <ele>111.19999694824</ele>
        <time>2021-05-22T08:53:32Z</time>
      </trkpt>
      <trkpt lat="43.36207" lon="6.45981">
        <ele>111.40000152588</ele>
        <time>2021-05-22T08:53:35Z</time>
      </trkpt>
      <trkpt lat="43.36226" lon="6.45988">
        <ele>111.40000152588</ele>
        <time>2021-05-22T08:53:44Z</time>
      </trkpt>
      <trkpt lat="43.36244" lon="6.45993">
        <ele>112</ele>
        <time>2021-05-22T08:53:51Z</time>
      </trkpt>
      <trkpt lat="43.3625" lon="6.45995">
        <ele>112.19999694824</ele>
        <time>2021-05-22T08:53:53Z</time>
      </trkpt>
      <trkpt lat="43.36266" lon="6.46002">
        <ele>112.59999847412</ele>
        <time>2021-05-22T08:53:59Z</time>
      </trkpt>
      <trkpt lat="43.36284" lon="6.46007">
        <ele>113</ele>
        <time>2021-05-22T08:54:06Z</time>
      </trkpt>
      <trkpt lat="43.36289" lon="6.46007">
        <ele>113.19999694824</ele>
        <time>2021-05-22T08:54:08Z</time>
      </trkpt>
      <trkpt lat="43.36292" lon="6.46007">
        <ele>113.19999694824</ele>
        <time>2021-05-22T08:54:09Z</time>
      </trkpt>
      <trkpt lat="43.36311" lon="6.46006">
        <ele>114.40000152588</ele>
        <time>2021-05-22T08:54:17Z</time>
      </trkpt>
      <trkpt lat="43.36327" lon="6.46006">
        <ele>115.40000152588</ele>
        <time>2021-05-22T08:54:24Z</time>
      </trkpt>
      <trkpt lat="43.36329" lon="6.46006">
        <ele>115.59999847412</ele>
        <time>2021-05-22T08:54:25Z</time>
      </trkpt>
      <trkpt lat="43.36331" lon="6.46005">
        <ele>115.80000305176</ele>
        <time>2021-05-22T08:54:26Z</time>
      </trkpt>
      <trkpt lat="43.36333" lon="6.46005">
        <ele>115.80000305176</ele>
        <time>2021-05-22T08:54:27Z</time>
      </trkpt>
      <trkpt lat="43.36335" lon="6.46005">
        <ele>116</ele>
        <time>2021-05-22T08:54:28Z</time>
      </trkpt>
      <trkpt lat="43.36337" lon="6.46006">
        <ele>116</ele>
        <time>2021-05-22T08:54:29Z</time>
      </trkpt>
      <trkpt lat="43.36341" lon="6.46007">
        <ele>116</ele>
        <time>2021-05-22T08:54:31Z</time>
      </trkpt>
      <trkpt lat="43.36354" lon="6.46013">
        <ele>116.59999847412</ele>
        <time>2021-05-22T08:54:36Z</time>
      </trkpt>
      <trkpt lat="43.36358" lon="6.46016">
        <ele>116.80000305176</ele>
        <time>2021-05-22T08:54:38Z</time>
      </trkpt>
      <trkpt lat="43.36374" lon="6.46025">
        <ele>117</ele>
        <time>2021-05-22T08:54:44Z</time>
      </trkpt>
      <trkpt lat="43.36386" lon="6.46026">
        <ele>117.19999694824</ele>
        <time>2021-05-22T08:54:49Z</time>
      </trkpt>
      <trkpt lat="43.36392" lon="6.46025">
        <ele>117.40000152588</ele>
        <time>2021-05-22T08:54:51Z</time>
      </trkpt>
      <trkpt lat="43.364" lon="6.46023">
        <ele>117.59999847412</ele>
        <time>2021-05-22T08:54:54Z</time>
      </trkpt>
      <trkpt lat="43.3641" lon="6.46021">
        <ele>118.19999694824</ele>
        <time>2021-05-22T08:54:59Z</time>
      </trkpt>
      <trkpt lat="43.36418" lon="6.46019">
        <ele>118.40000152588</ele>
        <time>2021-05-22T08:55:03Z</time>
      </trkpt>
      <trkpt lat="43.36419" lon="6.46018">
        <ele>118.80000305176</ele>
        <time>2021-05-22T08:55:04Z</time>
      </trkpt>
      <trkpt lat="43.36421" lon="6.46017">
        <ele>118.80000305176</ele>
        <time>2021-05-22T08:55:05Z</time>
      </trkpt>
      <trkpt lat="43.36423" lon="6.46016">
        <ele>119</ele>
        <time>2021-05-22T08:55:06Z</time>
      </trkpt>
      <trkpt lat="43.36429" lon="6.46015">
        <ele>119.59999847412</ele>
        <time>2021-05-22T08:55:09Z</time>
      </trkpt>
      <trkpt lat="43.36431" lon="6.46015">
        <ele>119.80000305176</ele>
        <time>2021-05-22T08:55:10Z</time>
      </trkpt>
      <trkpt lat="43.3644" lon="6.46013">
        <ele>120.40000152588</ele>
        <time>2021-05-22T08:55:14Z</time>
      </trkpt>
      <trkpt lat="43.36448" lon="6.46013">
        <ele>120.80000305176</ele>
        <time>2021-05-22T08:55:18Z</time>
      </trkpt>
      <trkpt lat="43.36458" lon="6.46015">
        <ele>121</ele>
        <time>2021-05-22T08:55:21Z</time>
      </trkpt>
      <trkpt lat="43.36482" lon="6.46021">
        <ele>120.80000305176</ele>
        <time>2021-05-22T08:55:25Z</time>
      </trkpt>
      <trkpt lat="43.36507" lon="6.46029">
        <ele>119.59999847412</ele>
        <time>2021-05-22T08:55:29Z</time>
      </trkpt>
      <trkpt lat="43.36512" lon="6.46031">
        <ele>119.59999847412</ele>
        <time>2021-05-22T08:55:30Z</time>
      </trkpt>
      <trkpt lat="43.36523" lon="6.46034">
        <ele>119</ele>
        <time>2021-05-22T08:55:32Z</time>
      </trkpt>
      <trkpt lat="43.36527" lon="6.46034">
        <ele>118.59999847412</ele>
        <time>2021-05-22T08:55:33Z</time>
      </trkpt>
      <trkpt lat="43.36531" lon="6.46033">
        <ele>118.40000152588</ele>
        <time>2021-05-22T08:55:34Z</time>
      </trkpt>
      <trkpt lat="43.36537" lon="6.46032">
        <ele>118.40000152588</ele>
        <time>2021-05-22T08:55:36Z</time>
      </trkpt>
      <trkpt lat="43.36547" lon="6.4603">
        <ele>118.59999847412</ele>
        <time>2021-05-22T08:55:39Z</time>
      </trkpt>
      <trkpt lat="43.3655" lon="6.46029">
        <ele>118.80000305176</ele>
        <time>2021-05-22T08:55:40Z</time>
      </trkpt>
      <trkpt lat="43.36564" lon="6.46024">
        <ele>119</ele>
        <time>2021-05-22T08:55:44Z</time>
      </trkpt>
      <trkpt lat="43.36574" lon="6.46021">
        <ele>118.80000305176</ele>
        <time>2021-05-22T08:55:47Z</time>
      </trkpt>
      <trkpt lat="43.36578" lon="6.46021">
        <ele>118.80000305176</ele>
        <time>2021-05-22T08:55:48Z</time>
      </trkpt>
      <trkpt lat="43.36586" lon="6.46022">
        <ele>118.59999847412</ele>
        <time>2021-05-22T08:55:50Z</time>
      </trkpt>
      <trkpt lat="43.36604" lon="6.46027">
        <ele>118.19999694824</ele>
        <time>2021-05-22T08:55:54Z</time>
      </trkpt>
      <trkpt lat="43.36609" lon="6.46028">
        <ele>118.19999694824</ele>
        <time>2021-05-22T08:55:55Z</time>
      </trkpt>
      <trkpt lat="43.36626" lon="6.46035">
        <ele>117.80000305176</ele>
        <time>2021-05-22T08:56:00Z</time>
      </trkpt>
      <trkpt lat="43.36637" lon="6.46041">
        <ele>117.80000305176</ele>
        <time>2021-05-22T08:56:03Z</time>
      </trkpt>
      <trkpt lat="43.36647" lon="6.46048">
        <ele>117.80000305176</ele>
        <time>2021-05-22T08:56:06Z</time>
      </trkpt>
      <trkpt lat="43.36668" lon="6.46055">
        <ele>117.59999847412</ele>
        <time>2021-05-22T08:56:12Z</time>
      </trkpt>
      <trkpt lat="43.36676" lon="6.46057">
        <ele>117.59999847412</ele>
        <time>2021-05-22T08:56:14Z</time>
      </trkpt>
      <trkpt lat="43.36683" lon="6.46059">
        <ele>117.59999847412</ele>
        <time>2021-05-22T08:56:16Z</time>
      </trkpt>
      <trkpt lat="43.36687" lon="6.46062">
        <ele>117.40000152588</ele>
        <time>2021-05-22T08:56:17Z</time>
      </trkpt>
      <trkpt lat="43.36705" lon="6.46072">
        <ele>117.40000152588</ele>
        <time>2021-05-22T08:56:22Z</time>
      </trkpt>
      <trkpt lat="43.36726" lon="6.46088">
        <ele>116.59999847412</ele>
        <time>2021-05-22T08:56:28Z</time>
      </trkpt>
      <trkpt lat="43.36736" lon="6.46096">
        <ele>115.19999694824</ele>
        <time>2021-05-22T08:56:31Z</time>
      </trkpt>
      <trkpt lat="43.3674" lon="6.46099">
        <ele>115</ele>
        <time>2021-05-22T08:56:32Z</time>
      </trkpt>
      <trkpt lat="43.36747" lon="6.46108">
        <ele>114.19999694824</ele>
        <time>2021-05-22T08:56:34Z</time>
      </trkpt>
      <trkpt lat="43.36759" lon="6.46122">
        <ele>113.59999847412</ele>
        <time>2021-05-22T08:56:37Z</time>
      </trkpt>
      <trkpt lat="43.36763" lon="6.46125">
        <ele>113.59999847412</ele>
        <time>2021-05-22T08:56:38Z</time>
      </trkpt>
      <trkpt lat="43.36776" lon="6.46143">
        <ele>113.59999847412</ele>
        <time>2021-05-22T08:56:43Z</time>
      </trkpt>
      <trkpt lat="43.36784" lon="6.4616">
        <ele>114</ele>
        <time>2021-05-22T08:56:47Z</time>
      </trkpt>
      <trkpt lat="43.36787" lon="6.46168">
        <ele>114</ele>
        <time>2021-05-22T08:56:49Z</time>
      </trkpt>
      <trkpt lat="43.36792" lon="6.46188">
        <ele>115</ele>
        <time>2021-05-22T08:56:55Z</time>
      </trkpt>
      <trkpt lat="43.36793" lon="6.4619">
        <ele>115.40000152588</ele>
        <time>2021-05-22T08:56:56Z</time>
      </trkpt>
      <trkpt lat="43.36795" lon="6.46199">
        <ele>116.40000152588</ele>
        <time>2021-05-22T08:56:59Z</time>
      </trkpt>
      <trkpt lat="43.36797" lon="6.46203">
        <ele>116.59999847412</ele>
        <time>2021-05-22T08:57:01Z</time>
      </trkpt>
      <trkpt lat="43.36798" lon="6.46205">
        <ele>116.59999847412</ele>
        <time>2021-05-22T08:57:02Z</time>
      </trkpt>
      <trkpt lat="43.36803" lon="6.46212">
        <ele>117.40000152588</ele>
        <time>2021-05-22T08:57:06Z</time>
      </trkpt>
      <trkpt lat="43.36804" lon="6.46214">
        <ele>117.59999847412</ele>
        <time>2021-05-22T08:57:07Z</time>
      </trkpt>
      <trkpt lat="43.36805" lon="6.46215">
        <ele>117.80000305176</ele>
        <time>2021-05-22T08:57:08Z</time>
      </trkpt>
      <trkpt lat="43.36806" lon="6.46217">
        <ele>118</ele>
        <time>2021-05-22T08:57:09Z</time>
      </trkpt>
      <trkpt lat="43.36806" lon="6.46217">
        <ele>118.40000152588</ele>
        <time>2021-05-22T08:57:10Z</time>
      </trkpt>
      <trkpt lat="43.36806" lon="6.46217">
        <ele>118.40000152588</ele>
        <time>2021-05-22T08:57:11Z</time>
      </trkpt>
      <trkpt lat="43.36806" lon="6.46217">
        <ele>118.59999847412</ele>
        <time>2021-05-22T08:57:12Z</time>
      </trkpt>
      <trkpt lat="43.36806" lon="6.46217">
        <ele>118.59999847412</ele>
        <time>2021-05-22T08:57:14Z</time>
      </trkpt>
      <trkpt lat="43.36806" lon="6.46218">
        <ele>118.59999847412</ele>
        <time>2021-05-22T08:57:16Z</time>
      </trkpt>
      <trkpt lat="43.36806" lon="6.46218">
        <ele>118.80000305176</ele>
        <time>2021-05-22T08:57:18Z</time>
      </trkpt>
      <trkpt lat="43.36806" lon="6.46218">
        <ele>119.19999694824</ele>
        <time>2021-05-22T08:57:21Z</time>
      </trkpt>
      <trkpt lat="43.36806" lon="6.46218">
        <ele>119.19999694824</ele>
        <time>2021-05-22T08:57:24Z</time>
      </trkpt>
      <trkpt lat="43.36806" lon="6.46218">
        <ele>119.19999694824</ele>
        <time>2021-05-22T08:57:26Z</time>
      </trkpt>
      <trkpt lat="43.36807" lon="6.46221">
        <ele>118.80000305176</ele>
        <time>2021-05-22T08:57:31Z</time>
      </trkpt>
      <trkpt lat="43.36814" lon="6.46242">
        <ele>118.59999847412</ele>
        <time>2021-05-22T08:57:36Z</time>
      </trkpt>
      <trkpt lat="43.36822" lon="6.46269">
        <ele>118</ele>
        <time>2021-05-22T08:57:42Z</time>
      </trkpt>
      <trkpt lat="43.36825" lon="6.4628">
        <ele>117.80000305176</ele>
        <time>2021-05-22T08:57:44Z</time>
      </trkpt>
      <trkpt lat="43.3683" lon="6.46301">
        <ele>117.40000152588</ele>
        <time>2021-05-22T08:57:48Z</time>
      </trkpt>
      <trkpt lat="43.36832" lon="6.46318">
        <ele>117.19999694824</ele>
        <time>2021-05-22T08:57:53Z</time>
      </trkpt>
      <trkpt lat="43.36842" lon="6.46334">
        <ele>117.59999847412</ele>
        <time>2021-05-22T08:57:59Z</time>
      </trkpt>
      <trkpt lat="43.36853" lon="6.46351">
        <ele>117.80000305176</ele>
        <time>2021-05-22T08:58:04Z</time>
      </trkpt>
      <trkpt lat="43.36856" lon="6.46355">
        <ele>117.80000305176</ele>
        <time>2021-05-22T08:58:05Z</time>
      </trkpt>
      <trkpt lat="43.36862" lon="6.46364">
        <ele>117.80000305176</ele>
        <time>2021-05-22T08:58:10Z</time>
      </trkpt>
      <trkpt lat="43.36862" lon="6.46364">
        <ele>118</ele>
        <time>2021-05-22T08:58:17Z</time>
      </trkpt>
      <trkpt lat="43.36861" lon="6.46362">
        <ele>118</ele>
        <time>2021-05-22T08:58:27Z</time>
      </trkpt>
      <trkpt lat="43.36859" lon="6.4636">
        <ele>118</ele>
        <time>2021-05-22T08:58:28Z</time>
      </trkpt>
      <trkpt lat="43.36851" lon="6.46349">
        <ele>117.80000305176</ele>
        <time>2021-05-22T08:58:32Z</time>
      </trkpt>
      <trkpt lat="43.36843" lon="6.46336">
        <ele>117.59999847412</ele>
        <time>2021-05-22T08:58:37Z</time>
      </trkpt>
      <trkpt lat="43.36842" lon="6.46333">
        <ele>117.59999847412</ele>
        <time>2021-05-22T08:58:39Z</time>
      </trkpt>
      <trkpt lat="43.36841" lon="6.46333">
        <ele>117.59999847412</ele>
        <time>2021-05-22T08:58:41Z</time>
      </trkpt>
      <trkpt lat="43.36842" lon="6.46336">
        <ele>117.59999847412</ele>
        <time>2021-05-22T08:58:46Z</time>
      </trkpt>
      <trkpt lat="43.36851" lon="6.46347">
        <ele>117.40000152588</ele>
        <time>2021-05-22T08:58:51Z</time>
      </trkpt>
      <trkpt lat="43.36861" lon="6.46361">
        <ele>117.40000152588</ele>
        <time>2021-05-22T08:58:56Z</time>
      </trkpt>
      <trkpt lat="43.36862" lon="6.46364">
        <ele>117.40000152588</ele>
        <time>2021-05-22T08:58:57Z</time>
      </trkpt>
      <trkpt lat="43.36867" lon="6.46373">
        <ele>117.59999847412</ele>
        <time>2021-05-22T08:59:01Z</time>
      </trkpt>
      <trkpt lat="43.36871" lon="6.46387">
        <ele>117.59999847412</ele>
        <time>2021-05-22T08:59:07Z</time>
      </trkpt>
      <trkpt lat="43.36872" lon="6.46392">
        <ele>117.40000152588</ele>
        <time>2021-05-22T08:59:10Z</time>
      </trkpt>
      <trkpt lat="43.36872" lon="6.46396">
        <ele>116.40000152588</ele>
        <time>2021-05-22T08:59:13Z</time>
      </trkpt>
      <trkpt lat="43.36872" lon="6.464">
        <ele>116.40000152588</ele>
        <time>2021-05-22T08:59:15Z</time>
      </trkpt>
      <trkpt lat="43.36872" lon="6.46414">
        <ele>115.80000305176</ele>
        <time>2021-05-22T08:59:19Z</time>
      </trkpt>
      <trkpt lat="43.36875" lon="6.46427">
        <ele>115.40000152588</ele>
        <time>2021-05-22T08:59:22Z</time>
      </trkpt>
      <trkpt lat="43.36877" lon="6.46432">
        <ele>115</ele>
        <time>2021-05-22T08:59:23Z</time>
      </trkpt>
      <trkpt lat="43.36879" lon="6.46437">
        <ele>114.59999847412</ele>
        <time>2021-05-22T08:59:24Z</time>
      </trkpt>
      <trkpt lat="43.36881" lon="6.46439">
        <ele>114.19999694824</ele>
        <time>2021-05-22T08:59:25Z</time>
      </trkpt>
      <trkpt lat="43.36885" lon="6.4644">
        <ele>113.80000305176</ele>
        <time>2021-05-22T08:59:27Z</time>
      </trkpt>
      <trkpt lat="43.36893" lon="6.46434">
        <ele>113.19999694824</ele>
        <time>2021-05-22T08:59:31Z</time>
      </trkpt>
      <trkpt lat="43.36914" lon="6.46429">
        <ele>113.40000152588</ele>
        <time>2021-05-22T08:59:38Z</time>
      </trkpt>
      <trkpt lat="43.36918" lon="6.46429">
        <ele>113.40000152588</ele>
        <time>2021-05-22T08:59:39Z</time>
      </trkpt>
      <trkpt lat="43.36932" lon="6.46428">
        <ele>113.40000152588</ele>
        <time>2021-05-22T08:59:43Z</time>
      </trkpt>
      <trkpt lat="43.36952" lon="6.4643">
        <ele>113.40000152588</ele>
        <time>2021-05-22T08:59:50Z</time>
      </trkpt>
      <trkpt lat="43.36962" lon="6.46443">
        <ele>114</ele>
        <time>2021-05-22T08:59:55Z</time>
      </trkpt>
      <trkpt lat="43.36973" lon="6.46466">
        <ele>114.19999694824</ele>
        <time>2021-05-22T09:00:00Z</time>
      </trkpt>
      <trkpt lat="43.36975" lon="6.46471">
        <ele>114.19999694824</ele>
        <time>2021-05-22T09:00:01Z</time>
      </trkpt>
      <trkpt lat="43.3698" lon="6.46488">
        <ele>114</ele>
        <time>2021-05-22T09:00:04Z</time>
      </trkpt>
      <trkpt lat="43.36981" lon="6.46495">
        <ele>113.80000305176</ele>
        <time>2021-05-22T09:00:05Z</time>
      </trkpt>
      <trkpt lat="43.36983" lon="6.46508">
        <ele>113.40000152588</ele>
        <time>2021-05-22T09:00:07Z</time>
      </trkpt>
      <trkpt lat="43.36982" lon="6.46524">
        <ele>113.19999694824</ele>
        <time>2021-05-22T09:00:09Z</time>
      </trkpt>
      <trkpt lat="43.3698" lon="6.46538">
        <ele>112.40000152588</ele>
        <time>2021-05-22T09:00:11Z</time>
      </trkpt>
      <trkpt lat="43.36979" lon="6.46544">
        <ele>112</ele>
        <time>2021-05-22T09:00:12Z</time>
      </trkpt>
      <trkpt lat="43.36977" lon="6.46556">
        <ele>111.40000152588</ele>
        <time>2021-05-22T09:00:14Z</time>
      </trkpt>
      <trkpt lat="43.36977" lon="6.46561">
        <ele>110.80000305176</ele>
        <time>2021-05-22T09:00:15Z</time>
      </trkpt>
      <trkpt lat="43.36978" lon="6.46567">
        <ele>110.19999694824</ele>
        <time>2021-05-22T09:00:16Z</time>
      </trkpt>
      <trkpt lat="43.36983" lon="6.46575">
        <ele>109.40000152588</ele>
        <time>2021-05-22T09:00:18Z</time>
      </trkpt>
      <trkpt lat="43.36985" lon="6.46576">
        <ele>109.40000152588</ele>
        <time>2021-05-22T09:00:19Z</time>
      </trkpt>
      <trkpt lat="43.36989" lon="6.46576">
        <ele>108.80000305176</ele>
        <time>2021-05-22T09:00:21Z</time>
      </trkpt>
      <trkpt lat="43.37001" lon="6.46571">
        <ele>109</ele>
        <time>2021-05-22T09:00:27Z</time>
      </trkpt>
      <trkpt lat="43.37003" lon="6.4657">
        <ele>109.19999694824</ele>
        <time>2021-05-22T09:00:28Z</time>
      </trkpt>
      <trkpt lat="43.37005" lon="6.4657">
        <ele>109.40000152588</ele>
        <time>2021-05-22T09:00:29Z</time>
      </trkpt>
      <trkpt lat="43.37009" lon="6.4657">
        <ele>109.59999847412</ele>
        <time>2021-05-22T09:00:31Z</time>
      </trkpt>
      <trkpt lat="43.37014" lon="6.4657">
        <ele>109.59999847412</ele>
        <time>2021-05-22T09:00:33Z</time>
      </trkpt>
      <trkpt lat="43.37016" lon="6.4657">
        <ele>109.80000305176</ele>
        <time>2021-05-22T09:00:34Z</time>
      </trkpt>
      <trkpt lat="43.37018" lon="6.46569">
        <ele>109.80000305176</ele>
        <time>2021-05-22T09:00:35Z</time>
      </trkpt>
      <trkpt lat="43.3702" lon="6.46568">
        <ele>109.80000305176</ele>
        <time>2021-05-22T09:00:36Z</time>
      </trkpt>
      <trkpt lat="43.37029" lon="6.46568">
        <ele>109.80000305176</ele>
        <time>2021-05-22T09:00:39Z</time>
      </trkpt>
      <trkpt lat="43.37032" lon="6.46568">
        <ele>109.80000305176</ele>
        <time>2021-05-22T09:00:40Z</time>
      </trkpt>
      <trkpt lat="43.37046" lon="6.46569">
        <ele>109.59999847412</ele>
        <time>2021-05-22T09:00:44Z</time>
      </trkpt>
      <trkpt lat="43.37049" lon="6.46568">
        <ele>109.40000152588</ele>
        <time>2021-05-22T09:00:45Z</time>
      </trkpt>
      <trkpt lat="43.37054" lon="6.46567">
        <ele>109.40000152588</ele>
        <time>2021-05-22T09:00:46Z</time>
      </trkpt>
      <trkpt lat="43.37078" lon="6.46558">
        <ele>108.59999847412</ele>
        <time>2021-05-22T09:00:51Z</time>
      </trkpt>
      <trkpt lat="43.37083" lon="6.46555">
        <ele>108.59999847412</ele>
        <time>2021-05-22T09:00:52Z</time>
      </trkpt>
      <trkpt lat="43.37092" lon="6.46549">
        <ele>108.40000152588</ele>
        <time>2021-05-22T09:00:54Z</time>
      </trkpt>
      <trkpt lat="43.37105" lon="6.46541">
        <ele>107.80000305176</ele>
        <time>2021-05-22T09:00:57Z</time>
      </trkpt>
      <trkpt lat="43.37108" lon="6.46539">
        <ele>107.59999847412</ele>
        <time>2021-05-22T09:00:58Z</time>
      </trkpt>
      <trkpt lat="43.37121" lon="6.46532">
        <ele>107.40000152588</ele>
        <time>2021-05-22T09:01:02Z</time>
      </trkpt>
      <trkpt lat="43.37128" lon="6.46528">
        <ele>107.40000152588</ele>
        <time>2021-05-22T09:01:05Z</time>
      </trkpt>
      <trkpt lat="43.37131" lon="6.46526">
        <ele>107.40000152588</ele>
        <time>2021-05-22T09:01:08Z</time>
      </trkpt>
      <trkpt lat="43.37131" lon="6.46526">
        <ele>107.40000152588</ele>
        <time>2021-05-22T09:01:09Z</time>
      </trkpt>
      <trkpt lat="43.37131" lon="6.46526">
        <ele>107.40000152588</ele>
        <time>2021-05-22T09:01:22Z</time>
      </trkpt>
      <trkpt lat="43.37131" lon="6.46526">
        <ele>107.40000152588</ele>
        <time>2021-05-22T09:01:25Z</time>
      </trkpt>
      <trkpt lat="43.37131" lon="6.46526">
        <ele>107.19999694824</ele>
        <time>2021-05-22T09:01:31Z</time>
      </trkpt>
      <trkpt lat="43.37131" lon="6.46526">
        <ele>107</ele>
        <time>2021-05-22T09:01:38Z</time>
      </trkpt>
      <trkpt lat="43.37131" lon="6.46526">
        <ele>107</ele>
        <time>2021-05-22T09:01:42Z</time>
      </trkpt>
      <trkpt lat="43.37131" lon="6.46526">
        <ele>106.80000305176</ele>
        <time>2021-05-22T09:01:46Z</time>
      </trkpt>
      <trkpt lat="43.37131" lon="6.46526">
        <ele>106.80000305176</ele>
        <time>2021-05-22T09:01:50Z</time>
      </trkpt>
      <trkpt lat="43.37133" lon="6.46526">
        <ele>107.19999694824</ele>
        <time>2021-05-22T09:02:34Z</time>
      </trkpt>
      <trkpt lat="43.37135" lon="6.46526">
        <ele>107.19999694824</ele>
        <time>2021-05-22T09:02:35Z</time>
      </trkpt>
      <trkpt lat="43.37136" lon="6.46526">
        <ele>107</ele>
        <time>2021-05-22T09:02:36Z</time>
      </trkpt>
      <trkpt lat="43.37139" lon="6.46526">
        <ele>107</ele>
        <time>2021-05-22T09:02:38Z</time>
      </trkpt>
      <trkpt lat="43.37141" lon="6.46522">
        <ele>107</ele>
        <time>2021-05-22T09:02:40Z</time>
      </trkpt>
      <trkpt lat="43.37141" lon="6.4652">
        <ele>107</ele>
        <time>2021-05-22T09:02:41Z</time>
      </trkpt>
      <trkpt lat="43.37139" lon="6.46506">
        <ele>107</ele>
        <time>2021-05-22T09:02:45Z</time>
      </trkpt>
      <trkpt lat="43.37138" lon="6.46503">
        <ele>107</ele>
        <time>2021-05-22T09:02:46Z</time>
      </trkpt>
      <trkpt lat="43.37133" lon="6.46494">
        <ele>107.19999694824</ele>
        <time>2021-05-22T09:02:49Z</time>
      </trkpt>
      <trkpt lat="43.37138" lon="6.46476">
        <ele>107.19999694824</ele>
        <time>2021-05-22T09:02:53Z</time>
      </trkpt>
      <trkpt lat="43.37153" lon="6.46448">
        <ele>107.19999694824</ele>
        <time>2021-05-22T09:03:00Z</time>
      </trkpt>
      <trkpt lat="43.37158" lon="6.46437">
        <ele>107.80000305176</ele>
        <time>2021-05-22T09:03:03Z</time>
      </trkpt>
      <trkpt lat="43.3716" lon="6.46428">
        <ele>108</ele>
        <time>2021-05-22T09:03:05Z</time>
      </trkpt>
      <trkpt lat="43.37162" lon="6.46412">
        <ele>108</ele>
        <time>2021-05-22T09:03:08Z</time>
      </trkpt>
      <trkpt lat="43.37163" lon="6.46397">
        <ele>107.80000305176</ele>
        <time>2021-05-22T09:03:11Z</time>
      </trkpt>
      <trkpt lat="43.37163" lon="6.46392">
        <ele>107.80000305176</ele>
        <time>2021-05-22T09:03:12Z</time>
      </trkpt>
      <trkpt lat="43.37163" lon="6.46375">
        <ele>107.59999847412</ele>
        <time>2021-05-22T09:03:15Z</time>
      </trkpt>
      <trkpt lat="43.37164" lon="6.4637">
        <ele>107.59999847412</ele>
        <time>2021-05-22T09:03:16Z</time>
      </trkpt>
      <trkpt lat="43.37166" lon="6.46365">
        <ele>107.59999847412</ele>
        <time>2021-05-22T09:03:17Z</time>
      </trkpt>
      <trkpt lat="43.37176" lon="6.46334">
        <ele>107.40000152588</ele>
        <time>2021-05-22T09:03:23Z</time>
      </trkpt>
      <trkpt lat="43.37177" lon="6.46325">
        <ele>107.40000152588</ele>
        <time>2021-05-22T09:03:25Z</time>
      </trkpt>
      <trkpt lat="43.37179" lon="6.46319">
        <ele>107.40000152588</ele>
        <time>2021-05-22T09:03:26Z</time>
      </trkpt>
      <trkpt lat="43.37181" lon="6.46315">
        <ele>107</ele>
        <time>2021-05-22T09:03:27Z</time>
      </trkpt>
      <trkpt lat="43.37183" lon="6.46311">
        <ele>107</ele>
        <time>2021-05-22T09:03:28Z</time>
      </trkpt>
      <trkpt lat="43.3719" lon="6.46298">
        <ele>106.80000305176</ele>
        <time>2021-05-22T09:03:31Z</time>
      </trkpt>
      <trkpt lat="43.37193" lon="6.46294">
        <ele>106.80000305176</ele>
        <time>2021-05-22T09:03:32Z</time>
      </trkpt>
      <trkpt lat="43.37199" lon="6.46287">
        <ele>106.59999847412</ele>
        <time>2021-05-22T09:03:34Z</time>
      </trkpt>
      <trkpt lat="43.37205" lon="6.46277">
        <ele>106.59999847412</ele>
        <time>2021-05-22T09:03:36Z</time>
      </trkpt>
      <trkpt lat="43.37215" lon="6.46257">
        <ele>106.40000152588</ele>
        <time>2021-05-22T09:03:40Z</time>
      </trkpt>
      <trkpt lat="43.3722" lon="6.46247">
        <ele>106.40000152588</ele>
        <time>2021-05-22T09:03:42Z</time>
      </trkpt>
      <trkpt lat="43.37224" lon="6.46243">
        <ele>106.19999694824</ele>
        <time>2021-05-22T09:03:43Z</time>
      </trkpt>
      <trkpt lat="43.37236" lon="6.46222">
        <ele>105.40000152588</ele>
        <time>2021-05-22T09:03:47Z</time>
      </trkpt>
      <trkpt lat="43.37244" lon="6.46204">
        <ele>105.19999694824</ele>
        <time>2021-05-22T09:03:50Z</time>
      </trkpt>
      <trkpt lat="43.37252" lon="6.46178">
        <ele>104.80000305176</ele>
        <time>2021-05-22T09:03:54Z</time>
      </trkpt>
      <trkpt lat="43.37262" lon="6.46144">
        <ele>104.19999694824</ele>
        <time>2021-05-22T09:03:59Z</time>
      </trkpt>
      <trkpt lat="43.3727" lon="6.46128">
        <ele>104</ele>
        <time>2021-05-22T09:04:02Z</time>
      </trkpt>
      <trkpt lat="43.37282" lon="6.46104">
        <ele>103.80000305176</ele>
        <time>2021-05-22T09:04:06Z</time>
      </trkpt>
      <trkpt lat="43.37285" lon="6.46093">
        <ele>103.59999847412</ele>
        <time>2021-05-22T09:04:08Z</time>
      </trkpt>
      <trkpt lat="43.37288" lon="6.46071">
        <ele>103.40000152588</ele>
        <time>2021-05-22T09:04:11Z</time>
      </trkpt>
      <trkpt lat="43.37289" lon="6.46051">
        <ele>103</ele>
        <time>2021-05-22T09:04:14Z</time>
      </trkpt>
      <trkpt lat="43.37289" lon="6.46032">
        <ele>102.40000152588</ele>
        <time>2021-05-22T09:04:17Z</time>
      </trkpt>
      <trkpt lat="43.37289" lon="6.4601">
        <ele>102.40000152588</ele>
        <time>2021-05-22T09:04:20Z</time>
      </trkpt>
      <trkpt lat="43.3729" lon="6.46003">
        <ele>102.19999694824</ele>
        <time>2021-05-22T09:04:21Z</time>
      </trkpt>
      <trkpt lat="43.37291" lon="6.4599">
        <ele>102.19999694824</ele>
        <time>2021-05-22T09:04:23Z</time>
      </trkpt>
      <trkpt lat="43.37292" lon="6.45981">
        <ele>102</ele>
        <time>2021-05-22T09:04:24Z</time>
      </trkpt>
      <trkpt lat="43.37294" lon="6.45968">
        <ele>102</ele>
        <time>2021-05-22T09:04:26Z</time>
      </trkpt>
      <trkpt lat="43.37298" lon="6.45953">
        <ele>101.80000305176</ele>
        <time>2021-05-22T09:04:28Z</time>
      </trkpt>
      <trkpt lat="43.37302" lon="6.45936">
        <ele>101.80000305176</ele>
        <time>2021-05-22T09:04:30Z</time>
      </trkpt>
      <trkpt lat="43.37304" lon="6.45922">
        <ele>101.59999847412</ele>
        <time>2021-05-22T09:04:32Z</time>
      </trkpt>
      <trkpt lat="43.37306" lon="6.459">
        <ele>101.40000152588</ele>
        <time>2021-05-22T09:04:35Z</time>
      </trkpt>
      <trkpt lat="43.37308" lon="6.45878">
        <ele>100.80000305176</ele>
        <time>2021-05-22T09:04:38Z</time>
      </trkpt>
      <trkpt lat="43.37313" lon="6.45845">
        <ele>100.59999847412</ele>
        <time>2021-05-22T09:04:43Z</time>
      </trkpt>
      <trkpt lat="43.37315" lon="6.45831">
        <ele>100.40000152588</ele>
        <time>2021-05-22T09:04:45Z</time>
      </trkpt>
      <trkpt lat="43.37316" lon="6.4582">
        <ele>100.19999694824</ele>
        <time>2021-05-22T09:04:47Z</time>
      </trkpt>
      <trkpt lat="43.37316" lon="6.45814">
        <ele>100.19999694824</ele>
        <time>2021-05-22T09:04:48Z</time>
      </trkpt>
      <trkpt lat="43.37317" lon="6.45807">
        <ele>100.19999694824</ele>
        <time>2021-05-22T09:04:49Z</time>
      </trkpt>
      <trkpt lat="43.37318" lon="6.45802">
        <ele>100.19999694824</ele>
        <time>2021-05-22T09:04:50Z</time>
      </trkpt>
      <trkpt lat="43.37324" lon="6.45773">
        <ele>100</ele>
        <time>2021-05-22T09:04:55Z</time>
      </trkpt>
      <trkpt lat="43.37326" lon="6.45767">
        <ele>100</ele>
        <time>2021-05-22T09:04:56Z</time>
      </trkpt>
      <trkpt lat="43.3733" lon="6.45757">
        <ele>99.800003051758</ele>
        <time>2021-05-22T09:04:58Z</time>
      </trkpt>
      <trkpt lat="43.37344" lon="6.45729">
        <ele>99.400001525879</ele>
        <time>2021-05-22T09:05:03Z</time>
      </trkpt>
      <trkpt lat="43.37354" lon="6.45712">
        <ele>99</ele>
        <time>2021-05-22T09:05:06Z</time>
      </trkpt>
      <trkpt lat="43.37365" lon="6.45692">
        <ele>98.800003051758</ele>
        <time>2021-05-22T09:05:10Z</time>
      </trkpt>
      <trkpt lat="43.37367" lon="6.45687">
        <ele>98.800003051758</ele>
        <time>2021-05-22T09:05:11Z</time>
      </trkpt>
      <trkpt lat="43.37375" lon="6.45665">
        <ele>98.400001525879</ele>
        <time>2021-05-22T09:05:15Z</time>
      </trkpt>
      <trkpt lat="43.37377" lon="6.45659">
        <ele>98.400001525879</ele>
        <time>2021-05-22T09:05:16Z</time>
      </trkpt>
      <trkpt lat="43.37378" lon="6.45645">
        <ele>98.199996948242</ele>
        <time>2021-05-22T09:05:18Z</time>
      </trkpt>
      <trkpt lat="43.37378" lon="6.4563">
        <ele>98.199996948242</ele>
        <time>2021-05-22T09:05:20Z</time>
      </trkpt>
      <trkpt lat="43.37378" lon="6.45613">
        <ele>98</ele>
        <time>2021-05-22T09:05:22Z</time>
      </trkpt>
      <trkpt lat="43.37381" lon="6.45587">
        <ele>97.800003051758</ele>
        <time>2021-05-22T09:05:25Z</time>
      </trkpt>
      <trkpt lat="43.37381" lon="6.45579">
        <ele>97.599998474121</ele>
        <time>2021-05-22T09:05:26Z</time>
      </trkpt>
      <trkpt lat="43.37386" lon="6.45535">
        <ele>96.599998474121</ele>
        <time>2021-05-22T09:05:31Z</time>
      </trkpt>
      <trkpt lat="43.37389" lon="6.45526">
        <ele>96.599998474121</ele>
        <time>2021-05-22T09:05:32Z</time>
      </trkpt>
      <trkpt lat="43.37407" lon="6.4547">
        <ele>95.199996948242</ele>
        <time>2021-05-22T09:05:38Z</time>
      </trkpt>
      <trkpt lat="43.37416" lon="6.45426">
        <ele>94</ele>
        <time>2021-05-22T09:05:42Z</time>
      </trkpt>
      <trkpt lat="43.37418" lon="6.45416">
        <ele>93.599998474121</ele>
        <time>2021-05-22T09:05:43Z</time>
      </trkpt>
      <trkpt lat="43.37421" lon="6.45396">
        <ele>93.199996948242</ele>
        <time>2021-05-22T09:05:45Z</time>
      </trkpt>
      <trkpt lat="43.37422" lon="6.45382">
        <ele>92.599998474121</ele>
        <time>2021-05-22T09:05:47Z</time>
      </trkpt>
      <trkpt lat="43.37426" lon="6.45368">
        <ele>91.599998474121</ele>
        <time>2021-05-22T09:05:50Z</time>
      </trkpt>
      <trkpt lat="43.37428" lon="6.45365">
        <ele>91.400001525879</ele>
        <time>2021-05-22T09:05:51Z</time>
      </trkpt>
      <trkpt lat="43.37432" lon="6.45363">
        <ele>90.400001525879</ele>
        <time>2021-05-22T09:05:53Z</time>
      </trkpt>
      <trkpt lat="43.37434" lon="6.45364">
        <ele>90</ele>
        <time>2021-05-22T09:05:54Z</time>
      </trkpt>
      <trkpt lat="43.37437" lon="6.45368">
        <ele>89.400001525879</ele>
        <time>2021-05-22T09:05:56Z</time>
      </trkpt>
      <trkpt lat="43.37439" lon="6.45374">
        <ele>89.199996948242</ele>
        <time>2021-05-22T09:05:58Z</time>
      </trkpt>
      <trkpt lat="43.37441" lon="6.45377">
        <ele>89.199996948242</ele>
        <time>2021-05-22T09:05:59Z</time>
      </trkpt>
      <trkpt lat="43.37443" lon="6.4538">
        <ele>89.199996948242</ele>
        <time>2021-05-22T09:06:00Z</time>
      </trkpt>
      <trkpt lat="43.37445" lon="6.45382">
        <ele>89.199996948242</ele>
        <time>2021-05-22T09:06:01Z</time>
      </trkpt>
      <trkpt lat="43.37447" lon="6.45384">
        <ele>89.199996948242</ele>
        <time>2021-05-22T09:06:02Z</time>
      </trkpt>
      <trkpt lat="43.3745" lon="6.45387">
        <ele>89.199996948242</ele>
        <time>2021-05-22T09:06:03Z</time>
      </trkpt>
      <trkpt lat="43.37452" lon="6.45392">
        <ele>89.199996948242</ele>
        <time>2021-05-22T09:06:04Z</time>
      </trkpt>
      <trkpt lat="43.37455" lon="6.45397">
        <ele>89.199996948242</ele>
        <time>2021-05-22T09:06:05Z</time>
      </trkpt>
      <trkpt lat="43.37461" lon="6.45407">
        <ele>89.199996948242</ele>
        <time>2021-05-22T09:06:07Z</time>
      </trkpt>
      <trkpt lat="43.37464" lon="6.45412">
        <ele>89.199996948242</ele>
        <time>2021-05-22T09:06:08Z</time>
      </trkpt>
      <trkpt lat="43.37468" lon="6.45418">
        <ele>89.199996948242</ele>
        <time>2021-05-22T09:06:09Z</time>
      </trkpt>
      <trkpt lat="43.37475" lon="6.45429">
        <ele>89.199996948242</ele>
        <time>2021-05-22T09:06:11Z</time>
      </trkpt>
      <trkpt lat="43.37479" lon="6.45433">
        <ele>89</ele>
        <time>2021-05-22T09:06:12Z</time>
      </trkpt>
      <trkpt lat="43.37484" lon="6.45439">
        <ele>88.400001525879</ele>
        <time>2021-05-22T09:06:14Z</time>
      </trkpt>
      <trkpt lat="43.37487" lon="6.45442">
        <ele>88.199996948242</ele>
        <time>2021-05-22T09:06:15Z</time>
      </trkpt>
      <trkpt lat="43.3749" lon="6.45448">
        <ele>88</ele>
        <time>2021-05-22T09:06:17Z</time>
      </trkpt>
      <trkpt lat="43.37491" lon="6.45457">
        <ele>87.800003051758</ele>
        <time>2021-05-22T09:06:19Z</time>
      </trkpt>
      <trkpt lat="43.37497" lon="6.45472">
        <ele>87.400001525879</ele>
        <time>2021-05-22T09:06:22Z</time>
      </trkpt>
      <trkpt lat="43.375" lon="6.45475">
        <ele>87.199996948242</ele>
        <time>2021-05-22T09:06:23Z</time>
      </trkpt>
      <trkpt lat="43.37502" lon="6.45477">
        <ele>86.599998474121</ele>
        <time>2021-05-22T09:06:24Z</time>
      </trkpt>
      <trkpt lat="43.37504" lon="6.45479">
        <ele>86.199996948242</ele>
        <time>2021-05-22T09:06:25Z</time>
      </trkpt>
      <trkpt lat="43.37511" lon="6.4548">
        <ele>85.800003051758</ele>
        <time>2021-05-22T09:06:27Z</time>
      </trkpt>
      <trkpt lat="43.37515" lon="6.45482">
        <ele>85.599998474121</ele>
        <time>2021-05-22T09:06:29Z</time>
      </trkpt>
      <trkpt lat="43.37517" lon="6.45482">
        <ele>85.599998474121</ele>
        <time>2021-05-22T09:06:30Z</time>
      </trkpt>
      <trkpt lat="43.37519" lon="6.45483">
        <ele>85.400001525879</ele>
        <time>2021-05-22T09:06:31Z</time>
      </trkpt>
      <trkpt lat="43.37526" lon="6.45487">
        <ele>85.599998474121</ele>
        <time>2021-05-22T09:06:35Z</time>
      </trkpt>
      <trkpt lat="43.37532" lon="6.45494">
        <ele>85.599998474121</ele>
        <time>2021-05-22T09:06:38Z</time>
      </trkpt>
      <trkpt lat="43.37536" lon="6.45498">
        <ele>85.800003051758</ele>
        <time>2021-05-22T09:06:40Z</time>
      </trkpt>
      <trkpt lat="43.37546" lon="6.45501">
        <ele>86</ele>
        <time>2021-05-22T09:06:45Z</time>
      </trkpt>
      <trkpt lat="43.37554" lon="6.45509">
        <ele>86.199996948242</ele>
        <time>2021-05-22T09:06:49Z</time>
      </trkpt>
      <trkpt lat="43.37565" lon="6.45517">
        <ele>86.599998474121</ele>
        <time>2021-05-22T09:06:56Z</time>
      </trkpt>
      <trkpt lat="43.37568" lon="6.4552">
        <ele>87</ele>
        <time>2021-05-22T09:06:58Z</time>
      </trkpt>
      <trkpt lat="43.37569" lon="6.4552">
        <ele>87.199996948242</ele>
        <time>2021-05-22T09:06:59Z</time>
      </trkpt>
      <trkpt lat="43.37575" lon="6.45523">
        <ele>87.800003051758</ele>
        <time>2021-05-22T09:07:02Z</time>
      </trkpt>
      <trkpt lat="43.37576" lon="6.45524">
        <ele>87.800003051758</ele>
        <time>2021-05-22T09:07:03Z</time>
      </trkpt>
      <trkpt lat="43.37578" lon="6.45526">
        <ele>88</ele>
        <time>2021-05-22T09:07:05Z</time>
      </trkpt>
      <trkpt lat="43.37581" lon="6.45529">
        <ele>88.199996948242</ele>
        <time>2021-05-22T09:07:07Z</time>
      </trkpt>
      <trkpt lat="43.37583" lon="6.45529">
        <ele>88.400001525879</ele>
        <time>2021-05-22T09:07:08Z</time>
      </trkpt>
      <trkpt lat="43.37594" lon="6.45533">
        <ele>89.400001525879</ele>
        <time>2021-05-22T09:07:14Z</time>
      </trkpt>
      <trkpt lat="43.37596" lon="6.45534">
        <ele>89.599998474121</ele>
        <time>2021-05-22T09:07:15Z</time>
      </trkpt>
      <trkpt lat="43.37611" lon="6.45543">
        <ele>90.199996948242</ele>
        <time>2021-05-22T09:07:22Z</time>
      </trkpt>
      <trkpt lat="43.37618" lon="6.45545">
        <ele>90.400001525879</ele>
        <time>2021-05-22T09:07:25Z</time>
      </trkpt>
      <trkpt lat="43.37632" lon="6.45552">
        <ele>90.800003051758</ele>
        <time>2021-05-22T09:07:30Z</time>
      </trkpt>
      <trkpt lat="43.37659" lon="6.45561">
        <ele>90.800003051758</ele>
        <time>2021-05-22T09:07:38Z</time>
      </trkpt>
      <trkpt lat="43.37682" lon="6.45567">
        <ele>90.199996948242</ele>
        <time>2021-05-22T09:07:45Z</time>
      </trkpt>
      <trkpt lat="43.37691" lon="6.45569">
        <ele>89.400001525879</ele>
        <time>2021-05-22T09:07:49Z</time>
      </trkpt>
      <trkpt lat="43.37695" lon="6.45569">
        <ele>89.199996948242</ele>
        <time>2021-05-22T09:07:51Z</time>
      </trkpt>
      <trkpt lat="43.37704" lon="6.45567">
        <ele>89</ele>
        <time>2021-05-22T09:07:54Z</time>
      </trkpt>
      <trkpt lat="43.37713" lon="6.45567">
        <ele>88.400001525879</ele>
        <time>2021-05-22T09:07:56Z</time>
      </trkpt>
      <trkpt lat="43.37717" lon="6.45567">
        <ele>88.199996948242</ele>
        <time>2021-05-22T09:07:57Z</time>
      </trkpt>
      <trkpt lat="43.37729" lon="6.45568">
        <ele>87.599998474121</ele>
        <time>2021-05-22T09:08:00Z</time>
      </trkpt>
      <trkpt lat="43.37736" lon="6.45571">
        <ele>87.400001525879</ele>
        <time>2021-05-22T09:08:02Z</time>
      </trkpt>
      <trkpt lat="43.37748" lon="6.45574">
        <ele>87.400001525879</ele>
        <time>2021-05-22T09:08:07Z</time>
      </trkpt>
      <trkpt lat="43.37758" lon="6.45579">
        <ele>87.800003051758</ele>
        <time>2021-05-22T09:08:13Z</time>
      </trkpt>
      <trkpt lat="43.37769" lon="6.45589">
        <ele>88.400001525879</ele>
        <time>2021-05-22T09:08:19Z</time>
      </trkpt>
      <trkpt lat="43.37778" lon="6.45596">
        <ele>88.800003051758</ele>
        <time>2021-05-22T09:08:23Z</time>
      </trkpt>
      <trkpt lat="43.37781" lon="6.45596">
        <ele>89</ele>
        <time>2021-05-22T09:08:24Z</time>
      </trkpt>
      <trkpt lat="43.37798" lon="6.45587">
        <ele>89.199996948242</ele>
        <time>2021-05-22T09:08:30Z</time>
      </trkpt>
      <trkpt lat="43.37813" lon="6.45567">
        <ele>89.199996948242</ele>
        <time>2021-05-22T09:08:36Z</time>
      </trkpt>
      <trkpt lat="43.37837" lon="6.45554">
        <ele>88.800003051758</ele>
        <time>2021-05-22T09:08:43Z</time>
      </trkpt>
      <trkpt lat="43.37849" lon="6.45552">
        <ele>88.199996948242</ele>
        <time>2021-05-22T09:08:46Z</time>
      </trkpt>
      <trkpt lat="43.37863" lon="6.45553">
        <ele>87.800003051758</ele>
        <time>2021-05-22T09:08:49Z</time>
      </trkpt>
      <trkpt lat="43.37871" lon="6.45554">
        <ele>87.800003051758</ele>
        <time>2021-05-22T09:08:51Z</time>
      </trkpt>
      <trkpt lat="43.37884" lon="6.45551">
        <ele>87.599998474121</ele>
        <time>2021-05-22T09:08:54Z</time>
      </trkpt>
      <trkpt lat="43.37898" lon="6.45543">
        <ele>87.199996948242</ele>
        <time>2021-05-22T09:08:57Z</time>
      </trkpt>
      <trkpt lat="43.37902" lon="6.4554">
        <ele>87</ele>
        <time>2021-05-22T09:08:58Z</time>
      </trkpt>
      <trkpt lat="43.37907" lon="6.45538">
        <ele>87</ele>
        <time>2021-05-22T09:08:59Z</time>
      </trkpt>
      <trkpt lat="43.37913" lon="6.45536">
        <ele>86.599998474121</ele>
        <time>2021-05-22T09:09:00Z</time>
      </trkpt>
      <trkpt lat="43.37923" lon="6.45533">
        <ele>85.800003051758</ele>
        <time>2021-05-22T09:09:02Z</time>
      </trkpt>
      <trkpt lat="43.37938" lon="6.45529">
        <ele>85.400001525879</ele>
        <time>2021-05-22T09:09:06Z</time>
      </trkpt>
      <trkpt lat="43.37941" lon="6.45527">
        <ele>85</ele>
        <time>2021-05-22T09:09:07Z</time>
      </trkpt>
      <trkpt lat="43.37946" lon="6.45523">
        <ele>84.599998474121</ele>
        <time>2021-05-22T09:09:09Z</time>
      </trkpt>
      <trkpt lat="43.37954" lon="6.45517">
        <ele>84.199996948242</ele>
        <time>2021-05-22T09:09:12Z</time>
      </trkpt>
      <trkpt lat="43.37972" lon="6.45504">
        <ele>83.800003051758</ele>
        <time>2021-05-22T09:09:18Z</time>
      </trkpt>
      <trkpt lat="43.37982" lon="6.45502">
        <ele>84</ele>
        <time>2021-05-22T09:09:22Z</time>
      </trkpt>
      <trkpt lat="43.3799" lon="6.45506">
        <ele>84.400001525879</ele>
        <time>2021-05-22T09:09:26Z</time>
      </trkpt>
      <trkpt lat="43.38006" lon="6.45511">
        <ele>85.199996948242</ele>
        <time>2021-05-22T09:09:32Z</time>
      </trkpt>
      <trkpt lat="43.38022" lon="6.4551">
        <ele>85.599998474121</ele>
        <time>2021-05-22T09:09:37Z</time>
      </trkpt>
      <trkpt lat="43.38028" lon="6.45511">
        <ele>85.800003051758</ele>
        <time>2021-05-22T09:09:39Z</time>
      </trkpt>
      <trkpt lat="43.38034" lon="6.45512">
        <ele>86.199996948242</ele>
        <time>2021-05-22T09:09:41Z</time>
      </trkpt>
      <trkpt lat="43.38049" lon="6.45519">
        <ele>87</ele>
        <time>2021-05-22T09:09:46Z</time>
      </trkpt>
      <trkpt lat="43.38053" lon="6.45521">
        <ele>87</ele>
        <time>2021-05-22T09:09:47Z</time>
      </trkpt>
      <trkpt lat="43.38066" lon="6.4553">
        <ele>87.199996948242</ele>
        <time>2021-05-22T09:09:51Z</time>
      </trkpt>
      <trkpt lat="43.38073" lon="6.45531">
        <ele>87.199996948242</ele>
        <time>2021-05-22T09:09:53Z</time>
      </trkpt>
      <trkpt lat="43.38089" lon="6.45525">
        <ele>87.199996948242</ele>
        <time>2021-05-22T09:09:58Z</time>
      </trkpt>
      <trkpt lat="43.381" lon="6.45514">
        <ele>87.199996948242</ele>
        <time>2021-05-22T09:10:03Z</time>
      </trkpt>
      <trkpt lat="43.38115" lon="6.45513">
        <ele>87.199996948242</ele>
        <time>2021-05-22T09:10:07Z</time>
      </trkpt>
      <trkpt lat="43.38119" lon="6.4551">
        <ele>87.199996948242</ele>
        <time>2021-05-22T09:10:08Z</time>
      </trkpt>
      <trkpt lat="43.38125" lon="6.45504">
        <ele>87.199996948242</ele>
        <time>2021-05-22T09:10:10Z</time>
      </trkpt>
      <trkpt lat="43.3813" lon="6.45499">
        <ele>86.800003051758</ele>
        <time>2021-05-22T09:10:12Z</time>
      </trkpt>
      <trkpt lat="43.38131" lon="6.45498">
        <ele>86.800003051758</ele>
        <time>2021-05-22T09:10:13Z</time>
      </trkpt>
      <trkpt lat="43.38132" lon="6.45497">
        <ele>86.599998474121</ele>
        <time>2021-05-22T09:10:14Z</time>
      </trkpt>
      <trkpt lat="43.38133" lon="6.45496">
        <ele>86.599998474121</ele>
        <time>2021-05-22T09:10:15Z</time>
      </trkpt>
      <trkpt lat="43.38134" lon="6.45495">
        <ele>86.599998474121</ele>
        <time>2021-05-22T09:10:16Z</time>
      </trkpt>
      <trkpt lat="43.38137" lon="6.45493">
        <ele>86.400001525879</ele>
        <time>2021-05-22T09:10:18Z</time>
      </trkpt>
      <trkpt lat="43.38144" lon="6.4549">
        <ele>86.400001525879</ele>
        <time>2021-05-22T09:10:21Z</time>
      </trkpt>
      <trkpt lat="43.38157" lon="6.45485">
        <ele>85.800003051758</ele>
        <time>2021-05-22T09:10:26Z</time>
      </trkpt>
      <trkpt lat="43.38159" lon="6.45484">
        <ele>85.599998474121</ele>
        <time>2021-05-22T09:10:27Z</time>
      </trkpt>
      <trkpt lat="43.38168" lon="6.45481">
        <ele>84.800003051758</ele>
        <time>2021-05-22T09:10:30Z</time>
      </trkpt>
      <trkpt lat="43.38177" lon="6.45473">
        <ele>84.199996948242</ele>
        <time>2021-05-22T09:10:33Z</time>
      </trkpt>
      <trkpt lat="43.38181" lon="6.45473">
        <ele>84.199996948242</ele>
        <time>2021-05-22T09:10:34Z</time>
      </trkpt>
      <trkpt lat="43.38184" lon="6.45473">
        <ele>83.800003051758</ele>
        <time>2021-05-22T09:10:35Z</time>
      </trkpt>
      <trkpt lat="43.3819" lon="6.45475">
        <ele>83</ele>
        <time>2021-05-22T09:10:37Z</time>
      </trkpt>
      <trkpt lat="43.38194" lon="6.45479">
        <ele>82.400001525879</ele>
        <time>2021-05-22T09:10:39Z</time>
      </trkpt>
      <trkpt lat="43.38202" lon="6.45483">
        <ele>81.599998474121</ele>
        <time>2021-05-22T09:10:42Z</time>
      </trkpt>
      <trkpt lat="43.38209" lon="6.45485">
        <ele>81.199996948242</ele>
        <time>2021-05-22T09:10:44Z</time>
      </trkpt>
      <trkpt lat="43.38216" lon="6.45492">
        <ele>80</ele>
        <time>2021-05-22T09:10:47Z</time>
      </trkpt>
      <trkpt lat="43.38218" lon="6.45493">
        <ele>79.599998474121</ele>
        <time>2021-05-22T09:10:48Z</time>
      </trkpt>
      <trkpt lat="43.38221" lon="6.45497">
        <ele>79.199996948242</ele>
        <time>2021-05-22T09:10:50Z</time>
      </trkpt>
      <trkpt lat="43.38224" lon="6.45503">
        <ele>79</ele>
        <time>2021-05-22T09:10:52Z</time>
      </trkpt>
      <trkpt lat="43.38238" lon="6.45512">
        <ele>78.199996948242</ele>
        <time>2021-05-22T09:10:57Z</time>
      </trkpt>
      <trkpt lat="43.38242" lon="6.45513">
        <ele>78</ele>
        <time>2021-05-22T09:10:58Z</time>
      </trkpt>
      <trkpt lat="43.38246" lon="6.45513">
        <ele>77.800003051758</ele>
        <time>2021-05-22T09:10:59Z</time>
      </trkpt>
      <trkpt lat="43.38251" lon="6.45513">
        <ele>77.199996948242</ele>
        <time>2021-05-22T09:11:00Z</time>
      </trkpt>
      <trkpt lat="43.38257" lon="6.45511">
        <ele>77</ele>
        <time>2021-05-22T09:11:01Z</time>
      </trkpt>
      <trkpt lat="43.38264" lon="6.45509">
        <ele>76.599998474121</ele>
        <time>2021-05-22T09:11:02Z</time>
      </trkpt>
      <trkpt lat="43.38275" lon="6.45503">
        <ele>75.400001525879</ele>
        <time>2021-05-22T09:11:04Z</time>
      </trkpt>
      <trkpt lat="43.38279" lon="6.45501">
        <ele>74.800003051758</ele>
        <time>2021-05-22T09:11:05Z</time>
      </trkpt>
      <trkpt lat="43.38286" lon="6.45497">
        <ele>74</ele>
        <time>2021-05-22T09:11:07Z</time>
      </trkpt>
      <trkpt lat="43.38289" lon="6.45494">
        <ele>73.400001525879</ele>
        <time>2021-05-22T09:11:09Z</time>
      </trkpt>
      <trkpt lat="43.38294" lon="6.45491">
        <ele>73</ele>
        <time>2021-05-22T09:11:11Z</time>
      </trkpt>
      <trkpt lat="43.383" lon="6.45488">
        <ele>72.199996948242</ele>
        <time>2021-05-22T09:11:13Z</time>
      </trkpt>
      <trkpt lat="43.38304" lon="6.45487">
        <ele>71.800003051758</ele>
        <time>2021-05-22T09:11:14Z</time>
      </trkpt>
      <trkpt lat="43.38312" lon="6.45483">
        <ele>71.400001525879</ele>
        <time>2021-05-22T09:11:16Z</time>
      </trkpt>
      <trkpt lat="43.38321" lon="6.4548">
        <ele>71.199996948242</ele>
        <time>2021-05-22T09:11:18Z</time>
      </trkpt>
      <trkpt lat="43.3833" lon="6.45478">
        <ele>71</ele>
        <time>2021-05-22T09:11:20Z</time>
      </trkpt>
      <trkpt lat="43.38346" lon="6.45478">
        <ele>70.400001525879</ele>
        <time>2021-05-22T09:11:23Z</time>
      </trkpt>
      <trkpt lat="43.38369" lon="6.45475">
        <ele>69.400001525879</ele>
        <time>2021-05-22T09:11:27Z</time>
      </trkpt>
      <trkpt lat="43.38374" lon="6.45473">
        <ele>69.199996948242</ele>
        <time>2021-05-22T09:11:28Z</time>
      </trkpt>
      <trkpt lat="43.3838" lon="6.4547">
        <ele>69</ele>
        <time>2021-05-22T09:11:29Z</time>
      </trkpt>
      <trkpt lat="43.38384" lon="6.45468">
        <ele>68.800003051758</ele>
        <time>2021-05-22T09:11:30Z</time>
      </trkpt>
      <trkpt lat="43.38393" lon="6.45464">
        <ele>68.599998474121</ele>
        <time>2021-05-22T09:11:32Z</time>
      </trkpt>
      <trkpt lat="43.38397" lon="6.45463">
        <ele>68.400001525879</ele>
        <time>2021-05-22T09:11:33Z</time>
      </trkpt>
      <trkpt lat="43.38403" lon="6.45464">
        <ele>68.199996948242</ele>
        <time>2021-05-22T09:11:35Z</time>
      </trkpt>
      <trkpt lat="43.38414" lon="6.45463">
        <ele>68.199996948242</ele>
        <time>2021-05-22T09:11:38Z</time>
      </trkpt>
      <trkpt lat="43.38427" lon="6.4546">
        <ele>68.199996948242</ele>
        <time>2021-05-22T09:11:41Z</time>
      </trkpt>
      <trkpt lat="43.38436" lon="6.45457">
        <ele>68.199996948242</ele>
        <time>2021-05-22T09:11:43Z</time>
      </trkpt>
      <trkpt lat="43.3844" lon="6.45454">
        <ele>68.199996948242</ele>
        <time>2021-05-22T09:11:44Z</time>
      </trkpt>
      <trkpt lat="43.38469" lon="6.45442">
        <ele>68.400001525879</ele>
        <time>2021-05-22T09:11:50Z</time>
      </trkpt>
      <trkpt lat="43.38494" lon="6.45435">
        <ele>67.800003051758</ele>
        <time>2021-05-22T09:11:55Z</time>
      </trkpt>
      <trkpt lat="43.38522" lon="6.45426">
        <ele>67.400001525879</ele>
        <time>2021-05-22T09:12:01Z</time>
      </trkpt>
      <trkpt lat="43.38527" lon="6.45425">
        <ele>67.199996948242</ele>
        <time>2021-05-22T09:12:02Z</time>
      </trkpt>
      <trkpt lat="43.38537" lon="6.45423">
        <ele>67.199996948242</ele>
        <time>2021-05-22T09:12:04Z</time>
      </trkpt>
      <trkpt lat="43.3855" lon="6.45418">
        <ele>67</ele>
        <time>2021-05-22T09:12:07Z</time>
      </trkpt>
      <trkpt lat="43.38559" lon="6.45414">
        <ele>66.800003051758</ele>
        <time>2021-05-22T09:12:09Z</time>
      </trkpt>
      <trkpt lat="43.38581" lon="6.454">
        <ele>66.199996948242</ele>
        <time>2021-05-22T09:12:14Z</time>
      </trkpt>
      <trkpt lat="43.38586" lon="6.45396">
        <ele>66.199996948242</ele>
        <time>2021-05-22T09:12:15Z</time>
      </trkpt>
      <trkpt lat="43.3859" lon="6.45393">
        <ele>66</ele>
        <time>2021-05-22T09:12:16Z</time>
      </trkpt>
      <trkpt lat="43.38599" lon="6.45384">
        <ele>65.800003051758</ele>
        <time>2021-05-22T09:12:18Z</time>
      </trkpt>
      <trkpt lat="43.38603" lon="6.4538">
        <ele>65.599998474121</ele>
        <time>2021-05-22T09:12:19Z</time>
      </trkpt>
      <trkpt lat="43.38608" lon="6.45378">
        <ele>65.599998474121</ele>
        <time>2021-05-22T09:12:20Z</time>
      </trkpt>
      <trkpt lat="43.38623" lon="6.45372">
        <ele>65</ele>
        <time>2021-05-22T09:12:23Z</time>
      </trkpt>
      <trkpt lat="43.38628" lon="6.45372">
        <ele>64.800003051758</ele>
        <time>2021-05-22T09:12:24Z</time>
      </trkpt>
      <trkpt lat="43.38632" lon="6.45372">
        <ele>64.599998474121</ele>
        <time>2021-05-22T09:12:25Z</time>
      </trkpt>
      <trkpt lat="43.38645" lon="6.45373">
        <ele>64.199996948242</ele>
        <time>2021-05-22T09:12:28Z</time>
      </trkpt>
      <trkpt lat="43.38659" lon="6.45379">
        <ele>64.199996948242</ele>
        <time>2021-05-22T09:12:31Z</time>
      </trkpt>
      <trkpt lat="43.38664" lon="6.45381">
        <ele>64.400001525879</ele>
        <time>2021-05-22T09:12:32Z</time>
      </trkpt>
      <trkpt lat="43.38675" lon="6.45379">
        <ele>64.199996948242</ele>
        <time>2021-05-22T09:12:34Z</time>
      </trkpt>
      <trkpt lat="43.3868" lon="6.45378">
        <ele>64.400001525879</ele>
        <time>2021-05-22T09:12:35Z</time>
      </trkpt>
      <trkpt lat="43.38696" lon="6.45374">
        <ele>64.400001525879</ele>
        <time>2021-05-22T09:12:38Z</time>
      </trkpt>
      <trkpt lat="43.38705" lon="6.45375">
        <ele>64.400001525879</ele>
        <time>2021-05-22T09:12:40Z</time>
      </trkpt>
      <trkpt lat="43.38718" lon="6.45377">
        <ele>64.199996948242</ele>
        <time>2021-05-22T09:12:43Z</time>
      </trkpt>
      <trkpt lat="43.38732" lon="6.45377">
        <ele>64.199996948242</ele>
        <time>2021-05-22T09:12:46Z</time>
      </trkpt>
      <trkpt lat="43.38737" lon="6.45377">
        <ele>64.199996948242</ele>
        <time>2021-05-22T09:12:47Z</time>
      </trkpt>
      <trkpt lat="43.38742" lon="6.45378">
        <ele>64.199996948242</ele>
        <time>2021-05-22T09:12:48Z</time>
      </trkpt>
      <trkpt lat="43.38759" lon="6.45381">
        <ele>64.199996948242</ele>
        <time>2021-05-22T09:12:52Z</time>
      </trkpt>
      <trkpt lat="43.38764" lon="6.4538">
        <ele>64.199996948242</ele>
        <time>2021-05-22T09:12:53Z</time>
      </trkpt>
      <trkpt lat="43.38774" lon="6.45378">
        <ele>64.199996948242</ele>
        <time>2021-05-22T09:12:55Z</time>
      </trkpt>
      <trkpt lat="43.38783" lon="6.45373">
        <ele>64.199996948242</ele>
        <time>2021-05-22T09:12:57Z</time>
      </trkpt>
      <trkpt lat="43.38815" lon="6.45354">
        <ele>64.599998474121</ele>
        <time>2021-05-22T09:13:05Z</time>
      </trkpt>
      <trkpt lat="43.38823" lon="6.45349">
        <ele>64.800003051758</ele>
        <time>2021-05-22T09:13:07Z</time>
      </trkpt>
      <trkpt lat="43.38836" lon="6.45342">
        <ele>64.800003051758</ele>
        <time>2021-05-22T09:13:10Z</time>
      </trkpt>
      <trkpt lat="43.38845" lon="6.45337">
        <ele>64.800003051758</ele>
        <time>2021-05-22T09:13:12Z</time>
      </trkpt>
      <trkpt lat="43.38854" lon="6.45333">
        <ele>64.800003051758</ele>
        <time>2021-05-22T09:13:14Z</time>
      </trkpt>
      <trkpt lat="43.38859" lon="6.45332">
        <ele>64.800003051758</ele>
        <time>2021-05-22T09:13:15Z</time>
      </trkpt>
      <trkpt lat="43.38868" lon="6.45329">
        <ele>64.599998474121</ele>
        <time>2021-05-22T09:13:17Z</time>
      </trkpt>
      <trkpt lat="43.38878" lon="6.45325">
        <ele>64.400001525879</ele>
        <time>2021-05-22T09:13:19Z</time>
      </trkpt>
      <trkpt lat="43.38887" lon="6.45322">
        <ele>64</ele>
        <time>2021-05-22T09:13:21Z</time>
      </trkpt>
      <trkpt lat="43.38897" lon="6.45321">
        <ele>63.799999237061</ele>
        <time>2021-05-22T09:13:23Z</time>
      </trkpt>
      <trkpt lat="43.38921" lon="6.45323">
        <ele>63.599998474121</ele>
        <time>2021-05-22T09:13:28Z</time>
      </trkpt>
      <trkpt lat="43.38926" lon="6.45322">
        <ele>63.599998474121</ele>
        <time>2021-05-22T09:13:29Z</time>
      </trkpt>
      <trkpt lat="43.38932" lon="6.45322">
        <ele>63.400001525879</ele>
        <time>2021-05-22T09:13:30Z</time>
      </trkpt>
      <trkpt lat="43.38938" lon="6.45322">
        <ele>63.400001525879</ele>
        <time>2021-05-22T09:13:31Z</time>
      </trkpt>
      <trkpt lat="43.38943" lon="6.45322">
        <ele>63.200000762939</ele>
        <time>2021-05-22T09:13:32Z</time>
      </trkpt>
      <trkpt lat="43.38948" lon="6.45322">
        <ele>63</ele>
        <time>2021-05-22T09:13:33Z</time>
      </trkpt>
      <trkpt lat="43.38971" lon="6.45325">
        <ele>62.200000762939</ele>
        <time>2021-05-22T09:13:37Z</time>
      </trkpt>
      <trkpt lat="43.38981" lon="6.45325">
        <ele>62</ele>
        <time>2021-05-22T09:13:39Z</time>
      </trkpt>
      <trkpt lat="43.38991" lon="6.45325">
        <ele>61.799999237061</ele>
        <time>2021-05-22T09:13:41Z</time>
      </trkpt>
      <trkpt lat="43.39004" lon="6.45328">
        <ele>61.599998474121</ele>
        <time>2021-05-22T09:13:44Z</time>
      </trkpt>
      <trkpt lat="43.39045" lon="6.45335">
        <ele>61.799999237061</ele>
        <time>2021-05-22T09:13:52Z</time>
      </trkpt>
      <trkpt lat="43.39075" lon="6.45347">
        <ele>61.599998474121</ele>
        <time>2021-05-22T09:13:58Z</time>
      </trkpt>
      <trkpt lat="43.39079" lon="6.45349">
        <ele>61.599998474121</ele>
        <time>2021-05-22T09:13:59Z</time>
      </trkpt>
      <trkpt lat="43.39098" lon="6.45357">
        <ele>61.200000762939</ele>
        <time>2021-05-22T09:14:03Z</time>
      </trkpt>
      <trkpt lat="43.39109" lon="6.45357">
        <ele>60.599998474121</ele>
        <time>2021-05-22T09:14:05Z</time>
      </trkpt>
      <trkpt lat="43.3912" lon="6.45355">
        <ele>60.599998474121</ele>
        <time>2021-05-22T09:14:07Z</time>
      </trkpt>
      <trkpt lat="43.39126" lon="6.45356">
        <ele>60.599998474121</ele>
        <time>2021-05-22T09:14:08Z</time>
      </trkpt>
      <trkpt lat="43.39146" lon="6.45358">
        <ele>60.599998474121</ele>
        <time>2021-05-22T09:14:11Z</time>
      </trkpt>
      <trkpt lat="43.39159" lon="6.45355">
        <ele>60</ele>
        <time>2021-05-22T09:14:13Z</time>
      </trkpt>
      <trkpt lat="43.39165" lon="6.45354">
        <ele>60</ele>
        <time>2021-05-22T09:14:14Z</time>
      </trkpt>
      <trkpt lat="43.39172" lon="6.45354">
        <ele>59.599998474121</ele>
        <time>2021-05-22T09:14:15Z</time>
      </trkpt>
      <trkpt lat="43.39185" lon="6.45354">
        <ele>59.200000762939</ele>
        <time>2021-05-22T09:14:17Z</time>
      </trkpt>
      <trkpt lat="43.39192" lon="6.45356">
        <ele>58.799999237061</ele>
        <time>2021-05-22T09:14:18Z</time>
      </trkpt>
      <trkpt lat="43.39198" lon="6.45357">
        <ele>58.400001525879</ele>
        <time>2021-05-22T09:14:19Z</time>
      </trkpt>
      <trkpt lat="43.39203" lon="6.45359">
        <ele>58.200000762939</ele>
        <time>2021-05-22T09:14:20Z</time>
      </trkpt>
      <trkpt lat="43.39212" lon="6.45364">
        <ele>58</ele>
        <time>2021-05-22T09:14:22Z</time>
      </trkpt>
      <trkpt lat="43.39218" lon="6.45372">
        <ele>57.400001525879</ele>
        <time>2021-05-22T09:14:24Z</time>
      </trkpt>
      <trkpt lat="43.39218" lon="6.45376">
        <ele>56.799999237061</ele>
        <time>2021-05-22T09:14:25Z</time>
      </trkpt>
      <trkpt lat="43.39218" lon="6.45385">
        <ele>56.200000762939</ele>
        <time>2021-05-22T09:14:27Z</time>
      </trkpt>
      <trkpt lat="43.39216" lon="6.45394">
        <ele>55.400001525879</ele>
        <time>2021-05-22T09:14:30Z</time>
      </trkpt>
      <trkpt lat="43.39215" lon="6.45397">
        <ele>55</ele>
        <time>2021-05-22T09:14:31Z</time>
      </trkpt>
      <trkpt lat="43.39212" lon="6.4541">
        <ele>54</ele>
        <time>2021-05-22T09:14:35Z</time>
      </trkpt>
      <trkpt lat="43.39211" lon="6.45417">
        <ele>53</ele>
        <time>2021-05-22T09:14:38Z</time>
      </trkpt>
      <trkpt lat="43.3921" lon="6.45419">
        <ele>52.799999237061</ele>
        <time>2021-05-22T09:14:39Z</time>
      </trkpt>
      <trkpt lat="43.3921" lon="6.45426">
        <ele>52.200000762939</ele>
        <time>2021-05-22T09:14:43Z</time>
      </trkpt>
      <trkpt lat="43.39209" lon="6.45429">
        <ele>51.799999237061</ele>
        <time>2021-05-22T09:14:44Z</time>
      </trkpt>
      <trkpt lat="43.39212" lon="6.45445">
        <ele>52</ele>
        <time>2021-05-22T09:14:49Z</time>
      </trkpt>
      <trkpt lat="43.39226" lon="6.45455">
        <ele>52.200000762939</ele>
        <time>2021-05-22T09:14:54Z</time>
      </trkpt>
      <trkpt lat="43.39241" lon="6.45461">
        <ele>52.799999237061</ele>
        <time>2021-05-22T09:14:58Z</time>
      </trkpt>
      <trkpt lat="43.39245" lon="6.45463">
        <ele>52.799999237061</ele>
        <time>2021-05-22T09:14:59Z</time>
      </trkpt>
      <trkpt lat="43.39278" lon="6.45476">
        <ele>53.400001525879</ele>
        <time>2021-05-22T09:15:06Z</time>
      </trkpt>
      <trkpt lat="43.39292" lon="6.4548">
        <ele>53.400001525879</ele>
        <time>2021-05-22T09:15:09Z</time>
      </trkpt>
      <trkpt lat="43.39302" lon="6.4548">
        <ele>53.400001525879</ele>
        <time>2021-05-22T09:15:11Z</time>
      </trkpt>
      <trkpt lat="43.39306" lon="6.4548">
        <ele>53.400001525879</ele>
        <time>2021-05-22T09:15:12Z</time>
      </trkpt>
      <trkpt lat="43.39315" lon="6.45479">
        <ele>53.400001525879</ele>
        <time>2021-05-22T09:15:14Z</time>
      </trkpt>
      <trkpt lat="43.39324" lon="6.45481">
        <ele>53.400001525879</ele>
        <time>2021-05-22T09:15:16Z</time>
      </trkpt>
      <trkpt lat="43.39333" lon="6.45484">
        <ele>53.400001525879</ele>
        <time>2021-05-22T09:15:18Z</time>
      </trkpt>
      <trkpt lat="43.39357" lon="6.455">
        <ele>53.599998474121</ele>
        <time>2021-05-22T09:15:24Z</time>
      </trkpt>
      <trkpt lat="43.39363" lon="6.45508">
        <ele>53.799999237061</ele>
        <time>2021-05-22T09:15:26Z</time>
      </trkpt>
      <trkpt lat="43.3937" lon="6.45515">
        <ele>54</ele>
        <time>2021-05-22T09:15:28Z</time>
      </trkpt>
      <trkpt lat="43.39378" lon="6.4553">
        <ele>54.200000762939</ele>
        <time>2021-05-22T09:15:31Z</time>
      </trkpt>
      <trkpt lat="43.39381" lon="6.45535">
        <ele>54.200000762939</ele>
        <time>2021-05-22T09:15:32Z</time>
      </trkpt>
      <trkpt lat="43.39387" lon="6.4555">
        <ele>54.799999237061</ele>
        <time>2021-05-22T09:15:35Z</time>
      </trkpt>
      <trkpt lat="43.39392" lon="6.45558">
        <ele>54.799999237061</ele>
        <time>2021-05-22T09:15:37Z</time>
      </trkpt>
      <trkpt lat="43.39396" lon="6.45566">
        <ele>55</ele>
        <time>2021-05-22T09:15:39Z</time>
      </trkpt>
      <trkpt lat="43.39397" lon="6.45573">
        <ele>55.200000762939</ele>
        <time>2021-05-22T09:15:40Z</time>
      </trkpt>
      <trkpt lat="43.39399" lon="6.45579">
        <ele>55.400001525879</ele>
        <time>2021-05-22T09:15:41Z</time>
      </trkpt>
      <trkpt lat="43.394" lon="6.45591">
        <ele>55.599998474121</ele>
        <time>2021-05-22T09:15:43Z</time>
      </trkpt>
      <trkpt lat="43.39399" lon="6.45604">
        <ele>55.599998474121</ele>
        <time>2021-05-22T09:15:45Z</time>
      </trkpt>
      <trkpt lat="43.39398" lon="6.45611">
        <ele>55.599998474121</ele>
        <time>2021-05-22T09:15:46Z</time>
      </trkpt>
      <trkpt lat="43.39403" lon="6.45634">
        <ele>55.599998474121</ele>
        <time>2021-05-22T09:15:50Z</time>
      </trkpt>
      <trkpt lat="43.39406" lon="6.45638">
        <ele>55.599998474121</ele>
        <time>2021-05-22T09:15:51Z</time>
      </trkpt>
      <trkpt lat="43.39412" lon="6.45644">
        <ele>55.599998474121</ele>
        <time>2021-05-22T09:15:53Z</time>
      </trkpt>
      <trkpt lat="43.3942" lon="6.45645">
        <ele>55.799999237061</ele>
        <time>2021-05-22T09:15:55Z</time>
      </trkpt>
      <trkpt lat="43.39428" lon="6.45642">
        <ele>55.799999237061</ele>
        <time>2021-05-22T09:15:57Z</time>
      </trkpt>
      <trkpt lat="43.39441" lon="6.45633">
        <ele>55.799999237061</ele>
        <time>2021-05-22T09:16:00Z</time>
      </trkpt>
      <trkpt lat="43.39446" lon="6.45624">
        <ele>56</ele>
        <time>2021-05-22T09:16:02Z</time>
      </trkpt>
      <trkpt lat="43.39453" lon="6.45604">
        <ele>56</ele>
        <time>2021-05-22T09:16:06Z</time>
      </trkpt>
      <trkpt lat="43.39455" lon="6.45599">
        <ele>56</ele>
        <time>2021-05-22T09:16:07Z</time>
      </trkpt>
      <trkpt lat="43.39456" lon="6.45594">
        <ele>56</ele>
        <time>2021-05-22T09:16:08Z</time>
      </trkpt>
      <trkpt lat="43.39462" lon="6.45577">
        <ele>56.400001525879</ele>
        <time>2021-05-22T09:16:11Z</time>
      </trkpt>
      <trkpt lat="43.39464" lon="6.45572">
        <ele>56.799999237061</ele>
        <time>2021-05-22T09:16:12Z</time>
      </trkpt>
      <trkpt lat="43.39466" lon="6.45568">
        <ele>57</ele>
        <time>2021-05-22T09:16:13Z</time>
      </trkpt>
      <trkpt lat="43.39468" lon="6.45565">
        <ele>57</ele>
        <time>2021-05-22T09:16:14Z</time>
      </trkpt>
      <trkpt lat="43.39474" lon="6.45562">
        <ele>57.200000762939</ele>
        <time>2021-05-22T09:16:16Z</time>
      </trkpt>
      <trkpt lat="43.39478" lon="6.4556">
        <ele>57.400001525879</ele>
        <time>2021-05-22T09:16:17Z</time>
      </trkpt>
      <trkpt lat="43.39482" lon="6.45559">
        <ele>57.400001525879</ele>
        <time>2021-05-22T09:16:18Z</time>
      </trkpt>
      <trkpt lat="43.39486" lon="6.45557">
        <ele>57.400001525879</ele>
        <time>2021-05-22T09:16:19Z</time>
      </trkpt>
      <trkpt lat="43.39492" lon="6.45557">
        <ele>57.599998474121</ele>
        <time>2021-05-22T09:16:20Z</time>
      </trkpt>
      <trkpt lat="43.39503" lon="6.45558">
        <ele>57.599998474121</ele>
        <time>2021-05-22T09:16:22Z</time>
      </trkpt>
      <trkpt lat="43.39509" lon="6.45559">
        <ele>57.599998474121</ele>
        <time>2021-05-22T09:16:23Z</time>
      </trkpt>
      <trkpt lat="43.39522" lon="6.4556">
        <ele>57.599998474121</ele>
        <time>2021-05-22T09:16:25Z</time>
      </trkpt>
      <trkpt lat="43.39541" lon="6.45563">
        <ele>57.599998474121</ele>
        <time>2021-05-22T09:16:28Z</time>
      </trkpt>
      <trkpt lat="43.39586" lon="6.45568">
        <ele>57.400001525879</ele>
        <time>2021-05-22T09:16:35Z</time>
      </trkpt>
      <trkpt lat="43.39636" lon="6.45576">
        <ele>57.400001525879</ele>
        <time>2021-05-22T09:16:43Z</time>
      </trkpt>
      <trkpt lat="43.39641" lon="6.45579">
        <ele>57.400001525879</ele>
        <time>2021-05-22T09:16:44Z</time>
      </trkpt>
      <trkpt lat="43.39663" lon="6.45593">
        <ele>57.400001525879</ele>
        <time>2021-05-22T09:16:48Z</time>
      </trkpt>
      <trkpt lat="43.39691" lon="6.45618">
        <ele>57</ele>
        <time>2021-05-22T09:16:54Z</time>
      </trkpt>
      <trkpt lat="43.39701" lon="6.45623">
        <ele>56.799999237061</ele>
        <time>2021-05-22T09:16:56Z</time>
      </trkpt>
      <trkpt lat="43.3971" lon="6.45616">
        <ele>56.799999237061</ele>
        <time>2021-05-22T09:16:58Z</time>
      </trkpt>
      <trkpt lat="43.39714" lon="6.45611">
        <ele>56.799999237061</ele>
        <time>2021-05-22T09:16:59Z</time>
      </trkpt>
      <trkpt lat="43.39717" lon="6.45605">
        <ele>56.799999237061</ele>
        <time>2021-05-22T09:17:00Z</time>
      </trkpt>
      <trkpt lat="43.39723" lon="6.45591">
        <ele>56.599998474121</ele>
        <time>2021-05-22T09:17:03Z</time>
      </trkpt>
      <trkpt lat="43.39725" lon="6.45588">
        <ele>56.400001525879</ele>
        <time>2021-05-22T09:17:07Z</time>
      </trkpt>
      <trkpt lat="43.39725" lon="6.45588">
        <ele>56.200000762939</ele>
        <time>2021-05-22T09:17:08Z</time>
      </trkpt>
      <trkpt lat="43.39726" lon="6.45588">
        <ele>56.799999237061</ele>
        <time>2021-05-22T09:18:27Z</time>
      </trkpt>
      <trkpt lat="43.39726" lon="6.45588">
        <ele>56.799999237061</ele>
        <time>2021-05-22T09:18:28Z</time>
      </trkpt>
      <trkpt lat="43.39728" lon="6.45579">
        <ele>56.799999237061</ele>
        <time>2021-05-22T09:18:32Z</time>
      </trkpt>
      <trkpt lat="43.39735" lon="6.45558">
        <ele>56.799999237061</ele>
        <time>2021-05-22T09:18:38Z</time>
      </trkpt>
      <trkpt lat="43.39736" lon="6.45551">
        <ele>56.799999237061</ele>
        <time>2021-05-22T09:18:41Z</time>
      </trkpt>
      <trkpt lat="43.39734" lon="6.45542">
        <ele>57</ele>
        <time>2021-05-22T09:18:44Z</time>
      </trkpt>
      <trkpt lat="43.39732" lon="6.4554">
        <ele>57</ele>
        <time>2021-05-22T09:18:45Z</time>
      </trkpt>
      <trkpt lat="43.39726" lon="6.45533">
        <ele>57</ele>
        <time>2021-05-22T09:18:47Z</time>
      </trkpt>
      <trkpt lat="43.39723" lon="6.45529">
        <ele>57</ele>
        <time>2021-05-22T09:18:48Z</time>
      </trkpt>
      <trkpt lat="43.39716" lon="6.45519">
        <ele>56.799999237061</ele>
        <time>2021-05-22T09:18:50Z</time>
      </trkpt>
      <trkpt lat="43.39705" lon="6.45505">
        <ele>56.400001525879</ele>
        <time>2021-05-22T09:18:53Z</time>
      </trkpt>
      <trkpt lat="43.39698" lon="6.45496">
        <ele>56.200000762939</ele>
        <time>2021-05-22T09:18:55Z</time>
      </trkpt>
      <trkpt lat="43.39694" lon="6.45492">
        <ele>56</ele>
        <time>2021-05-22T09:18:56Z</time>
      </trkpt>
      <trkpt lat="43.39691" lon="6.45487">
        <ele>56</ele>
        <time>2021-05-22T09:18:57Z</time>
      </trkpt>
      <trkpt lat="43.39684" lon="6.45477">
        <ele>56</ele>
        <time>2021-05-22T09:18:59Z</time>
      </trkpt>
      <trkpt lat="43.39676" lon="6.45468">
        <ele>55.799999237061</ele>
        <time>2021-05-22T09:19:01Z</time>
      </trkpt>
      <trkpt lat="43.39665" lon="6.45452">
        <ele>55.599998474121</ele>
        <time>2021-05-22T09:19:04Z</time>
      </trkpt>
      <trkpt lat="43.39659" lon="6.4544">
        <ele>55.200000762939</ele>
        <time>2021-05-22T09:19:06Z</time>
      </trkpt>
      <trkpt lat="43.39655" lon="6.45434">
        <ele>55</ele>
        <time>2021-05-22T09:19:07Z</time>
      </trkpt>
      <trkpt lat="43.39652" lon="6.45428">
        <ele>55</ele>
        <time>2021-05-22T09:19:08Z</time>
      </trkpt>
      <trkpt lat="43.39645" lon="6.4541">
        <ele>54.400001525879</ele>
        <time>2021-05-22T09:19:11Z</time>
      </trkpt>
      <trkpt lat="43.39643" lon="6.45404">
        <ele>54.200000762939</ele>
        <time>2021-05-22T09:19:12Z</time>
      </trkpt>
      <trkpt lat="43.39641" lon="6.45398">
        <ele>54.200000762939</ele>
        <time>2021-05-22T09:19:13Z</time>
      </trkpt>
      <trkpt lat="43.39639" lon="6.45393">
        <ele>54</ele>
        <time>2021-05-22T09:19:14Z</time>
      </trkpt>
      <trkpt lat="43.39629" lon="6.45366">
        <ele>54</ele>
        <time>2021-05-22T09:19:19Z</time>
      </trkpt>
      <trkpt lat="43.39628" lon="6.45361">
        <ele>54</ele>
        <time>2021-05-22T09:19:20Z</time>
      </trkpt>
      <trkpt lat="43.39624" lon="6.4533">
        <ele>54.799999237061</ele>
        <time>2021-05-22T09:19:26Z</time>
      </trkpt>
      <trkpt lat="43.39628" lon="6.4531">
        <ele>55.200000762939</ele>
        <time>2021-05-22T09:19:30Z</time>
      </trkpt>
      <trkpt lat="43.3963" lon="6.45306">
        <ele>55.200000762939</ele>
        <time>2021-05-22T09:19:31Z</time>
      </trkpt>
      <trkpt lat="43.39642" lon="6.45285">
        <ele>56.200000762939</ele>
        <time>2021-05-22T09:19:37Z</time>
      </trkpt>
      <trkpt lat="43.39644" lon="6.45282">
        <ele>56.400001525879</ele>
        <time>2021-05-22T09:19:38Z</time>
      </trkpt>
      <trkpt lat="43.39655" lon="6.45262">
        <ele>57.400001525879</ele>
        <time>2021-05-22T09:19:44Z</time>
      </trkpt>
      <trkpt lat="43.39663" lon="6.45245">
        <ele>58.200000762939</ele>
        <time>2021-05-22T09:19:49Z</time>
      </trkpt>
      <trkpt lat="43.39666" lon="6.45237">
        <ele>58.400001525879</ele>
        <time>2021-05-22T09:19:51Z</time>
      </trkpt>
      <trkpt lat="43.39667" lon="6.45233">
        <ele>58.599998474121</ele>
        <time>2021-05-22T09:19:52Z</time>
      </trkpt>
      <trkpt lat="43.3967" lon="6.45225">
        <ele>58.799999237061</ele>
        <time>2021-05-22T09:19:54Z</time>
      </trkpt>
      <trkpt lat="43.39672" lon="6.45218">
        <ele>59</ele>
        <time>2021-05-22T09:19:56Z</time>
      </trkpt>
      <trkpt lat="43.39675" lon="6.45211">
        <ele>59.400001525879</ele>
        <time>2021-05-22T09:19:58Z</time>
      </trkpt>
      <trkpt lat="43.39677" lon="6.45202">
        <ele>59.599998474121</ele>
        <time>2021-05-22T09:20:00Z</time>
      </trkpt>
      <trkpt lat="43.3968" lon="6.45195">
        <ele>60</ele>
        <time>2021-05-22T09:20:02Z</time>
      </trkpt>
      <trkpt lat="43.39686" lon="6.45168">
        <ele>60.799999237061</ele>
        <time>2021-05-22T09:20:08Z</time>
      </trkpt>
      <trkpt lat="43.39692" lon="6.45129">
        <ele>61.400001525879</ele>
        <time>2021-05-22T09:20:17Z</time>
      </trkpt>
      <trkpt lat="43.39696" lon="6.45118">
        <ele>61.599998474121</ele>
        <time>2021-05-22T09:20:20Z</time>
      </trkpt>
      <trkpt lat="43.39698" lon="6.45115">
        <ele>61.599998474121</ele>
        <time>2021-05-22T09:20:21Z</time>
      </trkpt>
      <trkpt lat="43.397" lon="6.45111">
        <ele>61.599998474121</ele>
        <time>2021-05-22T09:20:22Z</time>
      </trkpt>
      <trkpt lat="43.39702" lon="6.45108">
        <ele>61.799999237061</ele>
        <time>2021-05-22T09:20:23Z</time>
      </trkpt>
      <trkpt lat="43.39704" lon="6.45105">
        <ele>62</ele>
        <time>2021-05-22T09:20:24Z</time>
      </trkpt>
      <trkpt lat="43.3971" lon="6.45089">
        <ele>62.799999237061</ele>
        <time>2021-05-22T09:20:29Z</time>
      </trkpt>
      <trkpt lat="43.39712" lon="6.45086">
        <ele>63</ele>
        <time>2021-05-22T09:20:30Z</time>
      </trkpt>
      <trkpt lat="43.39719" lon="6.45068">
        <ele>64</ele>
        <time>2021-05-22T09:20:36Z</time>
      </trkpt>
      <trkpt lat="43.3972" lon="6.45065">
        <ele>64.199996948242</ele>
        <time>2021-05-22T09:20:37Z</time>
      </trkpt>
      <trkpt lat="43.3973" lon="6.4504">
        <ele>65.400001525879</ele>
        <time>2021-05-22T09:20:45Z</time>
      </trkpt>
      <trkpt lat="43.39733" lon="6.4503">
        <ele>66</ele>
        <time>2021-05-22T09:20:48Z</time>
      </trkpt>
      <trkpt lat="43.39736" lon="6.45017">
        <ele>66.400001525879</ele>
        <time>2021-05-22T09:20:52Z</time>
      </trkpt>
      <trkpt lat="43.39737" lon="6.4501">
        <ele>66.400001525879</ele>
        <time>2021-05-22T09:20:54Z</time>
      </trkpt>
      <trkpt lat="43.39737" lon="6.45003">
        <ele>66.800003051758</ele>
        <time>2021-05-22T09:20:56Z</time>
      </trkpt>
      <trkpt lat="43.39737" lon="6.44996">
        <ele>67</ele>
        <time>2021-05-22T09:20:58Z</time>
      </trkpt>
      <trkpt lat="43.39736" lon="6.44989">
        <ele>67.199996948242</ele>
        <time>2021-05-22T09:21:00Z</time>
      </trkpt>
      <trkpt lat="43.39734" lon="6.44982">
        <ele>67.400001525879</ele>
        <time>2021-05-22T09:21:02Z</time>
      </trkpt>
      <trkpt lat="43.39733" lon="6.44979">
        <ele>67.599998474121</ele>
        <time>2021-05-22T09:21:03Z</time>
      </trkpt>
      <trkpt lat="43.3973" lon="6.44964">
        <ele>68</ele>
        <time>2021-05-22T09:21:08Z</time>
      </trkpt>
      <trkpt lat="43.39728" lon="6.44957">
        <ele>68.400001525879</ele>
        <time>2021-05-22T09:21:10Z</time>
      </trkpt>
      <trkpt lat="43.39725" lon="6.44946">
        <ele>68.599998474121</ele>
        <time>2021-05-22T09:21:13Z</time>
      </trkpt>
      <trkpt lat="43.39724" lon="6.44942">
        <ele>68.599998474121</ele>
        <time>2021-05-22T09:21:14Z</time>
      </trkpt>
      <trkpt lat="43.39721" lon="6.44932">
        <ele>68.800003051758</ele>
        <time>2021-05-22T09:21:17Z</time>
      </trkpt>
      <trkpt lat="43.39715" lon="6.44911">
        <ele>69.199996948242</ele>
        <time>2021-05-22T09:21:23Z</time>
      </trkpt>
      <trkpt lat="43.39712" lon="6.44903">
        <ele>69.400001525879</ele>
        <time>2021-05-22T09:21:26Z</time>
      </trkpt>
      <trkpt lat="43.39711" lon="6.449">
        <ele>69.599998474121</ele>
        <time>2021-05-22T09:21:27Z</time>
      </trkpt>
      <trkpt lat="43.39703" lon="6.44879">
        <ele>70</ele>
        <time>2021-05-22T09:21:33Z</time>
      </trkpt>
      <trkpt lat="43.39692" lon="6.44856">
        <ele>70.800003051758</ele>
        <time>2021-05-22T09:21:39Z</time>
      </trkpt>
      <trkpt lat="43.3969" lon="6.44852">
        <ele>71</ele>
        <time>2021-05-22T09:21:40Z</time>
      </trkpt>
      <trkpt lat="43.3968" lon="6.44821">
        <ele>71.199996948242</ele>
        <time>2021-05-22T09:21:47Z</time>
      </trkpt>
      <trkpt lat="43.39672" lon="6.44802">
        <ele>71.599998474121</ele>
        <time>2021-05-22T09:21:52Z</time>
      </trkpt>
      <trkpt lat="43.39667" lon="6.44794">
        <ele>71.800003051758</ele>
        <time>2021-05-22T09:21:54Z</time>
      </trkpt>
      <trkpt lat="43.39657" lon="6.44775">
        <ele>72</ele>
        <time>2021-05-22T09:21:59Z</time>
      </trkpt>
      <trkpt lat="43.39649" lon="6.44755">
        <ele>72.599998474121</ele>
        <time>2021-05-22T09:22:04Z</time>
      </trkpt>
      <trkpt lat="43.39643" lon="6.44747">
        <ele>72.800003051758</ele>
        <time>2021-05-22T09:22:07Z</time>
      </trkpt>
      <trkpt lat="43.39637" lon="6.44737">
        <ele>73</ele>
        <time>2021-05-22T09:22:10Z</time>
      </trkpt>
      <trkpt lat="43.39626" lon="6.44723">
        <ele>73.599998474121</ele>
        <time>2021-05-22T09:22:15Z</time>
      </trkpt>
      <trkpt lat="43.3962" lon="6.44714">
        <ele>73.800003051758</ele>
        <time>2021-05-22T09:22:18Z</time>
      </trkpt>
      <trkpt lat="43.39613" lon="6.44704">
        <ele>74.199996948242</ele>
        <time>2021-05-22T09:22:22Z</time>
      </trkpt>
      <trkpt lat="43.3961" lon="6.44699">
        <ele>74.400001525879</ele>
        <time>2021-05-22T09:22:24Z</time>
      </trkpt>
      <trkpt lat="43.39606" lon="6.44694">
        <ele>75</ele>
        <time>2021-05-22T09:22:26Z</time>
      </trkpt>
      <trkpt lat="43.39605" lon="6.44691">
        <ele>75</ele>
        <time>2021-05-22T09:22:27Z</time>
      </trkpt>
      <trkpt lat="43.39603" lon="6.44688">
        <ele>75.400001525879</ele>
        <time>2021-05-22T09:22:28Z</time>
      </trkpt>
      <trkpt lat="43.39602" lon="6.44685">
        <ele>75.400001525879</ele>
        <time>2021-05-22T09:22:29Z</time>
      </trkpt>
      <trkpt lat="43.39596" lon="6.44673">
        <ele>76.199996948242</ele>
        <time>2021-05-22T09:22:33Z</time>
      </trkpt>
      <trkpt lat="43.39595" lon="6.4467">
        <ele>76.400001525879</ele>
        <time>2021-05-22T09:22:34Z</time>
      </trkpt>
      <trkpt lat="43.39594" lon="6.44667">
        <ele>76.800003051758</ele>
        <time>2021-05-22T09:22:35Z</time>
      </trkpt>
      <trkpt lat="43.3959" lon="6.44653">
        <ele>77.400001525879</ele>
        <time>2021-05-22T09:22:39Z</time>
      </trkpt>
      <trkpt lat="43.39589" lon="6.4465">
        <ele>77.599998474121</ele>
        <time>2021-05-22T09:22:40Z</time>
      </trkpt>
      <trkpt lat="43.39582" lon="6.44627">
        <ele>78.400001525879</ele>
        <time>2021-05-22T09:22:48Z</time>
      </trkpt>
      <trkpt lat="43.39575" lon="6.44607">
        <ele>78.400001525879</ele>
        <time>2021-05-22T09:22:53Z</time>
      </trkpt>
      <trkpt lat="43.39573" lon="6.44603">
        <ele>78.400001525879</ele>
        <time>2021-05-22T09:22:54Z</time>
      </trkpt>
      <trkpt lat="43.39571" lon="6.44593">
        <ele>78.599998474121</ele>
        <time>2021-05-22T09:22:56Z</time>
      </trkpt>
      <trkpt lat="43.39561" lon="6.44577">
        <ele>79.199996948242</ele>
        <time>2021-05-22T09:23:00Z</time>
      </trkpt>
      <trkpt lat="43.39556" lon="6.4457">
        <ele>79.800003051758</ele>
        <time>2021-05-22T09:23:02Z</time>
      </trkpt>
      <trkpt lat="43.39548" lon="6.44559">
        <ele>80</ele>
        <time>2021-05-22T09:23:05Z</time>
      </trkpt>
      <trkpt lat="43.3954" lon="6.4455">
        <ele>80.199996948242</ele>
        <time>2021-05-22T09:23:08Z</time>
      </trkpt>
      <trkpt lat="43.39526" lon="6.44529">
        <ele>80.599998474121</ele>
        <time>2021-05-22T09:23:14Z</time>
      </trkpt>
      <trkpt lat="43.3952" lon="6.44518">
        <ele>80.800003051758</ele>
        <time>2021-05-22T09:23:17Z</time>
      </trkpt>
      <trkpt lat="43.39519" lon="6.44515">
        <ele>80.800003051758</ele>
        <time>2021-05-22T09:23:18Z</time>
      </trkpt>
      <trkpt lat="43.39518" lon="6.44511">
        <ele>80.800003051758</ele>
        <time>2021-05-22T09:23:19Z</time>
      </trkpt>
      <trkpt lat="43.39516" lon="6.44507">
        <ele>81</ele>
        <time>2021-05-22T09:23:20Z</time>
      </trkpt>
      <trkpt lat="43.39515" lon="6.44504">
        <ele>81.199996948242</ele>
        <time>2021-05-22T09:23:21Z</time>
      </trkpt>
      <trkpt lat="43.39505" lon="6.44487">
        <ele>81.599998474121</ele>
        <time>2021-05-22T09:23:26Z</time>
      </trkpt>
      <trkpt lat="43.39502" lon="6.44478">
        <ele>81.800003051758</ele>
        <time>2021-05-22T09:23:28Z</time>
      </trkpt>
      <trkpt lat="43.39499" lon="6.44461">
        <ele>82</ele>
        <time>2021-05-22T09:23:32Z</time>
      </trkpt>
      <trkpt lat="43.39497" lon="6.44453">
        <ele>82</ele>
        <time>2021-05-22T09:23:35Z</time>
      </trkpt>
      <trkpt lat="43.39497" lon="6.44438">
        <ele>82.199996948242</ele>
        <time>2021-05-22T09:23:38Z</time>
      </trkpt>
      <trkpt lat="43.39496" lon="6.44433">
        <ele>82.199996948242</ele>
        <time>2021-05-22T09:23:39Z</time>
      </trkpt>
      <trkpt lat="43.39493" lon="6.44407">
        <ele>82.400001525879</ele>
        <time>2021-05-22T09:23:44Z</time>
      </trkpt>
      <trkpt lat="43.39492" lon="6.44403">
        <ele>82.400001525879</ele>
        <time>2021-05-22T09:23:45Z</time>
      </trkpt>
      <trkpt lat="43.39486" lon="6.44376">
        <ele>83</ele>
        <time>2021-05-22T09:23:50Z</time>
      </trkpt>
      <trkpt lat="43.39485" lon="6.44366">
        <ele>83.199996948242</ele>
        <time>2021-05-22T09:23:52Z</time>
      </trkpt>
      <trkpt lat="43.39483" lon="6.44356">
        <ele>83.400001525879</ele>
        <time>2021-05-22T09:23:54Z</time>
      </trkpt>
      <trkpt lat="43.39481" lon="6.44341">
        <ele>84</ele>
        <time>2021-05-22T09:23:57Z</time>
      </trkpt>
      <trkpt lat="43.39478" lon="6.44331">
        <ele>84.199996948242</ele>
        <time>2021-05-22T09:23:59Z</time>
      </trkpt>
      <trkpt lat="43.39476" lon="6.44326">
        <ele>84.199996948242</ele>
        <time>2021-05-22T09:24:00Z</time>
      </trkpt>
      <trkpt lat="43.39473" lon="6.44309">
        <ele>84.400001525879</ele>
        <time>2021-05-22T09:24:03Z</time>
      </trkpt>
      <trkpt lat="43.39471" lon="6.44304">
        <ele>84.400001525879</ele>
        <time>2021-05-22T09:24:04Z</time>
      </trkpt>
      <trkpt lat="43.3947" lon="6.44299">
        <ele>84.400001525879</ele>
        <time>2021-05-22T09:24:05Z</time>
      </trkpt>
      <trkpt lat="43.39466" lon="6.44288">
        <ele>84.599998474121</ele>
        <time>2021-05-22T09:24:07Z</time>
      </trkpt>
      <trkpt lat="43.39462" lon="6.44277">
        <ele>84.599998474121</ele>
        <time>2021-05-22T09:24:09Z</time>
      </trkpt>
      <trkpt lat="43.3945" lon="6.4425">
        <ele>84.800003051758</ele>
        <time>2021-05-22T09:24:14Z</time>
      </trkpt>
      <trkpt lat="43.39446" lon="6.44241">
        <ele>85</ele>
        <time>2021-05-22T09:24:16Z</time>
      </trkpt>
      <trkpt lat="43.39441" lon="6.44231">
        <ele>85</ele>
        <time>2021-05-22T09:24:18Z</time>
      </trkpt>
      <trkpt lat="43.39437" lon="6.44219">
        <ele>85</ele>
        <time>2021-05-22T09:24:20Z</time>
      </trkpt>
      <trkpt lat="43.39436" lon="6.44214">
        <ele>85</ele>
        <time>2021-05-22T09:24:21Z</time>
      </trkpt>
      <trkpt lat="43.39432" lon="6.44202">
        <ele>85</ele>
        <time>2021-05-22T09:24:23Z</time>
      </trkpt>
      <trkpt lat="43.39425" lon="6.44182">
        <ele>85.199996948242</ele>
        <time>2021-05-22T09:24:27Z</time>
      </trkpt>
      <trkpt lat="43.39421" lon="6.44171">
        <ele>85.199996948242</ele>
        <time>2021-05-22T09:24:29Z</time>
      </trkpt>
      <trkpt lat="43.39418" lon="6.44161">
        <ele>85.400001525879</ele>
        <time>2021-05-22T09:24:31Z</time>
      </trkpt>
      <trkpt lat="43.39417" lon="6.44156">
        <ele>85.400001525879</ele>
        <time>2021-05-22T09:24:32Z</time>
      </trkpt>
      <trkpt lat="43.39414" lon="6.44143">
        <ele>85.599998474121</ele>
        <time>2021-05-22T09:24:34Z</time>
      </trkpt>
      <trkpt lat="43.3941" lon="6.44121">
        <ele>85.599998474121</ele>
        <time>2021-05-22T09:24:38Z</time>
      </trkpt>
      <trkpt lat="43.39409" lon="6.44105">
        <ele>85.599998474121</ele>
        <time>2021-05-22T09:24:41Z</time>
      </trkpt>
      <trkpt lat="43.39408" lon="6.4409">
        <ele>85.800003051758</ele>
        <time>2021-05-22T09:24:44Z</time>
      </trkpt>
      <trkpt lat="43.39406" lon="6.4406">
        <ele>85.800003051758</ele>
        <time>2021-05-22T09:24:49Z</time>
      </trkpt>
      <trkpt lat="43.39405" lon="6.44039">
        <ele>85.800003051758</ele>
        <time>2021-05-22T09:24:52Z</time>
      </trkpt>
      <trkpt lat="43.39405" lon="6.44032">
        <ele>85.800003051758</ele>
        <time>2021-05-22T09:24:53Z</time>
      </trkpt>
      <trkpt lat="43.39404" lon="6.44017">
        <ele>85.800003051758</ele>
        <time>2021-05-22T09:24:55Z</time>
      </trkpt>
      <trkpt lat="43.39403" lon="6.4401">
        <ele>85.800003051758</ele>
        <time>2021-05-22T09:24:56Z</time>
      </trkpt>
      <trkpt lat="43.39403" lon="6.44003">
        <ele>85.800003051758</ele>
        <time>2021-05-22T09:24:57Z</time>
      </trkpt>
      <trkpt lat="43.394" lon="6.43965">
        <ele>85.800003051758</ele>
        <time>2021-05-22T09:25:03Z</time>
      </trkpt>
      <trkpt lat="43.394" lon="6.4395">
        <ele>85.800003051758</ele>
        <time>2021-05-22T09:25:05Z</time>
      </trkpt>
      <trkpt lat="43.394" lon="6.4393">
        <ele>85.599998474121</ele>
        <time>2021-05-22T09:25:07Z</time>
      </trkpt>
      <trkpt lat="43.39401" lon="6.43873">
        <ele>84.800003051758</ele>
        <time>2021-05-22T09:25:12Z</time>
      </trkpt>
      <trkpt lat="43.39403" lon="6.4385">
        <ele>84</ele>
        <time>2021-05-22T09:25:14Z</time>
      </trkpt>
      <trkpt lat="43.39404" lon="6.43839">
        <ele>82.800003051758</ele>
        <time>2021-05-22T09:25:15Z</time>
      </trkpt>
      <trkpt lat="43.39405" lon="6.43828">
        <ele>82.599998474121</ele>
        <time>2021-05-22T09:25:16Z</time>
      </trkpt>
      <trkpt lat="43.39404" lon="6.43818">
        <ele>82</ele>
        <time>2021-05-22T09:25:17Z</time>
      </trkpt>
      <trkpt lat="43.39403" lon="6.43809">
        <ele>81.599998474121</ele>
        <time>2021-05-22T09:25:18Z</time>
      </trkpt>
      <trkpt lat="43.39398" lon="6.43793">
        <ele>80.800003051758</ele>
        <time>2021-05-22T09:25:20Z</time>
      </trkpt>
      <trkpt lat="43.39395" lon="6.43787">
        <ele>80.599998474121</ele>
        <time>2021-05-22T09:25:21Z</time>
      </trkpt>
      <trkpt lat="43.39387" lon="6.4377">
        <ele>79.400001525879</ele>
        <time>2021-05-22T09:25:24Z</time>
      </trkpt>
      <trkpt lat="43.39386" lon="6.43766">
        <ele>79.400001525879</ele>
        <time>2021-05-22T09:25:25Z</time>
      </trkpt>
      <trkpt lat="43.39384" lon="6.43759">
        <ele>79</ele>
        <time>2021-05-22T09:25:27Z</time>
      </trkpt>
      <trkpt lat="43.39383" lon="6.43756">
        <ele>79</ele>
        <time>2021-05-22T09:25:28Z</time>
      </trkpt>
      <trkpt lat="43.39381" lon="6.43754">
        <ele>78.599998474121</ele>
        <time>2021-05-22T09:25:29Z</time>
      </trkpt>
      <trkpt lat="43.39375" lon="6.43748">
        <ele>78.400001525879</ele>
        <time>2021-05-22T09:25:31Z</time>
      </trkpt>
      <trkpt lat="43.39371" lon="6.43744">
        <ele>78.400001525879</ele>
        <time>2021-05-22T09:25:32Z</time>
      </trkpt>
      <trkpt lat="43.39366" lon="6.43733">
        <ele>78.199996948242</ele>
        <time>2021-05-22T09:25:34Z</time>
      </trkpt>
      <trkpt lat="43.39362" lon="6.43721">
        <ele>78.199996948242</ele>
        <time>2021-05-22T09:25:36Z</time>
      </trkpt>
      <trkpt lat="43.3936" lon="6.43715">
        <ele>78.199996948242</ele>
        <time>2021-05-22T09:25:37Z</time>
      </trkpt>
      <trkpt lat="43.39354" lon="6.43697">
        <ele>78.400001525879</ele>
        <time>2021-05-22T09:25:40Z</time>
      </trkpt>
      <trkpt lat="43.39353" lon="6.43691">
        <ele>78.400001525879</ele>
        <time>2021-05-22T09:25:41Z</time>
      </trkpt>
      <trkpt lat="43.3935" lon="6.43678">
        <ele>78.800003051758</ele>
        <time>2021-05-22T09:25:43Z</time>
      </trkpt>
      <trkpt lat="43.39347" lon="6.43664">
        <ele>78.800003051758</ele>
        <time>2021-05-22T09:25:45Z</time>
      </trkpt>
      <trkpt lat="43.39347" lon="6.43658">
        <ele>78.800003051758</ele>
        <time>2021-05-22T09:25:46Z</time>
      </trkpt>
      <trkpt lat="43.39348" lon="6.43641">
        <ele>78.400001525879</ele>
        <time>2021-05-22T09:25:49Z</time>
      </trkpt>
      <trkpt lat="43.39349" lon="6.4363">
        <ele>78.199996948242</ele>
        <time>2021-05-22T09:25:51Z</time>
      </trkpt>
      <trkpt lat="43.39351" lon="6.43624">
        <ele>78.199996948242</ele>
        <time>2021-05-22T09:25:52Z</time>
      </trkpt>
      <trkpt lat="43.39352" lon="6.43618">
        <ele>78.199996948242</ele>
        <time>2021-05-22T09:25:53Z</time>
      </trkpt>
      <trkpt lat="43.39354" lon="6.4361">
        <ele>78.199996948242</ele>
        <time>2021-05-22T09:25:54Z</time>
      </trkpt>
      <trkpt lat="43.39356" lon="6.43596">
        <ele>78</ele>
        <time>2021-05-22T09:25:56Z</time>
      </trkpt>
      <trkpt lat="43.39354" lon="6.4358">
        <ele>78</ele>
        <time>2021-05-22T09:25:58Z</time>
      </trkpt>
      <trkpt lat="43.39343" lon="6.43543">
        <ele>77.400001525879</ele>
        <time>2021-05-22T09:26:02Z</time>
      </trkpt>
      <trkpt lat="43.3934" lon="6.43534">
        <ele>77</ele>
        <time>2021-05-22T09:26:03Z</time>
      </trkpt>
      <trkpt lat="43.39335" lon="6.43518">
        <ele>76.199996948242</ele>
        <time>2021-05-22T09:26:05Z</time>
      </trkpt>
      <trkpt lat="43.39328" lon="6.43503">
        <ele>75.800003051758</ele>
        <time>2021-05-22T09:26:07Z</time>
      </trkpt>
      <trkpt lat="43.39312" lon="6.43475">
        <ele>75.199996948242</ele>
        <time>2021-05-22T09:26:12Z</time>
      </trkpt>
      <trkpt lat="43.3931" lon="6.43469">
        <ele>75.199996948242</ele>
        <time>2021-05-22T09:26:13Z</time>
      </trkpt>
      <trkpt lat="43.39309" lon="6.43462">
        <ele>75.199996948242</ele>
        <time>2021-05-22T09:26:14Z</time>
      </trkpt>
      <trkpt lat="43.3931" lon="6.43449">
        <ele>75</ele>
        <time>2021-05-22T09:26:16Z</time>
      </trkpt>
      <trkpt lat="43.39312" lon="6.43443">
        <ele>75</ele>
        <time>2021-05-22T09:26:17Z</time>
      </trkpt>
      <trkpt lat="43.39327" lon="6.43401">
        <ele>74.599998474121</ele>
        <time>2021-05-22T09:26:24Z</time>
      </trkpt>
      <trkpt lat="43.39341" lon="6.4336">
        <ele>74.800003051758</ele>
        <time>2021-05-22T09:26:30Z</time>
      </trkpt>
      <trkpt lat="43.39347" lon="6.43345">
        <ele>74.400001525879</ele>
        <time>2021-05-22T09:26:32Z</time>
      </trkpt>
      <trkpt lat="43.39356" lon="6.43319">
        <ele>74.400001525879</ele>
        <time>2021-05-22T09:26:36Z</time>
      </trkpt>
      <trkpt lat="43.39358" lon="6.43313">
        <ele>74.400001525879</ele>
        <time>2021-05-22T09:26:37Z</time>
      </trkpt>
      <trkpt lat="43.3936" lon="6.43306">
        <ele>74.400001525879</ele>
        <time>2021-05-22T09:26:38Z</time>
      </trkpt>
      <trkpt lat="43.39362" lon="6.433">
        <ele>74.400001525879</ele>
        <time>2021-05-22T09:26:39Z</time>
      </trkpt>
      <trkpt lat="43.39364" lon="6.43294">
        <ele>74.400001525879</ele>
        <time>2021-05-22T09:26:40Z</time>
      </trkpt>
      <trkpt lat="43.39379" lon="6.43258">
        <ele>74</ele>
        <time>2021-05-22T09:26:46Z</time>
      </trkpt>
      <trkpt lat="43.39384" lon="6.43246">
        <ele>74</ele>
        <time>2021-05-22T09:26:48Z</time>
      </trkpt>
      <trkpt lat="43.39401" lon="6.432">
        <ele>74</ele>
        <time>2021-05-22T09:26:55Z</time>
      </trkpt>
      <trkpt lat="43.39408" lon="6.43174">
        <ele>74</ele>
        <time>2021-05-22T09:26:59Z</time>
      </trkpt>
      <trkpt lat="43.39411" lon="6.43162">
        <ele>74</ele>
        <time>2021-05-22T09:27:01Z</time>
      </trkpt>
      <trkpt lat="43.39424" lon="6.43126">
        <ele>74.199996948242</ele>
        <time>2021-05-22T09:27:07Z</time>
      </trkpt>
      <trkpt lat="43.39425" lon="6.43119">
        <ele>74.199996948242</ele>
        <time>2021-05-22T09:27:08Z</time>
      </trkpt>
      <trkpt lat="43.39431" lon="6.43085">
        <ele>74.400001525879</ele>
        <time>2021-05-22T09:27:13Z</time>
      </trkpt>
      <trkpt lat="43.39441" lon="6.43045">
        <ele>74.199996948242</ele>
        <time>2021-05-22T09:27:19Z</time>
      </trkpt>
      <trkpt lat="43.3945" lon="6.42993">
        <ele>73.800003051758</ele>
        <time>2021-05-22T09:27:26Z</time>
      </trkpt>
      <trkpt lat="43.39451" lon="6.42985">
        <ele>73.599998474121</ele>
        <time>2021-05-22T09:27:27Z</time>
      </trkpt>
      <trkpt lat="43.39452" lon="6.4297">
        <ele>73.199996948242</ele>
        <time>2021-05-22T09:27:29Z</time>
      </trkpt>
      <trkpt lat="43.39454" lon="6.42949">
        <ele>73</ele>
        <time>2021-05-22T09:27:32Z</time>
      </trkpt>
      <trkpt lat="43.39456" lon="6.42944">
        <ele>72.800003051758</ele>
        <time>2021-05-22T09:27:33Z</time>
      </trkpt>
      <trkpt lat="43.39461" lon="6.42917">
        <ele>72.800003051758</ele>
        <time>2021-05-22T09:27:37Z</time>
      </trkpt>
      <trkpt lat="43.39462" lon="6.4291">
        <ele>72.800003051758</ele>
        <time>2021-05-22T09:27:38Z</time>
      </trkpt>
      <trkpt lat="43.3947" lon="6.42861">
        <ele>73</ele>
        <time>2021-05-22T09:27:45Z</time>
      </trkpt>
      <trkpt lat="43.39475" lon="6.42824">
        <ele>72.800003051758</ele>
        <time>2021-05-22T09:27:50Z</time>
      </trkpt>
      <trkpt lat="43.39476" lon="6.42817">
        <ele>72.599998474121</ele>
        <time>2021-05-22T09:27:51Z</time>
      </trkpt>
      <trkpt lat="43.39478" lon="6.42802">
        <ele>72.400001525879</ele>
        <time>2021-05-22T09:27:53Z</time>
      </trkpt>
      <trkpt lat="43.39482" lon="6.42781">
        <ele>72.199996948242</ele>
        <time>2021-05-22T09:27:56Z</time>
      </trkpt>
      <trkpt lat="43.39486" lon="6.42751">
        <ele>72.400001525879</ele>
        <time>2021-05-22T09:28:00Z</time>
      </trkpt>
      <trkpt lat="43.3949" lon="6.42715">
        <ele>72.400001525879</ele>
        <time>2021-05-22T09:28:05Z</time>
      </trkpt>
      <trkpt lat="43.39493" lon="6.42703">
        <ele>72.400001525879</ele>
        <time>2021-05-22T09:28:07Z</time>
      </trkpt>
      <trkpt lat="43.39502" lon="6.42666">
        <ele>71.800003051758</ele>
        <time>2021-05-22T09:28:13Z</time>
      </trkpt>
      <trkpt lat="43.39504" lon="6.4266">
        <ele>71.599998474121</ele>
        <time>2021-05-22T09:28:14Z</time>
      </trkpt>
      <trkpt lat="43.39512" lon="6.4263">
        <ele>71.400001525879</ele>
        <time>2021-05-22T09:28:18Z</time>
      </trkpt>
      <trkpt lat="43.39515" lon="6.42622">
        <ele>71.199996948242</ele>
        <time>2021-05-22T09:28:19Z</time>
      </trkpt>
      <trkpt lat="43.39519" lon="6.42605">
        <ele>71</ele>
        <time>2021-05-22T09:28:21Z</time>
      </trkpt>
      <trkpt lat="43.39526" lon="6.42573">
        <ele>70.400001525879</ele>
        <time>2021-05-22T09:28:25Z</time>
      </trkpt>
      <trkpt lat="43.39528" lon="6.42565">
        <ele>70.199996948242</ele>
        <time>2021-05-22T09:28:26Z</time>
      </trkpt>
      <trkpt lat="43.39545" lon="6.42512">
        <ele>69.800003051758</ele>
        <time>2021-05-22T09:28:33Z</time>
      </trkpt>
      <trkpt lat="43.39565" lon="6.42438">
        <ele>70</ele>
        <time>2021-05-22T09:28:43Z</time>
      </trkpt>
      <trkpt lat="43.3957" lon="6.42417">
        <ele>70</ele>
        <time>2021-05-22T09:28:46Z</time>
      </trkpt>
      <trkpt lat="43.3958" lon="6.42378">
        <ele>70.400001525879</ele>
        <time>2021-05-22T09:28:52Z</time>
      </trkpt>
      <trkpt lat="43.39592" lon="6.42337">
        <ele>70.400001525879</ele>
        <time>2021-05-22T09:28:59Z</time>
      </trkpt>
      <trkpt lat="43.39596" lon="6.42325">
        <ele>70.599998474121</ele>
        <time>2021-05-22T09:29:01Z</time>
      </trkpt>
      <trkpt lat="43.39598" lon="6.42313">
        <ele>70.599998474121</ele>
        <time>2021-05-22T09:29:03Z</time>
      </trkpt>
      <trkpt lat="43.39601" lon="6.42301">
        <ele>70.599998474121</ele>
        <time>2021-05-22T09:29:05Z</time>
      </trkpt>
      <trkpt lat="43.39603" lon="6.42288">
        <ele>70.800003051758</ele>
        <time>2021-05-22T09:29:07Z</time>
      </trkpt>
      <trkpt lat="43.3961" lon="6.42246">
        <ele>71.400001525879</ele>
        <time>2021-05-22T09:29:14Z</time>
      </trkpt>
      <trkpt lat="43.39612" lon="6.42234">
        <ele>71.400001525879</ele>
        <time>2021-05-22T09:29:16Z</time>
      </trkpt>
      <trkpt lat="43.39621" lon="6.422">
        <ele>72</ele>
        <time>2021-05-22T09:29:22Z</time>
      </trkpt>
      <trkpt lat="43.39627" lon="6.42178">
        <ele>72.199996948242</ele>
        <time>2021-05-22T09:29:26Z</time>
      </trkpt>
      <trkpt lat="43.39632" lon="6.42155">
        <ele>72.400001525879</ele>
        <time>2021-05-22T09:29:30Z</time>
      </trkpt>
      <trkpt lat="43.39635" lon="6.42145">
        <ele>72.599998474121</ele>
        <time>2021-05-22T09:29:32Z</time>
      </trkpt>
      <trkpt lat="43.39636" lon="6.4214">
        <ele>72.599998474121</ele>
        <time>2021-05-22T09:29:33Z</time>
      </trkpt>
      <trkpt lat="43.39642" lon="6.42121">
        <ele>73</ele>
        <time>2021-05-22T09:29:37Z</time>
      </trkpt>
      <trkpt lat="43.39646" lon="6.42111">
        <ele>73.199996948242</ele>
        <time>2021-05-22T09:29:39Z</time>
      </trkpt>
      <trkpt lat="43.39645" lon="6.42101">
        <ele>73.199996948242</ele>
        <time>2021-05-22T09:29:41Z</time>
      </trkpt>
      <trkpt lat="43.39639" lon="6.42096">
        <ele>73.400001525879</ele>
        <time>2021-05-22T09:29:43Z</time>
      </trkpt>
      <trkpt lat="43.39635" lon="6.42094">
        <ele>73.400001525879</ele>
        <time>2021-05-22T09:29:44Z</time>
      </trkpt>
      <trkpt lat="43.39611" lon="6.4209">
        <ele>73.199996948242</ele>
        <time>2021-05-22T09:29:49Z</time>
      </trkpt>
      <trkpt lat="43.39574" lon="6.42084">
        <ele>72.199996948242</ele>
        <time>2021-05-22T09:29:56Z</time>
      </trkpt>
      <trkpt lat="43.39548" lon="6.42081">
        <ele>71.199996948242</ele>
        <time>2021-05-22T09:30:01Z</time>
      </trkpt>
      <trkpt lat="43.39538" lon="6.42079">
        <ele>71</ele>
        <time>2021-05-22T09:30:03Z</time>
      </trkpt>
      <trkpt lat="43.39523" lon="6.42077">
        <ele>70.800003051758</ele>
        <time>2021-05-22T09:30:06Z</time>
      </trkpt>
      <trkpt lat="43.39518" lon="6.42076">
        <ele>70.599998474121</ele>
        <time>2021-05-22T09:30:07Z</time>
      </trkpt>
      <trkpt lat="43.39513" lon="6.42076">
        <ele>70.400001525879</ele>
        <time>2021-05-22T09:30:08Z</time>
      </trkpt>
      <trkpt lat="43.39497" lon="6.42074">
        <ele>70.400001525879</ele>
        <time>2021-05-22T09:30:11Z</time>
      </trkpt>
      <trkpt lat="43.3948" lon="6.42074">
        <ele>70.199996948242</ele>
        <time>2021-05-22T09:30:14Z</time>
      </trkpt>
      <trkpt lat="43.39451" lon="6.4207">
        <ele>70.400001525879</ele>
        <time>2021-05-22T09:30:19Z</time>
      </trkpt>
      <trkpt lat="43.39439" lon="6.42069">
        <ele>70.400001525879</ele>
        <time>2021-05-22T09:30:21Z</time>
      </trkpt>
      <trkpt lat="43.39411" lon="6.42065">
        <ele>70.400001525879</ele>
        <time>2021-05-22T09:30:26Z</time>
      </trkpt>
      <trkpt lat="43.39384" lon="6.42063">
        <ele>69.599998474121</ele>
        <time>2021-05-22T09:30:31Z</time>
      </trkpt>
      <trkpt lat="43.39355" lon="6.4206">
        <ele>69.199996948242</ele>
        <time>2021-05-22T09:30:36Z</time>
      </trkpt>
      <trkpt lat="43.39337" lon="6.42058">
        <ele>68.199996948242</ele>
        <time>2021-05-22T09:30:39Z</time>
      </trkpt>
      <trkpt lat="43.39322" lon="6.42057">
        <ele>67.599998474121</ele>
        <time>2021-05-22T09:30:41Z</time>
      </trkpt>
      <trkpt lat="43.393" lon="6.42058">
        <ele>67.199996948242</ele>
        <time>2021-05-22T09:30:44Z</time>
      </trkpt>
      <trkpt lat="43.39278" lon="6.42056">
        <ele>66.199996948242</ele>
        <time>2021-05-22T09:30:47Z</time>
      </trkpt>
      <trkpt lat="43.39271" lon="6.42055">
        <ele>66</ele>
        <time>2021-05-22T09:30:48Z</time>
      </trkpt>
      <trkpt lat="43.39252" lon="6.42055">
        <ele>65</ele>
        <time>2021-05-22T09:30:51Z</time>
      </trkpt>
      <trkpt lat="43.39245" lon="6.42054">
        <ele>64.800003051758</ele>
        <time>2021-05-22T09:30:52Z</time>
      </trkpt>
      <trkpt lat="43.39219" lon="6.42053">
        <ele>63.799999237061</ele>
        <time>2021-05-22T09:30:56Z</time>
      </trkpt>
      <trkpt lat="43.39192" lon="6.42052">
        <ele>63.200000762939</ele>
        <time>2021-05-22T09:31:00Z</time>
      </trkpt>
      <trkpt lat="43.39179" lon="6.42051">
        <ele>62.799999237061</ele>
        <time>2021-05-22T09:31:02Z</time>
      </trkpt>
      <trkpt lat="43.39155" lon="6.42045">
        <ele>62.200000762939</ele>
        <time>2021-05-22T09:31:06Z</time>
      </trkpt>
      <trkpt lat="43.39126" lon="6.42037">
        <ele>61.799999237061</ele>
        <time>2021-05-22T09:31:11Z</time>
      </trkpt>
      <trkpt lat="43.3912" lon="6.42035">
        <ele>61.799999237061</ele>
        <time>2021-05-22T09:31:12Z</time>
      </trkpt>
      <trkpt lat="43.39095" lon="6.42031">
        <ele>61.799999237061</ele>
        <time>2021-05-22T09:31:16Z</time>
      </trkpt>
      <trkpt lat="43.39083" lon="6.4203">
        <ele>61.799999237061</ele>
        <time>2021-05-22T09:31:18Z</time>
      </trkpt>
      <trkpt lat="43.39039" lon="6.42027">
        <ele>61.599998474121</ele>
        <time>2021-05-22T09:31:25Z</time>
      </trkpt>
      <trkpt lat="43.3901" lon="6.42021">
        <ele>61.400001525879</ele>
        <time>2021-05-22T09:31:30Z</time>
      </trkpt>
      <trkpt lat="43.39005" lon="6.42019">
        <ele>61.400001525879</ele>
        <time>2021-05-22T09:31:31Z</time>
      </trkpt>
      <trkpt lat="43.39" lon="6.42018">
        <ele>61.400001525879</ele>
        <time>2021-05-22T09:31:32Z</time>
      </trkpt>
      <trkpt lat="43.3899" lon="6.42016">
        <ele>61.400001525879</ele>
        <time>2021-05-22T09:31:34Z</time>
      </trkpt>
      <trkpt lat="43.38985" lon="6.42016">
        <ele>61.400001525879</ele>
        <time>2021-05-22T09:31:35Z</time>
      </trkpt>
      <trkpt lat="43.38979" lon="6.42015">
        <ele>61.400001525879</ele>
        <time>2021-05-22T09:31:36Z</time>
      </trkpt>
      <trkpt lat="43.38973" lon="6.42015">
        <ele>61.599998474121</ele>
        <time>2021-05-22T09:31:37Z</time>
      </trkpt>
      <trkpt lat="43.38964" lon="6.42013">
        <ele>61.799999237061</ele>
        <time>2021-05-22T09:31:39Z</time>
      </trkpt>
      <trkpt lat="43.38959" lon="6.42012">
        <ele>61.799999237061</ele>
        <time>2021-05-22T09:31:40Z</time>
      </trkpt>
      <trkpt lat="43.38942" lon="6.42009">
        <ele>61.799999237061</ele>
        <time>2021-05-22T09:31:43Z</time>
      </trkpt>
      <trkpt lat="43.3893" lon="6.42009">
        <ele>61.799999237061</ele>
        <time>2021-05-22T09:31:45Z</time>
      </trkpt>
      <trkpt lat="43.3892" lon="6.42014">
        <ele>62</ele>
        <time>2021-05-22T09:31:47Z</time>
      </trkpt>
      <trkpt lat="43.38912" lon="6.42023">
        <ele>62</ele>
        <time>2021-05-22T09:31:49Z</time>
      </trkpt>
      <trkpt lat="43.38908" lon="6.42027">
        <ele>62</ele>
        <time>2021-05-22T09:31:50Z</time>
      </trkpt>
      <trkpt lat="43.38905" lon="6.42031">
        <ele>62</ele>
        <time>2021-05-22T09:31:51Z</time>
      </trkpt>
      <trkpt lat="43.38899" lon="6.42039">
        <ele>62.200000762939</ele>
        <time>2021-05-22T09:31:53Z</time>
      </trkpt>
      <trkpt lat="43.38896" lon="6.42044">
        <ele>62.599998474121</ele>
        <time>2021-05-22T09:31:55Z</time>
      </trkpt>
      <trkpt lat="43.38893" lon="6.42046">
        <ele>62.799999237061</ele>
        <time>2021-05-22T09:31:56Z</time>
      </trkpt>
      <trkpt lat="43.3888" lon="6.42056">
        <ele>63.599998474121</ele>
        <time>2021-05-22T09:32:00Z</time>
      </trkpt>
      <trkpt lat="43.38877" lon="6.42057">
        <ele>63.799999237061</ele>
        <time>2021-05-22T09:32:01Z</time>
      </trkpt>
      <trkpt lat="43.3887" lon="6.42061">
        <ele>64.400001525879</ele>
        <time>2021-05-22T09:32:04Z</time>
      </trkpt>
      <trkpt lat="43.38865" lon="6.42066">
        <ele>65</ele>
        <time>2021-05-22T09:32:06Z</time>
      </trkpt>
      <trkpt lat="43.38853" lon="6.42077">
        <ele>66.199996948242</ele>
        <time>2021-05-22T09:32:10Z</time>
      </trkpt>
      <trkpt lat="43.3883" lon="6.421">
        <ele>66.599998474121</ele>
        <time>2021-05-22T09:32:17Z</time>
      </trkpt>
      <trkpt lat="43.38823" lon="6.42107">
        <ele>66.800003051758</ele>
        <time>2021-05-22T09:32:19Z</time>
      </trkpt>
      <trkpt lat="43.38818" lon="6.4211">
        <ele>66.800003051758</ele>
        <time>2021-05-22T09:32:20Z</time>
      </trkpt>
      <trkpt lat="43.38814" lon="6.42112">
        <ele>66.800003051758</ele>
        <time>2021-05-22T09:32:21Z</time>
      </trkpt>
      <trkpt lat="43.38803" lon="6.42119">
        <ele>66.599998474121</ele>
        <time>2021-05-22T09:32:23Z</time>
      </trkpt>
      <trkpt lat="43.38772" lon="6.42131">
        <ele>65.800003051758</ele>
        <time>2021-05-22T09:32:29Z</time>
      </trkpt>
      <trkpt lat="43.38763" lon="6.42135">
        <ele>65.800003051758</ele>
        <time>2021-05-22T09:32:31Z</time>
      </trkpt>
      <trkpt lat="43.38736" lon="6.42144">
        <ele>65.199996948242</ele>
        <time>2021-05-22T09:32:37Z</time>
      </trkpt>
      <trkpt lat="43.38724" lon="6.4215">
        <ele>65.199996948242</ele>
        <time>2021-05-22T09:32:40Z</time>
      </trkpt>
      <trkpt lat="43.38702" lon="6.42157">
        <ele>65.599998474121</ele>
        <time>2021-05-22T09:32:45Z</time>
      </trkpt>
      <trkpt lat="43.38698" lon="6.42159">
        <ele>65.599998474121</ele>
        <time>2021-05-22T09:32:46Z</time>
      </trkpt>
      <trkpt lat="43.38694" lon="6.42161">
        <ele>65.800003051758</ele>
        <time>2021-05-22T09:32:47Z</time>
      </trkpt>
      <trkpt lat="43.3869" lon="6.42162">
        <ele>65.800003051758</ele>
        <time>2021-05-22T09:32:48Z</time>
      </trkpt>
      <trkpt lat="43.38674" lon="6.42167">
        <ele>66</ele>
        <time>2021-05-22T09:32:52Z</time>
      </trkpt>
      <trkpt lat="43.38657" lon="6.42171">
        <ele>66.199996948242</ele>
        <time>2021-05-22T09:32:56Z</time>
      </trkpt>
      <trkpt lat="43.38629" lon="6.4218">
        <ele>66.599998474121</ele>
        <time>2021-05-22T09:33:03Z</time>
      </trkpt>
      <trkpt lat="43.3861" lon="6.42186">
        <ele>67</ele>
        <time>2021-05-22T09:33:08Z</time>
      </trkpt>
      <trkpt lat="43.38599" lon="6.4219">
        <ele>67.199996948242</ele>
        <time>2021-05-22T09:33:11Z</time>
      </trkpt>
      <trkpt lat="43.38588" lon="6.42194">
        <ele>67.400001525879</ele>
        <time>2021-05-22T09:33:14Z</time>
      </trkpt>
      <trkpt lat="43.3858" lon="6.42197">
        <ele>67.800003051758</ele>
        <time>2021-05-22T09:33:16Z</time>
      </trkpt>
      <trkpt lat="43.38573" lon="6.422">
        <ele>68</ele>
        <time>2021-05-22T09:33:18Z</time>
      </trkpt>
      <trkpt lat="43.38565" lon="6.42203">
        <ele>68.199996948242</ele>
        <time>2021-05-22T09:33:20Z</time>
      </trkpt>
      <trkpt lat="43.38545" lon="6.4221">
        <ele>68.400001525879</ele>
        <time>2021-05-22T09:33:25Z</time>
      </trkpt>
      <trkpt lat="43.38533" lon="6.42213">
        <ele>68.400001525879</ele>
        <time>2021-05-22T09:33:28Z</time>
      </trkpt>
      <trkpt lat="43.38516" lon="6.4222">
        <ele>69.199996948242</ele>
        <time>2021-05-22T09:33:33Z</time>
      </trkpt>
      <trkpt lat="43.38509" lon="6.42222">
        <ele>69.400001525879</ele>
        <time>2021-05-22T09:33:35Z</time>
      </trkpt>
      <trkpt lat="43.38499" lon="6.42226">
        <ele>70</ele>
        <time>2021-05-22T09:33:38Z</time>
      </trkpt>
      <trkpt lat="43.38493" lon="6.42229">
        <ele>70.199996948242</ele>
        <time>2021-05-22T09:33:40Z</time>
      </trkpt>
      <trkpt lat="43.38483" lon="6.42233">
        <ele>70.599998474121</ele>
        <time>2021-05-22T09:33:43Z</time>
      </trkpt>
      <trkpt lat="43.38457" lon="6.42243">
        <ele>71.400001525879</ele>
        <time>2021-05-22T09:33:51Z</time>
      </trkpt>
      <trkpt lat="43.38451" lon="6.42246">
        <ele>71.599998474121</ele>
        <time>2021-05-22T09:33:53Z</time>
      </trkpt>
      <trkpt lat="43.38437" lon="6.4225">
        <ele>72</ele>
        <time>2021-05-22T09:33:57Z</time>
      </trkpt>
      <trkpt lat="43.38431" lon="6.42253">
        <ele>72</ele>
        <time>2021-05-22T09:33:59Z</time>
      </trkpt>
      <trkpt lat="43.38428" lon="6.42254">
        <ele>72</ele>
        <time>2021-05-22T09:34:00Z</time>
      </trkpt>
      <trkpt lat="43.38416" lon="6.42258">
        <ele>72.599998474121</ele>
        <time>2021-05-22T09:34:04Z</time>
      </trkpt>
      <trkpt lat="43.384" lon="6.42265">
        <ele>73.199996948242</ele>
        <time>2021-05-22T09:34:09Z</time>
      </trkpt>
      <trkpt lat="43.38382" lon="6.42271">
        <ele>73.599998474121</ele>
        <time>2021-05-22T09:34:14Z</time>
      </trkpt>
      <trkpt lat="43.38376" lon="6.42274">
        <ele>73.800003051758</ele>
        <time>2021-05-22T09:34:16Z</time>
      </trkpt>
      <trkpt lat="43.38353" lon="6.42282">
        <ele>73.800003051758</ele>
        <time>2021-05-22T09:34:23Z</time>
      </trkpt>
      <trkpt lat="43.38341" lon="6.42285">
        <ele>74.400001525879</ele>
        <time>2021-05-22T09:34:28Z</time>
      </trkpt>
      <trkpt lat="43.38339" lon="6.42285">
        <ele>74.800003051758</ele>
        <time>2021-05-22T09:34:29Z</time>
      </trkpt>
      <trkpt lat="43.38326" lon="6.42289">
        <ele>75.800003051758</ele>
        <time>2021-05-22T09:34:35Z</time>
      </trkpt>
      <trkpt lat="43.38309" lon="6.42291">
        <ele>76.400001525879</ele>
        <time>2021-05-22T09:34:41Z</time>
      </trkpt>
      <trkpt lat="43.38298" lon="6.42285">
        <ele>76.599998474121</ele>
        <time>2021-05-22T09:34:45Z</time>
      </trkpt>
      <trkpt lat="43.38292" lon="6.42279">
        <ele>76.800003051758</ele>
        <time>2021-05-22T09:34:47Z</time>
      </trkpt>
      <trkpt lat="43.38288" lon="6.42274">
        <ele>77</ele>
        <time>2021-05-22T09:34:49Z</time>
      </trkpt>
      <trkpt lat="43.38286" lon="6.42271">
        <ele>77</ele>
        <time>2021-05-22T09:34:50Z</time>
      </trkpt>
      <trkpt lat="43.38282" lon="6.42266">
        <ele>77.199996948242</ele>
        <time>2021-05-22T09:34:52Z</time>
      </trkpt>
      <trkpt lat="43.3828" lon="6.42264">
        <ele>77.199996948242</ele>
        <time>2021-05-22T09:34:53Z</time>
      </trkpt>
      <trkpt lat="43.38273" lon="6.42255">
        <ele>77.599998474121</ele>
        <time>2021-05-22T09:34:56Z</time>
      </trkpt>
      <trkpt lat="43.3827" lon="6.42251">
        <ele>77.800003051758</ele>
        <time>2021-05-22T09:34:57Z</time>
      </trkpt>
      <trkpt lat="43.38267" lon="6.42247">
        <ele>77.800003051758</ele>
        <time>2021-05-22T09:34:58Z</time>
      </trkpt>
      <trkpt lat="43.38262" lon="6.42242">
        <ele>78</ele>
        <time>2021-05-22T09:34:59Z</time>
      </trkpt>
      <trkpt lat="43.3825" lon="6.4223">
        <ele>78.400001525879</ele>
        <time>2021-05-22T09:35:02Z</time>
      </trkpt>
      <trkpt lat="43.38247" lon="6.42226">
        <ele>78.400001525879</ele>
        <time>2021-05-22T09:35:03Z</time>
      </trkpt>
      <trkpt lat="43.38235" lon="6.42212">
        <ele>78.599998474121</ele>
        <time>2021-05-22T09:35:06Z</time>
      </trkpt>
      <trkpt lat="43.38218" lon="6.4219">
        <ele>78.599998474121</ele>
        <time>2021-05-22T09:35:11Z</time>
      </trkpt>
      <trkpt lat="43.38215" lon="6.42186">
        <ele>78.599998474121</ele>
        <time>2021-05-22T09:35:12Z</time>
      </trkpt>
      <trkpt lat="43.38207" lon="6.42177">
        <ele>78.599998474121</ele>
        <time>2021-05-22T09:35:14Z</time>
      </trkpt>
      <trkpt lat="43.38198" lon="6.42167">
        <ele>78.599998474121</ele>
        <time>2021-05-22T09:35:16Z</time>
      </trkpt>
      <trkpt lat="43.38184" lon="6.42152">
        <ele>78.599998474121</ele>
        <time>2021-05-22T09:35:19Z</time>
      </trkpt>
      <trkpt lat="43.38172" lon="6.42135">
        <ele>78.400001525879</ele>
        <time>2021-05-22T09:35:22Z</time>
      </trkpt>
      <trkpt lat="43.38161" lon="6.42119">
        <ele>78.199996948242</ele>
        <time>2021-05-22T09:35:25Z</time>
      </trkpt>
      <trkpt lat="43.38153" lon="6.42108">
        <ele>78.199996948242</ele>
        <time>2021-05-22T09:35:27Z</time>
      </trkpt>
      <trkpt lat="43.38137" lon="6.42086">
        <ele>77.800003051758</ele>
        <time>2021-05-22T09:35:31Z</time>
      </trkpt>
      <trkpt lat="43.38127" lon="6.42071">
        <ele>77.400001525879</ele>
        <time>2021-05-22T09:35:34Z</time>
      </trkpt>
      <trkpt lat="43.38115" lon="6.42057">
        <ele>76.800003051758</ele>
        <time>2021-05-22T09:35:37Z</time>
      </trkpt>
      <trkpt lat="43.38112" lon="6.42052">
        <ele>76.599998474121</ele>
        <time>2021-05-22T09:35:38Z</time>
      </trkpt>
      <trkpt lat="43.38109" lon="6.42047">
        <ele>76.599998474121</ele>
        <time>2021-05-22T09:35:39Z</time>
      </trkpt>
      <trkpt lat="43.38105" lon="6.42043">
        <ele>76.599998474121</ele>
        <time>2021-05-22T09:35:40Z</time>
      </trkpt>
      <trkpt lat="43.38102" lon="6.42038">
        <ele>76.400001525879</ele>
        <time>2021-05-22T09:35:41Z</time>
      </trkpt>
      <trkpt lat="43.38096" lon="6.42028">
        <ele>76.199996948242</ele>
        <time>2021-05-22T09:35:43Z</time>
      </trkpt>
      <trkpt lat="43.38088" lon="6.42019">
        <ele>76</ele>
        <time>2021-05-22T09:35:45Z</time>
      </trkpt>
      <trkpt lat="43.38074" lon="6.42">
        <ele>76</ele>
        <time>2021-05-22T09:35:49Z</time>
      </trkpt>
      <trkpt lat="43.38061" lon="6.41988">
        <ele>76</ele>
        <time>2021-05-22T09:35:52Z</time>
      </trkpt>
      <trkpt lat="43.38057" lon="6.41984">
        <ele>76</ele>
        <time>2021-05-22T09:35:53Z</time>
      </trkpt>
      <trkpt lat="43.3804" lon="6.41972">
        <ele>76.199996948242</ele>
        <time>2021-05-22T09:35:57Z</time>
      </trkpt>
      <trkpt lat="43.38026" lon="6.41962">
        <ele>76.400001525879</ele>
        <time>2021-05-22T09:36:00Z</time>
      </trkpt>
      <trkpt lat="43.38018" lon="6.41953">
        <ele>76.400001525879</ele>
        <time>2021-05-22T09:36:02Z</time>
      </trkpt>
      <trkpt lat="43.38" lon="6.41937">
        <ele>76.599998474121</ele>
        <time>2021-05-22T09:36:07Z</time>
      </trkpt>
      <trkpt lat="43.37997" lon="6.41933">
        <ele>76.599998474121</ele>
        <time>2021-05-22T09:36:08Z</time>
      </trkpt>
      <trkpt lat="43.37988" lon="6.41926">
        <ele>76.800003051758</ele>
        <time>2021-05-22T09:36:10Z</time>
      </trkpt>
      <trkpt lat="43.3798" lon="6.41918">
        <ele>76.800003051758</ele>
        <time>2021-05-22T09:36:12Z</time>
      </trkpt>
      <trkpt lat="43.37972" lon="6.41911">
        <ele>76.800003051758</ele>
        <time>2021-05-22T09:36:14Z</time>
      </trkpt>
      <trkpt lat="43.37963" lon="6.41907">
        <ele>77</ele>
        <time>2021-05-22T09:36:16Z</time>
      </trkpt>
      <trkpt lat="43.37953" lon="6.41898">
        <ele>77</ele>
        <time>2021-05-22T09:36:18Z</time>
      </trkpt>
      <trkpt lat="43.37942" lon="6.4189">
        <ele>77</ele>
        <time>2021-05-22T09:36:20Z</time>
      </trkpt>
      <trkpt lat="43.37922" lon="6.41876">
        <ele>76.599998474121</ele>
        <time>2021-05-22T09:36:24Z</time>
      </trkpt>
      <trkpt lat="43.37905" lon="6.41867">
        <ele>76.599998474121</ele>
        <time>2021-05-22T09:36:27Z</time>
      </trkpt>
      <trkpt lat="43.3789" lon="6.4186">
        <ele>76.400001525879</ele>
        <time>2021-05-22T09:36:30Z</time>
      </trkpt>
      <trkpt lat="43.37871" lon="6.41852">
        <ele>76</ele>
        <time>2021-05-22T09:36:33Z</time>
      </trkpt>
      <trkpt lat="43.37863" lon="6.41847">
        <ele>75.800003051758</ele>
        <time>2021-05-22T09:36:34Z</time>
      </trkpt>
      <trkpt lat="43.37855" lon="6.41841">
        <ele>75.800003051758</ele>
        <time>2021-05-22T09:36:35Z</time>
      </trkpt>
      <trkpt lat="43.37849" lon="6.41832">
        <ele>75.199996948242</ele>
        <time>2021-05-22T09:36:36Z</time>
      </trkpt>
      <trkpt lat="43.37844" lon="6.41822">
        <ele>74.800003051758</ele>
        <time>2021-05-22T09:36:37Z</time>
      </trkpt>
      <trkpt lat="43.37839" lon="6.41813">
        <ele>74.800003051758</ele>
        <time>2021-05-22T09:36:38Z</time>
      </trkpt>
      <trkpt lat="43.37829" lon="6.41792">
        <ele>74.199996948242</ele>
        <time>2021-05-22T09:36:40Z</time>
      </trkpt>
      <trkpt lat="43.37823" lon="6.41781">
        <ele>74</ele>
        <time>2021-05-22T09:36:41Z</time>
      </trkpt>
      <trkpt lat="43.37816" lon="6.41772">
        <ele>73.599998474121</ele>
        <time>2021-05-22T09:36:42Z</time>
      </trkpt>
      <trkpt lat="43.3781" lon="6.41764">
        <ele>72.800003051758</ele>
        <time>2021-05-22T09:36:43Z</time>
      </trkpt>
      <trkpt lat="43.37804" lon="6.41756">
        <ele>72.199996948242</ele>
        <time>2021-05-22T09:36:44Z</time>
      </trkpt>
      <trkpt lat="43.37798" lon="6.4175">
        <ele>72</ele>
        <time>2021-05-22T09:36:45Z</time>
      </trkpt>
      <trkpt lat="43.37791" lon="6.41743">
        <ele>71.800003051758</ele>
        <time>2021-05-22T09:36:46Z</time>
      </trkpt>
      <trkpt lat="43.37785" lon="6.41738">
        <ele>71.800003051758</ele>
        <time>2021-05-22T09:36:47Z</time>
      </trkpt>
      <trkpt lat="43.37771" lon="6.41731">
        <ele>71.599998474121</ele>
        <time>2021-05-22T09:36:49Z</time>
      </trkpt>
      <trkpt lat="43.37755" lon="6.41729">
        <ele>71.199996948242</ele>
        <time>2021-05-22T09:36:51Z</time>
      </trkpt>
      <trkpt lat="43.37745" lon="6.4173">
        <ele>71.199996948242</ele>
        <time>2021-05-22T09:36:52Z</time>
      </trkpt>
      <trkpt lat="43.37718" lon="6.41735">
        <ele>70.800003051758</ele>
        <time>2021-05-22T09:36:55Z</time>
      </trkpt>
      <trkpt lat="43.37699" lon="6.41728">
        <ele>69.400001525879</ele>
        <time>2021-05-22T09:36:57Z</time>
      </trkpt>
      <trkpt lat="43.37689" lon="6.41722">
        <ele>68</ele>
        <time>2021-05-22T09:36:58Z</time>
      </trkpt>
      <trkpt lat="43.3768" lon="6.41714">
        <ele>67.400001525879</ele>
        <time>2021-05-22T09:36:59Z</time>
      </trkpt>
      <trkpt lat="43.37672" lon="6.41706">
        <ele>66.599998474121</ele>
        <time>2021-05-22T09:37:00Z</time>
      </trkpt>
      <trkpt lat="43.37656" lon="6.4169">
        <ele>65.599998474121</ele>
        <time>2021-05-22T09:37:02Z</time>
      </trkpt>
      <trkpt lat="43.37647" lon="6.41682">
        <ele>65.199996948242</ele>
        <time>2021-05-22T09:37:03Z</time>
      </trkpt>
      <trkpt lat="43.37639" lon="6.41675">
        <ele>64.599998474121</ele>
        <time>2021-05-22T09:37:04Z</time>
      </trkpt>
      <trkpt lat="43.37631" lon="6.41668">
        <ele>64</ele>
        <time>2021-05-22T09:37:05Z</time>
      </trkpt>
      <trkpt lat="43.37622" lon="6.41661">
        <ele>63.799999237061</ele>
        <time>2021-05-22T09:37:06Z</time>
      </trkpt>
      <trkpt lat="43.376" lon="6.41641">
        <ele>63</ele>
        <time>2021-05-22T09:37:09Z</time>
      </trkpt>
      <trkpt lat="43.37593" lon="6.41635">
        <ele>62.799999237061</ele>
        <time>2021-05-22T09:37:10Z</time>
      </trkpt>
      <trkpt lat="43.37587" lon="6.41628">
        <ele>62.799999237061</ele>
        <time>2021-05-22T09:37:11Z</time>
      </trkpt>
      <trkpt lat="43.37578" lon="6.41613">
        <ele>62.799999237061</ele>
        <time>2021-05-22T09:37:13Z</time>
      </trkpt>
      <trkpt lat="43.37574" lon="6.41605">
        <ele>62.799999237061</ele>
        <time>2021-05-22T09:37:14Z</time>
      </trkpt>
      <trkpt lat="43.37569" lon="6.41589">
        <ele>62.799999237061</ele>
        <time>2021-05-22T09:37:16Z</time>
      </trkpt>
      <trkpt lat="43.37567" lon="6.41582">
        <ele>62.799999237061</ele>
        <time>2021-05-22T09:37:17Z</time>
      </trkpt>
      <trkpt lat="43.37565" lon="6.4157">
        <ele>63</ele>
        <time>2021-05-22T09:37:19Z</time>
      </trkpt>
      <trkpt lat="43.37563" lon="6.41558">
        <ele>63.200000762939</ele>
        <time>2021-05-22T09:37:21Z</time>
      </trkpt>
      <trkpt lat="43.37559" lon="6.41547">
        <ele>63.799999237061</ele>
        <time>2021-05-22T09:37:23Z</time>
      </trkpt>
      <trkpt lat="43.37557" lon="6.4154">
        <ele>64</ele>
        <time>2021-05-22T09:37:25Z</time>
      </trkpt>
      <trkpt lat="43.37557" lon="6.41536">
        <ele>64.199996948242</ele>
        <time>2021-05-22T09:37:26Z</time>
      </trkpt>
      <trkpt lat="43.37553" lon="6.41522">
        <ele>64.800003051758</ele>
        <time>2021-05-22T09:37:29Z</time>
      </trkpt>
      <trkpt lat="43.37549" lon="6.41515">
        <ele>65</ele>
        <time>2021-05-22T09:37:31Z</time>
      </trkpt>
      <trkpt lat="43.37548" lon="6.41512">
        <ele>65.199996948242</ele>
        <time>2021-05-22T09:37:32Z</time>
      </trkpt>
      <trkpt lat="43.37542" lon="6.415">
        <ele>66.400001525879</ele>
        <time>2021-05-22T09:37:36Z</time>
      </trkpt>
      <trkpt lat="43.37539" lon="6.41493">
        <ele>67</ele>
        <time>2021-05-22T09:37:38Z</time>
      </trkpt>
      <trkpt lat="43.37537" lon="6.4149">
        <ele>67.400001525879</ele>
        <time>2021-05-22T09:37:39Z</time>
      </trkpt>
      <trkpt lat="43.37534" lon="6.41484">
        <ele>67.800003051758</ele>
        <time>2021-05-22T09:37:41Z</time>
      </trkpt>
      <trkpt lat="43.37531" lon="6.41478">
        <ele>68.599998474121</ele>
        <time>2021-05-22T09:37:43Z</time>
      </trkpt>
      <trkpt lat="43.37529" lon="6.41475">
        <ele>69</ele>
        <time>2021-05-22T09:37:44Z</time>
      </trkpt>
      <trkpt lat="43.37521" lon="6.41461">
        <ele>69.800003051758</ele>
        <time>2021-05-22T09:37:49Z</time>
      </trkpt>
      <trkpt lat="43.37518" lon="6.41455">
        <ele>70</ele>
        <time>2021-05-22T09:37:51Z</time>
      </trkpt>
      <trkpt lat="43.37515" lon="6.41449">
        <ele>70.199996948242</ele>
        <time>2021-05-22T09:37:53Z</time>
      </trkpt>
      <trkpt lat="43.37514" lon="6.41446">
        <ele>70.199996948242</ele>
        <time>2021-05-22T09:37:54Z</time>
      </trkpt>
      <trkpt lat="43.37509" lon="6.41443">
        <ele>70.400001525879</ele>
        <time>2021-05-22T09:37:56Z</time>
      </trkpt>
      <trkpt lat="43.37503" lon="6.4143">
        <ele>70.599998474121</ele>
        <time>2021-05-22T09:38:00Z</time>
      </trkpt>
      <trkpt lat="43.37502" lon="6.41426">
        <ele>70.599998474121</ele>
        <time>2021-05-22T09:38:01Z</time>
      </trkpt>
      <trkpt lat="43.375" lon="6.41419">
        <ele>70.800003051758</ele>
        <time>2021-05-22T09:38:03Z</time>
      </trkpt>
      <trkpt lat="43.37496" lon="6.41405">
        <ele>71</ele>
        <time>2021-05-22T09:38:07Z</time>
      </trkpt>
      <trkpt lat="43.37495" lon="6.41395">
        <ele>71</ele>
        <time>2021-05-22T09:38:10Z</time>
      </trkpt>
      <trkpt lat="43.37494" lon="6.41393">
        <ele>71</ele>
        <time>2021-05-22T09:38:11Z</time>
      </trkpt>
      <trkpt lat="43.37494" lon="6.41392">
        <ele>71</ele>
        <time>2021-05-22T09:38:12Z</time>
      </trkpt>
      <trkpt lat="43.37495" lon="6.4139">
        <ele>71.199996948242</ele>
        <time>2021-05-22T09:38:13Z</time>
      </trkpt>
      <trkpt lat="43.37496" lon="6.41388">
        <ele>71.199996948242</ele>
        <time>2021-05-22T09:38:14Z</time>
      </trkpt>
      <trkpt lat="43.37496" lon="6.41385">
        <ele>71.199996948242</ele>
        <time>2021-05-22T09:38:15Z</time>
      </trkpt>
      <trkpt lat="43.37497" lon="6.41383">
        <ele>71.599998474121</ele>
        <time>2021-05-22T09:38:18Z</time>
      </trkpt>
      <trkpt lat="43.37497" lon="6.41383">
        <ele>71.800003051758</ele>
        <time>2021-05-22T09:38:19Z</time>
      </trkpt>
      <trkpt lat="43.37498" lon="6.41393">
        <ele>72</ele>
        <time>2021-05-22T09:38:26Z</time>
      </trkpt>
      <trkpt lat="43.37498" lon="6.41411">
        <ele>71.599998474121</ele>
        <time>2021-05-22T09:38:30Z</time>
      </trkpt>
      <trkpt lat="43.37505" lon="6.41436">
        <ele>70.599998474121</ele>
        <time>2021-05-22T09:38:36Z</time>
      </trkpt>
      <trkpt lat="43.37513" lon="6.41442">
        <ele>70.400001525879</ele>
        <time>2021-05-22T09:38:39Z</time>
      </trkpt>
      <trkpt lat="43.37516" lon="6.41441">
        <ele>70.400001525879</ele>
        <time>2021-05-22T09:38:40Z</time>
      </trkpt>
      <trkpt lat="43.3752" lon="6.41437">
        <ele>70.199996948242</ele>
        <time>2021-05-22T09:38:42Z</time>
      </trkpt>
      <trkpt lat="43.37523" lon="6.41432">
        <ele>70.199996948242</ele>
        <time>2021-05-22T09:38:44Z</time>
      </trkpt>
      <trkpt lat="43.37535" lon="6.41418">
        <ele>70.199996948242</ele>
        <time>2021-05-22T09:38:50Z</time>
      </trkpt>
      <trkpt lat="43.37539" lon="6.41413">
        <ele>70.199996948242</ele>
        <time>2021-05-22T09:38:52Z</time>
      </trkpt>
      <trkpt lat="43.37543" lon="6.4141">
        <ele>70.400001525879</ele>
        <time>2021-05-22T09:38:54Z</time>
      </trkpt>
      <trkpt lat="43.37544" lon="6.41408">
        <ele>70.400001525879</ele>
        <time>2021-05-22T09:38:55Z</time>
      </trkpt>
      <trkpt lat="43.37548" lon="6.41405">
        <ele>70.599998474121</ele>
        <time>2021-05-22T09:38:57Z</time>
      </trkpt>
      <trkpt lat="43.37554" lon="6.41397">
        <ele>70.599998474121</ele>
        <time>2021-05-22T09:39:00Z</time>
      </trkpt>
      <trkpt lat="43.37574" lon="6.41376">
        <ele>70.800003051758</ele>
        <time>2021-05-22T09:39:07Z</time>
      </trkpt>
      <trkpt lat="43.37582" lon="6.41369">
        <ele>71</ele>
        <time>2021-05-22T09:39:10Z</time>
      </trkpt>
      <trkpt lat="43.37593" lon="6.41354">
        <ele>71.599998474121</ele>
        <time>2021-05-22T09:39:14Z</time>
      </trkpt>
      <trkpt lat="43.37597" lon="6.41347">
        <ele>71.599998474121</ele>
        <time>2021-05-22T09:39:16Z</time>
      </trkpt>
      <trkpt lat="43.37599" lon="6.41344">
        <ele>71.800003051758</ele>
        <time>2021-05-22T09:39:17Z</time>
      </trkpt>
      <trkpt lat="43.37601" lon="6.41339">
        <ele>71.800003051758</ele>
        <time>2021-05-22T09:39:19Z</time>
      </trkpt>
      <trkpt lat="43.37609" lon="6.4133">
        <ele>72.199996948242</ele>
        <time>2021-05-22T09:39:24Z</time>
      </trkpt>
      <trkpt lat="43.3761" lon="6.41327">
        <ele>72.199996948242</ele>
        <time>2021-05-22T09:39:25Z</time>
      </trkpt>
      <trkpt lat="43.37617" lon="6.41318">
        <ele>72.400001525879</ele>
        <time>2021-05-22T09:39:29Z</time>
      </trkpt>
      <trkpt lat="43.37619" lon="6.41314">
        <ele>72.599998474121</ele>
        <time>2021-05-22T09:39:31Z</time>
      </trkpt>
      <trkpt lat="43.3762" lon="6.41313">
        <ele>72.800003051758</ele>
        <time>2021-05-22T09:39:32Z</time>
      </trkpt>
      <trkpt lat="43.37621" lon="6.4131">
        <ele>73</ele>
        <time>2021-05-22T09:39:34Z</time>
      </trkpt>
      <trkpt lat="43.37626" lon="6.41302">
        <ele>73.199996948242</ele>
        <time>2021-05-22T09:39:37Z</time>
      </trkpt>
      <trkpt lat="43.3764" lon="6.41282">
        <ele>73.199996948242</ele>
        <time>2021-05-22T09:39:44Z</time>
      </trkpt>
      <trkpt lat="43.37651" lon="6.41269">
        <ele>73.800003051758</ele>
        <time>2021-05-22T09:39:49Z</time>
      </trkpt>
      <trkpt lat="43.37654" lon="6.41268">
        <ele>73.800003051758</ele>
        <time>2021-05-22T09:39:50Z</time>
      </trkpt>
      <trkpt lat="43.3767" lon="6.4126">
        <ele>73.599998474121</ele>
        <time>2021-05-22T09:39:56Z</time>
      </trkpt>
      <trkpt lat="43.37672" lon="6.4126">
        <ele>73.599998474121</ele>
        <time>2021-05-22T09:39:57Z</time>
      </trkpt>
      <trkpt lat="43.37674" lon="6.41263">
        <ele>73.400001525879</ele>
        <time>2021-05-22T09:39:59Z</time>
      </trkpt>
      <trkpt lat="43.37675" lon="6.41265">
        <ele>73.400001525879</ele>
        <time>2021-05-22T09:40:00Z</time>
      </trkpt>
      <trkpt lat="43.37675" lon="6.41265">
        <ele>73.199996948242</ele>
        <time>2021-05-22T09:40:02Z</time>
      </trkpt>
      <trkpt lat="43.37675" lon="6.41265">
        <ele>72.599998474121</ele>
        <time>2021-05-22T09:40:48Z</time>
      </trkpt>
      <trkpt lat="43.37675" lon="6.41265">
        <ele>72.599998474121</ele>
        <time>2021-05-22T09:40:49Z</time>
      </trkpt>
      <trkpt lat="43.37681" lon="6.41269">
        <ele>72.599998474121</ele>
        <time>2021-05-22T09:40:51Z</time>
      </trkpt>
      <trkpt lat="43.37696" lon="6.41282">
        <ele>72.199996948242</ele>
        <time>2021-05-22T09:40:56Z</time>
      </trkpt>
      <trkpt lat="43.37702" lon="6.41286">
        <ele>71.599998474121</ele>
        <time>2021-05-22T09:40:58Z</time>
      </trkpt>
      <trkpt lat="43.37708" lon="6.41291">
        <ele>70.599998474121</ele>
        <time>2021-05-22T09:41:01Z</time>
      </trkpt>
      <trkpt lat="43.37711" lon="6.4129">
        <ele>70.400001525879</ele>
        <time>2021-05-22T09:41:02Z</time>
      </trkpt>
      <trkpt lat="43.37712" lon="6.41288">
        <ele>70</ele>
        <time>2021-05-22T09:41:03Z</time>
      </trkpt>
      <trkpt lat="43.37712" lon="6.41283">
        <ele>69.800003051758</ele>
        <time>2021-05-22T09:41:05Z</time>
      </trkpt>
      <trkpt lat="43.37704" lon="6.41284">
        <ele>69.599998474121</ele>
        <time>2021-05-22T09:41:09Z</time>
      </trkpt>
      <trkpt lat="43.37701" lon="6.41284">
        <ele>69.599998474121</ele>
        <time>2021-05-22T09:41:10Z</time>
      </trkpt>
      <trkpt lat="43.37693" lon="6.41279">
        <ele>69.599998474121</ele>
        <time>2021-05-22T09:41:14Z</time>
      </trkpt>
      <trkpt lat="43.37691" lon="6.41277">
        <ele>69.800003051758</ele>
        <time>2021-05-22T09:41:15Z</time>
      </trkpt>
      <trkpt lat="43.37689" lon="6.41275">
        <ele>70</ele>
        <time>2021-05-22T09:41:16Z</time>
      </trkpt>
      <trkpt lat="43.37687" lon="6.41273">
        <ele>70.199996948242</ele>
        <time>2021-05-22T09:41:17Z</time>
      </trkpt>
      <trkpt lat="43.37683" lon="6.41269">
        <ele>70.800003051758</ele>
        <time>2021-05-22T09:41:19Z</time>
      </trkpt>
      <trkpt lat="43.37682" lon="6.41267">
        <ele>70.800003051758</ele>
        <time>2021-05-22T09:41:20Z</time>
      </trkpt>
      <trkpt lat="43.37679" lon="6.41261">
        <ele>71.599998474121</ele>
        <time>2021-05-22T09:41:23Z</time>
      </trkpt>
      <trkpt lat="43.37677" lon="6.41259">
        <ele>72</ele>
        <time>2021-05-22T09:41:24Z</time>
      </trkpt>
      <trkpt lat="43.37676" lon="6.41258">
        <ele>72.199996948242</ele>
        <time>2021-05-22T09:41:25Z</time>
      </trkpt>
      <trkpt lat="43.37675" lon="6.41257">
        <ele>72.400001525879</ele>
        <time>2021-05-22T09:41:26Z</time>
      </trkpt>
      <trkpt lat="43.37672" lon="6.41257">
        <ele>72.599998474121</ele>
        <time>2021-05-22T09:41:28Z</time>
      </trkpt>
      <trkpt lat="43.37671" lon="6.41258">
        <ele>72.800003051758</ele>
        <time>2021-05-22T09:41:29Z</time>
      </trkpt>
      <trkpt lat="43.37666" lon="6.4126">
        <ele>73.199996948242</ele>
        <time>2021-05-22T09:41:34Z</time>
      </trkpt>
      <trkpt lat="43.37664" lon="6.41261">
        <ele>73.400001525879</ele>
        <time>2021-05-22T09:42:33Z</time>
      </trkpt>
      <trkpt lat="43.37662" lon="6.41262">
        <ele>73.400001525879</ele>
        <time>2021-05-22T09:42:34Z</time>
      </trkpt>
      <trkpt lat="43.37658" lon="6.41265">
        <ele>73.400001525879</ele>
        <time>2021-05-22T09:42:36Z</time>
      </trkpt>
      <trkpt lat="43.37652" lon="6.41267">
        <ele>73.599998474121</ele>
        <time>2021-05-22T09:42:38Z</time>
      </trkpt>
      <trkpt lat="43.37649" lon="6.41269">
        <ele>73.599998474121</ele>
        <time>2021-05-22T09:42:39Z</time>
      </trkpt>
      <trkpt lat="43.37646" lon="6.4127">
        <ele>73.800003051758</ele>
        <time>2021-05-22T09:42:40Z</time>
      </trkpt>
      <trkpt lat="43.37641" lon="6.41273">
        <ele>74</ele>
        <time>2021-05-22T09:42:42Z</time>
      </trkpt>
      <trkpt lat="43.37635" lon="6.41275">
        <ele>74</ele>
        <time>2021-05-22T09:42:44Z</time>
      </trkpt>
      <trkpt lat="43.37632" lon="6.41277">
        <ele>74</ele>
        <time>2021-05-22T09:42:45Z</time>
      </trkpt>
      <trkpt lat="43.37629" lon="6.41279">
        <ele>74</ele>
        <time>2021-05-22T09:42:46Z</time>
      </trkpt>
      <trkpt lat="43.37627" lon="6.41281">
        <ele>74</ele>
        <time>2021-05-22T09:42:47Z</time>
      </trkpt>
      <trkpt lat="43.37624" lon="6.41283">
        <ele>74</ele>
        <time>2021-05-22T09:42:48Z</time>
      </trkpt>
      <trkpt lat="43.37621" lon="6.41284">
        <ele>74</ele>
        <time>2021-05-22T09:42:49Z</time>
      </trkpt>
      <trkpt lat="43.37618" lon="6.41285">
        <ele>74</ele>
        <time>2021-05-22T09:42:50Z</time>
      </trkpt>
      <trkpt lat="43.37612" lon="6.41285">
        <ele>74.199996948242</ele>
        <time>2021-05-22T09:42:52Z</time>
      </trkpt>
      <trkpt lat="43.37608" lon="6.41282">
        <ele>74.199996948242</ele>
        <time>2021-05-22T09:42:54Z</time>
      </trkpt>
      <trkpt lat="43.37603" lon="6.41278">
        <ele>74.400001525879</ele>
        <time>2021-05-22T09:42:56Z</time>
      </trkpt>
      <trkpt lat="43.37598" lon="6.4127">
        <ele>74.400001525879</ele>
        <time>2021-05-22T09:42:59Z</time>
      </trkpt>
      <trkpt lat="43.37595" lon="6.41268">
        <ele>74.400001525879</ele>
        <time>2021-05-22T09:43:00Z</time>
      </trkpt>
      <trkpt lat="43.37593" lon="6.41266">
        <ele>74.400001525879</ele>
        <time>2021-05-22T09:43:01Z</time>
      </trkpt>
      <trkpt lat="43.37589" lon="6.41261">
        <ele>74.400001525879</ele>
        <time>2021-05-22T09:43:03Z</time>
      </trkpt>
      <trkpt lat="43.37585" lon="6.41255">
        <ele>74.599998474121</ele>
        <time>2021-05-22T09:43:06Z</time>
      </trkpt>
      <trkpt lat="43.37582" lon="6.41251">
        <ele>74.599998474121</ele>
        <time>2021-05-22T09:43:08Z</time>
      </trkpt>
      <trkpt lat="43.3758" lon="6.41249">
        <ele>74.599998474121</ele>
        <time>2021-05-22T09:43:09Z</time>
      </trkpt>
      <trkpt lat="43.37578" lon="6.41246">
        <ele>74.800003051758</ele>
        <time>2021-05-22T09:43:10Z</time>
      </trkpt>
      <trkpt lat="43.37577" lon="6.41244">
        <ele>74.800003051758</ele>
        <time>2021-05-22T09:43:11Z</time>
      </trkpt>
      <trkpt lat="43.3757" lon="6.41238">
        <ele>75</ele>
        <time>2021-05-22T09:43:14Z</time>
      </trkpt>
      <trkpt lat="43.37561" lon="6.41225">
        <ele>75.199996948242</ele>
        <time>2021-05-22T09:43:18Z</time>
      </trkpt>
      <trkpt lat="43.37559" lon="6.4122">
        <ele>75.199996948242</ele>
        <time>2021-05-22T09:43:19Z</time>
      </trkpt>
      <trkpt lat="43.37558" lon="6.41215">
        <ele>75.199996948242</ele>
        <time>2021-05-22T09:43:20Z</time>
      </trkpt>
      <trkpt lat="43.37558" lon="6.41207">
        <ele>75.199996948242</ele>
        <time>2021-05-22T09:43:22Z</time>
      </trkpt>
      <trkpt lat="43.37559" lon="6.41203">
        <ele>75.199996948242</ele>
        <time>2021-05-22T09:43:23Z</time>
      </trkpt>
      <trkpt lat="43.37566" lon="6.41191">
        <ele>75</ele>
        <time>2021-05-22T09:43:27Z</time>
      </trkpt>
      <trkpt lat="43.37568" lon="6.41187">
        <ele>75</ele>
        <time>2021-05-22T09:43:28Z</time>
      </trkpt>
      <trkpt lat="43.37574" lon="6.4117">
        <ele>74.800003051758</ele>
        <time>2021-05-22T09:43:33Z</time>
      </trkpt>
      <trkpt lat="43.37576" lon="6.41167">
        <ele>75</ele>
        <time>2021-05-22T09:43:34Z</time>
      </trkpt>
      <trkpt lat="43.37581" lon="6.41147">
        <ele>75.800003051758</ele>
        <time>2021-05-22T09:43:39Z</time>
      </trkpt>
      <trkpt lat="43.37579" lon="6.4113">
        <ele>76</ele>
        <time>2021-05-22T09:43:43Z</time>
      </trkpt>
      <trkpt lat="43.37574" lon="6.41123">
        <ele>76</ele>
        <time>2021-05-22T09:43:45Z</time>
      </trkpt>
      <trkpt lat="43.37571" lon="6.41116">
        <ele>76</ele>
        <time>2021-05-22T09:43:47Z</time>
      </trkpt>
      <trkpt lat="43.37564" lon="6.41108">
        <ele>75.800003051758</ele>
        <time>2021-05-22T09:43:49Z</time>
      </trkpt>
      <trkpt lat="43.37557" lon="6.41104">
        <ele>75.599998474121</ele>
        <time>2021-05-22T09:43:51Z</time>
      </trkpt>
      <trkpt lat="43.37544" lon="6.41088">
        <ele>75</ele>
        <time>2021-05-22T09:43:54Z</time>
      </trkpt>
      <trkpt lat="43.37538" lon="6.41081">
        <ele>74.800003051758</ele>
        <time>2021-05-22T09:43:55Z</time>
      </trkpt>
      <trkpt lat="43.37527" lon="6.41071">
        <ele>73.400001525879</ele>
        <time>2021-05-22T09:43:57Z</time>
      </trkpt>
      <trkpt lat="43.37522" lon="6.41067">
        <ele>73.199996948242</ele>
        <time>2021-05-22T09:43:58Z</time>
      </trkpt>
      <trkpt lat="43.37514" lon="6.41059">
        <ele>73</ele>
        <time>2021-05-22T09:44:00Z</time>
      </trkpt>
      <trkpt lat="43.37501" lon="6.41048">
        <ele>72.400001525879</ele>
        <time>2021-05-22T09:44:03Z</time>
      </trkpt>
      <trkpt lat="43.37497" lon="6.41042">
        <ele>72</ele>
        <time>2021-05-22T09:44:04Z</time>
      </trkpt>
      <trkpt lat="43.37493" lon="6.41036">
        <ele>71.800003051758</ele>
        <time>2021-05-22T09:44:05Z</time>
      </trkpt>
      <trkpt lat="43.3748" lon="6.41021">
        <ele>70.599998474121</ele>
        <time>2021-05-22T09:44:08Z</time>
      </trkpt>
      <trkpt lat="43.37473" lon="6.41011">
        <ele>69.599998474121</ele>
        <time>2021-05-22T09:44:10Z</time>
      </trkpt>
      <trkpt lat="43.3747" lon="6.41">
        <ele>69</ele>
        <time>2021-05-22T09:44:12Z</time>
      </trkpt>
      <trkpt lat="43.37469" lon="6.40989">
        <ele>68.599998474121</ele>
        <time>2021-05-22T09:44:14Z</time>
      </trkpt>
      <trkpt lat="43.3747" lon="6.40984">
        <ele>68.400001525879</ele>
        <time>2021-05-22T09:44:15Z</time>
      </trkpt>
      <trkpt lat="43.37471" lon="6.40978">
        <ele>68.400001525879</ele>
        <time>2021-05-22T09:44:16Z</time>
      </trkpt>
      <trkpt lat="43.37472" lon="6.40973">
        <ele>68.199996948242</ele>
        <time>2021-05-22T09:44:17Z</time>
      </trkpt>
      <trkpt lat="43.37479" lon="6.40952">
        <ele>67.599998474121</ele>
        <time>2021-05-22T09:44:21Z</time>
      </trkpt>
      <trkpt lat="43.3748" lon="6.40948">
        <ele>67.400001525879</ele>
        <time>2021-05-22T09:44:22Z</time>
      </trkpt>
      <trkpt lat="43.37481" lon="6.40944">
        <ele>67.199996948242</ele>
        <time>2021-05-22T09:44:23Z</time>
      </trkpt>
      <trkpt lat="43.37483" lon="6.40939">
        <ele>67.199996948242</ele>
        <time>2021-05-22T09:44:24Z</time>
      </trkpt>
      <trkpt lat="43.37484" lon="6.40933">
        <ele>67.199996948242</ele>
        <time>2021-05-22T09:44:25Z</time>
      </trkpt>
      <trkpt lat="43.37485" lon="6.40928">
        <ele>67.400001525879</ele>
        <time>2021-05-22T09:44:26Z</time>
      </trkpt>
      <trkpt lat="43.37491" lon="6.40919">
        <ele>67.400001525879</ele>
        <time>2021-05-22T09:44:28Z</time>
      </trkpt>
      <trkpt lat="43.37512" lon="6.40897">
        <ele>67.400001525879</ele>
        <time>2021-05-22T09:44:35Z</time>
      </trkpt>
      <trkpt lat="43.37522" lon="6.40885">
        <ele>67.199996948242</ele>
        <time>2021-05-22T09:44:39Z</time>
      </trkpt>
      <trkpt lat="43.37533" lon="6.40858">
        <ele>67.800003051758</ele>
        <time>2021-05-22T09:44:47Z</time>
      </trkpt>
      <trkpt lat="43.37545" lon="6.40835">
        <ele>67.599998474121</ele>
        <time>2021-05-22T09:44:53Z</time>
      </trkpt>
      <trkpt lat="43.37556" lon="6.40815">
        <ele>67.599998474121</ele>
        <time>2021-05-22T09:44:59Z</time>
      </trkpt>
      <trkpt lat="43.37557" lon="6.40811">
        <ele>67.599998474121</ele>
        <time>2021-05-22T09:45:00Z</time>
      </trkpt>
      <trkpt lat="43.37568" lon="6.40785">
        <ele>67.400001525879</ele>
        <time>2021-05-22T09:45:07Z</time>
      </trkpt>
      <trkpt lat="43.3757" lon="6.40781">
        <ele>67.199996948242</ele>
        <time>2021-05-22T09:45:08Z</time>
      </trkpt>
      <trkpt lat="43.37572" lon="6.40778">
        <ele>67.199996948242</ele>
        <time>2021-05-22T09:45:09Z</time>
      </trkpt>
      <trkpt lat="43.37574" lon="6.40774">
        <ele>67.199996948242</ele>
        <time>2021-05-22T09:45:10Z</time>
      </trkpt>
      <trkpt lat="43.37576" lon="6.40771">
        <ele>67.599998474121</ele>
        <time>2021-05-22T09:45:11Z</time>
      </trkpt>
      <trkpt lat="43.37578" lon="6.40767">
        <ele>67.599998474121</ele>
        <time>2021-05-22T09:45:12Z</time>
      </trkpt>
      <trkpt lat="43.3758" lon="6.40763">
        <ele>67.800003051758</ele>
        <time>2021-05-22T09:45:13Z</time>
      </trkpt>
      <trkpt lat="43.37583" lon="6.40759">
        <ele>67.800003051758</ele>
        <time>2021-05-22T09:45:14Z</time>
      </trkpt>
      <trkpt lat="43.37585" lon="6.40755">
        <ele>68</ele>
        <time>2021-05-22T09:45:15Z</time>
      </trkpt>
      <trkpt lat="43.37597" lon="6.40737">
        <ele>68.199996948242</ele>
        <time>2021-05-22T09:45:20Z</time>
      </trkpt>
      <trkpt lat="43.37603" lon="6.40726">
        <ele>68</ele>
        <time>2021-05-22T09:45:23Z</time>
      </trkpt>
      <trkpt lat="43.37606" lon="6.40721">
        <ele>67.800003051758</ele>
        <time>2021-05-22T09:45:25Z</time>
      </trkpt>
      <trkpt lat="43.37607" lon="6.40719">
        <ele>67.800003051758</ele>
        <time>2021-05-22T09:45:26Z</time>
      </trkpt>
      <trkpt lat="43.37608" lon="6.40714">
        <ele>67.800003051758</ele>
        <time>2021-05-22T09:45:28Z</time>
      </trkpt>
      <trkpt lat="43.37612" lon="6.40709">
        <ele>67.599998474121</ele>
        <time>2021-05-22T09:45:31Z</time>
      </trkpt>
      <trkpt lat="43.37616" lon="6.40703">
        <ele>67.599998474121</ele>
        <time>2021-05-22T09:45:34Z</time>
      </trkpt>
      <trkpt lat="43.37621" lon="6.40694">
        <ele>67.599998474121</ele>
        <time>2021-05-22T09:45:37Z</time>
      </trkpt>
      <trkpt lat="43.37623" lon="6.40691">
        <ele>67.599998474121</ele>
        <time>2021-05-22T09:45:38Z</time>
      </trkpt>
      <trkpt lat="43.37627" lon="6.40684">
        <ele>67.400001525879</ele>
        <time>2021-05-22T09:45:40Z</time>
      </trkpt>
      <trkpt lat="43.37629" lon="6.4068">
        <ele>67.400001525879</ele>
        <time>2021-05-22T09:45:41Z</time>
      </trkpt>
      <trkpt lat="43.3763" lon="6.40676">
        <ele>67.400001525879</ele>
        <time>2021-05-22T09:45:42Z</time>
      </trkpt>
      <trkpt lat="43.37631" lon="6.40673">
        <ele>67.199996948242</ele>
        <time>2021-05-22T09:45:43Z</time>
      </trkpt>
      <trkpt lat="43.37632" lon="6.4067">
        <ele>67.199996948242</ele>
        <time>2021-05-22T09:45:44Z</time>
      </trkpt>
      <trkpt lat="43.37635" lon="6.40662">
        <ele>67.400001525879</ele>
        <time>2021-05-22T09:45:47Z</time>
      </trkpt>
      <trkpt lat="43.37645" lon="6.40627">
        <ele>67.400001525879</ele>
        <time>2021-05-22T09:45:56Z</time>
      </trkpt>
      <trkpt lat="43.3765" lon="6.40607">
        <ele>67.599998474121</ele>
        <time>2021-05-22T09:46:01Z</time>
      </trkpt>
      <trkpt lat="43.37655" lon="6.40585">
        <ele>67.599998474121</ele>
        <time>2021-05-22T09:46:08Z</time>
      </trkpt>
      <trkpt lat="43.37655" lon="6.40583">
        <ele>67.599998474121</ele>
        <time>2021-05-22T09:46:09Z</time>
      </trkpt>
      <trkpt lat="43.37657" lon="6.40563">
        <ele>67</ele>
        <time>2021-05-22T09:46:15Z</time>
      </trkpt>
      <trkpt lat="43.37667" lon="6.40538">
        <ele>66.800003051758</ele>
        <time>2021-05-22T09:46:21Z</time>
      </trkpt>
      <trkpt lat="43.37678" lon="6.40508">
        <ele>67</ele>
        <time>2021-05-22T09:46:27Z</time>
      </trkpt>
      <trkpt lat="43.3768" lon="6.40503">
        <ele>67</ele>
        <time>2021-05-22T09:46:28Z</time>
      </trkpt>
      <trkpt lat="43.37696" lon="6.40462">
        <ele>67.599998474121</ele>
        <time>2021-05-22T09:46:36Z</time>
      </trkpt>
      <trkpt lat="43.377" lon="6.40453">
        <ele>67.599998474121</ele>
        <time>2021-05-22T09:46:38Z</time>
      </trkpt>
      <trkpt lat="43.37702" lon="6.40448">
        <ele>67.800003051758</ele>
        <time>2021-05-22T09:46:39Z</time>
      </trkpt>
      <trkpt lat="43.37704" lon="6.40443">
        <ele>67.800003051758</ele>
        <time>2021-05-22T09:46:40Z</time>
      </trkpt>
      <trkpt lat="43.37706" lon="6.40438">
        <ele>67.800003051758</ele>
        <time>2021-05-22T09:46:41Z</time>
      </trkpt>
      <trkpt lat="43.3771" lon="6.40429">
        <ele>67.800003051758</ele>
        <time>2021-05-22T09:46:43Z</time>
      </trkpt>
      <trkpt lat="43.37712" lon="6.40424">
        <ele>68</ele>
        <time>2021-05-22T09:46:44Z</time>
      </trkpt>
      <trkpt lat="43.37721" lon="6.40407">
        <ele>68.199996948242</ele>
        <time>2021-05-22T09:46:48Z</time>
      </trkpt>
      <trkpt lat="43.37722" lon="6.40404">
        <ele>68.199996948242</ele>
        <time>2021-05-22T09:46:49Z</time>
      </trkpt>
      <trkpt lat="43.37723" lon="6.40401">
        <ele>68.199996948242</ele>
        <time>2021-05-22T09:46:50Z</time>
      </trkpt>
      <trkpt lat="43.37724" lon="6.40398">
        <ele>68.400001525879</ele>
        <time>2021-05-22T09:46:52Z</time>
      </trkpt>
      <trkpt lat="43.37724" lon="6.40396">
        <ele>68.400001525879</ele>
        <time>2021-05-22T09:46:53Z</time>
      </trkpt>
      <trkpt lat="43.37724" lon="6.40393">
        <ele>68.400001525879</ele>
        <time>2021-05-22T09:46:54Z</time>
      </trkpt>
      <trkpt lat="43.37725" lon="6.40387">
        <ele>68.400001525879</ele>
        <time>2021-05-22T09:46:56Z</time>
      </trkpt>
      <trkpt lat="43.37727" lon="6.40383">
        <ele>68.599998474121</ele>
        <time>2021-05-22T09:46:57Z</time>
      </trkpt>
      <trkpt lat="43.3773" lon="6.40378">
        <ele>68.599998474121</ele>
        <time>2021-05-22T09:46:58Z</time>
      </trkpt>
      <trkpt lat="43.37737" lon="6.40365">
        <ele>68.599998474121</ele>
        <time>2021-05-22T09:47:01Z</time>
      </trkpt>
      <trkpt lat="43.37741" lon="6.40355">
        <ele>68.800003051758</ele>
        <time>2021-05-22T09:47:03Z</time>
      </trkpt>
      <trkpt lat="43.37743" lon="6.40343">
        <ele>68.800003051758</ele>
        <time>2021-05-22T09:47:05Z</time>
      </trkpt>
      <trkpt lat="43.37745" lon="6.40336">
        <ele>69</ele>
        <time>2021-05-22T09:47:06Z</time>
      </trkpt>
      <trkpt lat="43.37751" lon="6.40324">
        <ele>69.199996948242</ele>
        <time>2021-05-22T09:47:09Z</time>
      </trkpt>
      <trkpt lat="43.37756" lon="6.40311">
        <ele>69.199996948242</ele>
        <time>2021-05-22T09:47:11Z</time>
      </trkpt>
      <trkpt lat="43.3776" lon="6.40305">
        <ele>69.199996948242</ele>
        <time>2021-05-22T09:47:12Z</time>
      </trkpt>
      <trkpt lat="43.37764" lon="6.40292">
        <ele>69.199996948242</ele>
        <time>2021-05-22T09:47:14Z</time>
      </trkpt>
      <trkpt lat="43.37771" lon="6.40276">
        <ele>69.400001525879</ele>
        <time>2021-05-22T09:47:17Z</time>
      </trkpt>
      <trkpt lat="43.37772" lon="6.40271">
        <ele>69.599998474121</ele>
        <time>2021-05-22T09:47:18Z</time>
      </trkpt>
      <trkpt lat="43.37785" lon="6.40237">
        <ele>70</ele>
        <time>2021-05-22T09:47:24Z</time>
      </trkpt>
      <trkpt lat="43.37793" lon="6.40209">
        <ele>70.199996948242</ele>
        <time>2021-05-22T09:47:29Z</time>
      </trkpt>
      <trkpt lat="43.37798" lon="6.40193">
        <ele>70.199996948242</ele>
        <time>2021-05-22T09:47:32Z</time>
      </trkpt>
      <trkpt lat="43.37799" lon="6.40187">
        <ele>70.199996948242</ele>
        <time>2021-05-22T09:47:33Z</time>
      </trkpt>
      <trkpt lat="43.37804" lon="6.40158">
        <ele>70.199996948242</ele>
        <time>2021-05-22T09:47:38Z</time>
      </trkpt>
      <trkpt lat="43.37803" lon="6.40153">
        <ele>70.199996948242</ele>
        <time>2021-05-22T09:47:39Z</time>
      </trkpt>
      <trkpt lat="43.37803" lon="6.40147">
        <ele>70.199996948242</ele>
        <time>2021-05-22T09:47:40Z</time>
      </trkpt>
      <trkpt lat="43.378" lon="6.40131">
        <ele>70.199996948242</ele>
        <time>2021-05-22T09:47:43Z</time>
      </trkpt>
      <trkpt lat="43.378" lon="6.40125">
        <ele>70.199996948242</ele>
        <time>2021-05-22T09:47:44Z</time>
      </trkpt>
      <trkpt lat="43.37796" lon="6.40102">
        <ele>70.199996948242</ele>
        <time>2021-05-22T09:47:48Z</time>
      </trkpt>
      <trkpt lat="43.37796" lon="6.40096">
        <ele>70.199996948242</ele>
        <time>2021-05-22T09:47:49Z</time>
      </trkpt>
      <trkpt lat="43.37797" lon="6.40083">
        <ele>70.400001525879</ele>
        <time>2021-05-22T09:47:51Z</time>
      </trkpt>
      <trkpt lat="43.37798" lon="6.4007">
        <ele>70.400001525879</ele>
        <time>2021-05-22T09:47:53Z</time>
      </trkpt>
      <trkpt lat="43.37798" lon="6.40066">
        <ele>70.400001525879</ele>
        <time>2021-05-22T09:47:54Z</time>
      </trkpt>
      <trkpt lat="43.37797" lon="6.4006">
        <ele>70.599998474121</ele>
        <time>2021-05-22T09:47:55Z</time>
      </trkpt>
      <trkpt lat="43.37792" lon="6.40052">
        <ele>70.599998474121</ele>
        <time>2021-05-22T09:47:57Z</time>
      </trkpt>
      <trkpt lat="43.37777" lon="6.4005">
        <ele>70.800003051758</ele>
        <time>2021-05-22T09:48:00Z</time>
      </trkpt>
      <trkpt lat="43.37768" lon="6.40049">
        <ele>71</ele>
        <time>2021-05-22T09:48:02Z</time>
      </trkpt>
      <trkpt lat="43.37758" lon="6.40047">
        <ele>71</ele>
        <time>2021-05-22T09:48:04Z</time>
      </trkpt>
      <trkpt lat="43.37737" lon="6.40043">
        <ele>71.199996948242</ele>
        <time>2021-05-22T09:48:08Z</time>
      </trkpt>
      <trkpt lat="43.37712" lon="6.40039">
        <ele>71.400001525879</ele>
        <time>2021-05-22T09:48:13Z</time>
      </trkpt>
      <trkpt lat="43.37707" lon="6.40037">
        <ele>71.599998474121</ele>
        <time>2021-05-22T09:48:14Z</time>
      </trkpt>
      <trkpt lat="43.37692" lon="6.40035">
        <ele>71.599998474121</ele>
        <time>2021-05-22T09:48:17Z</time>
      </trkpt>
      <trkpt lat="43.37677" lon="6.40032">
        <ele>71.800003051758</ele>
        <time>2021-05-22T09:48:20Z</time>
      </trkpt>
      <trkpt lat="43.37641" lon="6.40026">
        <ele>72.400001525879</ele>
        <time>2021-05-22T09:48:28Z</time>
      </trkpt>
      <trkpt lat="43.37635" lon="6.40025">
        <ele>72.599998474121</ele>
        <time>2021-05-22T09:48:29Z</time>
      </trkpt>
      <trkpt lat="43.37621" lon="6.40023">
        <ele>72.800003051758</ele>
        <time>2021-05-22T09:48:32Z</time>
      </trkpt>
      <trkpt lat="43.37618" lon="6.40022">
        <ele>72.800003051758</ele>
        <time>2021-05-22T09:48:33Z</time>
      </trkpt>
      <trkpt lat="43.37613" lon="6.40021">
        <ele>73</ele>
        <time>2021-05-22T09:48:34Z</time>
      </trkpt>
      <trkpt lat="43.37608" lon="6.4002">
        <ele>73</ele>
        <time>2021-05-22T09:48:35Z</time>
      </trkpt>
      <trkpt lat="43.37599" lon="6.40019">
        <ele>73</ele>
        <time>2021-05-22T09:48:37Z</time>
      </trkpt>
      <trkpt lat="43.3759" lon="6.40017">
        <ele>73.199996948242</ele>
        <time>2021-05-22T09:48:39Z</time>
      </trkpt>
      <trkpt lat="43.37567" lon="6.40013">
        <ele>73.400001525879</ele>
        <time>2021-05-22T09:48:44Z</time>
      </trkpt>
      <trkpt lat="43.37551" lon="6.40011">
        <ele>73.400001525879</ele>
        <time>2021-05-22T09:48:47Z</time>
      </trkpt>
      <trkpt lat="43.37535" lon="6.40009">
        <ele>73.400001525879</ele>
        <time>2021-05-22T09:48:50Z</time>
      </trkpt>
      <trkpt lat="43.37525" lon="6.40007">
        <ele>73.400001525879</ele>
        <time>2021-05-22T09:48:52Z</time>
      </trkpt>
      <trkpt lat="43.37487" lon="6.39999">
        <ele>72.800003051758</ele>
        <time>2021-05-22T09:49:00Z</time>
      </trkpt>
      <trkpt lat="43.37483" lon="6.39999">
        <ele>72.800003051758</ele>
        <time>2021-05-22T09:49:01Z</time>
      </trkpt>
      <trkpt lat="43.37478" lon="6.39999">
        <ele>72.800003051758</ele>
        <time>2021-05-22T09:49:02Z</time>
      </trkpt>
      <trkpt lat="43.37468" lon="6.40001">
        <ele>72.800003051758</ele>
        <time>2021-05-22T09:49:04Z</time>
      </trkpt>
      <trkpt lat="43.37459" lon="6.40005">
        <ele>72.400001525879</ele>
        <time>2021-05-22T09:49:06Z</time>
      </trkpt>
      <trkpt lat="43.37441" lon="6.40014">
        <ele>72.400001525879</ele>
        <time>2021-05-22T09:49:10Z</time>
      </trkpt>
      <trkpt lat="43.37432" lon="6.40013">
        <ele>72.199996948242</ele>
        <time>2021-05-22T09:49:12Z</time>
      </trkpt>
      <trkpt lat="43.37427" lon="6.40004">
        <ele>72.199996948242</ele>
        <time>2021-05-22T09:49:14Z</time>
      </trkpt>
      <trkpt lat="43.37427" lon="6.39998">
        <ele>72.199996948242</ele>
        <time>2021-05-22T09:49:15Z</time>
      </trkpt>
      <trkpt lat="43.37428" lon="6.39991">
        <ele>72.400001525879</ele>
        <time>2021-05-22T09:49:16Z</time>
      </trkpt>
      <trkpt lat="43.37432" lon="6.39979">
        <ele>72.599998474121</ele>
        <time>2021-05-22T09:49:18Z</time>
      </trkpt>
      <trkpt lat="43.37433" lon="6.39973">
        <ele>72.599998474121</ele>
        <time>2021-05-22T09:49:19Z</time>
      </trkpt>
      <trkpt lat="43.37434" lon="6.39967">
        <ele>72.599998474121</ele>
        <time>2021-05-22T09:49:20Z</time>
      </trkpt>
      <trkpt lat="43.37436" lon="6.39955">
        <ele>72.599998474121</ele>
        <time>2021-05-22T09:49:22Z</time>
      </trkpt>
      <trkpt lat="43.37437" lon="6.39948">
        <ele>72.400001525879</ele>
        <time>2021-05-22T09:49:23Z</time>
      </trkpt>
      <trkpt lat="43.37442" lon="6.39924">
        <ele>73.199996948242</ele>
        <time>2021-05-22T09:49:27Z</time>
      </trkpt>
      <trkpt lat="43.37443" lon="6.39918">
        <ele>73.199996948242</ele>
        <time>2021-05-22T09:49:28Z</time>
      </trkpt>
      <trkpt lat="43.37445" lon="6.39906">
        <ele>73.800003051758</ele>
        <time>2021-05-22T09:49:30Z</time>
      </trkpt>
      <trkpt lat="43.37448" lon="6.39895">
        <ele>74.199996948242</ele>
        <time>2021-05-22T09:49:32Z</time>
      </trkpt>
      <trkpt lat="43.37451" lon="6.39883">
        <ele>74.199996948242</ele>
        <time>2021-05-22T09:49:34Z</time>
      </trkpt>
      <trkpt lat="43.37454" lon="6.39871">
        <ele>74.400001525879</ele>
        <time>2021-05-22T09:49:36Z</time>
      </trkpt>
      <trkpt lat="43.37456" lon="6.3986">
        <ele>74.599998474121</ele>
        <time>2021-05-22T09:49:38Z</time>
      </trkpt>
      <trkpt lat="43.37458" lon="6.39849">
        <ele>74.599998474121</ele>
        <time>2021-05-22T09:49:40Z</time>
      </trkpt>
      <trkpt lat="43.37461" lon="6.39837">
        <ele>74.800003051758</ele>
        <time>2021-05-22T09:49:42Z</time>
      </trkpt>
      <trkpt lat="43.37467" lon="6.3982">
        <ele>75.400001525879</ele>
        <time>2021-05-22T09:49:45Z</time>
      </trkpt>
      <trkpt lat="43.37472" lon="6.39807">
        <ele>75.400001525879</ele>
        <time>2021-05-22T09:49:47Z</time>
      </trkpt>
      <trkpt lat="43.37475" lon="6.39796">
        <ele>75.400001525879</ele>
        <time>2021-05-22T09:49:49Z</time>
      </trkpt>
      <trkpt lat="43.37476" lon="6.3979">
        <ele>75.599998474121</ele>
        <time>2021-05-22T09:49:50Z</time>
      </trkpt>
      <trkpt lat="43.37478" lon="6.39779">
        <ele>75.800003051758</ele>
        <time>2021-05-22T09:49:52Z</time>
      </trkpt>
      <trkpt lat="43.37481" lon="6.39766">
        <ele>76</ele>
        <time>2021-05-22T09:49:54Z</time>
      </trkpt>
      <trkpt lat="43.37483" lon="6.39755">
        <ele>76.400001525879</ele>
        <time>2021-05-22T09:49:56Z</time>
      </trkpt>
      <trkpt lat="43.37486" lon="6.39743">
        <ele>76.599998474121</ele>
        <time>2021-05-22T09:49:58Z</time>
      </trkpt>
      <trkpt lat="43.37488" lon="6.39736">
        <ele>76.599998474121</ele>
        <time>2021-05-22T09:49:59Z</time>
      </trkpt>
      <trkpt lat="43.3749" lon="6.3973">
        <ele>76.599998474121</ele>
        <time>2021-05-22T09:50:00Z</time>
      </trkpt>
      <trkpt lat="43.37492" lon="6.39725">
        <ele>76.599998474121</ele>
        <time>2021-05-22T09:50:01Z</time>
      </trkpt>
      <trkpt lat="43.37494" lon="6.39719">
        <ele>76.599998474121</ele>
        <time>2021-05-22T09:50:02Z</time>
      </trkpt>
      <trkpt lat="43.37502" lon="6.39685">
        <ele>76.400001525879</ele>
        <time>2021-05-22T09:50:07Z</time>
      </trkpt>
      <trkpt lat="43.37508" lon="6.39662">
        <ele>76.599998474121</ele>
        <time>2021-05-22T09:50:11Z</time>
      </trkpt>
      <trkpt lat="43.37514" lon="6.39633">
        <ele>77.199996948242</ele>
        <time>2021-05-22T09:50:16Z</time>
      </trkpt>
      <trkpt lat="43.37518" lon="6.39616">
        <ele>77.400001525879</ele>
        <time>2021-05-22T09:50:19Z</time>
      </trkpt>
      <trkpt lat="43.37523" lon="6.39598">
        <ele>77.599998474121</ele>
        <time>2021-05-22T09:50:22Z</time>
      </trkpt>
      <trkpt lat="43.37525" lon="6.39586">
        <ele>77.800003051758</ele>
        <time>2021-05-22T09:50:24Z</time>
      </trkpt>
      <trkpt lat="43.37533" lon="6.39551">
        <ele>78.199996948242</ele>
        <time>2021-05-22T09:50:30Z</time>
      </trkpt>
      <trkpt lat="43.37544" lon="6.39507">
        <ele>78.599998474121</ele>
        <time>2021-05-22T09:50:37Z</time>
      </trkpt>
      <trkpt lat="43.37546" lon="6.39495">
        <ele>78.800003051758</ele>
        <time>2021-05-22T09:50:39Z</time>
      </trkpt>
      <trkpt lat="43.37556" lon="6.39454">
        <ele>79.400001525879</ele>
        <time>2021-05-22T09:50:46Z</time>
      </trkpt>
      <trkpt lat="43.37558" lon="6.39448">
        <ele>79.400001525879</ele>
        <time>2021-05-22T09:50:47Z</time>
      </trkpt>
      <trkpt lat="43.37561" lon="6.3943">
        <ele>79.800003051758</ele>
        <time>2021-05-22T09:50:50Z</time>
      </trkpt>
      <trkpt lat="43.37564" lon="6.39417">
        <ele>80</ele>
        <time>2021-05-22T09:50:52Z</time>
      </trkpt>
      <trkpt lat="43.37567" lon="6.39406">
        <ele>80</ele>
        <time>2021-05-22T09:50:54Z</time>
      </trkpt>
      <trkpt lat="43.37571" lon="6.39387">
        <ele>80.400001525879</ele>
        <time>2021-05-22T09:50:57Z</time>
      </trkpt>
      <trkpt lat="43.37573" lon="6.39381">
        <ele>80.400001525879</ele>
        <time>2021-05-22T09:50:58Z</time>
      </trkpt>
      <trkpt lat="43.37574" lon="6.39375">
        <ele>80.599998474121</ele>
        <time>2021-05-22T09:50:59Z</time>
      </trkpt>
      <trkpt lat="43.37581" lon="6.39343">
        <ele>80.800003051758</ele>
        <time>2021-05-22T09:51:04Z</time>
      </trkpt>
      <trkpt lat="43.37585" lon="6.39324">
        <ele>81</ele>
        <time>2021-05-22T09:51:07Z</time>
      </trkpt>
      <trkpt lat="43.37591" lon="6.393">
        <ele>81.400001525879</ele>
        <time>2021-05-22T09:51:11Z</time>
      </trkpt>
      <trkpt lat="43.37593" lon="6.39287">
        <ele>81.599998474121</ele>
        <time>2021-05-22T09:51:13Z</time>
      </trkpt>
      <trkpt lat="43.37593" lon="6.39274">
        <ele>81.800003051758</ele>
        <time>2021-05-22T09:51:15Z</time>
      </trkpt>
      <trkpt lat="43.37593" lon="6.39268">
        <ele>82</ele>
        <time>2021-05-22T09:51:16Z</time>
      </trkpt>
      <trkpt lat="43.37592" lon="6.39262">
        <ele>82</ele>
        <time>2021-05-22T09:51:17Z</time>
      </trkpt>
      <trkpt lat="43.37588" lon="6.39245">
        <ele>82.199996948242</ele>
        <time>2021-05-22T09:51:20Z</time>
      </trkpt>
      <trkpt lat="43.37584" lon="6.3923">
        <ele>82.400001525879</ele>
        <time>2021-05-22T09:51:23Z</time>
      </trkpt>
      <trkpt lat="43.37584" lon="6.39218">
        <ele>82.599998474121</ele>
        <time>2021-05-22T09:51:25Z</time>
      </trkpt>
      <trkpt lat="43.37586" lon="6.39204">
        <ele>82.599998474121</ele>
        <time>2021-05-22T09:51:27Z</time>
      </trkpt>
      <trkpt lat="43.37589" lon="6.39164">
        <ele>82.800003051758</ele>
        <time>2021-05-22T09:51:33Z</time>
      </trkpt>
      <trkpt lat="43.37589" lon="6.39156">
        <ele>82.800003051758</ele>
        <time>2021-05-22T09:51:34Z</time>
      </trkpt>
      <trkpt lat="43.3759" lon="6.39149">
        <ele>82.800003051758</ele>
        <time>2021-05-22T09:51:35Z</time>
      </trkpt>
      <trkpt lat="43.37593" lon="6.39124">
        <ele>83</ele>
        <time>2021-05-22T09:51:39Z</time>
      </trkpt>
      <trkpt lat="43.37602" lon="6.39083">
        <ele>83.199996948242</ele>
        <time>2021-05-22T09:51:46Z</time>
      </trkpt>
      <trkpt lat="43.37611" lon="6.39028">
        <ele>83.800003051758</ele>
        <time>2021-05-22T09:51:55Z</time>
      </trkpt>
      <trkpt lat="43.37612" lon="6.39022">
        <ele>84</ele>
        <time>2021-05-22T09:51:56Z</time>
      </trkpt>
      <trkpt lat="43.37622" lon="6.38964">
        <ele>84.599998474121</ele>
        <time>2021-05-22T09:52:05Z</time>
      </trkpt>
      <trkpt lat="43.37631" lon="6.38912">
        <ele>84.800003051758</ele>
        <time>2021-05-22T09:52:13Z</time>
      </trkpt>
      <trkpt lat="43.37633" lon="6.38898">
        <ele>85</ele>
        <time>2021-05-22T09:52:15Z</time>
      </trkpt>
      <trkpt lat="43.37635" lon="6.38884">
        <ele>85</ele>
        <time>2021-05-22T09:52:17Z</time>
      </trkpt>
      <trkpt lat="43.37638" lon="6.38861">
        <ele>85.199996948242</ele>
        <time>2021-05-22T09:52:20Z</time>
      </trkpt>
      <trkpt lat="43.37642" lon="6.38831">
        <ele>85.199996948242</ele>
        <time>2021-05-22T09:52:24Z</time>
      </trkpt>
      <trkpt lat="43.37646" lon="6.38816">
        <ele>85.400001525879</ele>
        <time>2021-05-22T09:52:26Z</time>
      </trkpt>
      <trkpt lat="43.37648" lon="6.3881">
        <ele>85.400001525879</ele>
        <time>2021-05-22T09:52:27Z</time>
      </trkpt>
      <trkpt lat="43.3766" lon="6.38787">
        <ele>85.400001525879</ele>
        <time>2021-05-22T09:52:31Z</time>
      </trkpt>
      <trkpt lat="43.37664" lon="6.38773">
        <ele>85.400001525879</ele>
        <time>2021-05-22T09:52:33Z</time>
      </trkpt>
      <trkpt lat="43.37666" lon="6.38758">
        <ele>85.400001525879</ele>
        <time>2021-05-22T09:52:35Z</time>
      </trkpt>
      <trkpt lat="43.37664" lon="6.38712">
        <ele>85</ele>
        <time>2021-05-22T09:52:41Z</time>
      </trkpt>
      <trkpt lat="43.37664" lon="6.38704">
        <ele>85</ele>
        <time>2021-05-22T09:52:42Z</time>
      </trkpt>
      <trkpt lat="43.37661" lon="6.38659">
        <ele>84.599998474121</ele>
        <time>2021-05-22T09:52:48Z</time>
      </trkpt>
      <trkpt lat="43.37661" lon="6.38644">
        <ele>84.599998474121</ele>
        <time>2021-05-22T09:52:50Z</time>
      </trkpt>
      <trkpt lat="43.3766" lon="6.38628">
        <ele>84.400001525879</ele>
        <time>2021-05-22T09:52:52Z</time>
      </trkpt>
      <trkpt lat="43.37658" lon="6.38589">
        <ele>83.599998474121</ele>
        <time>2021-05-22T09:52:57Z</time>
      </trkpt>
      <trkpt lat="43.37657" lon="6.38581">
        <ele>83.400001525879</ele>
        <time>2021-05-22T09:52:58Z</time>
      </trkpt>
      <trkpt lat="43.37657" lon="6.38557">
        <ele>83</ele>
        <time>2021-05-22T09:53:01Z</time>
      </trkpt>
      <trkpt lat="43.37656" lon="6.38549">
        <ele>82.800003051758</ele>
        <time>2021-05-22T09:53:02Z</time>
      </trkpt>
      <trkpt lat="43.37656" lon="6.38527">
        <ele>82.599998474121</ele>
        <time>2021-05-22T09:53:05Z</time>
      </trkpt>
      <trkpt lat="43.37654" lon="6.38504">
        <ele>82.800003051758</ele>
        <time>2021-05-22T09:53:08Z</time>
      </trkpt>
      <trkpt lat="43.37652" lon="6.38464">
        <ele>82</ele>
        <time>2021-05-22T09:53:13Z</time>
      </trkpt>
      <trkpt lat="43.3765" lon="6.38433">
        <ele>81.400001525879</ele>
        <time>2021-05-22T09:53:17Z</time>
      </trkpt>
      <trkpt lat="43.37649" lon="6.38404">
        <ele>81</ele>
        <time>2021-05-22T09:53:21Z</time>
      </trkpt>
      <trkpt lat="43.37649" lon="6.38391">
        <ele>80.599998474121</ele>
        <time>2021-05-22T09:53:23Z</time>
      </trkpt>
      <trkpt lat="43.37648" lon="6.38377">
        <ele>80.599998474121</ele>
        <time>2021-05-22T09:53:25Z</time>
      </trkpt>
      <trkpt lat="43.37649" lon="6.38352">
        <ele>80.400001525879</ele>
        <time>2021-05-22T09:53:29Z</time>
      </trkpt>
      <trkpt lat="43.37648" lon="6.38321">
        <ele>80</ele>
        <time>2021-05-22T09:53:34Z</time>
      </trkpt>
      <trkpt lat="43.37648" lon="6.38312">
        <ele>80</ele>
        <time>2021-05-22T09:53:35Z</time>
      </trkpt>
      <trkpt lat="43.37648" lon="6.38305">
        <ele>79.800003051758</ele>
        <time>2021-05-22T09:53:36Z</time>
      </trkpt>
      <trkpt lat="43.37652" lon="6.38277">
        <ele>79.400001525879</ele>
        <time>2021-05-22T09:53:39Z</time>
      </trkpt>
      <trkpt lat="43.37655" lon="6.38251">
        <ele>78.800003051758</ele>
        <time>2021-05-22T09:53:42Z</time>
      </trkpt>
      <trkpt lat="43.37661" lon="6.38212">
        <ele>77.199996948242</ele>
        <time>2021-05-22T09:53:46Z</time>
      </trkpt>
      <trkpt lat="43.37662" lon="6.38203">
        <ele>76.800003051758</ele>
        <time>2021-05-22T09:53:47Z</time>
      </trkpt>
      <trkpt lat="43.37665" lon="6.38184">
        <ele>76.199996948242</ele>
        <time>2021-05-22T09:53:49Z</time>
      </trkpt>
      <trkpt lat="43.37666" lon="6.38175">
        <ele>76.199996948242</ele>
        <time>2021-05-22T09:53:50Z</time>
      </trkpt>
      <trkpt lat="43.3767" lon="6.38158">
        <ele>75.400001525879</ele>
        <time>2021-05-22T09:53:52Z</time>
      </trkpt>
      <trkpt lat="43.37671" lon="6.38139">
        <ele>75</ele>
        <time>2021-05-22T09:53:54Z</time>
      </trkpt>
      <trkpt lat="43.37672" lon="6.3813">
        <ele>74.800003051758</ele>
        <time>2021-05-22T09:53:55Z</time>
      </trkpt>
      <trkpt lat="43.37674" lon="6.38078">
        <ele>74.199996948242</ele>
        <time>2021-05-22T09:54:01Z</time>
      </trkpt>
      <trkpt lat="43.37674" lon="6.3807">
        <ele>74.199996948242</ele>
        <time>2021-05-22T09:54:02Z</time>
      </trkpt>
      <trkpt lat="43.37675" lon="6.38031">
        <ele>74.400001525879</ele>
        <time>2021-05-22T09:54:07Z</time>
      </trkpt>
      <trkpt lat="43.37675" lon="6.38023">
        <ele>74.400001525879</ele>
        <time>2021-05-22T09:54:08Z</time>
      </trkpt>
      <trkpt lat="43.37678" lon="6.37992">
        <ele>74</ele>
        <time>2021-05-22T09:54:12Z</time>
      </trkpt>
      <trkpt lat="43.37678" lon="6.37978">
        <ele>74</ele>
        <time>2021-05-22T09:54:14Z</time>
      </trkpt>
      <trkpt lat="43.37675" lon="6.37962">
        <ele>74</ele>
        <time>2021-05-22T09:54:16Z</time>
      </trkpt>
      <trkpt lat="43.37673" lon="6.37956">
        <ele>74</ele>
        <time>2021-05-22T09:54:17Z</time>
      </trkpt>
      <trkpt lat="43.3767" lon="6.37951">
        <ele>74</ele>
        <time>2021-05-22T09:54:18Z</time>
      </trkpt>
      <trkpt lat="43.37668" lon="6.37946">
        <ele>73.800003051758</ele>
        <time>2021-05-22T09:54:19Z</time>
      </trkpt>
      <trkpt lat="43.37657" lon="6.37929">
        <ele>74.199996948242</ele>
        <time>2021-05-22T09:54:23Z</time>
      </trkpt>
      <trkpt lat="43.37651" lon="6.37915">
        <ele>74.199996948242</ele>
        <time>2021-05-22T09:54:26Z</time>
      </trkpt>
      <trkpt lat="43.37649" lon="6.37903">
        <ele>74.199996948242</ele>
        <time>2021-05-22T09:54:28Z</time>
      </trkpt>
      <trkpt lat="43.37644" lon="6.37856">
        <ele>74.400001525879</ele>
        <time>2021-05-22T09:54:36Z</time>
      </trkpt>
      <trkpt lat="43.37642" lon="6.37849">
        <ele>74.599998474121</ele>
        <time>2021-05-22T09:54:37Z</time>
      </trkpt>
      <trkpt lat="43.37635" lon="6.37822">
        <ele>74.599998474121</ele>
        <time>2021-05-22T09:54:41Z</time>
      </trkpt>
      <trkpt lat="43.37633" lon="6.37814">
        <ele>74.599998474121</ele>
        <time>2021-05-22T09:54:42Z</time>
      </trkpt>
      <trkpt lat="43.37628" lon="6.37801">
        <ele>74.800003051758</ele>
        <time>2021-05-22T09:54:44Z</time>
      </trkpt>
      <trkpt lat="43.37626" lon="6.37795">
        <ele>74.800003051758</ele>
        <time>2021-05-22T09:54:45Z</time>
      </trkpt>
      <trkpt lat="43.37624" lon="6.37789">
        <ele>75</ele>
        <time>2021-05-22T09:54:46Z</time>
      </trkpt>
      <trkpt lat="43.37621" lon="6.37781">
        <ele>75</ele>
        <time>2021-05-22T09:54:47Z</time>
      </trkpt>
      <trkpt lat="43.3762" lon="6.37775">
        <ele>75</ele>
        <time>2021-05-22T09:54:48Z</time>
      </trkpt>
      <trkpt lat="43.37619" lon="6.37763">
        <ele>75.199996948242</ele>
        <time>2021-05-22T09:54:50Z</time>
      </trkpt>
      <trkpt lat="43.3762" lon="6.37748">
        <ele>75.400001525879</ele>
        <time>2021-05-22T09:54:52Z</time>
      </trkpt>
      <trkpt lat="43.37626" lon="6.37727">
        <ele>75.599998474121</ele>
        <time>2021-05-22T09:54:55Z</time>
      </trkpt>
      <trkpt lat="43.37635" lon="6.37699">
        <ele>75.599998474121</ele>
        <time>2021-05-22T09:54:59Z</time>
      </trkpt>
      <trkpt lat="43.37643" lon="6.37656">
        <ele>75</ele>
        <time>2021-05-22T09:55:05Z</time>
      </trkpt>
      <trkpt lat="43.37645" lon="6.37649">
        <ele>75</ele>
        <time>2021-05-22T09:55:06Z</time>
      </trkpt>
      <trkpt lat="43.37648" lon="6.37643">
        <ele>74.800003051758</ele>
        <time>2021-05-22T09:55:07Z</time>
      </trkpt>
      <trkpt lat="43.37656" lon="6.37635">
        <ele>74.800003051758</ele>
        <time>2021-05-22T09:55:09Z</time>
      </trkpt>
      <trkpt lat="43.37662" lon="6.37632">
        <ele>74.800003051758</ele>
        <time>2021-05-22T09:55:10Z</time>
      </trkpt>
      <trkpt lat="43.37667" lon="6.37631">
        <ele>74.800003051758</ele>
        <time>2021-05-22T09:55:11Z</time>
      </trkpt>
      <trkpt lat="43.37683" lon="6.37632">
        <ele>75</ele>
        <time>2021-05-22T09:55:14Z</time>
      </trkpt>
      <trkpt lat="43.37703" lon="6.37638">
        <ele>75</ele>
        <time>2021-05-22T09:55:18Z</time>
      </trkpt>
      <trkpt lat="43.37708" lon="6.3764">
        <ele>75</ele>
        <time>2021-05-22T09:55:19Z</time>
      </trkpt>
      <trkpt lat="43.37713" lon="6.3764">
        <ele>75</ele>
        <time>2021-05-22T09:55:20Z</time>
      </trkpt>
      <trkpt lat="43.37723" lon="6.37639">
        <ele>75</ele>
        <time>2021-05-22T09:55:22Z</time>
      </trkpt>
      <trkpt lat="43.37744" lon="6.37632">
        <ele>75</ele>
        <time>2021-05-22T09:55:26Z</time>
      </trkpt>
      <trkpt lat="43.37788" lon="6.37609">
        <ele>75.800003051758</ele>
        <time>2021-05-22T09:55:35Z</time>
      </trkpt>
      <trkpt lat="43.37821" lon="6.37594">
        <ele>76</ele>
        <time>2021-05-22T09:55:42Z</time>
      </trkpt>
      <trkpt lat="43.3783" lon="6.37591">
        <ele>75.800003051758</ele>
        <time>2021-05-22T09:55:44Z</time>
      </trkpt>
      <trkpt lat="43.37839" lon="6.37583">
        <ele>75.800003051758</ele>
        <time>2021-05-22T09:55:46Z</time>
      </trkpt>
      <trkpt lat="43.37843" lon="6.37578">
        <ele>76</ele>
        <time>2021-05-22T09:55:47Z</time>
      </trkpt>
      <trkpt lat="43.37845" lon="6.37571">
        <ele>76</ele>
        <time>2021-05-22T09:55:48Z</time>
      </trkpt>
      <trkpt lat="43.3785" lon="6.37551">
        <ele>76</ele>
        <time>2021-05-22T09:55:51Z</time>
      </trkpt>
      <trkpt lat="43.37855" lon="6.37531">
        <ele>76.199996948242</ele>
        <time>2021-05-22T09:55:54Z</time>
      </trkpt>
      <trkpt lat="43.37862" lon="6.3752">
        <ele>76.199996948242</ele>
        <time>2021-05-22T09:55:56Z</time>
      </trkpt>
      <trkpt lat="43.37869" lon="6.37513">
        <ele>76.199996948242</ele>
        <time>2021-05-22T09:55:58Z</time>
      </trkpt>
      <trkpt lat="43.3788" lon="6.37507">
        <ele>76.199996948242</ele>
        <time>2021-05-22T09:56:00Z</time>
      </trkpt>
      <trkpt lat="43.37885" lon="6.37504">
        <ele>76.199996948242</ele>
        <time>2021-05-22T09:56:01Z</time>
      </trkpt>
      <trkpt lat="43.37931" lon="6.37476">
        <ele>76.800003051758</ele>
        <time>2021-05-22T09:56:11Z</time>
      </trkpt>
      <trkpt lat="43.3795" lon="6.3746">
        <ele>77</ele>
        <time>2021-05-22T09:56:15Z</time>
      </trkpt>
      <trkpt lat="43.37959" lon="6.37452">
        <ele>77.199996948242</ele>
        <time>2021-05-22T09:56:17Z</time>
      </trkpt>
      <trkpt lat="43.37974" lon="6.37442">
        <ele>77.199996948242</ele>
        <time>2021-05-22T09:56:20Z</time>
      </trkpt>
      <trkpt lat="43.37984" lon="6.37438">
        <ele>77.599998474121</ele>
        <time>2021-05-22T09:56:22Z</time>
      </trkpt>
      <trkpt lat="43.37989" lon="6.37438">
        <ele>77.800003051758</ele>
        <time>2021-05-22T09:56:23Z</time>
      </trkpt>
      <trkpt lat="43.37993" lon="6.37439">
        <ele>77.800003051758</ele>
        <time>2021-05-22T09:56:24Z</time>
      </trkpt>
      <trkpt lat="43.38004" lon="6.37442">
        <ele>77.800003051758</ele>
        <time>2021-05-22T09:56:26Z</time>
      </trkpt>
      <trkpt lat="43.38013" lon="6.37447">
        <ele>77.800003051758</ele>
        <time>2021-05-22T09:56:28Z</time>
      </trkpt>
      <trkpt lat="43.38039" lon="6.37458">
        <ele>78</ele>
        <time>2021-05-22T09:56:34Z</time>
      </trkpt>
      <trkpt lat="43.38051" lon="6.37461">
        <ele>78.199996948242</ele>
        <time>2021-05-22T09:56:37Z</time>
      </trkpt>
      <trkpt lat="43.38061" lon="6.37461">
        <ele>78.199996948242</ele>
        <time>2021-05-22T09:56:39Z</time>
      </trkpt>
      <trkpt lat="43.3807" lon="6.37458">
        <ele>78.199996948242</ele>
        <time>2021-05-22T09:56:41Z</time>
      </trkpt>
      <trkpt lat="43.38083" lon="6.3745">
        <ele>78.400001525879</ele>
        <time>2021-05-22T09:56:44Z</time>
      </trkpt>
      <trkpt lat="43.3809" lon="6.37444">
        <ele>78.800003051758</ele>
        <time>2021-05-22T09:56:46Z</time>
      </trkpt>
      <trkpt lat="43.38102" lon="6.37433">
        <ele>79</ele>
        <time>2021-05-22T09:56:49Z</time>
      </trkpt>
      <trkpt lat="43.38117" lon="6.37416">
        <ele>79</ele>
        <time>2021-05-22T09:56:53Z</time>
      </trkpt>
      <trkpt lat="43.38123" lon="6.37406">
        <ele>79.199996948242</ele>
        <time>2021-05-22T09:56:55Z</time>
      </trkpt>
      <trkpt lat="43.38129" lon="6.37396">
        <ele>79.400001525879</ele>
        <time>2021-05-22T09:56:57Z</time>
      </trkpt>
      <trkpt lat="43.38135" lon="6.37386">
        <ele>79.599998474121</ele>
        <time>2021-05-22T09:56:59Z</time>
      </trkpt>
      <trkpt lat="43.38138" lon="6.3738">
        <ele>79.599998474121</ele>
        <time>2021-05-22T09:57:00Z</time>
      </trkpt>
      <trkpt lat="43.38159" lon="6.37343">
        <ele>79.599998474121</ele>
        <time>2021-05-22T09:57:07Z</time>
      </trkpt>
      <trkpt lat="43.38176" lon="6.373">
        <ele>80</ele>
        <time>2021-05-22T09:57:15Z</time>
      </trkpt>
      <trkpt lat="43.38178" lon="6.37295">
        <ele>80.199996948242</ele>
        <time>2021-05-22T09:57:16Z</time>
      </trkpt>
      <trkpt lat="43.38183" lon="6.3728">
        <ele>80.599998474121</ele>
        <time>2021-05-22T09:57:19Z</time>
      </trkpt>
      <trkpt lat="43.38189" lon="6.37263">
        <ele>80.800003051758</ele>
        <time>2021-05-22T09:57:22Z</time>
      </trkpt>
      <trkpt lat="43.38195" lon="6.37243">
        <ele>81</ele>
        <time>2021-05-22T09:57:26Z</time>
      </trkpt>
      <trkpt lat="43.38198" lon="6.37234">
        <ele>81.199996948242</ele>
        <time>2021-05-22T09:57:28Z</time>
      </trkpt>
      <trkpt lat="43.38202" lon="6.37225">
        <ele>81.599998474121</ele>
        <time>2021-05-22T09:57:30Z</time>
      </trkpt>
      <trkpt lat="43.38208" lon="6.37217">
        <ele>82</ele>
        <time>2021-05-22T09:57:33Z</time>
      </trkpt>
      <trkpt lat="43.38209" lon="6.37214">
        <ele>82</ele>
        <time>2021-05-22T09:57:34Z</time>
      </trkpt>
      <trkpt lat="43.38209" lon="6.37211">
        <ele>82</ele>
        <time>2021-05-22T09:57:35Z</time>
      </trkpt>
      <trkpt lat="43.38207" lon="6.37205">
        <ele>82.199996948242</ele>
        <time>2021-05-22T09:57:37Z</time>
      </trkpt>
      <trkpt lat="43.38203" lon="6.37199">
        <ele>82.599998474121</ele>
        <time>2021-05-22T09:57:39Z</time>
      </trkpt>
      <trkpt lat="43.38201" lon="6.37196">
        <ele>82.599998474121</ele>
        <time>2021-05-22T09:57:40Z</time>
      </trkpt>
      <trkpt lat="43.38198" lon="6.37192">
        <ele>82.599998474121</ele>
        <time>2021-05-22T09:57:41Z</time>
      </trkpt>
      <trkpt lat="43.38196" lon="6.37188">
        <ele>82.599998474121</ele>
        <time>2021-05-22T09:57:42Z</time>
      </trkpt>
      <trkpt lat="43.3819" lon="6.3718">
        <ele>82.800003051758</ele>
        <time>2021-05-22T09:57:44Z</time>
      </trkpt>
      <trkpt lat="43.38188" lon="6.37176">
        <ele>82.800003051758</ele>
        <time>2021-05-22T09:57:45Z</time>
      </trkpt>
      <trkpt lat="43.38173" lon="6.37151">
        <ele>83.199996948242</ele>
        <time>2021-05-22T09:57:51Z</time>
      </trkpt>
      <trkpt lat="43.38171" lon="6.37147">
        <ele>83.199996948242</ele>
        <time>2021-05-22T09:57:52Z</time>
      </trkpt>
      <trkpt lat="43.38167" lon="6.37142">
        <ele>83.400001525879</ele>
        <time>2021-05-22T09:57:53Z</time>
      </trkpt>
      <trkpt lat="43.3815" lon="6.37114">
        <ele>83.400001525879</ele>
        <time>2021-05-22T09:58:01Z</time>
      </trkpt>
      <trkpt lat="43.38142" lon="6.371">
        <ele>83.599998474121</ele>
        <time>2021-05-22T09:58:05Z</time>
      </trkpt>
      <trkpt lat="43.38136" lon="6.37089">
        <ele>84</ele>
        <time>2021-05-22T09:58:08Z</time>
      </trkpt>
      <trkpt lat="43.38128" lon="6.37077">
        <ele>84.199996948242</ele>
        <time>2021-05-22T09:58:11Z</time>
      </trkpt>
      <trkpt lat="43.38122" lon="6.37065">
        <ele>84.599998474121</ele>
        <time>2021-05-22T09:58:14Z</time>
      </trkpt>
      <trkpt lat="43.38103" lon="6.37034">
        <ele>85.400001525879</ele>
        <time>2021-05-22T09:58:21Z</time>
      </trkpt>
      <trkpt lat="43.38099" lon="6.37026">
        <ele>85.599998474121</ele>
        <time>2021-05-22T09:58:23Z</time>
      </trkpt>
      <trkpt lat="43.38096" lon="6.37022">
        <ele>85.800003051758</ele>
        <time>2021-05-22T09:58:24Z</time>
      </trkpt>
      <trkpt lat="43.38076" lon="6.36993">
        <ele>86.400001525879</ele>
        <time>2021-05-22T09:58:31Z</time>
      </trkpt>
      <trkpt lat="43.38066" lon="6.36982">
        <ele>86.599998474121</ele>
        <time>2021-05-22T09:58:34Z</time>
      </trkpt>
      <trkpt lat="43.38045" lon="6.36956">
        <ele>87</ele>
        <time>2021-05-22T09:58:41Z</time>
      </trkpt>
      <trkpt lat="43.38029" lon="6.36938">
        <ele>87.400001525879</ele>
        <time>2021-05-22T09:58:46Z</time>
      </trkpt>
      <trkpt lat="43.38026" lon="6.36934">
        <ele>87.400001525879</ele>
        <time>2021-05-22T09:58:47Z</time>
      </trkpt>
      <trkpt lat="43.3802" lon="6.36927">
        <ele>87.599998474121</ele>
        <time>2021-05-22T09:58:49Z</time>
      </trkpt>
      <trkpt lat="43.38014" lon="6.3692">
        <ele>87.599998474121</ele>
        <time>2021-05-22T09:58:51Z</time>
      </trkpt>
      <trkpt lat="43.38008" lon="6.36912">
        <ele>87.599998474121</ele>
        <time>2021-05-22T09:58:53Z</time>
      </trkpt>
      <trkpt lat="43.37991" lon="6.36896">
        <ele>87.400001525879</ele>
        <time>2021-05-22T09:58:59Z</time>
      </trkpt>
      <trkpt lat="43.37983" lon="6.369">
        <ele>86.800003051758</ele>
        <time>2021-05-22T09:59:03Z</time>
      </trkpt>
      <trkpt lat="43.37979" lon="6.36905">
        <ele>86.400001525879</ele>
        <time>2021-05-22T09:59:06Z</time>
      </trkpt>
      <trkpt lat="43.37977" lon="6.3691">
        <ele>86.199996948242</ele>
        <time>2021-05-22T09:59:08Z</time>
      </trkpt>
      <trkpt lat="43.37976" lon="6.36912">
        <ele>86.199996948242</ele>
        <time>2021-05-22T09:59:09Z</time>
      </trkpt>
      <trkpt lat="43.37978" lon="6.36922">
        <ele>86.199996948242</ele>
        <time>2021-05-22T09:59:12Z</time>
      </trkpt>
      <trkpt lat="43.37979" lon="6.36942">
        <ele>86.400001525879</ele>
        <time>2021-05-22T09:59:18Z</time>
      </trkpt>
      <trkpt lat="43.37977" lon="6.36953">
        <ele>86.800003051758</ele>
        <time>2021-05-22T09:59:24Z</time>
      </trkpt>
      <trkpt lat="43.37976" lon="6.36958">
        <ele>87</ele>
        <time>2021-05-22T09:59:27Z</time>
      </trkpt>
      <trkpt lat="43.37976" lon="6.36958">
        <ele>87</ele>
        <time>2021-05-22T09:59:31Z</time>
      </trkpt>
      <trkpt lat="43.37976" lon="6.36958">
        <ele>87</ele>
        <time>2021-05-22T09:59:33Z</time>
      </trkpt>
      <trkpt lat="43.37977" lon="6.36975">
        <ele>87.800003051758</ele>
        <time>2021-05-22T10:09:11Z</time>
      </trkpt>
      <trkpt lat="43.37975" lon="6.36969">
        <ele>88</ele>
        <time>2021-05-22T10:09:13Z</time>
      </trkpt>
      <trkpt lat="43.37977" lon="6.36953">
        <ele>88.599998474121</ele>
        <time>2021-05-22T10:09:19Z</time>
      </trkpt>
      <trkpt lat="43.37982" lon="6.36931">
        <ele>88.599998474121</ele>
        <time>2021-05-22T10:09:25Z</time>
      </trkpt>
      <trkpt lat="43.37981" lon="6.3692">
        <ele>88.400001525879</ele>
        <time>2021-05-22T10:09:27Z</time>
      </trkpt>
      <trkpt lat="43.37984" lon="6.36906">
        <ele>88.199996948242</ele>
        <time>2021-05-22T10:09:30Z</time>
      </trkpt>
      <trkpt lat="43.37988" lon="6.36888">
        <ele>88</ele>
        <time>2021-05-22T10:09:35Z</time>
      </trkpt>
      <trkpt lat="43.37979" lon="6.36875">
        <ele>87.800003051758</ele>
        <time>2021-05-22T10:09:40Z</time>
      </trkpt>
      <trkpt lat="43.37958" lon="6.36852">
        <ele>87</ele>
        <time>2021-05-22T10:09:49Z</time>
      </trkpt>
      <trkpt lat="43.37949" lon="6.36843">
        <ele>86.800003051758</ele>
        <time>2021-05-22T10:09:52Z</time>
      </trkpt>
      <trkpt lat="43.37938" lon="6.3683">
        <ele>87</ele>
        <time>2021-05-22T10:09:55Z</time>
      </trkpt>
      <trkpt lat="43.37927" lon="6.36817">
        <ele>86.800003051758</ele>
        <time>2021-05-22T10:09:58Z</time>
      </trkpt>
      <trkpt lat="43.37916" lon="6.36807">
        <ele>86.599998474121</ele>
        <time>2021-05-22T10:10:00Z</time>
      </trkpt>
      <trkpt lat="43.3791" lon="6.36804">
        <ele>86.599998474121</ele>
        <time>2021-05-22T10:10:01Z</time>
      </trkpt>
      <trkpt lat="43.37879" lon="6.36791">
        <ele>85.800003051758</ele>
        <time>2021-05-22T10:10:06Z</time>
      </trkpt>
      <trkpt lat="43.37867" lon="6.36786">
        <ele>85.599998474121</ele>
        <time>2021-05-22T10:10:08Z</time>
      </trkpt>
      <trkpt lat="43.37849" lon="6.36777">
        <ele>85.199996948242</ele>
        <time>2021-05-22T10:10:11Z</time>
      </trkpt>
      <trkpt lat="43.37839" lon="6.3677">
        <ele>85</ele>
        <time>2021-05-22T10:10:13Z</time>
      </trkpt>
      <trkpt lat="43.37824" lon="6.36746">
        <ele>84.800003051758</ele>
        <time>2021-05-22T10:10:17Z</time>
      </trkpt>
      <trkpt lat="43.37821" lon="6.36739">
        <ele>84.800003051758</ele>
        <time>2021-05-22T10:10:18Z</time>
      </trkpt>
      <trkpt lat="43.37803" lon="6.36696">
        <ele>84.400001525879</ele>
        <time>2021-05-22T10:10:24Z</time>
      </trkpt>
      <trkpt lat="43.37794" lon="6.36675">
        <ele>84.199996948242</ele>
        <time>2021-05-22T10:10:27Z</time>
      </trkpt>
      <trkpt lat="43.3779" lon="6.36668">
        <ele>84.400001525879</ele>
        <time>2021-05-22T10:10:28Z</time>
      </trkpt>
      <trkpt lat="43.37774" lon="6.36631">
        <ele>84.800003051758</ele>
        <time>2021-05-22T10:10:33Z</time>
      </trkpt>
      <trkpt lat="43.37757" lon="6.36592">
        <ele>84.800003051758</ele>
        <time>2021-05-22T10:10:38Z</time>
      </trkpt>
      <trkpt lat="43.37748" lon="6.36568">
        <ele>84.800003051758</ele>
        <time>2021-05-22T10:10:41Z</time>
      </trkpt>
      <trkpt lat="43.37745" lon="6.3656">
        <ele>84.800003051758</ele>
        <time>2021-05-22T10:10:42Z</time>
      </trkpt>
      <trkpt lat="43.37743" lon="6.36553">
        <ele>84.800003051758</ele>
        <time>2021-05-22T10:10:43Z</time>
      </trkpt>
      <trkpt lat="43.37742" lon="6.36546">
        <ele>84.599998474121</ele>
        <time>2021-05-22T10:10:44Z</time>
      </trkpt>
      <trkpt lat="43.3774" lon="6.36539">
        <ele>84.800003051758</ele>
        <time>2021-05-22T10:10:45Z</time>
      </trkpt>
      <trkpt lat="43.37738" lon="6.36532">
        <ele>84.800003051758</ele>
        <time>2021-05-22T10:10:46Z</time>
      </trkpt>
      <trkpt lat="43.37734" lon="6.36518">
        <ele>85.199996948242</ele>
        <time>2021-05-22T10:10:48Z</time>
      </trkpt>
      <trkpt lat="43.37732" lon="6.36511">
        <ele>85.400001525879</ele>
        <time>2021-05-22T10:10:49Z</time>
      </trkpt>
      <trkpt lat="43.3773" lon="6.36505">
        <ele>85.400001525879</ele>
        <time>2021-05-22T10:10:50Z</time>
      </trkpt>
      <trkpt lat="43.37724" lon="6.36494">
        <ele>85.599998474121</ele>
        <time>2021-05-22T10:10:52Z</time>
      </trkpt>
      <trkpt lat="43.37719" lon="6.36485">
        <ele>85.599998474121</ele>
        <time>2021-05-22T10:10:54Z</time>
      </trkpt>
      <trkpt lat="43.37709" lon="6.36472">
        <ele>85.800003051758</ele>
        <time>2021-05-22T10:10:57Z</time>
      </trkpt>
      <trkpt lat="43.37706" lon="6.36468">
        <ele>85.800003051758</ele>
        <time>2021-05-22T10:10:58Z</time>
      </trkpt>
      <trkpt lat="43.37689" lon="6.36446">
        <ele>86.199996948242</ele>
        <time>2021-05-22T10:11:04Z</time>
      </trkpt>
      <trkpt lat="43.37687" lon="6.36444">
        <ele>86.800003051758</ele>
        <time>2021-05-22T10:11:05Z</time>
      </trkpt>
      <trkpt lat="43.37685" lon="6.36442">
        <ele>86.599998474121</ele>
        <time>2021-05-22T10:11:06Z</time>
      </trkpt>
      <trkpt lat="43.37683" lon="6.36441">
        <ele>87</ele>
        <time>2021-05-22T10:11:09Z</time>
      </trkpt>
      <trkpt lat="43.3768" lon="6.36437">
        <ele>87.599998474121</ele>
        <time>2021-05-22T10:11:17Z</time>
      </trkpt>
      <trkpt lat="43.37678" lon="6.36437">
        <ele>87.599998474121</ele>
        <time>2021-05-22T10:11:18Z</time>
      </trkpt>
      <trkpt lat="43.37671" lon="6.36439">
        <ele>87.599998474121</ele>
        <time>2021-05-22T10:11:20Z</time>
      </trkpt>
      <trkpt lat="43.37663" lon="6.36444">
        <ele>87.599998474121</ele>
        <time>2021-05-22T10:11:22Z</time>
      </trkpt>
      <trkpt lat="43.37641" lon="6.36459">
        <ele>87.400001525879</ele>
        <time>2021-05-22T10:11:27Z</time>
      </trkpt>
      <trkpt lat="43.37631" lon="6.36465">
        <ele>87.199996948242</ele>
        <time>2021-05-22T10:11:29Z</time>
      </trkpt>
      <trkpt lat="43.3761" lon="6.36478">
        <ele>87.599998474121</ele>
        <time>2021-05-22T10:11:33Z</time>
      </trkpt>
      <trkpt lat="43.37605" lon="6.36481">
        <ele>87.599998474121</ele>
        <time>2021-05-22T10:11:34Z</time>
      </trkpt>
      <trkpt lat="43.37602" lon="6.36483">
        <ele>87.599998474121</ele>
        <time>2021-05-22T10:11:35Z</time>
      </trkpt>
      <trkpt lat="43.37591" lon="6.3649">
        <ele>87.400001525879</ele>
        <time>2021-05-22T10:11:37Z</time>
      </trkpt>
      <trkpt lat="43.37572" lon="6.36503">
        <ele>87.400001525879</ele>
        <time>2021-05-22T10:11:41Z</time>
      </trkpt>
      <trkpt lat="43.37556" lon="6.36512">
        <ele>87.400001525879</ele>
        <time>2021-05-22T10:11:44Z</time>
      </trkpt>
      <trkpt lat="43.37552" lon="6.36514">
        <ele>87.400001525879</ele>
        <time>2021-05-22T10:11:45Z</time>
      </trkpt>
      <trkpt lat="43.37532" lon="6.36525">
        <ele>87.599998474121</ele>
        <time>2021-05-22T10:11:49Z</time>
      </trkpt>
      <trkpt lat="43.37521" lon="6.36532">
        <ele>87.599998474121</ele>
        <time>2021-05-22T10:11:51Z</time>
      </trkpt>
      <trkpt lat="43.37517" lon="6.36535">
        <ele>87.599998474121</ele>
        <time>2021-05-22T10:11:52Z</time>
      </trkpt>
      <trkpt lat="43.37508" lon="6.36541">
        <ele>87.800003051758</ele>
        <time>2021-05-22T10:11:54Z</time>
      </trkpt>
      <trkpt lat="43.37503" lon="6.36544">
        <ele>87.800003051758</ele>
        <time>2021-05-22T10:11:55Z</time>
      </trkpt>
      <trkpt lat="43.37497" lon="6.36548">
        <ele>87.800003051758</ele>
        <time>2021-05-22T10:11:56Z</time>
      </trkpt>
      <trkpt lat="43.37479" lon="6.3656">
        <ele>88</ele>
        <time>2021-05-22T10:12:00Z</time>
      </trkpt>
      <trkpt lat="43.37473" lon="6.36563">
        <ele>88.199996948242</ele>
        <time>2021-05-22T10:12:01Z</time>
      </trkpt>
      <trkpt lat="43.37469" lon="6.36566">
        <ele>88.199996948242</ele>
        <time>2021-05-22T10:12:02Z</time>
      </trkpt>
      <trkpt lat="43.37464" lon="6.36569">
        <ele>88.199996948242</ele>
        <time>2021-05-22T10:12:03Z</time>
      </trkpt>
      <trkpt lat="43.3746" lon="6.36571">
        <ele>88.199996948242</ele>
        <time>2021-05-22T10:12:04Z</time>
      </trkpt>
      <trkpt lat="43.37441" lon="6.36584">
        <ele>88.599998474121</ele>
        <time>2021-05-22T10:12:08Z</time>
      </trkpt>
      <trkpt lat="43.37437" lon="6.36586">
        <ele>88.599998474121</ele>
        <time>2021-05-22T10:12:09Z</time>
      </trkpt>
      <trkpt lat="43.3742" lon="6.36596">
        <ele>89</ele>
        <time>2021-05-22T10:12:13Z</time>
      </trkpt>
      <trkpt lat="43.37408" lon="6.36604">
        <ele>89.199996948242</ele>
        <time>2021-05-22T10:12:16Z</time>
      </trkpt>
      <trkpt lat="43.37404" lon="6.36607">
        <ele>89.400001525879</ele>
        <time>2021-05-22T10:12:17Z</time>
      </trkpt>
      <trkpt lat="43.37388" lon="6.36618">
        <ele>90</ele>
        <time>2021-05-22T10:12:21Z</time>
      </trkpt>
      <trkpt lat="43.37371" lon="6.3663">
        <ele>90.599998474121</ele>
        <time>2021-05-22T10:12:25Z</time>
      </trkpt>
      <trkpt lat="43.37364" lon="6.36636">
        <ele>90.800003051758</ele>
        <time>2021-05-22T10:12:27Z</time>
      </trkpt>
      <trkpt lat="43.3736" lon="6.36638">
        <ele>91</ele>
        <time>2021-05-22T10:12:28Z</time>
      </trkpt>
      <trkpt lat="43.37357" lon="6.36641">
        <ele>91.199996948242</ele>
        <time>2021-05-22T10:12:29Z</time>
      </trkpt>
      <trkpt lat="43.37346" lon="6.36651">
        <ele>91.800003051758</ele>
        <time>2021-05-22T10:12:32Z</time>
      </trkpt>
      <trkpt lat="43.37339" lon="6.36659">
        <ele>92.199996948242</ele>
        <time>2021-05-22T10:12:34Z</time>
      </trkpt>
      <trkpt lat="43.37336" lon="6.36663">
        <ele>92.199996948242</ele>
        <time>2021-05-22T10:12:35Z</time>
      </trkpt>
      <trkpt lat="43.37324" lon="6.36672">
        <ele>92.800003051758</ele>
        <time>2021-05-22T10:12:38Z</time>
      </trkpt>
      <trkpt lat="43.37313" lon="6.36684">
        <ele>93.199996948242</ele>
        <time>2021-05-22T10:12:41Z</time>
      </trkpt>
      <trkpt lat="43.37298" lon="6.36698">
        <ele>94</ele>
        <time>2021-05-22T10:12:45Z</time>
      </trkpt>
      <trkpt lat="43.37287" lon="6.36709">
        <ele>94.400001525879</ele>
        <time>2021-05-22T10:12:48Z</time>
      </trkpt>
      <trkpt lat="43.3727" lon="6.36728">
        <ele>95</ele>
        <time>2021-05-22T10:12:53Z</time>
      </trkpt>
      <trkpt lat="43.37267" lon="6.36732">
        <ele>95.199996948242</ele>
        <time>2021-05-22T10:12:54Z</time>
      </trkpt>
      <trkpt lat="43.37253" lon="6.36747">
        <ele>95.599998474121</ele>
        <time>2021-05-22T10:12:58Z</time>
      </trkpt>
      <trkpt lat="43.3724" lon="6.36763">
        <ele>96</ele>
        <time>2021-05-22T10:13:02Z</time>
      </trkpt>
      <trkpt lat="43.3723" lon="6.36775">
        <ele>96.199996948242</ele>
        <time>2021-05-22T10:13:05Z</time>
      </trkpt>
      <trkpt lat="43.37212" lon="6.36796">
        <ele>96.800003051758</ele>
        <time>2021-05-22T10:13:10Z</time>
      </trkpt>
      <trkpt lat="43.37208" lon="6.368">
        <ele>97</ele>
        <time>2021-05-22T10:13:11Z</time>
      </trkpt>
      <trkpt lat="43.37205" lon="6.36805">
        <ele>97.199996948242</ele>
        <time>2021-05-22T10:13:12Z</time>
      </trkpt>
      <trkpt lat="43.37201" lon="6.36809">
        <ele>97.400001525879</ele>
        <time>2021-05-22T10:13:13Z</time>
      </trkpt>
      <trkpt lat="43.37198" lon="6.36814">
        <ele>97.400001525879</ele>
        <time>2021-05-22T10:13:14Z</time>
      </trkpt>
      <trkpt lat="43.37195" lon="6.36818">
        <ele>97.599998474121</ele>
        <time>2021-05-22T10:13:15Z</time>
      </trkpt>
      <trkpt lat="43.37191" lon="6.36823">
        <ele>97.599998474121</ele>
        <time>2021-05-22T10:13:16Z</time>
      </trkpt>
      <trkpt lat="43.37187" lon="6.36827">
        <ele>97.800003051758</ele>
        <time>2021-05-22T10:13:17Z</time>
      </trkpt>
      <trkpt lat="43.37183" lon="6.36832">
        <ele>97.800003051758</ele>
        <time>2021-05-22T10:13:18Z</time>
      </trkpt>
      <trkpt lat="43.37171" lon="6.36846">
        <ele>98</ele>
        <time>2021-05-22T10:13:21Z</time>
      </trkpt>
      <trkpt lat="43.37159" lon="6.36862">
        <ele>98</ele>
        <time>2021-05-22T10:13:24Z</time>
      </trkpt>
      <trkpt lat="43.37137" lon="6.36888">
        <ele>98.199996948242</ele>
        <time>2021-05-22T10:13:29Z</time>
      </trkpt>
      <trkpt lat="43.37128" lon="6.36899">
        <ele>98.199996948242</ele>
        <time>2021-05-22T10:13:31Z</time>
      </trkpt>
      <trkpt lat="43.37098" lon="6.36935">
        <ele>98.199996948242</ele>
        <time>2021-05-22T10:13:37Z</time>
      </trkpt>
      <trkpt lat="43.37086" lon="6.36948">
        <ele>98</ele>
        <time>2021-05-22T10:13:39Z</time>
      </trkpt>
      <trkpt lat="43.37063" lon="6.36976">
        <ele>97.800003051758</ele>
        <time>2021-05-22T10:13:43Z</time>
      </trkpt>
      <trkpt lat="43.3703" lon="6.37015">
        <ele>97.199996948242</ele>
        <time>2021-05-22T10:13:48Z</time>
      </trkpt>
      <trkpt lat="43.37016" lon="6.37031">
        <ele>97</ele>
        <time>2021-05-22T10:13:50Z</time>
      </trkpt>
      <trkpt lat="43.36994" lon="6.37056">
        <ele>96.400001525879</ele>
        <time>2021-05-22T10:13:53Z</time>
      </trkpt>
      <trkpt lat="43.36987" lon="6.37064">
        <ele>96.199996948242</ele>
        <time>2021-05-22T10:13:54Z</time>
      </trkpt>
      <trkpt lat="43.3698" lon="6.37073">
        <ele>96</ele>
        <time>2021-05-22T10:13:55Z</time>
      </trkpt>
      <trkpt lat="43.36966" lon="6.3709">
        <ele>95.599998474121</ele>
        <time>2021-05-22T10:13:57Z</time>
      </trkpt>
      <trkpt lat="43.36952" lon="6.37106">
        <ele>95.199996948242</ele>
        <time>2021-05-22T10:13:59Z</time>
      </trkpt>
      <trkpt lat="43.36938" lon="6.37122">
        <ele>95.199996948242</ele>
        <time>2021-05-22T10:14:01Z</time>
      </trkpt>
      <trkpt lat="43.36918" lon="6.37146">
        <ele>95</ele>
        <time>2021-05-22T10:14:04Z</time>
      </trkpt>
      <trkpt lat="43.36871" lon="6.372">
        <ele>95</ele>
        <time>2021-05-22T10:14:11Z</time>
      </trkpt>
      <trkpt lat="43.36864" lon="6.37208">
        <ele>95</ele>
        <time>2021-05-22T10:14:12Z</time>
      </trkpt>
      <trkpt lat="43.36851" lon="6.37223">
        <ele>94.800003051758</ele>
        <time>2021-05-22T10:14:14Z</time>
      </trkpt>
      <trkpt lat="43.36831" lon="6.37243">
        <ele>95</ele>
        <time>2021-05-22T10:14:17Z</time>
      </trkpt>
      <trkpt lat="43.36816" lon="6.37255">
        <ele>95</ele>
        <time>2021-05-22T10:14:19Z</time>
      </trkpt>
      <trkpt lat="43.36768" lon="6.37297">
        <ele>94.599998474121</ele>
        <time>2021-05-22T10:14:26Z</time>
      </trkpt>
      <trkpt lat="43.36754" lon="6.37309">
        <ele>94.599998474121</ele>
        <time>2021-05-22T10:14:28Z</time>
      </trkpt>
      <trkpt lat="43.36725" lon="6.37332">
        <ele>94.599998474121</ele>
        <time>2021-05-22T10:14:32Z</time>
      </trkpt>
      <trkpt lat="43.36698" lon="6.37354">
        <ele>94.800003051758</ele>
        <time>2021-05-22T10:14:36Z</time>
      </trkpt>
      <trkpt lat="43.36681" lon="6.37367">
        <ele>95</ele>
        <time>2021-05-22T10:14:39Z</time>
      </trkpt>
      <trkpt lat="43.36678" lon="6.37369">
        <ele>95</ele>
        <time>2021-05-22T10:14:40Z</time>
      </trkpt>
      <trkpt lat="43.36677" lon="6.37369">
        <ele>95</ele>
        <time>2021-05-22T10:14:42Z</time>
      </trkpt>
      <trkpt lat="43.36686" lon="6.37337">
        <ele>94</ele>
        <time>2021-05-22T10:15:38Z</time>
      </trkpt>
      <trkpt lat="43.36684" lon="6.37333">
        <ele>94</ele>
        <time>2021-05-22T10:15:39Z</time>
      </trkpt>
      <trkpt lat="43.36675" lon="6.37313">
        <ele>94.199996948242</ele>
        <time>2021-05-22T10:15:44Z</time>
      </trkpt>
      <trkpt lat="43.36671" lon="6.37307">
        <ele>94.400001525879</ele>
        <time>2021-05-22T10:15:45Z</time>
      </trkpt>
      <trkpt lat="43.36668" lon="6.37302">
        <ele>94.400001525879</ele>
        <time>2021-05-22T10:15:46Z</time>
      </trkpt>
      <trkpt lat="43.36664" lon="6.37297">
        <ele>94.400001525879</ele>
        <time>2021-05-22T10:15:47Z</time>
      </trkpt>
      <trkpt lat="43.3666" lon="6.37293">
        <ele>94.599998474121</ele>
        <time>2021-05-22T10:15:48Z</time>
      </trkpt>
      <trkpt lat="43.36657" lon="6.37289">
        <ele>94.599998474121</ele>
        <time>2021-05-22T10:15:49Z</time>
      </trkpt>
      <trkpt lat="43.36653" lon="6.37283">
        <ele>94.599998474121</ele>
        <time>2021-05-22T10:15:50Z</time>
      </trkpt>
      <trkpt lat="43.36643" lon="6.37268">
        <ele>94.599998474121</ele>
        <time>2021-05-22T10:15:53Z</time>
      </trkpt>
      <trkpt lat="43.36634" lon="6.37255">
        <ele>94.599998474121</ele>
        <time>2021-05-22T10:15:56Z</time>
      </trkpt>
      <trkpt lat="43.36624" lon="6.37243">
        <ele>94.599998474121</ele>
        <time>2021-05-22T10:15:59Z</time>
      </trkpt>
      <trkpt lat="43.36619" lon="6.37237">
        <ele>94.599998474121</ele>
        <time>2021-05-22T10:16:01Z</time>
      </trkpt>
      <trkpt lat="43.36616" lon="6.37234">
        <ele>94.599998474121</ele>
        <time>2021-05-22T10:16:02Z</time>
      </trkpt>
      <trkpt lat="43.36613" lon="6.3723">
        <ele>94.599998474121</ele>
        <time>2021-05-22T10:16:03Z</time>
      </trkpt>
      <trkpt lat="43.36608" lon="6.37227">
        <ele>94.599998474121</ele>
        <time>2021-05-22T10:16:04Z</time>
      </trkpt>
      <trkpt lat="43.36606" lon="6.37225">
        <ele>94.599998474121</ele>
        <time>2021-05-22T10:16:05Z</time>
      </trkpt>
      <trkpt lat="43.36603" lon="6.37222">
        <ele>94.599998474121</ele>
        <time>2021-05-22T10:16:06Z</time>
      </trkpt>
      <trkpt lat="43.36597" lon="6.37218">
        <ele>94.599998474121</ele>
        <time>2021-05-22T10:16:08Z</time>
      </trkpt>
      <trkpt lat="43.36594" lon="6.37215">
        <ele>94.800003051758</ele>
        <time>2021-05-22T10:16:09Z</time>
      </trkpt>
      <trkpt lat="43.36591" lon="6.37212">
        <ele>94.800003051758</ele>
        <time>2021-05-22T10:16:10Z</time>
      </trkpt>
      <trkpt lat="43.36586" lon="6.37208">
        <ele>94.800003051758</ele>
        <time>2021-05-22T10:16:11Z</time>
      </trkpt>
      <trkpt lat="43.36582" lon="6.37205">
        <ele>94.800003051758</ele>
        <time>2021-05-22T10:16:12Z</time>
      </trkpt>
      <trkpt lat="43.36578" lon="6.37202">
        <ele>95</ele>
        <time>2021-05-22T10:16:13Z</time>
      </trkpt>
      <trkpt lat="43.36574" lon="6.37199">
        <ele>95.199996948242</ele>
        <time>2021-05-22T10:16:14Z</time>
      </trkpt>
      <trkpt lat="43.3657" lon="6.37198">
        <ele>95.199996948242</ele>
        <time>2021-05-22T10:16:15Z</time>
      </trkpt>
      <trkpt lat="43.36566" lon="6.37198">
        <ele>95.199996948242</ele>
        <time>2021-05-22T10:16:16Z</time>
      </trkpt>
      <trkpt lat="43.36561" lon="6.37198">
        <ele>95.199996948242</ele>
        <time>2021-05-22T10:16:17Z</time>
      </trkpt>
      <trkpt lat="43.36556" lon="6.37198">
        <ele>95.199996948242</ele>
        <time>2021-05-22T10:16:18Z</time>
      </trkpt>
      <trkpt lat="43.36547" lon="6.37198">
        <ele>95.199996948242</ele>
        <time>2021-05-22T10:16:20Z</time>
      </trkpt>
      <trkpt lat="43.36542" lon="6.37197">
        <ele>95.199996948242</ele>
        <time>2021-05-22T10:16:21Z</time>
      </trkpt>
      <trkpt lat="43.36538" lon="6.37196">
        <ele>95.199996948242</ele>
        <time>2021-05-22T10:16:22Z</time>
      </trkpt>
      <trkpt lat="43.36533" lon="6.37194">
        <ele>95.400001525879</ele>
        <time>2021-05-22T10:16:23Z</time>
      </trkpt>
      <trkpt lat="43.36509" lon="6.37183">
        <ele>95.400001525879</ele>
        <time>2021-05-22T10:16:29Z</time>
      </trkpt>
      <trkpt lat="43.36502" lon="6.37179">
        <ele>95.400001525879</ele>
        <time>2021-05-22T10:16:31Z</time>
      </trkpt>
      <trkpt lat="43.36486" lon="6.37159">
        <ele>95.599998474121</ele>
        <time>2021-05-22T10:16:37Z</time>
      </trkpt>
      <trkpt lat="43.36474" lon="6.37141">
        <ele>96.199996948242</ele>
        <time>2021-05-22T10:16:42Z</time>
      </trkpt>
      <trkpt lat="43.36472" lon="6.37137">
        <ele>96.199996948242</ele>
        <time>2021-05-22T10:16:43Z</time>
      </trkpt>
      <trkpt lat="43.36453" lon="6.3711">
        <ele>97.199996948242</ele>
        <time>2021-05-22T10:16:51Z</time>
      </trkpt>
      <trkpt lat="43.36439" lon="6.37091">
        <ele>97.400001525879</ele>
        <time>2021-05-22T10:16:56Z</time>
      </trkpt>
      <trkpt lat="43.3643" lon="6.37076">
        <ele>97.199996948242</ele>
        <time>2021-05-22T10:17:00Z</time>
      </trkpt>
      <trkpt lat="43.36417" lon="6.37059">
        <ele>97</ele>
        <time>2021-05-22T10:17:06Z</time>
      </trkpt>
      <trkpt lat="43.36414" lon="6.37055">
        <ele>96.800003051758</ele>
        <time>2021-05-22T10:17:08Z</time>
      </trkpt>
      <trkpt lat="43.3641" lon="6.37051">
        <ele>96.800003051758</ele>
        <time>2021-05-22T10:17:12Z</time>
      </trkpt>
      <trkpt lat="43.3641" lon="6.37051">
        <ele>96.800003051758</ele>
        <time>2021-05-22T10:17:13Z</time>
      </trkpt>
      <trkpt lat="43.36408" lon="6.37048">
        <ele>96.599998474121</ele>
        <time>2021-05-22T10:17:15Z</time>
      </trkpt>
      <trkpt lat="43.36404" lon="6.37042">
        <ele>96.599998474121</ele>
        <time>2021-05-22T10:17:18Z</time>
      </trkpt>
      <trkpt lat="43.36395" lon="6.37027">
        <ele>96.599998474121</ele>
        <time>2021-05-22T10:17:24Z</time>
      </trkpt>
      <trkpt lat="43.36388" lon="6.37007">
        <ele>97</ele>
        <time>2021-05-22T10:17:30Z</time>
      </trkpt>
      <trkpt lat="43.36376" lon="6.36986">
        <ele>97.199996948242</ele>
        <time>2021-05-22T10:17:36Z</time>
      </trkpt>
      <trkpt lat="43.36362" lon="6.36964">
        <ele>97</ele>
        <time>2021-05-22T10:17:43Z</time>
      </trkpt>
      <trkpt lat="43.36348" lon="6.3694">
        <ele>97.400001525879</ele>
        <time>2021-05-22T10:17:51Z</time>
      </trkpt>
      <trkpt lat="43.36345" lon="6.36938">
        <ele>97.400001525879</ele>
        <time>2021-05-22T10:17:52Z</time>
      </trkpt>
      <trkpt lat="43.3634" lon="6.36933">
        <ele>97.400001525879</ele>
        <time>2021-05-22T10:17:54Z</time>
      </trkpt>
      <trkpt lat="43.36328" lon="6.36924">
        <ele>97.599998474121</ele>
        <time>2021-05-22T10:17:58Z</time>
      </trkpt>
      <trkpt lat="43.36325" lon="6.36921">
        <ele>97.599998474121</ele>
        <time>2021-05-22T10:17:59Z</time>
      </trkpt>
      <trkpt lat="43.36313" lon="6.36906">
        <ele>97.400001525879</ele>
        <time>2021-05-22T10:18:03Z</time>
      </trkpt>
      <trkpt lat="43.36302" lon="6.369">
        <ele>97</ele>
        <time>2021-05-22T10:18:06Z</time>
      </trkpt>
      <trkpt lat="43.36284" lon="6.36902">
        <ele>96.800003051758</ele>
        <time>2021-05-22T10:18:11Z</time>
      </trkpt>
      <trkpt lat="43.36275" lon="6.36905">
        <ele>96.400001525879</ele>
        <time>2021-05-22T10:18:15Z</time>
      </trkpt>
      <trkpt lat="43.36264" lon="6.36907">
        <ele>96</ele>
        <time>2021-05-22T10:18:21Z</time>
      </trkpt>
      <trkpt lat="43.36252" lon="6.36901">
        <ele>96.199996948242</ele>
        <time>2021-05-22T10:18:28Z</time>
      </trkpt>
      <trkpt lat="43.3624" lon="6.36892">
        <ele>97.400001525879</ele>
        <time>2021-05-22T10:18:37Z</time>
      </trkpt>
      <trkpt lat="43.36237" lon="6.36888">
        <ele>98</ele>
        <time>2021-05-22T10:18:40Z</time>
      </trkpt>
      <trkpt lat="43.36229" lon="6.36881">
        <ele>98.400001525879</ele>
        <time>2021-05-22T10:18:46Z</time>
      </trkpt>
      <trkpt lat="43.36229" lon="6.3688">
        <ele>98.800003051758</ele>
        <time>2021-05-22T10:18:52Z</time>
      </trkpt>
      <trkpt lat="43.36229" lon="6.3688">
        <ele>98.400001525879</ele>
        <time>2021-05-22T10:19:08Z</time>
      </trkpt>
      <trkpt lat="43.36229" lon="6.3688">
        <ele>98.400001525879</ele>
        <time>2021-05-22T10:19:11Z</time>
      </trkpt>
      <trkpt lat="43.36229" lon="6.3688">
        <ele>98.599998474121</ele>
        <time>2021-05-22T10:19:19Z</time>
      </trkpt>
      <trkpt lat="43.36225" lon="6.36877">
        <ele>98.400001525879</ele>
        <time>2021-05-22T10:19:27Z</time>
      </trkpt>
      <trkpt lat="43.36217" lon="6.36868">
        <ele>98.800003051758</ele>
        <time>2021-05-22T10:19:32Z</time>
      </trkpt>
      <trkpt lat="43.36213" lon="6.36863">
        <ele>99.199996948242</ele>
        <time>2021-05-22T10:19:35Z</time>
      </trkpt>
      <trkpt lat="43.3621" lon="6.36858">
        <ele>99.400001525879</ele>
        <time>2021-05-22T10:19:38Z</time>
      </trkpt>
      <trkpt lat="43.36204" lon="6.36849">
        <ele>100</ele>
        <time>2021-05-22T10:19:44Z</time>
      </trkpt>
      <trkpt lat="43.36197" lon="6.36844">
        <ele>100.40000152588</ele>
        <time>2021-05-22T10:19:48Z</time>
      </trkpt>
      <trkpt lat="43.36193" lon="6.36843">
        <ele>101</ele>
        <time>2021-05-22T10:19:50Z</time>
      </trkpt>
      <trkpt lat="43.36191" lon="6.36842">
        <ele>101</ele>
        <time>2021-05-22T10:19:51Z</time>
      </trkpt>
      <trkpt lat="43.36185" lon="6.3684">
        <ele>101.19999694824</ele>
        <time>2021-05-22T10:19:54Z</time>
      </trkpt>
      <trkpt lat="43.36178" lon="6.36839">
        <ele>101.40000152588</ele>
        <time>2021-05-22T10:19:58Z</time>
      </trkpt>
      <trkpt lat="43.36177" lon="6.36838">
        <ele>101.59999847412</ele>
        <time>2021-05-22T10:19:59Z</time>
      </trkpt>
      <trkpt lat="43.36174" lon="6.36837">
        <ele>102</ele>
        <time>2021-05-22T10:20:01Z</time>
      </trkpt>
      <trkpt lat="43.36173" lon="6.36837">
        <ele>102</ele>
        <time>2021-05-22T10:20:02Z</time>
      </trkpt>
      <trkpt lat="43.36171" lon="6.36837">
        <ele>102</ele>
        <time>2021-05-22T10:20:03Z</time>
      </trkpt>
      <trkpt lat="43.3617" lon="6.36836">
        <ele>101.80000305176</ele>
        <time>2021-05-22T10:20:04Z</time>
      </trkpt>
      <trkpt lat="43.36169" lon="6.36835">
        <ele>101.80000305176</ele>
        <time>2021-05-22T10:20:05Z</time>
      </trkpt>
      <trkpt lat="43.36165" lon="6.36835">
        <ele>101.80000305176</ele>
        <time>2021-05-22T10:20:08Z</time>
      </trkpt>
      <trkpt lat="43.36162" lon="6.36836">
        <ele>101.80000305176</ele>
        <time>2021-05-22T10:20:10Z</time>
      </trkpt>
      <trkpt lat="43.36152" lon="6.36841">
        <ele>101.80000305176</ele>
        <time>2021-05-22T10:20:14Z</time>
      </trkpt>
      <trkpt lat="43.36132" lon="6.36852">
        <ele>101.80000305176</ele>
        <time>2021-05-22T10:20:21Z</time>
      </trkpt>
      <trkpt lat="43.3611" lon="6.36858">
        <ele>101.80000305176</ele>
        <time>2021-05-22T10:20:28Z</time>
      </trkpt>
      <trkpt lat="43.36101" lon="6.36861">
        <ele>101.80000305176</ele>
        <time>2021-05-22T10:20:31Z</time>
      </trkpt>
      <trkpt lat="43.3608" lon="6.36868">
        <ele>102</ele>
        <time>2021-05-22T10:20:38Z</time>
      </trkpt>
      <trkpt lat="43.36068" lon="6.36872">
        <ele>102.19999694824</ele>
        <time>2021-05-22T10:20:41Z</time>
      </trkpt>
      <trkpt lat="43.3606" lon="6.36875">
        <ele>102.19999694824</ele>
        <time>2021-05-22T10:20:43Z</time>
      </trkpt>
      <trkpt lat="43.36044" lon="6.3688">
        <ele>102.19999694824</ele>
        <time>2021-05-22T10:20:48Z</time>
      </trkpt>
      <trkpt lat="43.3602" lon="6.36888">
        <ele>102.19999694824</ele>
        <time>2021-05-22T10:20:55Z</time>
      </trkpt>
      <trkpt lat="43.36007" lon="6.3689">
        <ele>102.40000152588</ele>
        <time>2021-05-22T10:21:00Z</time>
      </trkpt>
      <trkpt lat="43.35989" lon="6.3689">
        <ele>102.19999694824</ele>
        <time>2021-05-22T10:21:05Z</time>
      </trkpt>
      <trkpt lat="43.35973" lon="6.36894">
        <ele>101.59999847412</ele>
        <time>2021-05-22T10:21:10Z</time>
      </trkpt>
      <trkpt lat="43.35959" lon="6.36897">
        <ele>101.59999847412</ele>
        <time>2021-05-22T10:21:15Z</time>
      </trkpt>
      <trkpt lat="43.35952" lon="6.36896">
        <ele>101.59999847412</ele>
        <time>2021-05-22T10:21:17Z</time>
      </trkpt>
      <trkpt lat="43.35944" lon="6.36897">
        <ele>101.59999847412</ele>
        <time>2021-05-22T10:21:19Z</time>
      </trkpt>
      <trkpt lat="43.35938" lon="6.36897">
        <ele>101.40000152588</ele>
        <time>2021-05-22T10:21:20Z</time>
      </trkpt>
      <trkpt lat="43.35929" lon="6.36897">
        <ele>101.19999694824</ele>
        <time>2021-05-22T10:21:22Z</time>
      </trkpt>
      <trkpt lat="43.35924" lon="6.36896">
        <ele>101</ele>
        <time>2021-05-22T10:21:23Z</time>
      </trkpt>
      <trkpt lat="43.35921" lon="6.36895">
        <ele>100.80000305176</ele>
        <time>2021-05-22T10:21:24Z</time>
      </trkpt>
      <trkpt lat="43.35909" lon="6.36889">
        <ele>100.40000152588</ele>
        <time>2021-05-22T10:21:28Z</time>
      </trkpt>
      <trkpt lat="43.35907" lon="6.36888">
        <ele>100.40000152588</ele>
        <time>2021-05-22T10:21:29Z</time>
      </trkpt>
      <trkpt lat="43.35897" lon="6.36885">
        <ele>100.19999694824</ele>
        <time>2021-05-22T10:21:32Z</time>
      </trkpt>
      <trkpt lat="43.35892" lon="6.3688">
        <ele>99.800003051758</ele>
        <time>2021-05-22T10:21:34Z</time>
      </trkpt>
      <trkpt lat="43.3589" lon="6.36877">
        <ele>99.800003051758</ele>
        <time>2021-05-22T10:21:35Z</time>
      </trkpt>
      <trkpt lat="43.35886" lon="6.36871">
        <ele>99.599998474121</ele>
        <time>2021-05-22T10:21:37Z</time>
      </trkpt>
      <trkpt lat="43.35873" lon="6.36857">
        <ele>99.199996948242</ele>
        <time>2021-05-22T10:21:43Z</time>
      </trkpt>
      <trkpt lat="43.35867" lon="6.36856">
        <ele>99.400001525879</ele>
        <time>2021-05-22T10:21:45Z</time>
      </trkpt>
      <trkpt lat="43.3586" lon="6.36854">
        <ele>99.400001525879</ele>
        <time>2021-05-22T10:21:47Z</time>
      </trkpt>
      <trkpt lat="43.35854" lon="6.36852">
        <ele>99.400001525879</ele>
        <time>2021-05-22T10:21:49Z</time>
      </trkpt>
      <trkpt lat="43.35829" lon="6.36845">
        <ele>100</ele>
        <time>2021-05-22T10:21:57Z</time>
      </trkpt>
      <trkpt lat="43.35812" lon="6.36838">
        <ele>100.59999847412</ele>
        <time>2021-05-22T10:22:03Z</time>
      </trkpt>
      <trkpt lat="43.35795" lon="6.36821">
        <ele>101.40000152588</ele>
        <time>2021-05-22T10:22:11Z</time>
      </trkpt>
      <trkpt lat="43.35787" lon="6.3682">
        <ele>101.80000305176</ele>
        <time>2021-05-22T10:22:15Z</time>
      </trkpt>
      <trkpt lat="43.35785" lon="6.3682">
        <ele>102</ele>
        <time>2021-05-22T10:22:16Z</time>
      </trkpt>
      <trkpt lat="43.35772" lon="6.36822">
        <ele>102.59999847412</ele>
        <time>2021-05-22T10:22:22Z</time>
      </trkpt>
      <trkpt lat="43.3577" lon="6.36823">
        <ele>102.80000305176</ele>
        <time>2021-05-22T10:22:23Z</time>
      </trkpt>
      <trkpt lat="43.35769" lon="6.36823">
        <ele>102.80000305176</ele>
        <time>2021-05-22T10:22:24Z</time>
      </trkpt>
      <trkpt lat="43.3576" lon="6.36823">
        <ele>103.59999847412</ele>
        <time>2021-05-22T10:22:29Z</time>
      </trkpt>
      <trkpt lat="43.35757" lon="6.36823">
        <ele>103.80000305176</ele>
        <time>2021-05-22T10:22:30Z</time>
      </trkpt>
      <trkpt lat="43.35755" lon="6.36824">
        <ele>104</ele>
        <time>2021-05-22T10:22:31Z</time>
      </trkpt>
      <trkpt lat="43.35753" lon="6.36825">
        <ele>104.19999694824</ele>
        <time>2021-05-22T10:22:32Z</time>
      </trkpt>
      <trkpt lat="43.35751" lon="6.36826">
        <ele>104.40000152588</ele>
        <time>2021-05-22T10:22:33Z</time>
      </trkpt>
      <trkpt lat="43.35739" lon="6.36831">
        <ele>105.19999694824</ele>
        <time>2021-05-22T10:22:39Z</time>
      </trkpt>
      <trkpt lat="43.35736" lon="6.36832">
        <ele>105.19999694824</ele>
        <time>2021-05-22T10:22:40Z</time>
      </trkpt>
      <trkpt lat="43.35734" lon="6.36833">
        <ele>105.19999694824</ele>
        <time>2021-05-22T10:22:41Z</time>
      </trkpt>
      <trkpt lat="43.35732" lon="6.36834">
        <ele>105.19999694824</ele>
        <time>2021-05-22T10:22:42Z</time>
      </trkpt>
      <trkpt lat="43.35721" lon="6.36836">
        <ele>105.19999694824</ele>
        <time>2021-05-22T10:22:45Z</time>
      </trkpt>
      <trkpt lat="43.35716" lon="6.36837">
        <ele>104.80000305176</ele>
        <time>2021-05-22T10:22:46Z</time>
      </trkpt>
      <trkpt lat="43.35706" lon="6.36838">
        <ele>104.19999694824</ele>
        <time>2021-05-22T10:22:48Z</time>
      </trkpt>
      <trkpt lat="43.35701" lon="6.36839">
        <ele>103.59999847412</ele>
        <time>2021-05-22T10:22:49Z</time>
      </trkpt>
      <trkpt lat="43.35691" lon="6.36838">
        <ele>102.80000305176</ele>
        <time>2021-05-22T10:22:51Z</time>
      </trkpt>
      <trkpt lat="43.35687" lon="6.36836">
        <ele>102.59999847412</ele>
        <time>2021-05-22T10:22:52Z</time>
      </trkpt>
      <trkpt lat="43.35677" lon="6.36828">
        <ele>102</ele>
        <time>2021-05-22T10:22:56Z</time>
      </trkpt>
      <trkpt lat="43.35665" lon="6.36818">
        <ele>102.80000305176</ele>
        <time>2021-05-22T10:23:02Z</time>
      </trkpt>
      <trkpt lat="43.35658" lon="6.36815">
        <ele>103.59999847412</ele>
        <time>2021-05-22T10:23:06Z</time>
      </trkpt>
      <trkpt lat="43.35654" lon="6.36813">
        <ele>104.19999694824</ele>
        <time>2021-05-22T10:23:08Z</time>
      </trkpt>
      <trkpt lat="43.35647" lon="6.36809">
        <ele>105.19999694824</ele>
        <time>2021-05-22T10:23:12Z</time>
      </trkpt>
      <trkpt lat="43.35638" lon="6.36804">
        <ele>106.19999694824</ele>
        <time>2021-05-22T10:23:18Z</time>
      </trkpt>
      <trkpt lat="43.35636" lon="6.36803">
        <ele>106.40000152588</ele>
        <time>2021-05-22T10:23:20Z</time>
      </trkpt>
      <trkpt lat="43.35631" lon="6.368">
        <ele>106.40000152588</ele>
        <time>2021-05-22T10:23:22Z</time>
      </trkpt>
      <trkpt lat="43.35621" lon="6.36793">
        <ele>106.59999847412</ele>
        <time>2021-05-22T10:23:25Z</time>
      </trkpt>
      <trkpt lat="43.35613" lon="6.36786">
        <ele>106.40000152588</ele>
        <time>2021-05-22T10:23:29Z</time>
      </trkpt>
      <trkpt lat="43.35611" lon="6.36785">
        <ele>106.40000152588</ele>
        <time>2021-05-22T10:23:30Z</time>
      </trkpt>
      <trkpt lat="43.35607" lon="6.36781">
        <ele>106.59999847412</ele>
        <time>2021-05-22T10:23:33Z</time>
      </trkpt>
      <trkpt lat="43.35604" lon="6.36778">
        <ele>107.19999694824</ele>
        <time>2021-05-22T10:23:35Z</time>
      </trkpt>
      <trkpt lat="43.35603" lon="6.36776">
        <ele>107.40000152588</ele>
        <time>2021-05-22T10:23:36Z</time>
      </trkpt>
      <trkpt lat="43.356" lon="6.36774">
        <ele>107.59999847412</ele>
        <time>2021-05-22T10:23:38Z</time>
      </trkpt>
      <trkpt lat="43.35594" lon="6.3677">
        <ele>108.80000305176</ele>
        <time>2021-05-22T10:23:43Z</time>
      </trkpt>
      <trkpt lat="43.35593" lon="6.3677">
        <ele>109</ele>
        <time>2021-05-22T10:23:44Z</time>
      </trkpt>
      <trkpt lat="43.35592" lon="6.36769">
        <ele>109.40000152588</ele>
        <time>2021-05-22T10:23:45Z</time>
      </trkpt>
      <trkpt lat="43.3559" lon="6.36768">
        <ele>109.80000305176</ele>
        <time>2021-05-22T10:23:47Z</time>
      </trkpt>
      <trkpt lat="43.3559" lon="6.36767">
        <ele>110.19999694824</ele>
        <time>2021-05-22T10:23:48Z</time>
      </trkpt>
      <trkpt lat="43.35588" lon="6.36767">
        <ele>110.80000305176</ele>
        <time>2021-05-22T10:23:50Z</time>
      </trkpt>
      <trkpt lat="43.35587" lon="6.36766">
        <ele>111</ele>
        <time>2021-05-22T10:23:51Z</time>
      </trkpt>
      <trkpt lat="43.35577" lon="6.36763">
        <ele>111.19999694824</ele>
        <time>2021-05-22T10:23:58Z</time>
      </trkpt>
      <trkpt lat="43.35565" lon="6.36757">
        <ele>110.19999694824</ele>
        <time>2021-05-22T10:24:04Z</time>
      </trkpt>
      <trkpt lat="43.35562" lon="6.36754">
        <ele>109.40000152588</ele>
        <time>2021-05-22T10:24:07Z</time>
      </trkpt>
      <trkpt lat="43.35558" lon="6.36752">
        <ele>108.80000305176</ele>
        <time>2021-05-22T10:24:10Z</time>
      </trkpt>
      <trkpt lat="43.35556" lon="6.36751">
        <ele>108.19999694824</ele>
        <time>2021-05-22T10:24:12Z</time>
      </trkpt>
      <trkpt lat="43.35547" lon="6.36746">
        <ele>107.59999847412</ele>
        <time>2021-05-22T10:24:16Z</time>
      </trkpt>
      <trkpt lat="43.35545" lon="6.36745">
        <ele>107.19999694824</ele>
        <time>2021-05-22T10:24:17Z</time>
      </trkpt>
      <trkpt lat="43.35538" lon="6.36742">
        <ele>106.59999847412</ele>
        <time>2021-05-22T10:24:19Z</time>
      </trkpt>
      <trkpt lat="43.35531" lon="6.36736">
        <ele>106.19999694824</ele>
        <time>2021-05-22T10:24:21Z</time>
      </trkpt>
      <trkpt lat="43.35523" lon="6.3673">
        <ele>105.80000305176</ele>
        <time>2021-05-22T10:24:23Z</time>
      </trkpt>
      <trkpt lat="43.35512" lon="6.36726">
        <ele>104.80000305176</ele>
        <time>2021-05-22T10:24:26Z</time>
      </trkpt>
      <trkpt lat="43.35495" lon="6.36725">
        <ele>104.40000152588</ele>
        <time>2021-05-22T10:24:31Z</time>
      </trkpt>
      <trkpt lat="43.3548" lon="6.36723">
        <ele>104.19999694824</ele>
        <time>2021-05-22T10:24:36Z</time>
      </trkpt>
      <trkpt lat="43.35468" lon="6.36721">
        <ele>103.59999847412</ele>
        <time>2021-05-22T10:24:40Z</time>
      </trkpt>
      <trkpt lat="43.35456" lon="6.36717">
        <ele>102.59999847412</ele>
        <time>2021-05-22T10:24:44Z</time>
      </trkpt>
      <trkpt lat="43.35454" lon="6.36715">
        <ele>102.40000152588</ele>
        <time>2021-05-22T10:24:45Z</time>
      </trkpt>
      <trkpt lat="43.35442" lon="6.36708">
        <ele>101.80000305176</ele>
        <time>2021-05-22T10:24:50Z</time>
      </trkpt>
      <trkpt lat="43.3544" lon="6.36705">
        <ele>101.80000305176</ele>
        <time>2021-05-22T10:24:51Z</time>
      </trkpt>
      <trkpt lat="43.35438" lon="6.36702">
        <ele>101.59999847412</ele>
        <time>2021-05-22T10:24:53Z</time>
      </trkpt>
      <trkpt lat="43.35435" lon="6.36698">
        <ele>101.40000152588</ele>
        <time>2021-05-22T10:24:55Z</time>
      </trkpt>
      <trkpt lat="43.35433" lon="6.36695">
        <ele>101.40000152588</ele>
        <time>2021-05-22T10:24:56Z</time>
      </trkpt>
      <trkpt lat="43.35432" lon="6.36693">
        <ele>101</ele>
        <time>2021-05-22T10:24:57Z</time>
      </trkpt>
      <trkpt lat="43.35428" lon="6.36693">
        <ele>100.59999847412</ele>
        <time>2021-05-22T10:24:59Z</time>
      </trkpt>
      <trkpt lat="43.35427" lon="6.36693">
        <ele>100.40000152588</ele>
        <time>2021-05-22T10:25:00Z</time>
      </trkpt>
      <trkpt lat="43.35424" lon="6.36694">
        <ele>100.40000152588</ele>
        <time>2021-05-22T10:25:01Z</time>
      </trkpt>
      <trkpt lat="43.35418" lon="6.36694">
        <ele>100</ele>
        <time>2021-05-22T10:25:03Z</time>
      </trkpt>
      <trkpt lat="43.35411" lon="6.36693">
        <ele>99.800003051758</ele>
        <time>2021-05-22T10:25:05Z</time>
      </trkpt>
      <trkpt lat="43.35405" lon="6.36688">
        <ele>99.199996948242</ele>
        <time>2021-05-22T10:25:07Z</time>
      </trkpt>
      <trkpt lat="43.35401" lon="6.36685">
        <ele>98.199996948242</ele>
        <time>2021-05-22T10:25:09Z</time>
      </trkpt>
      <trkpt lat="43.35398" lon="6.36682">
        <ele>97.599998474121</ele>
        <time>2021-05-22T10:25:11Z</time>
      </trkpt>
      <trkpt lat="43.35389" lon="6.36675">
        <ele>97</ele>
        <time>2021-05-22T10:25:16Z</time>
      </trkpt>
      <trkpt lat="43.35388" lon="6.36674">
        <ele>97</ele>
        <time>2021-05-22T10:25:17Z</time>
      </trkpt>
      <trkpt lat="43.35378" lon="6.36664">
        <ele>96.199996948242</ele>
        <time>2021-05-22T10:25:23Z</time>
      </trkpt>
      <trkpt lat="43.35376" lon="6.36663">
        <ele>96</ele>
        <time>2021-05-22T10:25:24Z</time>
      </trkpt>
      <trkpt lat="43.35374" lon="6.36661">
        <ele>95.400001525879</ele>
        <time>2021-05-22T10:25:25Z</time>
      </trkpt>
      <trkpt lat="43.35371" lon="6.36659">
        <ele>94.400001525879</ele>
        <time>2021-05-22T10:25:28Z</time>
      </trkpt>
      <trkpt lat="43.3537" lon="6.36658">
        <ele>94</ele>
        <time>2021-05-22T10:25:29Z</time>
      </trkpt>
      <trkpt lat="43.3537" lon="6.36658">
        <ele>93.400001525879</ele>
        <time>2021-05-22T10:25:32Z</time>
      </trkpt>
      <trkpt lat="43.3537" lon="6.36658">
        <ele>92.599998474121</ele>
        <time>2021-05-22T10:25:38Z</time>
      </trkpt>
      <trkpt lat="43.3537" lon="6.36658">
        <ele>92.599998474121</ele>
        <time>2021-05-22T10:25:39Z</time>
      </trkpt>
      <trkpt lat="43.3537" lon="6.36658">
        <ele>92.199996948242</ele>
        <time>2021-05-22T10:25:42Z</time>
      </trkpt>
      <trkpt lat="43.3537" lon="6.36658">
        <ele>92</ele>
        <time>2021-05-22T10:25:59Z</time>
      </trkpt>
      <trkpt lat="43.3537" lon="6.36658">
        <ele>92.199996948242</ele>
        <time>2021-05-22T10:26:11Z</time>
      </trkpt>
      <trkpt lat="43.3537" lon="6.36658">
        <ele>92.400001525879</ele>
        <time>2021-05-22T10:26:26Z</time>
      </trkpt>
      <trkpt lat="43.3537" lon="6.36658">
        <ele>92.400001525879</ele>
        <time>2021-05-22T10:26:45Z</time>
      </trkpt>
      <trkpt lat="43.3537" lon="6.36658">
        <ele>92.400001525879</ele>
        <time>2021-05-22T10:27:07Z</time>
      </trkpt>
      <trkpt lat="43.3537" lon="6.36658">
        <ele>92.400001525879</ele>
        <time>2021-05-22T10:27:08Z</time>
      </trkpt>
      <trkpt lat="43.3537" lon="6.36658">
        <ele>92.599998474121</ele>
        <time>2021-05-22T10:27:14Z</time>
      </trkpt>
      <trkpt lat="43.3537" lon="6.36658">
        <ele>92.800003051758</ele>
        <time>2021-05-22T10:27:17Z</time>
      </trkpt>
      <trkpt lat="43.3537" lon="6.36658">
        <ele>92.800003051758</ele>
        <time>2021-05-22T10:27:25Z</time>
      </trkpt>
      <trkpt lat="43.3537" lon="6.36658">
        <ele>93</ele>
        <time>2021-05-22T10:27:27Z</time>
      </trkpt>
      <trkpt lat="43.3537" lon="6.36658">
        <ele>93.400001525879</ele>
        <time>2021-05-22T10:27:32Z</time>
      </trkpt>
      <trkpt lat="43.3537" lon="6.36658">
        <ele>93.400001525879</ele>
        <time>2021-05-22T10:27:33Z</time>
      </trkpt>
      <trkpt lat="43.35354" lon="6.36654">
        <ele>95.800003051758</ele>
        <time>2021-05-22T10:28:44Z</time>
      </trkpt>
      <trkpt lat="43.35351" lon="6.36659">
        <ele>96</ele>
        <time>2021-05-22T10:28:47Z</time>
      </trkpt>
      <trkpt lat="43.3534" lon="6.36679">
        <ele>95.800003051758</ele>
        <time>2021-05-22T10:28:54Z</time>
      </trkpt>
      <trkpt lat="43.35338" lon="6.36695">
        <ele>95.199996948242</ele>
        <time>2021-05-22T10:28:58Z</time>
      </trkpt>
      <trkpt lat="43.35337" lon="6.36696">
        <ele>95.199996948242</ele>
        <time>2021-05-22T10:28:59Z</time>
      </trkpt>
      <trkpt lat="43.35334" lon="6.36696">
        <ele>95</ele>
        <time>2021-05-22T10:29:01Z</time>
      </trkpt>
      <trkpt lat="43.3533" lon="6.36694">
        <ele>94.800003051758</ele>
        <time>2021-05-22T10:29:03Z</time>
      </trkpt>
      <trkpt lat="43.35328" lon="6.36692">
        <ele>94.599998474121</ele>
        <time>2021-05-22T10:29:04Z</time>
      </trkpt>
      <trkpt lat="43.35323" lon="6.36685">
        <ele>94.599998474121</ele>
        <time>2021-05-22T10:29:09Z</time>
      </trkpt>
      <trkpt lat="43.3532" lon="6.36682">
        <ele>94.400001525879</ele>
        <time>2021-05-22T10:29:11Z</time>
      </trkpt>
      <trkpt lat="43.35317" lon="6.36682">
        <ele>94.400001525879</ele>
        <time>2021-05-22T10:29:13Z</time>
      </trkpt>
      <trkpt lat="43.35315" lon="6.36683">
        <ele>94.400001525879</ele>
        <time>2021-05-22T10:29:14Z</time>
      </trkpt>
      <trkpt lat="43.3531" lon="6.3669">
        <ele>94.199996948242</ele>
        <time>2021-05-22T10:29:17Z</time>
      </trkpt>
      <trkpt lat="43.35307" lon="6.36691">
        <ele>94.199996948242</ele>
        <time>2021-05-22T10:29:18Z</time>
      </trkpt>
      <trkpt lat="43.35295" lon="6.36696">
        <ele>93.599998474121</ele>
        <time>2021-05-22T10:29:22Z</time>
      </trkpt>
      <trkpt lat="43.35293" lon="6.36697">
        <ele>93.599998474121</ele>
        <time>2021-05-22T10:29:23Z</time>
      </trkpt>
      <trkpt lat="43.35275" lon="6.367">
        <ele>92.599998474121</ele>
        <time>2021-05-22T10:29:30Z</time>
      </trkpt>
      <trkpt lat="43.35263" lon="6.36702">
        <ele>92.199996948242</ele>
        <time>2021-05-22T10:29:33Z</time>
      </trkpt>
      <trkpt lat="43.3526" lon="6.36703">
        <ele>92</ele>
        <time>2021-05-22T10:29:34Z</time>
      </trkpt>
      <trkpt lat="43.35256" lon="6.36705">
        <ele>92</ele>
        <time>2021-05-22T10:29:35Z</time>
      </trkpt>
      <trkpt lat="43.35247" lon="6.36709">
        <ele>91.599998474121</ele>
        <time>2021-05-22T10:29:37Z</time>
      </trkpt>
      <trkpt lat="43.35242" lon="6.36712">
        <ele>91</ele>
        <time>2021-05-22T10:29:38Z</time>
      </trkpt>
      <trkpt lat="43.35234" lon="6.36717">
        <ele>90.199996948242</ele>
        <time>2021-05-22T10:29:40Z</time>
      </trkpt>
      <trkpt lat="43.3523" lon="6.36719">
        <ele>89.199996948242</ele>
        <time>2021-05-22T10:29:41Z</time>
      </trkpt>
      <trkpt lat="43.35228" lon="6.36719">
        <ele>89</ele>
        <time>2021-05-22T10:29:42Z</time>
      </trkpt>
      <trkpt lat="43.35226" lon="6.3672">
        <ele>88.800003051758</ele>
        <time>2021-05-22T10:29:43Z</time>
      </trkpt>
      <trkpt lat="43.35225" lon="6.3672">
        <ele>88.599998474121</ele>
        <time>2021-05-22T10:29:44Z</time>
      </trkpt>
      <trkpt lat="43.35222" lon="6.3672">
        <ele>88.400001525879</ele>
        <time>2021-05-22T10:29:46Z</time>
      </trkpt>
      <trkpt lat="43.3522" lon="6.36721">
        <ele>88.400001525879</ele>
        <time>2021-05-22T10:29:47Z</time>
      </trkpt>
      <trkpt lat="43.35219" lon="6.36721">
        <ele>88.199996948242</ele>
        <time>2021-05-22T10:29:48Z</time>
      </trkpt>
      <trkpt lat="43.35217" lon="6.36721">
        <ele>88</ele>
        <time>2021-05-22T10:29:50Z</time>
      </trkpt>
      <trkpt lat="43.35217" lon="6.36721">
        <ele>88</ele>
        <time>2021-05-22T10:29:51Z</time>
      </trkpt>
      <trkpt lat="43.35214" lon="6.36723">
        <ele>88</ele>
        <time>2021-05-22T10:29:53Z</time>
      </trkpt>
      <trkpt lat="43.35212" lon="6.36724">
        <ele>88</ele>
        <time>2021-05-22T10:29:54Z</time>
      </trkpt>
      <trkpt lat="43.3521" lon="6.36725">
        <ele>88</ele>
        <time>2021-05-22T10:29:55Z</time>
      </trkpt>
      <trkpt lat="43.35197" lon="6.36727">
        <ele>88.199996948242</ele>
        <time>2021-05-22T10:30:00Z</time>
      </trkpt>
      <trkpt lat="43.35182" lon="6.36722">
        <ele>88</ele>
        <time>2021-05-22T10:30:05Z</time>
      </trkpt>
      <trkpt lat="43.35166" lon="6.36719">
        <ele>87.800003051758</ele>
        <time>2021-05-22T10:30:10Z</time>
      </trkpt>
      <trkpt lat="43.35163" lon="6.3672">
        <ele>88</ele>
        <time>2021-05-22T10:30:11Z</time>
      </trkpt>
      <trkpt lat="43.35148" lon="6.36729">
        <ele>88</ele>
        <time>2021-05-22T10:30:18Z</time>
      </trkpt>
      <trkpt lat="43.35137" lon="6.36726">
        <ele>88.199996948242</ele>
        <time>2021-05-22T10:30:23Z</time>
      </trkpt>
      <trkpt lat="43.35125" lon="6.36717">
        <ele>88.199996948242</ele>
        <time>2021-05-22T10:30:30Z</time>
      </trkpt>
      <trkpt lat="43.35119" lon="6.36717">
        <ele>88.599998474121</ele>
        <time>2021-05-22T10:30:34Z</time>
      </trkpt>
      <trkpt lat="43.35113" lon="6.36716">
        <ele>89.800003051758</ele>
        <time>2021-05-22T10:30:38Z</time>
      </trkpt>
      <trkpt lat="43.35111" lon="6.36716">
        <ele>90</ele>
        <time>2021-05-22T10:30:39Z</time>
      </trkpt>
      <trkpt lat="43.35102" lon="6.36714">
        <ele>90.800003051758</ele>
        <time>2021-05-22T10:30:44Z</time>
      </trkpt>
      <trkpt lat="43.35097" lon="6.36709">
        <ele>91.199996948242</ele>
        <time>2021-05-22T10:30:48Z</time>
      </trkpt>
      <trkpt lat="43.3509" lon="6.36704">
        <ele>92</ele>
        <time>2021-05-22T10:30:52Z</time>
      </trkpt>
      <trkpt lat="43.35085" lon="6.36701">
        <ele>92.400001525879</ele>
        <time>2021-05-22T10:30:55Z</time>
      </trkpt>
      <trkpt lat="43.35076" lon="6.36702">
        <ele>93</ele>
        <time>2021-05-22T10:31:00Z</time>
      </trkpt>
      <trkpt lat="43.35074" lon="6.36702">
        <ele>93.400001525879</ele>
        <time>2021-05-22T10:31:01Z</time>
      </trkpt>
      <trkpt lat="43.35062" lon="6.36696">
        <ele>94</ele>
        <time>2021-05-22T10:31:08Z</time>
      </trkpt>
      <trkpt lat="43.35061" lon="6.36695">
        <ele>94</ele>
        <time>2021-05-22T10:31:09Z</time>
      </trkpt>
      <trkpt lat="43.35051" lon="6.3669">
        <ele>94.800003051758</ele>
        <time>2021-05-22T10:31:15Z</time>
      </trkpt>
      <trkpt lat="43.35048" lon="6.36688">
        <ele>95</ele>
        <time>2021-05-22T10:31:17Z</time>
      </trkpt>
      <trkpt lat="43.35046" lon="6.36687">
        <ele>95.400001525879</ele>
        <time>2021-05-22T10:31:18Z</time>
      </trkpt>
      <trkpt lat="43.3504" lon="6.36683">
        <ele>95.599998474121</ele>
        <time>2021-05-22T10:31:22Z</time>
      </trkpt>
      <trkpt lat="43.35036" lon="6.36681">
        <ele>95.800003051758</ele>
        <time>2021-05-22T10:31:24Z</time>
      </trkpt>
      <trkpt lat="43.35032" lon="6.36676">
        <ele>96.199996948242</ele>
        <time>2021-05-22T10:31:27Z</time>
      </trkpt>
      <trkpt lat="43.3503" lon="6.36674">
        <ele>96.199996948242</ele>
        <time>2021-05-22T10:31:28Z</time>
      </trkpt>
      <trkpt lat="43.35028" lon="6.36673">
        <ele>96.400001525879</ele>
        <time>2021-05-22T10:31:29Z</time>
      </trkpt>
      <trkpt lat="43.35027" lon="6.36672">
        <ele>96.599998474121</ele>
        <time>2021-05-22T10:31:30Z</time>
      </trkpt>
      <trkpt lat="43.35021" lon="6.3667">
        <ele>96.800003051758</ele>
        <time>2021-05-22T10:31:33Z</time>
      </trkpt>
      <trkpt lat="43.35006" lon="6.3666">
        <ele>97.599998474121</ele>
        <time>2021-05-22T10:31:41Z</time>
      </trkpt>
      <trkpt lat="43.34995" lon="6.36649">
        <ele>98.199996948242</ele>
        <time>2021-05-22T10:31:47Z</time>
      </trkpt>
      <trkpt lat="43.34992" lon="6.36646">
        <ele>98.400001525879</ele>
        <time>2021-05-22T10:31:49Z</time>
      </trkpt>
      <trkpt lat="43.34988" lon="6.36644">
        <ele>98.599998474121</ele>
        <time>2021-05-22T10:31:51Z</time>
      </trkpt>
      <trkpt lat="43.34983" lon="6.36643">
        <ele>98.800003051758</ele>
        <time>2021-05-22T10:31:53Z</time>
      </trkpt>
      <trkpt lat="43.34974" lon="6.36642">
        <ele>99.199996948242</ele>
        <time>2021-05-22T10:31:57Z</time>
      </trkpt>
      <trkpt lat="43.34972" lon="6.36641">
        <ele>99.400001525879</ele>
        <time>2021-05-22T10:31:58Z</time>
      </trkpt>
      <trkpt lat="43.3497" lon="6.3664">
        <ele>99.400001525879</ele>
        <time>2021-05-22T10:31:59Z</time>
      </trkpt>
      <trkpt lat="43.34957" lon="6.36634">
        <ele>99.199996948242</ele>
        <time>2021-05-22T10:32:04Z</time>
      </trkpt>
      <trkpt lat="43.34946" lon="6.36634">
        <ele>98.400001525879</ele>
        <time>2021-05-22T10:32:08Z</time>
      </trkpt>
      <trkpt lat="43.34946" lon="6.36634">
        <ele>97.599998474121</ele>
        <time>2021-05-22T10:32:10Z</time>
      </trkpt>
      <trkpt lat="43.34946" lon="6.36634">
        <ele>97</ele>
        <time>2021-05-22T10:32:12Z</time>
      </trkpt>
      <trkpt lat="43.34945" lon="6.36633">
        <ele>96.599998474121</ele>
        <time>2021-05-22T10:32:14Z</time>
      </trkpt>
      <trkpt lat="43.34944" lon="6.36633">
        <ele>96.199996948242</ele>
        <time>2021-05-22T10:32:18Z</time>
      </trkpt>
      <trkpt lat="43.34944" lon="6.36633">
        <ele>96</ele>
        <time>2021-05-22T10:32:20Z</time>
      </trkpt>
      <trkpt lat="43.34944" lon="6.36633">
        <ele>96</ele>
        <time>2021-05-22T10:32:24Z</time>
      </trkpt>
      <trkpt lat="43.34944" lon="6.36633">
        <ele>95.800003051758</ele>
        <time>2021-05-22T10:32:41Z</time>
      </trkpt>
      <trkpt lat="43.3494" lon="6.36632">
        <ele>95.800003051758</ele>
        <time>2021-05-22T10:33:16Z</time>
      </trkpt>
      <trkpt lat="43.34937" lon="6.36632">
        <ele>95.800003051758</ele>
        <time>2021-05-22T10:33:18Z</time>
      </trkpt>
      <trkpt lat="43.34934" lon="6.36633">
        <ele>95.599998474121</ele>
        <time>2021-05-22T10:33:22Z</time>
      </trkpt>
      <trkpt lat="43.34931" lon="6.36631">
        <ele>95.400001525879</ele>
        <time>2021-05-22T10:33:24Z</time>
      </trkpt>
      <trkpt lat="43.34921" lon="6.36628">
        <ele>94.599998474121</ele>
        <time>2021-05-22T10:33:30Z</time>
      </trkpt>
      <trkpt lat="43.34916" lon="6.36628">
        <ele>94.400001525879</ele>
        <time>2021-05-22T10:33:32Z</time>
      </trkpt>
      <trkpt lat="43.3491" lon="6.36627">
        <ele>93.800003051758</ele>
        <time>2021-05-22T10:33:34Z</time>
      </trkpt>
      <trkpt lat="43.34907" lon="6.36626">
        <ele>93</ele>
        <time>2021-05-22T10:33:35Z</time>
      </trkpt>
      <trkpt lat="43.34896" lon="6.36629">
        <ele>91.599998474121</ele>
        <time>2021-05-22T10:33:39Z</time>
      </trkpt>
      <trkpt lat="43.34892" lon="6.36629">
        <ele>91</ele>
        <time>2021-05-22T10:33:41Z</time>
      </trkpt>
      <trkpt lat="43.34883" lon="6.36627">
        <ele>90.800003051758</ele>
        <time>2021-05-22T10:33:45Z</time>
      </trkpt>
      <trkpt lat="43.34873" lon="6.36623">
        <ele>90.400001525879</ele>
        <time>2021-05-22T10:33:48Z</time>
      </trkpt>
      <trkpt lat="43.34866" lon="6.36617">
        <ele>89.599998474121</ele>
        <time>2021-05-22T10:33:50Z</time>
      </trkpt>
      <trkpt lat="43.34862" lon="6.36614">
        <ele>89.199996948242</ele>
        <time>2021-05-22T10:33:51Z</time>
      </trkpt>
      <trkpt lat="43.3485" lon="6.36604">
        <ele>88.400001525879</ele>
        <time>2021-05-22T10:33:54Z</time>
      </trkpt>
      <trkpt lat="43.34846" lon="6.36601">
        <ele>88.400001525879</ele>
        <time>2021-05-22T10:33:55Z</time>
      </trkpt>
      <trkpt lat="43.34842" lon="6.36598">
        <ele>88.199996948242</ele>
        <time>2021-05-22T10:33:56Z</time>
      </trkpt>
      <trkpt lat="43.34839" lon="6.36595">
        <ele>88</ele>
        <time>2021-05-22T10:33:57Z</time>
      </trkpt>
      <trkpt lat="43.34829" lon="6.36587">
        <ele>87.800003051758</ele>
        <time>2021-05-22T10:34:00Z</time>
      </trkpt>
      <trkpt lat="43.34822" lon="6.36583">
        <ele>87.599998474121</ele>
        <time>2021-05-22T10:34:02Z</time>
      </trkpt>
      <trkpt lat="43.34818" lon="6.3658">
        <ele>87.599998474121</ele>
        <time>2021-05-22T10:34:03Z</time>
      </trkpt>
      <trkpt lat="43.3481" lon="6.36573">
        <ele>87.400001525879</ele>
        <time>2021-05-22T10:34:05Z</time>
      </trkpt>
      <trkpt lat="43.34807" lon="6.3657">
        <ele>87.199996948242</ele>
        <time>2021-05-22T10:34:06Z</time>
      </trkpt>
      <trkpt lat="43.34804" lon="6.36567">
        <ele>87.199996948242</ele>
        <time>2021-05-22T10:34:07Z</time>
      </trkpt>
      <trkpt lat="43.348" lon="6.36564">
        <ele>87</ele>
        <time>2021-05-22T10:34:08Z</time>
      </trkpt>
      <trkpt lat="43.34796" lon="6.36561">
        <ele>87</ele>
        <time>2021-05-22T10:34:09Z</time>
      </trkpt>
      <trkpt lat="43.34793" lon="6.36559">
        <ele>86.800003051758</ele>
        <time>2021-05-22T10:34:10Z</time>
      </trkpt>
      <trkpt lat="43.3479" lon="6.36557">
        <ele>86.800003051758</ele>
        <time>2021-05-22T10:34:11Z</time>
      </trkpt>
      <trkpt lat="43.34786" lon="6.36556">
        <ele>86.599998474121</ele>
        <time>2021-05-22T10:34:12Z</time>
      </trkpt>
      <trkpt lat="43.34782" lon="6.36554">
        <ele>86.400001525879</ele>
        <time>2021-05-22T10:34:14Z</time>
      </trkpt>
      <trkpt lat="43.34775" lon="6.36552">
        <ele>86.199996948242</ele>
        <time>2021-05-22T10:34:17Z</time>
      </trkpt>
      <trkpt lat="43.34769" lon="6.36551">
        <ele>86.199996948242</ele>
        <time>2021-05-22T10:34:20Z</time>
      </trkpt>
      <trkpt lat="43.34765" lon="6.3655">
        <ele>86.199996948242</ele>
        <time>2021-05-22T10:34:22Z</time>
      </trkpt>
      <trkpt lat="43.34763" lon="6.3655">
        <ele>86</ele>
        <time>2021-05-22T10:34:23Z</time>
      </trkpt>
      <trkpt lat="43.34762" lon="6.36551">
        <ele>85.800003051758</ele>
        <time>2021-05-22T10:34:24Z</time>
      </trkpt>
      <trkpt lat="43.3476" lon="6.36551">
        <ele>85.199996948242</ele>
        <time>2021-05-22T10:34:26Z</time>
      </trkpt>
      <trkpt lat="43.34759" lon="6.36551">
        <ele>85</ele>
        <time>2021-05-22T10:34:27Z</time>
      </trkpt>
      <trkpt lat="43.34749" lon="6.36551">
        <ele>84.400001525879</ele>
        <time>2021-05-22T10:34:33Z</time>
      </trkpt>
      <trkpt lat="43.34745" lon="6.36551">
        <ele>84.400001525879</ele>
        <time>2021-05-22T10:34:35Z</time>
      </trkpt>
      <trkpt lat="43.34734" lon="6.36546">
        <ele>84.800003051758</ele>
        <time>2021-05-22T10:34:41Z</time>
      </trkpt>
      <trkpt lat="43.34728" lon="6.36542">
        <ele>85</ele>
        <time>2021-05-22T10:34:44Z</time>
      </trkpt>
      <trkpt lat="43.34724" lon="6.36539">
        <ele>85.199996948242</ele>
        <time>2021-05-22T10:34:46Z</time>
      </trkpt>
      <trkpt lat="43.34722" lon="6.36537">
        <ele>85.199996948242</ele>
        <time>2021-05-22T10:34:47Z</time>
      </trkpt>
      <trkpt lat="43.34721" lon="6.36535">
        <ele>85.400001525879</ele>
        <time>2021-05-22T10:34:48Z</time>
      </trkpt>
      <trkpt lat="43.34718" lon="6.36532">
        <ele>85.599998474121</ele>
        <time>2021-05-22T10:34:50Z</time>
      </trkpt>
      <trkpt lat="43.34717" lon="6.3653">
        <ele>85.599998474121</ele>
        <time>2021-05-22T10:34:51Z</time>
      </trkpt>
      <trkpt lat="43.34715" lon="6.36528">
        <ele>85.800003051758</ele>
        <time>2021-05-22T10:34:52Z</time>
      </trkpt>
      <trkpt lat="43.34713" lon="6.36527">
        <ele>86</ele>
        <time>2021-05-22T10:34:53Z</time>
      </trkpt>
      <trkpt lat="43.34711" lon="6.36526">
        <ele>86</ele>
        <time>2021-05-22T10:34:54Z</time>
      </trkpt>
      <trkpt lat="43.34705" lon="6.36524">
        <ele>86.400001525879</ele>
        <time>2021-05-22T10:34:57Z</time>
      </trkpt>
      <trkpt lat="43.34695" lon="6.36519">
        <ele>87.199996948242</ele>
        <time>2021-05-22T10:35:02Z</time>
      </trkpt>
      <trkpt lat="43.3469" lon="6.36516">
        <ele>87.599998474121</ele>
        <time>2021-05-22T10:35:05Z</time>
      </trkpt>
      <trkpt lat="43.34684" lon="6.36511">
        <ele>88.199996948242</ele>
        <time>2021-05-22T10:35:08Z</time>
      </trkpt>
      <trkpt lat="43.34673" lon="6.365">
        <ele>89.199996948242</ele>
        <time>2021-05-22T10:35:14Z</time>
      </trkpt>
      <trkpt lat="43.34671" lon="6.36498">
        <ele>89.199996948242</ele>
        <time>2021-05-22T10:35:15Z</time>
      </trkpt>
      <trkpt lat="43.34661" lon="6.36489">
        <ele>89.599998474121</ele>
        <time>2021-05-22T10:35:20Z</time>
      </trkpt>
      <trkpt lat="43.34646" lon="6.36481">
        <ele>89.800003051758</ele>
        <time>2021-05-22T10:35:25Z</time>
      </trkpt>
      <trkpt lat="43.3464" lon="6.36476">
        <ele>89.800003051758</ele>
        <time>2021-05-22T10:35:27Z</time>
      </trkpt>
      <trkpt lat="43.3463" lon="6.36466">
        <ele>89.800003051758</ele>
        <time>2021-05-22T10:35:30Z</time>
      </trkpt>
      <trkpt lat="43.34616" lon="6.36447">
        <ele>89.800003051758</ele>
        <time>2021-05-22T10:35:35Z</time>
      </trkpt>
      <trkpt lat="43.3461" lon="6.36438">
        <ele>90</ele>
        <time>2021-05-22T10:35:37Z</time>
      </trkpt>
      <trkpt lat="43.34607" lon="6.36434">
        <ele>90</ele>
        <time>2021-05-22T10:35:38Z</time>
      </trkpt>
      <trkpt lat="43.34603" lon="6.3643">
        <ele>90</ele>
        <time>2021-05-22T10:35:39Z</time>
      </trkpt>
      <trkpt lat="43.34599" lon="6.36425">
        <ele>90</ele>
        <time>2021-05-22T10:35:40Z</time>
      </trkpt>
      <trkpt lat="43.34592" lon="6.36416">
        <ele>89.800003051758</ele>
        <time>2021-05-22T10:35:42Z</time>
      </trkpt>
      <trkpt lat="43.34588" lon="6.36408">
        <ele>89.800003051758</ele>
        <time>2021-05-22T10:35:44Z</time>
      </trkpt>
      <trkpt lat="43.34577" lon="6.36396">
        <ele>89.400001525879</ele>
        <time>2021-05-22T10:35:47Z</time>
      </trkpt>
      <trkpt lat="43.34575" lon="6.36393">
        <ele>89.400001525879</ele>
        <time>2021-05-22T10:35:48Z</time>
      </trkpt>
      <trkpt lat="43.3457" lon="6.36373">
        <ele>89.400001525879</ele>
        <time>2021-05-22T10:35:52Z</time>
      </trkpt>
      <trkpt lat="43.34566" lon="6.36339">
        <ele>90</ele>
        <time>2021-05-22T10:35:59Z</time>
      </trkpt>
      <trkpt lat="43.34564" lon="6.36332">
        <ele>90.199996948242</ele>
        <time>2021-05-22T10:36:01Z</time>
      </trkpt>
      <trkpt lat="43.34561" lon="6.36328">
        <ele>90.199996948242</ele>
        <time>2021-05-22T10:36:02Z</time>
      </trkpt>
      <trkpt lat="43.34558" lon="6.36324">
        <ele>90.400001525879</ele>
        <time>2021-05-22T10:36:03Z</time>
      </trkpt>
      <trkpt lat="43.34541" lon="6.36305">
        <ele>90.599998474121</ele>
        <time>2021-05-22T10:36:09Z</time>
      </trkpt>
      <trkpt lat="43.34529" lon="6.36302">
        <ele>90.599998474121</ele>
        <time>2021-05-22T10:36:12Z</time>
      </trkpt>
      <trkpt lat="43.34514" lon="6.36302">
        <ele>89.800003051758</ele>
        <time>2021-05-22T10:36:15Z</time>
      </trkpt>
      <trkpt lat="43.34505" lon="6.36303">
        <ele>89.599998474121</ele>
        <time>2021-05-22T10:36:17Z</time>
      </trkpt>
      <trkpt lat="43.34496" lon="6.36305">
        <ele>89.199996948242</ele>
        <time>2021-05-22T10:36:19Z</time>
      </trkpt>
      <trkpt lat="43.34492" lon="6.36307">
        <ele>89.199996948242</ele>
        <time>2021-05-22T10:36:20Z</time>
      </trkpt>
      <trkpt lat="43.34474" lon="6.36312">
        <ele>88.800003051758</ele>
        <time>2021-05-22T10:36:25Z</time>
      </trkpt>
      <trkpt lat="43.34456" lon="6.36319">
        <ele>88.199996948242</ele>
        <time>2021-05-22T10:36:30Z</time>
      </trkpt>
      <trkpt lat="43.3445" lon="6.36324">
        <ele>88.199996948242</ele>
        <time>2021-05-22T10:36:32Z</time>
      </trkpt>
      <trkpt lat="43.34447" lon="6.36325">
        <ele>88</ele>
        <time>2021-05-22T10:36:33Z</time>
      </trkpt>
      <trkpt lat="43.3444" lon="6.36325">
        <ele>87.800003051758</ele>
        <time>2021-05-22T10:36:35Z</time>
      </trkpt>
      <trkpt lat="43.34433" lon="6.36321">
        <ele>87.599998474121</ele>
        <time>2021-05-22T10:36:38Z</time>
      </trkpt>
      <trkpt lat="43.34431" lon="6.36318">
        <ele>87.599998474121</ele>
        <time>2021-05-22T10:36:39Z</time>
      </trkpt>
      <trkpt lat="43.34427" lon="6.36304">
        <ele>87.599998474121</ele>
        <time>2021-05-22T10:36:44Z</time>
      </trkpt>
      <trkpt lat="43.34426" lon="6.36302">
        <ele>87.599998474121</ele>
        <time>2021-05-22T10:36:45Z</time>
      </trkpt>
      <trkpt lat="43.34426" lon="6.36299">
        <ele>87.400001525879</ele>
        <time>2021-05-22T10:36:46Z</time>
      </trkpt>
      <trkpt lat="43.34425" lon="6.36296">
        <ele>87.400001525879</ele>
        <time>2021-05-22T10:36:47Z</time>
      </trkpt>
      <trkpt lat="43.34424" lon="6.36294">
        <ele>87.400001525879</ele>
        <time>2021-05-22T10:36:48Z</time>
      </trkpt>
      <trkpt lat="43.34421" lon="6.36287">
        <ele>87.599998474121</ele>
        <time>2021-05-22T10:36:51Z</time>
      </trkpt>
      <trkpt lat="43.34412" lon="6.36276">
        <ele>87.599998474121</ele>
        <time>2021-05-22T10:36:56Z</time>
      </trkpt>
      <trkpt lat="43.34408" lon="6.36272">
        <ele>87.800003051758</ele>
        <time>2021-05-22T10:36:58Z</time>
      </trkpt>
      <trkpt lat="43.34403" lon="6.36259">
        <ele>88</ele>
        <time>2021-05-22T10:37:02Z</time>
      </trkpt>
      <trkpt lat="43.34402" lon="6.36256">
        <ele>88</ele>
        <time>2021-05-22T10:37:03Z</time>
      </trkpt>
      <trkpt lat="43.34397" lon="6.36232">
        <ele>88.400001525879</ele>
        <time>2021-05-22T10:37:09Z</time>
      </trkpt>
      <trkpt lat="43.34394" lon="6.36219">
        <ele>88.800003051758</ele>
        <time>2021-05-22T10:37:12Z</time>
      </trkpt>
      <trkpt lat="43.34393" lon="6.36215">
        <ele>88.800003051758</ele>
        <time>2021-05-22T10:37:13Z</time>
      </trkpt>
      <trkpt lat="43.34393" lon="6.36211">
        <ele>89</ele>
        <time>2021-05-22T10:37:14Z</time>
      </trkpt>
      <trkpt lat="43.34393" lon="6.36202">
        <ele>89.599998474121</ele>
        <time>2021-05-22T10:37:16Z</time>
      </trkpt>
      <trkpt lat="43.34392" lon="6.36194">
        <ele>90.199996948242</ele>
        <time>2021-05-22T10:37:18Z</time>
      </trkpt>
      <trkpt lat="43.34393" lon="6.36184">
        <ele>91.199996948242</ele>
        <time>2021-05-22T10:37:21Z</time>
      </trkpt>
      <trkpt lat="43.34392" lon="6.3617">
        <ele>91.199996948242</ele>
        <time>2021-05-22T10:37:24Z</time>
      </trkpt>
      <trkpt lat="43.3439" lon="6.36158">
        <ele>91.400001525879</ele>
        <time>2021-05-22T10:37:27Z</time>
      </trkpt>
      <trkpt lat="43.3439" lon="6.36154">
        <ele>91.599998474121</ele>
        <time>2021-05-22T10:37:28Z</time>
      </trkpt>
      <trkpt lat="43.34389" lon="6.36145">
        <ele>91.599998474121</ele>
        <time>2021-05-22T10:37:30Z</time>
      </trkpt>
      <trkpt lat="43.34388" lon="6.3614">
        <ele>91.599998474121</ele>
        <time>2021-05-22T10:37:31Z</time>
      </trkpt>
      <trkpt lat="43.34388" lon="6.36135">
        <ele>91.599998474121</ele>
        <time>2021-05-22T10:37:32Z</time>
      </trkpt>
      <trkpt lat="43.34387" lon="6.36128">
        <ele>91.800003051758</ele>
        <time>2021-05-22T10:37:34Z</time>
      </trkpt>
      <trkpt lat="43.34387" lon="6.36118">
        <ele>92.199996948242</ele>
        <time>2021-05-22T10:37:36Z</time>
      </trkpt>
      <trkpt lat="43.34386" lon="6.36115">
        <ele>92.400001525879</ele>
        <time>2021-05-22T10:37:37Z</time>
      </trkpt>
      <trkpt lat="43.34385" lon="6.36106">
        <ele>92.400001525879</ele>
        <time>2021-05-22T10:37:39Z</time>
      </trkpt>
      <trkpt lat="43.34384" lon="6.36099">
        <ele>92.400001525879</ele>
        <time>2021-05-22T10:37:41Z</time>
      </trkpt>
      <trkpt lat="43.34377" lon="6.3605">
        <ele>92.599998474121</ele>
        <time>2021-05-22T10:37:52Z</time>
      </trkpt>
      <trkpt lat="43.34375" lon="6.36043">
        <ele>93</ele>
        <time>2021-05-22T10:37:54Z</time>
      </trkpt>
      <trkpt lat="43.34374" lon="6.36033">
        <ele>93</ele>
        <time>2021-05-22T10:37:56Z</time>
      </trkpt>
      <trkpt lat="43.34369" lon="6.36011">
        <ele>93.199996948242</ele>
        <time>2021-05-22T10:38:01Z</time>
      </trkpt>
      <trkpt lat="43.34362" lon="6.35982">
        <ele>93.400001525879</ele>
        <time>2021-05-22T10:38:08Z</time>
      </trkpt>
      <trkpt lat="43.34359" lon="6.35966">
        <ele>93.599998474121</ele>
        <time>2021-05-22T10:38:12Z</time>
      </trkpt>
      <trkpt lat="43.34351" lon="6.35954">
        <ele>94.199996948242</ele>
        <time>2021-05-22T10:38:16Z</time>
      </trkpt>
      <trkpt lat="43.34349" lon="6.35953">
        <ele>94.199996948242</ele>
        <time>2021-05-22T10:38:17Z</time>
      </trkpt>
      <trkpt lat="43.34338" lon="6.35952">
        <ele>94.199996948242</ele>
        <time>2021-05-22T10:38:22Z</time>
      </trkpt>
      <trkpt lat="43.34326" lon="6.35964">
        <ele>94.199996948242</ele>
        <time>2021-05-22T10:38:28Z</time>
      </trkpt>
      <trkpt lat="43.34315" lon="6.35972">
        <ele>94</ele>
        <time>2021-05-22T10:38:34Z</time>
      </trkpt>
      <trkpt lat="43.34301" lon="6.35984">
        <ele>93.800003051758</ele>
        <time>2021-05-22T10:38:38Z</time>
      </trkpt>
      <trkpt lat="43.34286" lon="6.35992">
        <ele>93.800003051758</ele>
        <time>2021-05-22T10:38:43Z</time>
      </trkpt>
      <trkpt lat="43.34284" lon="6.35991">
        <ele>93.800003051758</ele>
        <time>2021-05-22T10:38:44Z</time>
      </trkpt>
      <trkpt lat="43.34283" lon="6.35989">
        <ele>93.800003051758</ele>
        <time>2021-05-22T10:38:45Z</time>
      </trkpt>
      <trkpt lat="43.34282" lon="6.35986">
        <ele>93.800003051758</ele>
        <time>2021-05-22T10:38:46Z</time>
      </trkpt>
      <trkpt lat="43.34281" lon="6.35977">
        <ele>93.800003051758</ele>
        <time>2021-05-22T10:38:48Z</time>
      </trkpt>
      <trkpt lat="43.34277" lon="6.3595">
        <ele>93.800003051758</ele>
        <time>2021-05-22T10:38:54Z</time>
      </trkpt>
      <trkpt lat="43.34275" lon="6.35945">
        <ele>93.599998474121</ele>
        <time>2021-05-22T10:38:55Z</time>
      </trkpt>
      <trkpt lat="43.34271" lon="6.35936">
        <ele>93.599998474121</ele>
        <time>2021-05-22T10:38:57Z</time>
      </trkpt>
      <trkpt lat="43.34266" lon="6.35922">
        <ele>93.800003051758</ele>
        <time>2021-05-22T10:39:00Z</time>
      </trkpt>
      <trkpt lat="43.34255" lon="6.3589">
        <ele>94.199996948242</ele>
        <time>2021-05-22T10:39:08Z</time>
      </trkpt>
      <trkpt lat="43.34252" lon="6.35869">
        <ele>94.199996948242</ele>
        <time>2021-05-22T10:39:13Z</time>
      </trkpt>
      <trkpt lat="43.34251" lon="6.35864">
        <ele>94.199996948242</ele>
        <time>2021-05-22T10:39:14Z</time>
      </trkpt>
      <trkpt lat="43.34248" lon="6.35836">
        <ele>94.599998474121</ele>
        <time>2021-05-22T10:39:19Z</time>
      </trkpt>
      <trkpt lat="43.34248" lon="6.3583">
        <ele>94.800003051758</ele>
        <time>2021-05-22T10:39:20Z</time>
      </trkpt>
      <trkpt lat="43.3425" lon="6.35801">
        <ele>95</ele>
        <time>2021-05-22T10:39:25Z</time>
      </trkpt>
      <trkpt lat="43.3425" lon="6.35796">
        <ele>95</ele>
        <time>2021-05-22T10:39:26Z</time>
      </trkpt>
      <trkpt lat="43.34249" lon="6.35785">
        <ele>95</ele>
        <time>2021-05-22T10:39:28Z</time>
      </trkpt>
      <trkpt lat="43.34242" lon="6.35764">
        <ele>94.599998474121</ele>
        <time>2021-05-22T10:39:32Z</time>
      </trkpt>
      <trkpt lat="43.34236" lon="6.35742">
        <ele>95</ele>
        <time>2021-05-22T10:39:37Z</time>
      </trkpt>
      <trkpt lat="43.34234" lon="6.35718">
        <ele>95.400001525879</ele>
        <time>2021-05-22T10:39:42Z</time>
      </trkpt>
      <trkpt lat="43.34233" lon="6.35691">
        <ele>95.800003051758</ele>
        <time>2021-05-22T10:39:48Z</time>
      </trkpt>
      <trkpt lat="43.34233" lon="6.35686">
        <ele>96</ele>
        <time>2021-05-22T10:39:49Z</time>
      </trkpt>
      <trkpt lat="43.3423" lon="6.35651">
        <ele>96.599998474121</ele>
        <time>2021-05-22T10:39:56Z</time>
      </trkpt>
      <trkpt lat="43.3422" lon="6.35611">
        <ele>96.400001525879</ele>
        <time>2021-05-22T10:40:04Z</time>
      </trkpt>
      <trkpt lat="43.34204" lon="6.35583">
        <ele>96</ele>
        <time>2021-05-22T10:40:11Z</time>
      </trkpt>
      <trkpt lat="43.34191" lon="6.35583">
        <ele>96</ele>
        <time>2021-05-22T10:40:15Z</time>
      </trkpt>
      <trkpt lat="43.34183" lon="6.35584">
        <ele>96</ele>
        <time>2021-05-22T10:40:17Z</time>
      </trkpt>
      <trkpt lat="43.34178" lon="6.35581">
        <ele>96</ele>
        <time>2021-05-22T10:40:19Z</time>
      </trkpt>
      <trkpt lat="43.34176" lon="6.35577">
        <ele>96</ele>
        <time>2021-05-22T10:40:20Z</time>
      </trkpt>
      <trkpt lat="43.34172" lon="6.35563">
        <ele>96</ele>
        <time>2021-05-22T10:40:23Z</time>
      </trkpt>
      <trkpt lat="43.3417" lon="6.35553">
        <ele>96</ele>
        <time>2021-05-22T10:40:25Z</time>
      </trkpt>
      <trkpt lat="43.34165" lon="6.35531">
        <ele>96.800003051758</ele>
        <time>2021-05-22T10:40:30Z</time>
      </trkpt>
      <trkpt lat="43.34164" lon="6.3552">
        <ele>97.599998474121</ele>
        <time>2021-05-22T10:40:33Z</time>
      </trkpt>
      <trkpt lat="43.34165" lon="6.35515">
        <ele>97.599998474121</ele>
        <time>2021-05-22T10:40:34Z</time>
      </trkpt>
      <trkpt lat="43.34165" lon="6.3551">
        <ele>97.800003051758</ele>
        <time>2021-05-22T10:40:35Z</time>
      </trkpt>
      <trkpt lat="43.34164" lon="6.35505">
        <ele>98</ele>
        <time>2021-05-22T10:40:36Z</time>
      </trkpt>
      <trkpt lat="43.34163" lon="6.35494">
        <ele>98</ele>
        <time>2021-05-22T10:40:38Z</time>
      </trkpt>
      <trkpt lat="43.34163" lon="6.35489">
        <ele>98</ele>
        <time>2021-05-22T10:40:39Z</time>
      </trkpt>
      <trkpt lat="43.34164" lon="6.35484">
        <ele>97.800003051758</ele>
        <time>2021-05-22T10:40:40Z</time>
      </trkpt>
      <trkpt lat="43.34171" lon="6.35463">
        <ele>97.800003051758</ele>
        <time>2021-05-22T10:40:44Z</time>
      </trkpt>
      <trkpt lat="43.34176" lon="6.35453">
        <ele>97.800003051758</ele>
        <time>2021-05-22T10:40:46Z</time>
      </trkpt>
      <trkpt lat="43.34184" lon="6.35431">
        <ele>97.800003051758</ele>
        <time>2021-05-22T10:40:51Z</time>
      </trkpt>
      <trkpt lat="43.34184" lon="6.35426">
        <ele>97.800003051758</ele>
        <time>2021-05-22T10:40:52Z</time>
      </trkpt>
      <trkpt lat="43.34183" lon="6.35421">
        <ele>98</ele>
        <time>2021-05-22T10:40:53Z</time>
      </trkpt>
      <trkpt lat="43.34181" lon="6.35411">
        <ele>98.199996948242</ele>
        <time>2021-05-22T10:40:55Z</time>
      </trkpt>
      <trkpt lat="43.3418" lon="6.35405">
        <ele>98.199996948242</ele>
        <time>2021-05-22T10:40:56Z</time>
      </trkpt>
      <trkpt lat="43.34174" lon="6.35371">
        <ele>98.400001525879</ele>
        <time>2021-05-22T10:41:02Z</time>
      </trkpt>
      <trkpt lat="43.34173" lon="6.35365">
        <ele>98.599998474121</ele>
        <time>2021-05-22T10:41:03Z</time>
      </trkpt>
      <trkpt lat="43.34172" lon="6.35354">
        <ele>98.800003051758</ele>
        <time>2021-05-22T10:41:05Z</time>
      </trkpt>
      <trkpt lat="43.3417" lon="6.35343">
        <ele>99</ele>
        <time>2021-05-22T10:41:07Z</time>
      </trkpt>
      <trkpt lat="43.34169" lon="6.35337">
        <ele>99.199996948242</ele>
        <time>2021-05-22T10:41:08Z</time>
      </trkpt>
      <trkpt lat="43.34167" lon="6.35331">
        <ele>99.199996948242</ele>
        <time>2021-05-22T10:41:09Z</time>
      </trkpt>
      <trkpt lat="43.34159" lon="6.35301">
        <ele>99.400001525879</ele>
        <time>2021-05-22T10:41:14Z</time>
      </trkpt>
      <trkpt lat="43.34156" lon="6.35289">
        <ele>99.400001525879</ele>
        <time>2021-05-22T10:41:16Z</time>
      </trkpt>
      <trkpt lat="43.34154" lon="6.35283">
        <ele>99.400001525879</ele>
        <time>2021-05-22T10:41:17Z</time>
      </trkpt>
      <trkpt lat="43.3415" lon="6.35264">
        <ele>99.599998474121</ele>
        <time>2021-05-22T10:41:20Z</time>
      </trkpt>
      <trkpt lat="43.34149" lon="6.3525">
        <ele>99.599998474121</ele>
        <time>2021-05-22T10:41:22Z</time>
      </trkpt>
      <trkpt lat="43.3415" lon="6.3523">
        <ele>99.400001525879</ele>
        <time>2021-05-22T10:41:25Z</time>
      </trkpt>
      <trkpt lat="43.3415" lon="6.35224">
        <ele>99.400001525879</ele>
        <time>2021-05-22T10:41:26Z</time>
      </trkpt>
      <trkpt lat="43.34148" lon="6.3521">
        <ele>99.400001525879</ele>
        <time>2021-05-22T10:41:28Z</time>
      </trkpt>
      <trkpt lat="43.34141" lon="6.35185">
        <ele>99.400001525879</ele>
        <time>2021-05-22T10:41:32Z</time>
      </trkpt>
      <trkpt lat="43.34141" lon="6.35172">
        <ele>99.400001525879</ele>
        <time>2021-05-22T10:41:34Z</time>
      </trkpt>
      <trkpt lat="43.34144" lon="6.3512">
        <ele>100</ele>
        <time>2021-05-22T10:41:41Z</time>
      </trkpt>
      <trkpt lat="43.34144" lon="6.35113">
        <ele>100</ele>
        <time>2021-05-22T10:41:42Z</time>
      </trkpt>
      <trkpt lat="43.34141" lon="6.35099">
        <ele>100</ele>
        <time>2021-05-22T10:41:44Z</time>
      </trkpt>
      <trkpt lat="43.34136" lon="6.35086">
        <ele>100</ele>
        <time>2021-05-22T10:41:46Z</time>
      </trkpt>
      <trkpt lat="43.34133" lon="6.3508">
        <ele>100.19999694824</ele>
        <time>2021-05-22T10:41:47Z</time>
      </trkpt>
      <trkpt lat="43.3413" lon="6.35075">
        <ele>100.19999694824</ele>
        <time>2021-05-22T10:41:48Z</time>
      </trkpt>
      <trkpt lat="43.34119" lon="6.35062">
        <ele>100</ele>
        <time>2021-05-22T10:41:51Z</time>
      </trkpt>
      <trkpt lat="43.34116" lon="6.35058">
        <ele>100</ele>
        <time>2021-05-22T10:41:52Z</time>
      </trkpt>
      <trkpt lat="43.34104" lon="6.35048">
        <ele>99.800003051758</ele>
        <time>2021-05-22T10:41:55Z</time>
      </trkpt>
      <trkpt lat="43.34092" lon="6.35038">
        <ele>99.599998474121</ele>
        <time>2021-05-22T10:41:58Z</time>
      </trkpt>
      <trkpt lat="43.34054" lon="6.35005">
        <ele>100.40000152588</ele>
        <time>2021-05-22T10:42:08Z</time>
      </trkpt>
      <trkpt lat="43.34039" lon="6.34985">
        <ele>100.59999847412</ele>
        <time>2021-05-22T10:42:12Z</time>
      </trkpt>
      <trkpt lat="43.3403" lon="6.34974">
        <ele>100.19999694824</ele>
        <time>2021-05-22T10:42:14Z</time>
      </trkpt>
      <trkpt lat="43.34011" lon="6.3494">
        <ele>99.400001525879</ele>
        <time>2021-05-22T10:42:20Z</time>
      </trkpt>
      <trkpt lat="43.34009" lon="6.34933">
        <ele>99.400001525879</ele>
        <time>2021-05-22T10:42:21Z</time>
      </trkpt>
      <trkpt lat="43.34005" lon="6.34921">
        <ele>99.599998474121</ele>
        <time>2021-05-22T10:42:23Z</time>
      </trkpt>
      <trkpt lat="43.34002" lon="6.34902">
        <ele>99.800003051758</ele>
        <time>2021-05-22T10:42:26Z</time>
      </trkpt>
      <trkpt lat="43.33992" lon="6.34859">
        <ele>100.59999847412</ele>
        <time>2021-05-22T10:42:33Z</time>
      </trkpt>
      <trkpt lat="43.33987" lon="6.3484">
        <ele>101</ele>
        <time>2021-05-22T10:42:36Z</time>
      </trkpt>
      <trkpt lat="43.3398" lon="6.34815">
        <ele>100.80000305176</ele>
        <time>2021-05-22T10:42:40Z</time>
      </trkpt>
      <trkpt lat="43.33975" lon="6.34803">
        <ele>100.80000305176</ele>
        <time>2021-05-22T10:42:42Z</time>
      </trkpt>
      <trkpt lat="43.33964" lon="6.34774">
        <ele>100.59999847412</ele>
        <time>2021-05-22T10:42:47Z</time>
      </trkpt>
      <trkpt lat="43.33959" lon="6.34763">
        <ele>101</ele>
        <time>2021-05-22T10:42:49Z</time>
      </trkpt>
      <trkpt lat="43.33953" lon="6.34748">
        <ele>101.80000305176</ele>
        <time>2021-05-22T10:42:52Z</time>
      </trkpt>
      <trkpt lat="43.33949" lon="6.34739">
        <ele>102.80000305176</ele>
        <time>2021-05-22T10:42:54Z</time>
      </trkpt>
      <trkpt lat="43.33947" lon="6.34734">
        <ele>103</ele>
        <time>2021-05-22T10:42:55Z</time>
      </trkpt>
      <trkpt lat="43.3394" lon="6.34722">
        <ele>103.59999847412</ele>
        <time>2021-05-22T10:42:58Z</time>
      </trkpt>
      <trkpt lat="43.33933" lon="6.3471">
        <ele>103.59999847412</ele>
        <time>2021-05-22T10:43:01Z</time>
      </trkpt>
      <trkpt lat="43.33924" lon="6.34698">
        <ele>103.59999847412</ele>
        <time>2021-05-22T10:43:04Z</time>
      </trkpt>
      <trkpt lat="43.33917" lon="6.34689">
        <ele>103.80000305176</ele>
        <time>2021-05-22T10:43:06Z</time>
      </trkpt>
      <trkpt lat="43.33913" lon="6.34686">
        <ele>103.80000305176</ele>
        <time>2021-05-22T10:43:07Z</time>
      </trkpt>
      <trkpt lat="43.33909" lon="6.34684">
        <ele>103.80000305176</ele>
        <time>2021-05-22T10:43:08Z</time>
      </trkpt>
      <trkpt lat="43.33901" lon="6.3468">
        <ele>103.59999847412</ele>
        <time>2021-05-22T10:43:10Z</time>
      </trkpt>
      <trkpt lat="43.33897" lon="6.34672">
        <ele>103.40000152588</ele>
        <time>2021-05-22T10:43:12Z</time>
      </trkpt>
      <trkpt lat="43.33897" lon="6.34668">
        <ele>103.19999694824</ele>
        <time>2021-05-22T10:43:13Z</time>
      </trkpt>
      <trkpt lat="43.33901" lon="6.34663">
        <ele>103</ele>
        <time>2021-05-22T10:43:15Z</time>
      </trkpt>
      <trkpt lat="43.3392" lon="6.3465">
        <ele>103.19999694824</ele>
        <time>2021-05-22T10:43:21Z</time>
      </trkpt>
      <trkpt lat="43.33931" lon="6.34635">
        <ele>103.59999847412</ele>
        <time>2021-05-22T10:43:26Z</time>
      </trkpt>
      <trkpt lat="43.33929" lon="6.34624">
        <ele>103.80000305176</ele>
        <time>2021-05-22T10:43:29Z</time>
      </trkpt>
      <trkpt lat="43.33928" lon="6.34614">
        <ele>103.80000305176</ele>
        <time>2021-05-22T10:43:31Z</time>
      </trkpt>
      <trkpt lat="43.33926" lon="6.34609">
        <ele>104</ele>
        <time>2021-05-22T10:43:32Z</time>
      </trkpt>
      <trkpt lat="43.33923" lon="6.34598">
        <ele>104</ele>
        <time>2021-05-22T10:43:34Z</time>
      </trkpt>
      <trkpt lat="43.3392" lon="6.34587">
        <ele>104</ele>
        <time>2021-05-22T10:43:36Z</time>
      </trkpt>
      <trkpt lat="43.33918" lon="6.34582">
        <ele>104</ele>
        <time>2021-05-22T10:43:37Z</time>
      </trkpt>
      <trkpt lat="43.33916" lon="6.34576">
        <ele>104.19999694824</ele>
        <time>2021-05-22T10:43:38Z</time>
      </trkpt>
      <trkpt lat="43.33905" lon="6.34559">
        <ele>104.80000305176</ele>
        <time>2021-05-22T10:43:42Z</time>
      </trkpt>
      <trkpt lat="43.3389" lon="6.34545">
        <ele>104.80000305176</ele>
        <time>2021-05-22T10:43:47Z</time>
      </trkpt>
      <trkpt lat="43.33885" lon="6.34536">
        <ele>104.80000305176</ele>
        <time>2021-05-22T10:43:49Z</time>
      </trkpt>
      <trkpt lat="43.33876" lon="6.3452">
        <ele>104.59999847412</ele>
        <time>2021-05-22T10:43:52Z</time>
      </trkpt>
      <trkpt lat="43.33864" lon="6.3449">
        <ele>104.19999694824</ele>
        <time>2021-05-22T10:43:57Z</time>
      </trkpt>
      <trkpt lat="43.33863" lon="6.34484">
        <ele>104</ele>
        <time>2021-05-22T10:43:58Z</time>
      </trkpt>
      <trkpt lat="43.33859" lon="6.34457">
        <ele>103.59999847412</ele>
        <time>2021-05-22T10:44:02Z</time>
      </trkpt>
      <trkpt lat="43.33855" lon="6.34446">
        <ele>103.40000152588</ele>
        <time>2021-05-22T10:44:04Z</time>
      </trkpt>
      <trkpt lat="43.33849" lon="6.34437">
        <ele>103.40000152588</ele>
        <time>2021-05-22T10:44:06Z</time>
      </trkpt>
      <trkpt lat="43.33846" lon="6.34432">
        <ele>103.40000152588</ele>
        <time>2021-05-22T10:44:07Z</time>
      </trkpt>
      <trkpt lat="43.33842" lon="6.34428">
        <ele>103.19999694824</ele>
        <time>2021-05-22T10:44:08Z</time>
      </trkpt>
      <trkpt lat="43.33836" lon="6.34421">
        <ele>103.40000152588</ele>
        <time>2021-05-22T10:44:10Z</time>
      </trkpt>
      <trkpt lat="43.3383" lon="6.34413">
        <ele>103.40000152588</ele>
        <time>2021-05-22T10:44:12Z</time>
      </trkpt>
      <trkpt lat="43.33815" lon="6.34395">
        <ele>104</ele>
        <time>2021-05-22T10:44:17Z</time>
      </trkpt>
      <trkpt lat="43.33802" lon="6.34372">
        <ele>104.59999847412</ele>
        <time>2021-05-22T10:44:22Z</time>
      </trkpt>
      <trkpt lat="43.338" lon="6.34367">
        <ele>104.80000305176</ele>
        <time>2021-05-22T10:44:23Z</time>
      </trkpt>
      <trkpt lat="43.33796" lon="6.3435">
        <ele>104.80000305176</ele>
        <time>2021-05-22T10:44:26Z</time>
      </trkpt>
      <trkpt lat="43.33791" lon="6.34334">
        <ele>104.80000305176</ele>
        <time>2021-05-22T10:44:29Z</time>
      </trkpt>
      <trkpt lat="43.33786" lon="6.34313">
        <ele>104.59999847412</ele>
        <time>2021-05-22T10:44:33Z</time>
      </trkpt>
      <trkpt lat="43.3378" lon="6.34285">
        <ele>104.19999694824</ele>
        <time>2021-05-22T10:44:38Z</time>
      </trkpt>
      <trkpt lat="43.33773" lon="6.34271">
        <ele>104</ele>
        <time>2021-05-22T10:44:41Z</time>
      </trkpt>
      <trkpt lat="43.33771" lon="6.34266">
        <ele>104</ele>
        <time>2021-05-22T10:44:42Z</time>
      </trkpt>
      <trkpt lat="43.33768" lon="6.34261">
        <ele>104</ele>
        <time>2021-05-22T10:44:43Z</time>
      </trkpt>
      <trkpt lat="43.33765" lon="6.34256">
        <ele>104</ele>
        <time>2021-05-22T10:44:44Z</time>
      </trkpt>
      <trkpt lat="43.33762" lon="6.34252">
        <ele>104</ele>
        <time>2021-05-22T10:44:45Z</time>
      </trkpt>
      <trkpt lat="43.33754" lon="6.34235">
        <ele>104</ele>
        <time>2021-05-22T10:44:48Z</time>
      </trkpt>
      <trkpt lat="43.33752" lon="6.3423">
        <ele>104</ele>
        <time>2021-05-22T10:44:49Z</time>
      </trkpt>
      <trkpt lat="43.33739" lon="6.34209">
        <ele>104</ele>
        <time>2021-05-22T10:44:53Z</time>
      </trkpt>
      <trkpt lat="43.33715" lon="6.34161">
        <ele>103.40000152588</ele>
        <time>2021-05-22T10:45:02Z</time>
      </trkpt>
      <trkpt lat="43.33711" lon="6.34156">
        <ele>103.40000152588</ele>
        <time>2021-05-22T10:45:03Z</time>
      </trkpt>
      <trkpt lat="43.33706" lon="6.34147">
        <ele>103.40000152588</ele>
        <time>2021-05-22T10:45:05Z</time>
      </trkpt>
      <trkpt lat="43.33699" lon="6.34135">
        <ele>103</ele>
        <time>2021-05-22T10:45:08Z</time>
      </trkpt>
      <trkpt lat="43.33696" lon="6.3413">
        <ele>103</ele>
        <time>2021-05-22T10:45:09Z</time>
      </trkpt>
      <trkpt lat="43.33676" lon="6.34106">
        <ele>102.59999847412</ele>
        <time>2021-05-22T10:45:15Z</time>
      </trkpt>
      <trkpt lat="43.33657" lon="6.34082">
        <ele>102.40000152588</ele>
        <time>2021-05-22T10:45:21Z</time>
      </trkpt>
      <trkpt lat="43.33654" lon="6.34077">
        <ele>102.40000152588</ele>
        <time>2021-05-22T10:45:22Z</time>
      </trkpt>
      <trkpt lat="43.33652" lon="6.34072">
        <ele>102.40000152588</ele>
        <time>2021-05-22T10:45:23Z</time>
      </trkpt>
      <trkpt lat="43.33646" lon="6.34055">
        <ele>102.40000152588</ele>
        <time>2021-05-22T10:45:26Z</time>
      </trkpt>
      <trkpt lat="43.33642" lon="6.34044">
        <ele>102.40000152588</ele>
        <time>2021-05-22T10:45:28Z</time>
      </trkpt>
      <trkpt lat="43.33641" lon="6.34039">
        <ele>103.19999694824</ele>
        <time>2021-05-22T10:45:29Z</time>
      </trkpt>
      <trkpt lat="43.33634" lon="6.34017">
        <ele>104</ele>
        <time>2021-05-22T10:45:33Z</time>
      </trkpt>
      <trkpt lat="43.33633" lon="6.34012">
        <ele>104.40000152588</ele>
        <time>2021-05-22T10:45:34Z</time>
      </trkpt>
      <trkpt lat="43.3363" lon="6.34001">
        <ele>104.80000305176</ele>
        <time>2021-05-22T10:45:36Z</time>
      </trkpt>
      <trkpt lat="43.33625" lon="6.33985">
        <ele>105.19999694824</ele>
        <time>2021-05-22T10:45:39Z</time>
      </trkpt>
      <trkpt lat="43.33622" lon="6.33975">
        <ele>105.40000152588</ele>
        <time>2021-05-22T10:45:41Z</time>
      </trkpt>
      <trkpt lat="43.3362" lon="6.33971">
        <ele>105.40000152588</ele>
        <time>2021-05-22T10:45:42Z</time>
      </trkpt>
      <trkpt lat="43.33616" lon="6.33962">
        <ele>106</ele>
        <time>2021-05-22T10:45:44Z</time>
      </trkpt>
      <trkpt lat="43.33611" lon="6.33953">
        <ele>106.19999694824</ele>
        <time>2021-05-22T10:45:46Z</time>
      </trkpt>
      <trkpt lat="43.33605" lon="6.33943">
        <ele>106.40000152588</ele>
        <time>2021-05-22T10:45:48Z</time>
      </trkpt>
      <trkpt lat="43.33599" lon="6.33933">
        <ele>106.80000305176</ele>
        <time>2021-05-22T10:45:50Z</time>
      </trkpt>
      <trkpt lat="43.33594" lon="6.33923">
        <ele>107</ele>
        <time>2021-05-22T10:45:52Z</time>
      </trkpt>
      <trkpt lat="43.33591" lon="6.33918">
        <ele>107</ele>
        <time>2021-05-22T10:45:53Z</time>
      </trkpt>
      <trkpt lat="43.33586" lon="6.33907">
        <ele>107.19999694824</ele>
        <time>2021-05-22T10:45:55Z</time>
      </trkpt>
      <trkpt lat="43.33584" lon="6.33902">
        <ele>107.19999694824</ele>
        <time>2021-05-22T10:45:56Z</time>
      </trkpt>
      <trkpt lat="43.33581" lon="6.33897">
        <ele>107.19999694824</ele>
        <time>2021-05-22T10:45:57Z</time>
      </trkpt>
      <trkpt lat="43.33576" lon="6.33887">
        <ele>107.19999694824</ele>
        <time>2021-05-22T10:45:59Z</time>
      </trkpt>
      <trkpt lat="43.33573" lon="6.33878">
        <ele>107.59999847412</ele>
        <time>2021-05-22T10:46:01Z</time>
      </trkpt>
      <trkpt lat="43.33559" lon="6.33847">
        <ele>108.59999847412</ele>
        <time>2021-05-22T10:46:07Z</time>
      </trkpt>
      <trkpt lat="43.33556" lon="6.33838">
        <ele>108.80000305176</ele>
        <time>2021-05-22T10:46:09Z</time>
      </trkpt>
      <trkpt lat="43.33553" lon="6.33832">
        <ele>109</ele>
        <time>2021-05-22T10:46:10Z</time>
      </trkpt>
      <trkpt lat="43.3355" lon="6.33817">
        <ele>109</ele>
        <time>2021-05-22T10:46:13Z</time>
      </trkpt>
      <trkpt lat="43.33548" lon="6.33812">
        <ele>109</ele>
        <time>2021-05-22T10:46:14Z</time>
      </trkpt>
      <trkpt lat="43.33543" lon="6.33797">
        <ele>109.40000152588</ele>
        <time>2021-05-22T10:46:17Z</time>
      </trkpt>
      <trkpt lat="43.33539" lon="6.33786">
        <ele>109.59999847412</ele>
        <time>2021-05-22T10:46:19Z</time>
      </trkpt>
      <trkpt lat="43.33537" lon="6.3378">
        <ele>109.59999847412</ele>
        <time>2021-05-22T10:46:20Z</time>
      </trkpt>
      <trkpt lat="43.33535" lon="6.33774">
        <ele>109.80000305176</ele>
        <time>2021-05-22T10:46:21Z</time>
      </trkpt>
      <trkpt lat="43.33534" lon="6.33769">
        <ele>109.80000305176</ele>
        <time>2021-05-22T10:46:22Z</time>
      </trkpt>
      <trkpt lat="43.33529" lon="6.33753">
        <ele>109.80000305176</ele>
        <time>2021-05-22T10:46:25Z</time>
      </trkpt>
      <trkpt lat="43.33524" lon="6.33737">
        <ele>109.80000305176</ele>
        <time>2021-05-22T10:46:28Z</time>
      </trkpt>
      <trkpt lat="43.33519" lon="6.33714">
        <ele>110</ele>
        <time>2021-05-22T10:46:32Z</time>
      </trkpt>
      <trkpt lat="43.33519" lon="6.33703">
        <ele>110.19999694824</ele>
        <time>2021-05-22T10:46:34Z</time>
      </trkpt>
      <trkpt lat="43.33519" lon="6.33698">
        <ele>110.19999694824</ele>
        <time>2021-05-22T10:46:35Z</time>
      </trkpt>
      <trkpt lat="43.3352" lon="6.33686">
        <ele>110.40000152588</ele>
        <time>2021-05-22T10:46:37Z</time>
      </trkpt>
      <trkpt lat="43.3352" lon="6.33675">
        <ele>110.40000152588</ele>
        <time>2021-05-22T10:46:39Z</time>
      </trkpt>
      <trkpt lat="43.3352" lon="6.33662">
        <ele>110.59999847412</ele>
        <time>2021-05-22T10:46:41Z</time>
      </trkpt>
      <trkpt lat="43.3352" lon="6.33649">
        <ele>110.59999847412</ele>
        <time>2021-05-22T10:46:43Z</time>
      </trkpt>
      <trkpt lat="43.33517" lon="6.33632">
        <ele>110.59999847412</ele>
        <time>2021-05-22T10:46:46Z</time>
      </trkpt>
      <trkpt lat="43.33517" lon="6.33626">
        <ele>110.59999847412</ele>
        <time>2021-05-22T10:46:47Z</time>
      </trkpt>
      <trkpt lat="43.33516" lon="6.33615">
        <ele>110.80000305176</ele>
        <time>2021-05-22T10:46:49Z</time>
      </trkpt>
      <trkpt lat="43.33513" lon="6.33591">
        <ele>111.19999694824</ele>
        <time>2021-05-22T10:46:53Z</time>
      </trkpt>
      <trkpt lat="43.33508" lon="6.33579">
        <ele>111.40000152588</ele>
        <time>2021-05-22T10:46:55Z</time>
      </trkpt>
      <trkpt lat="43.33507" lon="6.33573">
        <ele>111.40000152588</ele>
        <time>2021-05-22T10:46:56Z</time>
      </trkpt>
      <trkpt lat="43.33502" lon="6.33555">
        <ele>111.40000152588</ele>
        <time>2021-05-22T10:46:59Z</time>
      </trkpt>
      <trkpt lat="43.335" lon="6.33542">
        <ele>111.59999847412</ele>
        <time>2021-05-22T10:47:01Z</time>
      </trkpt>
      <trkpt lat="43.33495" lon="6.33512">
        <ele>111.80000305176</ele>
        <time>2021-05-22T10:47:06Z</time>
      </trkpt>
      <trkpt lat="43.33492" lon="6.33494">
        <ele>112.19999694824</ele>
        <time>2021-05-22T10:47:09Z</time>
      </trkpt>
      <trkpt lat="43.33492" lon="6.33488">
        <ele>112.19999694824</ele>
        <time>2021-05-22T10:47:10Z</time>
      </trkpt>
      <trkpt lat="43.33492" lon="6.33475">
        <ele>112.19999694824</ele>
        <time>2021-05-22T10:47:12Z</time>
      </trkpt>
      <trkpt lat="43.3349" lon="6.33457">
        <ele>112.40000152588</ele>
        <time>2021-05-22T10:47:15Z</time>
      </trkpt>
      <trkpt lat="43.33488" lon="6.33451">
        <ele>112.40000152588</ele>
        <time>2021-05-22T10:47:16Z</time>
      </trkpt>
      <trkpt lat="43.33487" lon="6.33444">
        <ele>112.40000152588</ele>
        <time>2021-05-22T10:47:17Z</time>
      </trkpt>
      <trkpt lat="43.33479" lon="6.33406">
        <ele>112.59999847412</ele>
        <time>2021-05-22T10:47:23Z</time>
      </trkpt>
      <trkpt lat="43.33477" lon="6.33394">
        <ele>112.80000305176</ele>
        <time>2021-05-22T10:47:25Z</time>
      </trkpt>
      <trkpt lat="43.33476" lon="6.33388">
        <ele>112.80000305176</ele>
        <time>2021-05-22T10:47:26Z</time>
      </trkpt>
      <trkpt lat="43.33475" lon="6.33382">
        <ele>112.80000305176</ele>
        <time>2021-05-22T10:47:27Z</time>
      </trkpt>
      <trkpt lat="43.33471" lon="6.33372">
        <ele>113</ele>
        <time>2021-05-22T10:47:29Z</time>
      </trkpt>
      <trkpt lat="43.33454" lon="6.33341">
        <ele>113</ele>
        <time>2021-05-22T10:47:35Z</time>
      </trkpt>
      <trkpt lat="43.33448" lon="6.33331">
        <ele>112.80000305176</ele>
        <time>2021-05-22T10:47:37Z</time>
      </trkpt>
      <trkpt lat="43.33438" lon="6.3331">
        <ele>112.80000305176</ele>
        <time>2021-05-22T10:47:41Z</time>
      </trkpt>
      <trkpt lat="43.33437" lon="6.33304">
        <ele>112.80000305176</ele>
        <time>2021-05-22T10:47:42Z</time>
      </trkpt>
      <trkpt lat="43.33434" lon="6.33293">
        <ele>112.80000305176</ele>
        <time>2021-05-22T10:47:44Z</time>
      </trkpt>
      <trkpt lat="43.3343" lon="6.33281">
        <ele>112.80000305176</ele>
        <time>2021-05-22T10:47:46Z</time>
      </trkpt>
      <trkpt lat="43.33427" lon="6.33269">
        <ele>113</ele>
        <time>2021-05-22T10:47:48Z</time>
      </trkpt>
      <trkpt lat="43.33422" lon="6.33246">
        <ele>113.19999694824</ele>
        <time>2021-05-22T10:47:52Z</time>
      </trkpt>
      <trkpt lat="43.33419" lon="6.33233">
        <ele>113.40000152588</ele>
        <time>2021-05-22T10:47:54Z</time>
      </trkpt>
      <trkpt lat="43.33418" lon="6.33223">
        <ele>113.40000152588</ele>
        <time>2021-05-22T10:47:56Z</time>
      </trkpt>
      <trkpt lat="43.33418" lon="6.33217">
        <ele>113.40000152588</ele>
        <time>2021-05-22T10:47:57Z</time>
      </trkpt>
      <trkpt lat="43.33417" lon="6.33211">
        <ele>113.40000152588</ele>
        <time>2021-05-22T10:47:58Z</time>
      </trkpt>
      <trkpt lat="43.33415" lon="6.33204">
        <ele>113.59999847412</ele>
        <time>2021-05-22T10:47:59Z</time>
      </trkpt>
      <trkpt lat="43.33413" lon="6.33189">
        <ele>113.59999847412</ele>
        <time>2021-05-22T10:48:01Z</time>
      </trkpt>
      <trkpt lat="43.33411" lon="6.33182">
        <ele>113.59999847412</ele>
        <time>2021-05-22T10:48:02Z</time>
      </trkpt>
      <trkpt lat="43.3341" lon="6.33173">
        <ele>113.59999847412</ele>
        <time>2021-05-22T10:48:03Z</time>
      </trkpt>
      <trkpt lat="43.33401" lon="6.3313">
        <ele>113.59999847412</ele>
        <time>2021-05-22T10:48:09Z</time>
      </trkpt>
      <trkpt lat="43.33401" lon="6.33118">
        <ele>113.59999847412</ele>
        <time>2021-05-22T10:48:11Z</time>
      </trkpt>
      <trkpt lat="43.334" lon="6.3309">
        <ele>113.59999847412</ele>
        <time>2021-05-22T10:48:14Z</time>
      </trkpt>
      <trkpt lat="43.33397" lon="6.33074">
        <ele>113.40000152588</ele>
        <time>2021-05-22T10:48:16Z</time>
      </trkpt>
      <trkpt lat="43.3339" lon="6.33049">
        <ele>113.19999694824</ele>
        <time>2021-05-22T10:48:20Z</time>
      </trkpt>
      <trkpt lat="43.33384" lon="6.3302">
        <ele>113.19999694824</ele>
        <time>2021-05-22T10:48:24Z</time>
      </trkpt>
      <trkpt lat="43.33384" lon="6.33005">
        <ele>113.19999694824</ele>
        <time>2021-05-22T10:48:26Z</time>
      </trkpt>
      <trkpt lat="43.33384" lon="6.32957">
        <ele>113.80000305176</ele>
        <time>2021-05-22T10:48:33Z</time>
      </trkpt>
      <trkpt lat="43.33383" lon="6.32951">
        <ele>113.80000305176</ele>
        <time>2021-05-22T10:48:34Z</time>
      </trkpt>
      <trkpt lat="43.33382" lon="6.32944">
        <ele>114</ele>
        <time>2021-05-22T10:48:35Z</time>
      </trkpt>
      <trkpt lat="43.33379" lon="6.32924">
        <ele>114.19999694824</ele>
        <time>2021-05-22T10:48:38Z</time>
      </trkpt>
      <trkpt lat="43.33373" lon="6.32906">
        <ele>114.59999847412</ele>
        <time>2021-05-22T10:48:41Z</time>
      </trkpt>
      <trkpt lat="43.3337" lon="6.32894">
        <ele>115</ele>
        <time>2021-05-22T10:48:43Z</time>
      </trkpt>
      <trkpt lat="43.3336" lon="6.32848">
        <ele>115.59999847412</ele>
        <time>2021-05-22T10:48:50Z</time>
      </trkpt>
      <trkpt lat="43.33357" lon="6.32829">
        <ele>116</ele>
        <time>2021-05-22T10:48:53Z</time>
      </trkpt>
      <trkpt lat="43.33357" lon="6.32829">
        <ele>116</ele>
        <time>2021-05-22T10:48:54Z</time>
      </trkpt>
      <trkpt lat="43.33355" lon="6.32812">
        <ele>116.19999694824</ele>
        <time>2021-05-22T10:48:56Z</time>
      </trkpt>
      <trkpt lat="43.33355" lon="6.32812">
        <ele>116.19999694824</ele>
        <time>2021-05-22T10:48:57Z</time>
      </trkpt>
      <trkpt lat="43.33348" lon="6.32774">
        <ele>116.59999847412</ele>
        <time>2021-05-22T10:49:04Z</time>
      </trkpt>
      <trkpt lat="43.33337" lon="6.32737">
        <ele>116.40000152588</ele>
        <time>2021-05-22T10:49:11Z</time>
      </trkpt>
      <trkpt lat="43.33335" lon="6.32732">
        <ele>116.40000152588</ele>
        <time>2021-05-22T10:49:12Z</time>
      </trkpt>
      <trkpt lat="43.33332" lon="6.32727">
        <ele>116.40000152588</ele>
        <time>2021-05-22T10:49:13Z</time>
      </trkpt>
      <trkpt lat="43.3333" lon="6.32722">
        <ele>116.19999694824</ele>
        <time>2021-05-22T10:49:14Z</time>
      </trkpt>
      <trkpt lat="43.33322" lon="6.327">
        <ele>116.40000152588</ele>
        <time>2021-05-22T10:49:18Z</time>
      </trkpt>
      <trkpt lat="43.33317" lon="6.32689">
        <ele>116.40000152588</ele>
        <time>2021-05-22T10:49:20Z</time>
      </trkpt>
      <trkpt lat="43.33307" lon="6.3266">
        <ele>116.59999847412</ele>
        <time>2021-05-22T10:49:25Z</time>
      </trkpt>
      <trkpt lat="43.33302" lon="6.32641">
        <ele>116.80000305176</ele>
        <time>2021-05-22T10:49:28Z</time>
      </trkpt>
      <trkpt lat="43.33298" lon="6.32622">
        <ele>116.80000305176</ele>
        <time>2021-05-22T10:49:31Z</time>
      </trkpt>
      <trkpt lat="43.33295" lon="6.32609">
        <ele>116.80000305176</ele>
        <time>2021-05-22T10:49:33Z</time>
      </trkpt>
      <trkpt lat="43.33294" lon="6.32603">
        <ele>117</ele>
        <time>2021-05-22T10:49:34Z</time>
      </trkpt>
      <trkpt lat="43.33292" lon="6.32597">
        <ele>117</ele>
        <time>2021-05-22T10:49:35Z</time>
      </trkpt>
      <trkpt lat="43.33292" lon="6.32597">
        <ele>117</ele>
        <time>2021-05-22T10:49:36Z</time>
      </trkpt>
      <trkpt lat="43.33275" lon="6.32542">
        <ele>117.19999694824</ele>
        <time>2021-05-22T10:49:44Z</time>
      </trkpt>
      <trkpt lat="43.33255" lon="6.32487">
        <ele>117.80000305176</ele>
        <time>2021-05-22T10:49:53Z</time>
      </trkpt>
      <trkpt lat="43.33254" lon="6.32475">
        <ele>117.80000305176</ele>
        <time>2021-05-22T10:49:55Z</time>
      </trkpt>
      <trkpt lat="43.33254" lon="6.32462">
        <ele>117.80000305176</ele>
        <time>2021-05-22T10:49:57Z</time>
      </trkpt>
      <trkpt lat="43.33253" lon="6.32456">
        <ele>117.80000305176</ele>
        <time>2021-05-22T10:49:58Z</time>
      </trkpt>
      <trkpt lat="43.33251" lon="6.32451">
        <ele>117.80000305176</ele>
        <time>2021-05-22T10:49:59Z</time>
      </trkpt>
      <trkpt lat="43.33236" lon="6.32424">
        <ele>118</ele>
        <time>2021-05-22T10:50:04Z</time>
      </trkpt>
      <trkpt lat="43.33233" lon="6.32418">
        <ele>118</ele>
        <time>2021-05-22T10:50:05Z</time>
      </trkpt>
      <trkpt lat="43.33227" lon="6.32406">
        <ele>118</ele>
        <time>2021-05-22T10:50:07Z</time>
      </trkpt>
      <trkpt lat="43.33222" lon="6.32395">
        <ele>118</ele>
        <time>2021-05-22T10:50:09Z</time>
      </trkpt>
      <trkpt lat="43.33216" lon="6.32382">
        <ele>118.19999694824</ele>
        <time>2021-05-22T10:50:12Z</time>
      </trkpt>
      <trkpt lat="43.33211" lon="6.32369">
        <ele>118.19999694824</ele>
        <time>2021-05-22T10:50:13Z</time>
      </trkpt>
      <trkpt lat="43.33209" lon="6.32363">
        <ele>118</ele>
        <time>2021-05-22T10:50:14Z</time>
      </trkpt>
      <trkpt lat="43.33202" lon="6.32344">
        <ele>118.19999694824</ele>
        <time>2021-05-22T10:50:17Z</time>
      </trkpt>
      <trkpt lat="43.33199" lon="6.32338">
        <ele>118.19999694824</ele>
        <time>2021-05-22T10:50:18Z</time>
      </trkpt>
      <trkpt lat="43.33197" lon="6.32332">
        <ele>118.19999694824</ele>
        <time>2021-05-22T10:50:19Z</time>
      </trkpt>
      <trkpt lat="43.33195" lon="6.32326">
        <ele>118.19999694824</ele>
        <time>2021-05-22T10:50:20Z</time>
      </trkpt>
      <trkpt lat="43.33193" lon="6.32319">
        <ele>118.19999694824</ele>
        <time>2021-05-22T10:50:21Z</time>
      </trkpt>
      <trkpt lat="43.33191" lon="6.32306">
        <ele>118.19999694824</ele>
        <time>2021-05-22T10:50:23Z</time>
      </trkpt>
      <trkpt lat="43.33182" lon="6.32244">
        <ele>118.59999847412</ele>
        <time>2021-05-22T10:50:32Z</time>
      </trkpt>
      <trkpt lat="43.33181" lon="6.32237">
        <ele>118.59999847412</ele>
        <time>2021-05-22T10:50:33Z</time>
      </trkpt>
      <trkpt lat="43.33177" lon="6.32208">
        <ele>118.59999847412</ele>
        <time>2021-05-22T10:50:37Z</time>
      </trkpt>
      <trkpt lat="43.33177" lon="6.32201">
        <ele>118.59999847412</ele>
        <time>2021-05-22T10:50:38Z</time>
      </trkpt>
      <trkpt lat="43.33176" lon="6.32194">
        <ele>118.59999847412</ele>
        <time>2021-05-22T10:50:39Z</time>
      </trkpt>
      <trkpt lat="43.33172" lon="6.32156">
        <ele>118.80000305176</ele>
        <time>2021-05-22T10:50:45Z</time>
      </trkpt>
      <trkpt lat="43.33171" lon="6.32144">
        <ele>119</ele>
        <time>2021-05-22T10:50:47Z</time>
      </trkpt>
      <trkpt lat="43.33168" lon="6.32122">
        <ele>119.40000152588</ele>
        <time>2021-05-22T10:50:51Z</time>
      </trkpt>
      <trkpt lat="43.33161" lon="6.32098">
        <ele>120</ele>
        <time>2021-05-22T10:50:55Z</time>
      </trkpt>
      <trkpt lat="43.33159" lon="6.32093">
        <ele>120.19999694824</ele>
        <time>2021-05-22T10:50:56Z</time>
      </trkpt>
      <trkpt lat="43.33157" lon="6.32088">
        <ele>120.40000152588</ele>
        <time>2021-05-22T10:50:57Z</time>
      </trkpt>
      <trkpt lat="43.33155" lon="6.32083">
        <ele>120.40000152588</ele>
        <time>2021-05-22T10:50:58Z</time>
      </trkpt>
      <trkpt lat="43.3315" lon="6.32073">
        <ele>120.40000152588</ele>
        <time>2021-05-22T10:51:00Z</time>
      </trkpt>
      <trkpt lat="43.33148" lon="6.32068">
        <ele>120.59999847412</ele>
        <time>2021-05-22T10:51:01Z</time>
      </trkpt>
      <trkpt lat="43.33145" lon="6.32064">
        <ele>120.59999847412</ele>
        <time>2021-05-22T10:51:02Z</time>
      </trkpt>
      <trkpt lat="43.33139" lon="6.32057">
        <ele>120.59999847412</ele>
        <time>2021-05-22T10:51:04Z</time>
      </trkpt>
      <trkpt lat="43.33135" lon="6.32054">
        <ele>120.59999847412</ele>
        <time>2021-05-22T10:51:05Z</time>
      </trkpt>
      <trkpt lat="43.33132" lon="6.32051">
        <ele>120.59999847412</ele>
        <time>2021-05-22T10:51:06Z</time>
      </trkpt>
      <trkpt lat="43.33129" lon="6.32047">
        <ele>120.59999847412</ele>
        <time>2021-05-22T10:51:07Z</time>
      </trkpt>
      <trkpt lat="43.33126" lon="6.32042">
        <ele>120.59999847412</ele>
        <time>2021-05-22T10:51:08Z</time>
      </trkpt>
      <trkpt lat="43.33124" lon="6.32037">
        <ele>120.59999847412</ele>
        <time>2021-05-22T10:51:09Z</time>
      </trkpt>
      <trkpt lat="43.33121" lon="6.32032">
        <ele>120.59999847412</ele>
        <time>2021-05-22T10:51:10Z</time>
      </trkpt>
      <trkpt lat="43.33115" lon="6.3201">
        <ele>121.19999694824</ele>
        <time>2021-05-22T10:51:15Z</time>
      </trkpt>
      <trkpt lat="43.33109" lon="6.31972">
        <ele>122.19999694824</ele>
        <time>2021-05-22T10:51:22Z</time>
      </trkpt>
      <trkpt lat="43.3311" lon="6.31962">
        <ele>122.19999694824</ele>
        <time>2021-05-22T10:51:24Z</time>
      </trkpt>
      <trkpt lat="43.33109" lon="6.31945">
        <ele>122.40000152588</ele>
        <time>2021-05-22T10:51:27Z</time>
      </trkpt>
      <trkpt lat="43.33109" lon="6.31939">
        <ele>122.40000152588</ele>
        <time>2021-05-22T10:51:28Z</time>
      </trkpt>
      <trkpt lat="43.331" lon="6.31917">
        <ele>123</ele>
        <time>2021-05-22T10:51:32Z</time>
      </trkpt>
      <trkpt lat="43.33095" lon="6.31905">
        <ele>123.40000152588</ele>
        <time>2021-05-22T10:51:34Z</time>
      </trkpt>
      <trkpt lat="43.33084" lon="6.31876">
        <ele>123.80000305176</ele>
        <time>2021-05-22T10:51:39Z</time>
      </trkpt>
      <trkpt lat="43.33074" lon="6.31835">
        <ele>124.19999694824</ele>
        <time>2021-05-22T10:51:46Z</time>
      </trkpt>
      <trkpt lat="43.33072" lon="6.31823">
        <ele>124.40000152588</ele>
        <time>2021-05-22T10:51:48Z</time>
      </trkpt>
      <trkpt lat="43.33068" lon="6.31813">
        <ele>124.59999847412</ele>
        <time>2021-05-22T10:51:50Z</time>
      </trkpt>
      <trkpt lat="43.33065" lon="6.31803">
        <ele>124.80000305176</ele>
        <time>2021-05-22T10:51:52Z</time>
      </trkpt>
      <trkpt lat="43.33063" lon="6.31799">
        <ele>124.80000305176</ele>
        <time>2021-05-22T10:51:53Z</time>
      </trkpt>
      <trkpt lat="43.33059" lon="6.3179">
        <ele>124.80000305176</ele>
        <time>2021-05-22T10:51:55Z</time>
      </trkpt>
      <trkpt lat="43.33055" lon="6.31781">
        <ele>125</ele>
        <time>2021-05-22T10:51:57Z</time>
      </trkpt>
      <trkpt lat="43.3305" lon="6.31769">
        <ele>125</ele>
        <time>2021-05-22T10:51:59Z</time>
      </trkpt>
      <trkpt lat="43.33046" lon="6.31756">
        <ele>125</ele>
        <time>2021-05-22T10:52:01Z</time>
      </trkpt>
      <trkpt lat="43.33044" lon="6.3175">
        <ele>125</ele>
        <time>2021-05-22T10:52:02Z</time>
      </trkpt>
      <trkpt lat="43.3304" lon="6.31738">
        <ele>125</ele>
        <time>2021-05-22T10:52:04Z</time>
      </trkpt>
      <trkpt lat="43.33032" lon="6.31711">
        <ele>125</ele>
        <time>2021-05-22T10:52:08Z</time>
      </trkpt>
      <trkpt lat="43.33025" lon="6.31691">
        <ele>125</ele>
        <time>2021-05-22T10:52:11Z</time>
      </trkpt>
      <trkpt lat="43.33023" lon="6.31684">
        <ele>125.19999694824</ele>
        <time>2021-05-22T10:52:12Z</time>
      </trkpt>
      <trkpt lat="43.33014" lon="6.31651">
        <ele>125.59999847412</ele>
        <time>2021-05-22T10:52:17Z</time>
      </trkpt>
      <trkpt lat="43.33012" lon="6.31644">
        <ele>125.59999847412</ele>
        <time>2021-05-22T10:52:18Z</time>
      </trkpt>
      <trkpt lat="43.3301" lon="6.31638">
        <ele>125.80000305176</ele>
        <time>2021-05-22T10:52:19Z</time>
      </trkpt>
      <trkpt lat="43.33009" lon="6.31632">
        <ele>125.80000305176</ele>
        <time>2021-05-22T10:52:20Z</time>
      </trkpt>
      <trkpt lat="43.33004" lon="6.31614">
        <ele>125.80000305176</ele>
        <time>2021-05-22T10:52:23Z</time>
      </trkpt>
      <trkpt lat="43.33003" lon="6.31608">
        <ele>125.80000305176</ele>
        <time>2021-05-22T10:52:24Z</time>
      </trkpt>
      <trkpt lat="43.33002" lon="6.31597">
        <ele>126</ele>
        <time>2021-05-22T10:52:26Z</time>
      </trkpt>
      <trkpt lat="43.33001" lon="6.31592">
        <ele>126</ele>
        <time>2021-05-22T10:52:27Z</time>
      </trkpt>
      <trkpt lat="43.33" lon="6.31587">
        <ele>126</ele>
        <time>2021-05-22T10:52:28Z</time>
      </trkpt>
      <trkpt lat="43.33" lon="6.31582">
        <ele>126</ele>
        <time>2021-05-22T10:52:29Z</time>
      </trkpt>
      <trkpt lat="43.32999" lon="6.31576">
        <ele>126</ele>
        <time>2021-05-22T10:52:30Z</time>
      </trkpt>
      <trkpt lat="43.32998" lon="6.31559">
        <ele>126</ele>
        <time>2021-05-22T10:52:33Z</time>
      </trkpt>
      <trkpt lat="43.32997" lon="6.31538">
        <ele>126.19999694824</ele>
        <time>2021-05-22T10:52:37Z</time>
      </trkpt>
      <trkpt lat="43.32997" lon="6.31516">
        <ele>126.40000152588</ele>
        <time>2021-05-22T10:52:41Z</time>
      </trkpt>
      <trkpt lat="43.32997" lon="6.315">
        <ele>126.80000305176</ele>
        <time>2021-05-22T10:52:44Z</time>
      </trkpt>
      <trkpt lat="43.32999" lon="6.31485">
        <ele>127</ele>
        <time>2021-05-22T10:52:47Z</time>
      </trkpt>
      <trkpt lat="43.33001" lon="6.31468">
        <ele>127.40000152588</ele>
        <time>2021-05-22T10:52:50Z</time>
      </trkpt>
      <trkpt lat="43.33005" lon="6.31452">
        <ele>127.80000305176</ele>
        <time>2021-05-22T10:52:53Z</time>
      </trkpt>
      <trkpt lat="43.33008" lon="6.31429">
        <ele>128.39999389648</ele>
        <time>2021-05-22T10:52:57Z</time>
      </trkpt>
      <trkpt lat="43.33008" lon="6.31416">
        <ele>128.39999389648</ele>
        <time>2021-05-22T10:52:59Z</time>
      </trkpt>
      <trkpt lat="43.33008" lon="6.31404">
        <ele>128.80000305176</ele>
        <time>2021-05-22T10:53:01Z</time>
      </trkpt>
      <trkpt lat="43.33008" lon="6.31398">
        <ele>129</ele>
        <time>2021-05-22T10:53:02Z</time>
      </trkpt>
      <trkpt lat="43.33009" lon="6.31393">
        <ele>129</ele>
        <time>2021-05-22T10:53:03Z</time>
      </trkpt>
      <trkpt lat="43.3301" lon="6.31387">
        <ele>129.19999694824</ele>
        <time>2021-05-22T10:53:04Z</time>
      </trkpt>
      <trkpt lat="43.33011" lon="6.3138">
        <ele>129.39999389648</ele>
        <time>2021-05-22T10:53:05Z</time>
      </trkpt>
      <trkpt lat="43.33012" lon="6.3136">
        <ele>129.60000610352</ele>
        <time>2021-05-22T10:53:08Z</time>
      </trkpt>
      <trkpt lat="43.33013" lon="6.31354">
        <ele>129.80000305176</ele>
        <time>2021-05-22T10:53:09Z</time>
      </trkpt>
      <trkpt lat="43.33016" lon="6.31342">
        <ele>130</ele>
        <time>2021-05-22T10:53:11Z</time>
      </trkpt>
      <trkpt lat="43.33018" lon="6.31336">
        <ele>130</ele>
        <time>2021-05-22T10:53:12Z</time>
      </trkpt>
      <trkpt lat="43.33029" lon="6.3129">
        <ele>130.80000305176</ele>
        <time>2021-05-22T10:53:20Z</time>
      </trkpt>
      <trkpt lat="43.33031" lon="6.31278">
        <ele>131</ele>
        <time>2021-05-22T10:53:22Z</time>
      </trkpt>
      <trkpt lat="43.33033" lon="6.31266">
        <ele>131</ele>
        <time>2021-05-22T10:53:24Z</time>
      </trkpt>
      <trkpt lat="43.33037" lon="6.31242">
        <ele>131.39999389648</ele>
        <time>2021-05-22T10:53:28Z</time>
      </trkpt>
      <trkpt lat="43.33039" lon="6.31223">
        <ele>131.60000610352</ele>
        <time>2021-05-22T10:53:31Z</time>
      </trkpt>
      <trkpt lat="43.33039" lon="6.31211">
        <ele>131.80000305176</ele>
        <time>2021-05-22T10:53:33Z</time>
      </trkpt>
      <trkpt lat="43.33038" lon="6.31204">
        <ele>131.80000305176</ele>
        <time>2021-05-22T10:53:34Z</time>
      </trkpt>
      <trkpt lat="43.33039" lon="6.31198">
        <ele>132</ele>
        <time>2021-05-22T10:53:35Z</time>
      </trkpt>
      <trkpt lat="43.33039" lon="6.31192">
        <ele>132</ele>
        <time>2021-05-22T10:53:36Z</time>
      </trkpt>
      <trkpt lat="43.33041" lon="6.3117">
        <ele>132.19999694824</ele>
        <time>2021-05-22T10:53:40Z</time>
      </trkpt>
      <trkpt lat="43.33041" lon="6.31164">
        <ele>132.39999389648</ele>
        <time>2021-05-22T10:53:41Z</time>
      </trkpt>
      <trkpt lat="43.33038" lon="6.31142">
        <ele>132.60000610352</ele>
        <time>2021-05-22T10:53:45Z</time>
      </trkpt>
      <trkpt lat="43.33038" lon="6.31108">
        <ele>133.19999694824</ele>
        <time>2021-05-22T10:53:51Z</time>
      </trkpt>
      <trkpt lat="43.33037" lon="6.3108">
        <ele>133.80000305176</ele>
        <time>2021-05-22T10:53:56Z</time>
      </trkpt>
      <trkpt lat="43.33036" lon="6.31074">
        <ele>133.80000305176</ele>
        <time>2021-05-22T10:53:57Z</time>
      </trkpt>
      <trkpt lat="43.33034" lon="6.31063">
        <ele>134</ele>
        <time>2021-05-22T10:53:59Z</time>
      </trkpt>
      <trkpt lat="43.33029" lon="6.31042">
        <ele>134.19999694824</ele>
        <time>2021-05-22T10:54:03Z</time>
      </trkpt>
      <trkpt lat="43.33028" lon="6.31037">
        <ele>134.19999694824</ele>
        <time>2021-05-22T10:54:04Z</time>
      </trkpt>
      <trkpt lat="43.33016" lon="6.31016">
        <ele>135</ele>
        <time>2021-05-22T10:54:09Z</time>
      </trkpt>
      <trkpt lat="43.33008" lon="6.31006">
        <ele>135.19999694824</ele>
        <time>2021-05-22T10:54:12Z</time>
      </trkpt>
      <trkpt lat="43.32997" lon="6.30993">
        <ele>135.60000610352</ele>
        <time>2021-05-22T10:54:16Z</time>
      </trkpt>
      <trkpt lat="43.32986" lon="6.30981">
        <ele>136.39999389648</ele>
        <time>2021-05-22T10:54:20Z</time>
      </trkpt>
      <trkpt lat="43.32982" lon="6.30974">
        <ele>136.80000305176</ele>
        <time>2021-05-22T10:54:22Z</time>
      </trkpt>
      <trkpt lat="43.32976" lon="6.30964">
        <ele>137.39999389648</ele>
        <time>2021-05-22T10:54:25Z</time>
      </trkpt>
      <trkpt lat="43.32974" lon="6.30961">
        <ele>137.39999389648</ele>
        <time>2021-05-22T10:54:26Z</time>
      </trkpt>
      <trkpt lat="43.32967" lon="6.30954">
        <ele>138</ele>
        <time>2021-05-22T10:54:29Z</time>
      </trkpt>
      <trkpt lat="43.32963" lon="6.30948">
        <ele>138</ele>
        <time>2021-05-22T10:54:31Z</time>
      </trkpt>
      <trkpt lat="43.3296" lon="6.30938">
        <ele>138.19999694824</ele>
        <time>2021-05-22T10:54:33Z</time>
      </trkpt>
      <trkpt lat="43.32955" lon="6.30902">
        <ele>137.80000305176</ele>
        <time>2021-05-22T10:54:38Z</time>
      </trkpt>
      <trkpt lat="43.32948" lon="6.30886">
        <ele>137.39999389648</ele>
        <time>2021-05-22T10:54:40Z</time>
      </trkpt>
      <trkpt lat="43.3294" lon="6.30871">
        <ele>136.80000305176</ele>
        <time>2021-05-22T10:54:42Z</time>
      </trkpt>
      <trkpt lat="43.32933" lon="6.30856">
        <ele>136.39999389648</ele>
        <time>2021-05-22T10:54:44Z</time>
      </trkpt>
      <trkpt lat="43.32923" lon="6.30836">
        <ele>136</ele>
        <time>2021-05-22T10:54:47Z</time>
      </trkpt>
      <trkpt lat="43.32908" lon="6.30812">
        <ele>135.80000305176</ele>
        <time>2021-05-22T10:54:52Z</time>
      </trkpt>
      <trkpt lat="43.32894" lon="6.3079">
        <ele>135.60000610352</ele>
        <time>2021-05-22T10:54:57Z</time>
      </trkpt>
      <trkpt lat="43.32883" lon="6.30771">
        <ele>135.60000610352</ele>
        <time>2021-05-22T10:55:01Z</time>
      </trkpt>
      <trkpt lat="43.32877" lon="6.30763">
        <ele>135.60000610352</ele>
        <time>2021-05-22T10:55:03Z</time>
      </trkpt>
      <trkpt lat="43.32866" lon="6.30745">
        <ele>136</ele>
        <time>2021-05-22T10:55:07Z</time>
      </trkpt>
      <trkpt lat="43.32863" lon="6.30741">
        <ele>136</ele>
        <time>2021-05-22T10:55:08Z</time>
      </trkpt>
      <trkpt lat="43.32852" lon="6.30721">
        <ele>136.19999694824</ele>
        <time>2021-05-22T10:55:12Z</time>
      </trkpt>
      <trkpt lat="43.32841" lon="6.30702">
        <ele>136.19999694824</ele>
        <time>2021-05-22T10:55:16Z</time>
      </trkpt>
      <trkpt lat="43.32835" lon="6.30692">
        <ele>136.39999389648</ele>
        <time>2021-05-22T10:55:18Z</time>
      </trkpt>
      <trkpt lat="43.32833" lon="6.30687">
        <ele>136.39999389648</ele>
        <time>2021-05-22T10:55:19Z</time>
      </trkpt>
      <trkpt lat="43.32816" lon="6.30659">
        <ele>137.19999694824</ele>
        <time>2021-05-22T10:55:25Z</time>
      </trkpt>
      <trkpt lat="43.32814" lon="6.30654">
        <ele>137.19999694824</ele>
        <time>2021-05-22T10:55:26Z</time>
      </trkpt>
      <trkpt lat="43.32809" lon="6.30646">
        <ele>137.39999389648</ele>
        <time>2021-05-22T10:55:28Z</time>
      </trkpt>
      <trkpt lat="43.32798" lon="6.3063">
        <ele>138</ele>
        <time>2021-05-22T10:55:32Z</time>
      </trkpt>
      <trkpt lat="43.32795" lon="6.30626">
        <ele>138</ele>
        <time>2021-05-22T10:55:33Z</time>
      </trkpt>
      <trkpt lat="43.32786" lon="6.30604">
        <ele>138.39999389648</ele>
        <time>2021-05-22T10:55:37Z</time>
      </trkpt>
      <trkpt lat="43.32783" lon="6.30599">
        <ele>138.39999389648</ele>
        <time>2021-05-22T10:55:38Z</time>
      </trkpt>
      <trkpt lat="43.32771" lon="6.30579">
        <ele>138.39999389648</ele>
        <time>2021-05-22T10:55:42Z</time>
      </trkpt>
      <trkpt lat="43.32762" lon="6.30566">
        <ele>138.19999694824</ele>
        <time>2021-05-22T10:55:45Z</time>
      </trkpt>
      <trkpt lat="43.32746" lon="6.30545">
        <ele>138.19999694824</ele>
        <time>2021-05-22T10:55:50Z</time>
      </trkpt>
      <trkpt lat="43.32736" lon="6.30533">
        <ele>138.39999389648</ele>
        <time>2021-05-22T10:55:53Z</time>
      </trkpt>
      <trkpt lat="43.32732" lon="6.3053">
        <ele>138.39999389648</ele>
        <time>2021-05-22T10:55:54Z</time>
      </trkpt>
      <trkpt lat="43.32728" lon="6.30527">
        <ele>138.39999389648</ele>
        <time>2021-05-22T10:55:55Z</time>
      </trkpt>
      <trkpt lat="43.32719" lon="6.30524">
        <ele>138.60000610352</ele>
        <time>2021-05-22T10:55:57Z</time>
      </trkpt>
      <trkpt lat="43.32711" lon="6.30523">
        <ele>138.60000610352</ele>
        <time>2021-05-22T10:55:59Z</time>
      </trkpt>
      <trkpt lat="43.32703" lon="6.3052">
        <ele>138.80000305176</ele>
        <time>2021-05-22T10:56:01Z</time>
      </trkpt>
      <trkpt lat="43.32698" lon="6.30513">
        <ele>138.80000305176</ele>
        <time>2021-05-22T10:56:03Z</time>
      </trkpt>
      <trkpt lat="43.32696" lon="6.30503">
        <ele>139.39999389648</ele>
        <time>2021-05-22T10:56:05Z</time>
      </trkpt>
      <trkpt lat="43.32695" lon="6.30492">
        <ele>139.60000610352</ele>
        <time>2021-05-22T10:56:07Z</time>
      </trkpt>
      <trkpt lat="43.32689" lon="6.30467">
        <ele>140.60000610352</ele>
        <time>2021-05-22T10:56:12Z</time>
      </trkpt>
      <trkpt lat="43.32679" lon="6.3045">
        <ele>140.80000305176</ele>
        <time>2021-05-22T10:56:16Z</time>
      </trkpt>
      <trkpt lat="43.32676" lon="6.30446">
        <ele>140.80000305176</ele>
        <time>2021-05-22T10:56:17Z</time>
      </trkpt>
      <trkpt lat="43.32674" lon="6.30442">
        <ele>140.80000305176</ele>
        <time>2021-05-22T10:56:18Z</time>
      </trkpt>
      <trkpt lat="43.32671" lon="6.30438">
        <ele>140.80000305176</ele>
        <time>2021-05-22T10:56:19Z</time>
      </trkpt>
      <trkpt lat="43.32665" lon="6.3043">
        <ele>140.80000305176</ele>
        <time>2021-05-22T10:56:21Z</time>
      </trkpt>
      <trkpt lat="43.32649" lon="6.30411">
        <ele>141.60000610352</ele>
        <time>2021-05-22T10:56:26Z</time>
      </trkpt>
      <trkpt lat="43.3264" lon="6.30398">
        <ele>141.80000305176</ele>
        <time>2021-05-22T10:56:29Z</time>
      </trkpt>
      <trkpt lat="43.3263" lon="6.30383">
        <ele>142</ele>
        <time>2021-05-22T10:56:33Z</time>
      </trkpt>
      <trkpt lat="43.32622" lon="6.30372">
        <ele>142.39999389648</ele>
        <time>2021-05-22T10:56:36Z</time>
      </trkpt>
      <trkpt lat="43.32614" lon="6.30362">
        <ele>142.80000305176</ele>
        <time>2021-05-22T10:56:39Z</time>
      </trkpt>
      <trkpt lat="43.32611" lon="6.30358">
        <ele>143</ele>
        <time>2021-05-22T10:56:40Z</time>
      </trkpt>
      <trkpt lat="43.32595" lon="6.30338">
        <ele>144</ele>
        <time>2021-05-22T10:56:46Z</time>
      </trkpt>
      <trkpt lat="43.32586" lon="6.30327">
        <ele>144.19999694824</ele>
        <time>2021-05-22T10:56:49Z</time>
      </trkpt>
      <trkpt lat="43.32573" lon="6.30314">
        <ele>144.80000305176</ele>
        <time>2021-05-22T10:56:53Z</time>
      </trkpt>
      <trkpt lat="43.32557" lon="6.30297">
        <ele>145</ele>
        <time>2021-05-22T10:56:58Z</time>
      </trkpt>
      <trkpt lat="43.32554" lon="6.30293">
        <ele>145</ele>
        <time>2021-05-22T10:56:59Z</time>
      </trkpt>
      <trkpt lat="43.32523" lon="6.30261">
        <ele>145.19999694824</ele>
        <time>2021-05-22T10:57:08Z</time>
      </trkpt>
      <trkpt lat="43.32505" lon="6.30244">
        <ele>146</ele>
        <time>2021-05-22T10:57:13Z</time>
      </trkpt>
      <trkpt lat="43.32496" lon="6.30234">
        <ele>146.19999694824</ele>
        <time>2021-05-22T10:57:16Z</time>
      </trkpt>
      <trkpt lat="43.32481" lon="6.30217">
        <ele>146.39999389648</ele>
        <time>2021-05-22T10:57:21Z</time>
      </trkpt>
      <trkpt lat="43.32478" lon="6.30214">
        <ele>146.39999389648</ele>
        <time>2021-05-22T10:57:22Z</time>
      </trkpt>
      <trkpt lat="43.32465" lon="6.30203">
        <ele>147.19999694824</ele>
        <time>2021-05-22T10:57:26Z</time>
      </trkpt>
      <trkpt lat="43.32457" lon="6.30195">
        <ele>147.60000610352</ele>
        <time>2021-05-22T10:57:29Z</time>
      </trkpt>
      <trkpt lat="43.32452" lon="6.30189">
        <ele>148.19999694824</ele>
        <time>2021-05-22T10:57:31Z</time>
      </trkpt>
      <trkpt lat="43.32446" lon="6.30184">
        <ele>148.60000610352</ele>
        <time>2021-05-22T10:57:33Z</time>
      </trkpt>
      <trkpt lat="43.32441" lon="6.30179">
        <ele>149.19999694824</ele>
        <time>2021-05-22T10:57:35Z</time>
      </trkpt>
      <trkpt lat="43.32438" lon="6.30176">
        <ele>149.19999694824</ele>
        <time>2021-05-22T10:57:36Z</time>
      </trkpt>
      <trkpt lat="43.32433" lon="6.30171">
        <ele>149.60000610352</ele>
        <time>2021-05-22T10:57:38Z</time>
      </trkpt>
      <trkpt lat="43.32419" lon="6.30159">
        <ele>150.19999694824</ele>
        <time>2021-05-22T10:57:43Z</time>
      </trkpt>
      <trkpt lat="43.32416" lon="6.30156">
        <ele>150.39999389648</ele>
        <time>2021-05-22T10:57:44Z</time>
      </trkpt>
      <trkpt lat="43.32413" lon="6.30154">
        <ele>150.39999389648</ele>
        <time>2021-05-22T10:57:45Z</time>
      </trkpt>
      <trkpt lat="43.32407" lon="6.30149">
        <ele>150.60000610352</ele>
        <time>2021-05-22T10:57:47Z</time>
      </trkpt>
      <trkpt lat="43.32404" lon="6.30146">
        <ele>150.80000305176</ele>
        <time>2021-05-22T10:57:48Z</time>
      </trkpt>
      <trkpt lat="43.32402" lon="6.30144">
        <ele>151</ele>
        <time>2021-05-22T10:57:49Z</time>
      </trkpt>
      <trkpt lat="43.32393" lon="6.30136">
        <ele>151.39999389648</ele>
        <time>2021-05-22T10:57:52Z</time>
      </trkpt>
      <trkpt lat="43.32379" lon="6.30124">
        <ele>151.80000305176</ele>
        <time>2021-05-22T10:57:57Z</time>
      </trkpt>
      <trkpt lat="43.32362" lon="6.30108">
        <ele>152.19999694824</ele>
        <time>2021-05-22T10:58:03Z</time>
      </trkpt>
      <trkpt lat="43.32357" lon="6.30103">
        <ele>152.19999694824</ele>
        <time>2021-05-22T10:58:05Z</time>
      </trkpt>
      <trkpt lat="43.32352" lon="6.30098">
        <ele>152.39999389648</ele>
        <time>2021-05-22T10:58:07Z</time>
      </trkpt>
      <trkpt lat="43.32344" lon="6.30091">
        <ele>152.39999389648</ele>
        <time>2021-05-22T10:58:10Z</time>
      </trkpt>
      <trkpt lat="43.32336" lon="6.30084">
        <ele>152.80000305176</ele>
        <time>2021-05-22T10:58:13Z</time>
      </trkpt>
      <trkpt lat="43.32324" lon="6.30075">
        <ele>153.60000610352</ele>
        <time>2021-05-22T10:58:17Z</time>
      </trkpt>
      <trkpt lat="43.32313" lon="6.30065">
        <ele>154.19999694824</ele>
        <time>2021-05-22T10:58:21Z</time>
      </trkpt>
      <trkpt lat="43.32295" lon="6.30051">
        <ele>154.60000610352</ele>
        <time>2021-05-22T10:58:27Z</time>
      </trkpt>
      <trkpt lat="43.32283" lon="6.30042">
        <ele>155</ele>
        <time>2021-05-22T10:58:31Z</time>
      </trkpt>
      <trkpt lat="43.32268" lon="6.30031">
        <ele>155.60000610352</ele>
        <time>2021-05-22T10:58:36Z</time>
      </trkpt>
      <trkpt lat="43.3226" lon="6.30023">
        <ele>156.19999694824</ele>
        <time>2021-05-22T10:58:39Z</time>
      </trkpt>
      <trkpt lat="43.32254" lon="6.30019">
        <ele>156.80000305176</ele>
        <time>2021-05-22T10:58:41Z</time>
      </trkpt>
      <trkpt lat="43.32243" lon="6.30012">
        <ele>157.39999389648</ele>
        <time>2021-05-22T10:58:45Z</time>
      </trkpt>
      <trkpt lat="43.32241" lon="6.3001">
        <ele>157.39999389648</ele>
        <time>2021-05-22T10:58:46Z</time>
      </trkpt>
      <trkpt lat="43.32238" lon="6.30007">
        <ele>157.60000610352</ele>
        <time>2021-05-22T10:58:47Z</time>
      </trkpt>
      <trkpt lat="43.32233" lon="6.30003">
        <ele>157.60000610352</ele>
        <time>2021-05-22T10:58:49Z</time>
      </trkpt>
      <trkpt lat="43.32226" lon="6.29998">
        <ele>157.80000305176</ele>
        <time>2021-05-22T10:58:52Z</time>
      </trkpt>
      <trkpt lat="43.32222" lon="6.29994">
        <ele>158</ele>
        <time>2021-05-22T10:58:54Z</time>
      </trkpt>
      <trkpt lat="43.32197" lon="6.29974">
        <ele>158.80000305176</ele>
        <time>2021-05-22T10:59:04Z</time>
      </trkpt>
      <trkpt lat="43.32194" lon="6.29972">
        <ele>159.19999694824</ele>
        <time>2021-05-22T10:59:05Z</time>
      </trkpt>
      <trkpt lat="43.32182" lon="6.29967">
        <ele>160</ele>
        <time>2021-05-22T10:59:10Z</time>
      </trkpt>
      <trkpt lat="43.3218" lon="6.29966">
        <ele>160.19999694824</ele>
        <time>2021-05-22T10:59:11Z</time>
      </trkpt>
      <trkpt lat="43.3217" lon="6.29963">
        <ele>161.19999694824</ele>
        <time>2021-05-22T10:59:15Z</time>
      </trkpt>
      <trkpt lat="43.32165" lon="6.29962">
        <ele>161.60000610352</ele>
        <time>2021-05-22T10:59:17Z</time>
      </trkpt>
      <trkpt lat="43.32158" lon="6.29958">
        <ele>162.39999389648</ele>
        <time>2021-05-22T10:59:20Z</time>
      </trkpt>
      <trkpt lat="43.32152" lon="6.29951">
        <ele>163.19999694824</ele>
        <time>2021-05-22T10:59:24Z</time>
      </trkpt>
      <trkpt lat="43.32149" lon="6.29947">
        <ele>163.80000305176</ele>
        <time>2021-05-22T10:59:26Z</time>
      </trkpt>
      <trkpt lat="43.32138" lon="6.29936">
        <ele>164.19999694824</ele>
        <time>2021-05-22T10:59:31Z</time>
      </trkpt>
      <trkpt lat="43.32127" lon="6.29929">
        <ele>164.19999694824</ele>
        <time>2021-05-22T10:59:35Z</time>
      </trkpt>
      <trkpt lat="43.32125" lon="6.29927">
        <ele>164</ele>
        <time>2021-05-22T10:59:36Z</time>
      </trkpt>
      <trkpt lat="43.32121" lon="6.29924">
        <ele>164</ele>
        <time>2021-05-22T10:59:37Z</time>
      </trkpt>
      <trkpt lat="43.32106" lon="6.29915">
        <ele>163.80000305176</ele>
        <time>2021-05-22T10:59:41Z</time>
      </trkpt>
      <trkpt lat="43.32088" lon="6.299">
        <ele>163.60000610352</ele>
        <time>2021-05-22T10:59:47Z</time>
      </trkpt>
      <trkpt lat="43.32083" lon="6.29896">
        <ele>163.60000610352</ele>
        <time>2021-05-22T10:59:49Z</time>
      </trkpt>
      <trkpt lat="43.32077" lon="6.29892">
        <ele>163.80000305176</ele>
        <time>2021-05-22T10:59:51Z</time>
      </trkpt>
      <trkpt lat="43.32066" lon="6.29883">
        <ele>164.19999694824</ele>
        <time>2021-05-22T10:59:55Z</time>
      </trkpt>
      <trkpt lat="43.32045" lon="6.29868">
        <ele>164.80000305176</ele>
        <time>2021-05-22T11:00:02Z</time>
      </trkpt>
      <trkpt lat="43.32042" lon="6.29866">
        <ele>165</ele>
        <time>2021-05-22T11:00:03Z</time>
      </trkpt>
      <trkpt lat="43.32029" lon="6.29858">
        <ele>165.60000610352</ele>
        <time>2021-05-22T11:00:07Z</time>
      </trkpt>
      <trkpt lat="43.32022" lon="6.29855">
        <ele>166</ele>
        <time>2021-05-22T11:00:09Z</time>
      </trkpt>
      <trkpt lat="43.32016" lon="6.29851">
        <ele>166.19999694824</ele>
        <time>2021-05-22T11:00:11Z</time>
      </trkpt>
      <trkpt lat="43.32007" lon="6.29845">
        <ele>166.60000610352</ele>
        <time>2021-05-22T11:00:15Z</time>
      </trkpt>
      <trkpt lat="43.32001" lon="6.29842">
        <ele>167</ele>
        <time>2021-05-22T11:00:17Z</time>
      </trkpt>
      <trkpt lat="43.31998" lon="6.29841">
        <ele>167</ele>
        <time>2021-05-22T11:00:18Z</time>
      </trkpt>
      <trkpt lat="43.31995" lon="6.29839">
        <ele>167</ele>
        <time>2021-05-22T11:00:19Z</time>
      </trkpt>
      <trkpt lat="43.3199" lon="6.29837">
        <ele>167.39999389648</ele>
        <time>2021-05-22T11:00:21Z</time>
      </trkpt>
      <trkpt lat="43.31987" lon="6.29835">
        <ele>167.60000610352</ele>
        <time>2021-05-22T11:00:23Z</time>
      </trkpt>
      <trkpt lat="43.31976" lon="6.29833">
        <ele>168</ele>
        <time>2021-05-22T11:00:28Z</time>
      </trkpt>
      <trkpt lat="43.31975" lon="6.29832">
        <ele>168</ele>
        <time>2021-05-22T11:00:29Z</time>
      </trkpt>
      <trkpt lat="43.31973" lon="6.29831">
        <ele>168.19999694824</ele>
        <time>2021-05-22T11:00:30Z</time>
      </trkpt>
      <trkpt lat="43.31963" lon="6.29824">
        <ele>168.60000610352</ele>
        <time>2021-05-22T11:00:33Z</time>
      </trkpt>
      <trkpt lat="43.31949" lon="6.29815">
        <ele>169</ele>
        <time>2021-05-22T11:00:38Z</time>
      </trkpt>
      <trkpt lat="43.31946" lon="6.29813">
        <ele>169.19999694824</ele>
        <time>2021-05-22T11:00:39Z</time>
      </trkpt>
      <trkpt lat="43.31936" lon="6.2981">
        <ele>169.60000610352</ele>
        <time>2021-05-22T11:00:43Z</time>
      </trkpt>
      <trkpt lat="43.31923" lon="6.29802">
        <ele>170</ele>
        <time>2021-05-22T11:00:48Z</time>
      </trkpt>
      <trkpt lat="43.31915" lon="6.29798">
        <ele>170.19999694824</ele>
        <time>2021-05-22T11:00:51Z</time>
      </trkpt>
      <trkpt lat="43.31904" lon="6.29791">
        <ele>170.60000610352</ele>
        <time>2021-05-22T11:00:55Z</time>
      </trkpt>
      <trkpt lat="43.3188" lon="6.29777">
        <ele>171.19999694824</ele>
        <time>2021-05-22T11:01:04Z</time>
      </trkpt>
      <trkpt lat="43.31875" lon="6.29774">
        <ele>171.39999389648</ele>
        <time>2021-05-22T11:01:06Z</time>
      </trkpt>
      <trkpt lat="43.31856" lon="6.29763">
        <ele>172</ele>
        <time>2021-05-22T11:01:13Z</time>
      </trkpt>
      <trkpt lat="43.31845" lon="6.29758">
        <ele>172.39999389648</ele>
        <time>2021-05-22T11:01:17Z</time>
      </trkpt>
      <trkpt lat="43.31836" lon="6.29753">
        <ele>172.39999389648</ele>
        <time>2021-05-22T11:01:20Z</time>
      </trkpt>
      <trkpt lat="43.31833" lon="6.29751">
        <ele>172.39999389648</ele>
        <time>2021-05-22T11:01:21Z</time>
      </trkpt>
      <trkpt lat="43.31811" lon="6.2974">
        <ele>173</ele>
        <time>2021-05-22T11:01:29Z</time>
      </trkpt>
      <trkpt lat="43.31802" lon="6.29736">
        <ele>173.19999694824</ele>
        <time>2021-05-22T11:01:32Z</time>
      </trkpt>
      <trkpt lat="43.31796" lon="6.29733">
        <ele>173.39999389648</ele>
        <time>2021-05-22T11:01:34Z</time>
      </trkpt>
      <trkpt lat="43.31787" lon="6.29729">
        <ele>173.60000610352</ele>
        <time>2021-05-22T11:01:37Z</time>
      </trkpt>
      <trkpt lat="43.31781" lon="6.29727">
        <ele>173.80000305176</ele>
        <time>2021-05-22T11:01:39Z</time>
      </trkpt>
      <trkpt lat="43.31775" lon="6.29724">
        <ele>173.80000305176</ele>
        <time>2021-05-22T11:01:41Z</time>
      </trkpt>
      <trkpt lat="43.31772" lon="6.29723">
        <ele>174</ele>
        <time>2021-05-22T11:01:42Z</time>
      </trkpt>
      <trkpt lat="43.31764" lon="6.2972">
        <ele>174.39999389648</ele>
        <time>2021-05-22T11:01:45Z</time>
      </trkpt>
      <trkpt lat="43.31761" lon="6.29718">
        <ele>174.60000610352</ele>
        <time>2021-05-22T11:01:46Z</time>
      </trkpt>
      <trkpt lat="43.31743" lon="6.29719">
        <ele>175.39999389648</ele>
        <time>2021-05-22T11:01:52Z</time>
      </trkpt>
      <trkpt lat="43.31734" lon="6.29722">
        <ele>175.80000305176</ele>
        <time>2021-05-22T11:01:55Z</time>
      </trkpt>
      <trkpt lat="43.31726" lon="6.29725">
        <ele>176</ele>
        <time>2021-05-22T11:01:58Z</time>
      </trkpt>
      <trkpt lat="43.31706" lon="6.29727">
        <ele>176.80000305176</ele>
        <time>2021-05-22T11:02:05Z</time>
      </trkpt>
      <trkpt lat="43.31703" lon="6.29726">
        <ele>176.80000305176</ele>
        <time>2021-05-22T11:02:06Z</time>
      </trkpt>
      <trkpt lat="43.31687" lon="6.29716">
        <ele>177.19999694824</ele>
        <time>2021-05-22T11:02:12Z</time>
      </trkpt>
      <trkpt lat="43.31681" lon="6.29719">
        <ele>177.19999694824</ele>
        <time>2021-05-22T11:02:14Z</time>
      </trkpt>
      <trkpt lat="43.31676" lon="6.29726">
        <ele>177.19999694824</ele>
        <time>2021-05-22T11:02:16Z</time>
      </trkpt>
      <trkpt lat="43.31669" lon="6.29751">
        <ele>177.60000610352</ele>
        <time>2021-05-22T11:02:22Z</time>
      </trkpt>
      <trkpt lat="43.31668" lon="6.29759">
        <ele>177.80000305176</ele>
        <time>2021-05-22T11:02:24Z</time>
      </trkpt>
      <trkpt lat="43.31664" lon="6.29787">
        <ele>178.60000610352</ele>
        <time>2021-05-22T11:02:30Z</time>
      </trkpt>
      <trkpt lat="43.31661" lon="6.29794">
        <ele>179</ele>
        <time>2021-05-22T11:02:32Z</time>
      </trkpt>
      <trkpt lat="43.31656" lon="6.29798">
        <ele>179.19999694824</ele>
        <time>2021-05-22T11:02:34Z</time>
      </trkpt>
      <trkpt lat="43.31651" lon="6.29795">
        <ele>179.39999389648</ele>
        <time>2021-05-22T11:02:36Z</time>
      </trkpt>
      <trkpt lat="43.3165" lon="6.29791">
        <ele>179.60000610352</ele>
        <time>2021-05-22T11:02:37Z</time>
      </trkpt>
      <trkpt lat="43.31651" lon="6.29783">
        <ele>180.19999694824</ele>
        <time>2021-05-22T11:02:39Z</time>
      </trkpt>
      <trkpt lat="43.31652" lon="6.29769">
        <ele>180.80000305176</ele>
        <time>2021-05-22T11:02:42Z</time>
      </trkpt>
      <trkpt lat="43.31653" lon="6.2976">
        <ele>181</ele>
        <time>2021-05-22T11:02:44Z</time>
      </trkpt>
      <trkpt lat="43.31655" lon="6.29746">
        <ele>181.39999389648</ele>
        <time>2021-05-22T11:02:47Z</time>
      </trkpt>
      <trkpt lat="43.31656" lon="6.29737">
        <ele>181.39999389648</ele>
        <time>2021-05-22T11:02:49Z</time>
      </trkpt>
      <trkpt lat="43.31657" lon="6.29733">
        <ele>181.39999389648</ele>
        <time>2021-05-22T11:02:50Z</time>
      </trkpt>
      <trkpt lat="43.31658" lon="6.29729">
        <ele>181.60000610352</ele>
        <time>2021-05-22T11:02:51Z</time>
      </trkpt>
      <trkpt lat="43.31663" lon="6.29701">
        <ele>182</ele>
        <time>2021-05-22T11:02:57Z</time>
      </trkpt>
      <trkpt lat="43.31663" lon="6.29692">
        <ele>182.39999389648</ele>
        <time>2021-05-22T11:02:59Z</time>
      </trkpt>
      <trkpt lat="43.31658" lon="6.29681">
        <ele>182.80000305176</ele>
        <time>2021-05-22T11:03:02Z</time>
      </trkpt>
      <trkpt lat="43.31655" lon="6.29678">
        <ele>182.80000305176</ele>
        <time>2021-05-22T11:03:03Z</time>
      </trkpt>
      <trkpt lat="43.31636" lon="6.29664">
        <ele>183</ele>
        <time>2021-05-22T11:03:08Z</time>
      </trkpt>
      <trkpt lat="43.31625" lon="6.29656">
        <ele>183</ele>
        <time>2021-05-22T11:03:11Z</time>
      </trkpt>
      <trkpt lat="43.31616" lon="6.2965">
        <ele>182.80000305176</ele>
        <time>2021-05-22T11:03:14Z</time>
      </trkpt>
      <trkpt lat="43.31614" lon="6.29649">
        <ele>182.80000305176</ele>
        <time>2021-05-22T11:03:15Z</time>
      </trkpt>
      <trkpt lat="43.31614" lon="6.29648">
        <ele>182.80000305176</ele>
        <time>2021-05-22T11:03:16Z</time>
      </trkpt>
    </trkseg>
  </trk>
</gpx>